<?xml version="1.0" encoding="UTF-8" standalone="no" ?>
<gpx xmlns="http://www.topografix.com/GPX/1/1" xmlns:xsi="http://www.w3.org/2001/XMLSchema-instance" xsi:schemaLocation="http://www.topografix.com/GPX/1/1 http://www.topografix.com/GPX/1/1/gpx.xsd" version="1.1" creator="VisuGPX - https://www.visugpx.com">
  <metadata>
    <name>La Pays de Retz 2021_264km</name>
    <desc><![CDATA[Circuit de 264 km passant par:
Les Herbiers
Mesnard la Barotière
Vendrennes
Saint André Goule d'Oie
Chauché
Saint Denis la Chevasse
Les Lucs sur Boulogne
Beaufou
Saint Etienne du Bois
Touvois
Saint Etienne de Mer Morte
Bois de Cené
Saint Gervais
La Barre de Monts
Ile de Noirmoutier
Le passage du Gois
Le port du Bec
Boin
Port du Collet
Arthon en Retz
Chemeré
Saint Hilaire de Chaleons
D61 puis à gauche D64
Saint Mars de Coutais
Bouaye
Pont Saint Martin
La Chevrolière
Saint Philbert de Grand Lieu
Saint Colomban
Saint Philbert de Bouaine
Vieillevigne
Saint André Treize Voies
L'Herbergement
Les Brouzils
La Rabatelière par Benaston
Saint Fulgent
Mesnard la Barotière
Les Herbiers]]></desc>
  </metadata>
  <trk>
    <name><![CDATA[12646331-la pays de retz 2021 264km]]></name>
    <trkseg>
      <trkpt lat="46.86382" lon="-1.00562">
        <ele>120</ele>
        <time>2021-03-06T22:04:23Z</time>
      </trkpt>
      <trkpt lat="46.86335" lon="-1.00614">
        <ele>119</ele>
        <time>2021-03-06T22:04:33Z</time>
      </trkpt>
      <trkpt lat="46.86315" lon="-1.00632">
        <ele>119</ele>
        <time>2021-03-06T22:04:38Z</time>
      </trkpt>
      <trkpt lat="46.8627" lon="-1.00662">
        <ele>118</ele>
        <time>2021-03-06T22:04:46Z</time>
      </trkpt>
      <trkpt lat="46.86234" lon="-1.00681">
        <ele>117</ele>
        <time>2021-03-06T22:04:53Z</time>
      </trkpt>
      <trkpt lat="46.86182" lon="-1.00705">
        <ele>116</ele>
        <time>2021-03-06T22:05:03Z</time>
      </trkpt>
      <trkpt lat="46.86138" lon="-1.00732">
        <ele>116</ele>
        <time>2021-03-06T22:05:11Z</time>
      </trkpt>
      <trkpt lat="46.86094" lon="-1.00769">
        <ele>115</ele>
        <time>2021-03-06T22:05:20Z</time>
      </trkpt>
      <trkpt lat="46.86055" lon="-1.00815">
        <ele>114</ele>
        <time>2021-03-06T22:05:29Z</time>
      </trkpt>
      <trkpt lat="46.85999" lon="-1.00892">
        <ele>112</ele>
        <time>2021-03-06T22:05:43Z</time>
      </trkpt>
      <trkpt lat="46.85963" lon="-1.00951">
        <ele>113</ele>
        <time>2021-03-06T22:05:53Z</time>
      </trkpt>
      <trkpt lat="46.85957" lon="-1.00972">
        <ele>113</ele>
        <time>2021-03-06T22:05:55Z</time>
      </trkpt>
      <trkpt lat="46.85958" lon="-1.0098">
        <ele>113</ele>
        <time>2021-03-06T22:05:56Z</time>
      </trkpt>
      <trkpt lat="46.85955" lon="-1.00984">
        <ele>113</ele>
        <time>2021-03-06T22:05:57Z</time>
      </trkpt>
      <trkpt lat="46.85952" lon="-1.00985">
        <ele>113</ele>
        <time>2021-03-06T22:05:58Z</time>
      </trkpt>
      <trkpt lat="46.85946" lon="-1.00979">
        <ele>113</ele>
        <time>2021-03-06T22:05:59Z</time>
      </trkpt>
      <trkpt lat="46.85931" lon="-1.00971">
        <ele>113</ele>
        <time>2021-03-06T22:06:02Z</time>
      </trkpt>
      <trkpt lat="46.85879" lon="-1.00946">
        <ele>113</ele>
        <time>2021-03-06T22:06:12Z</time>
      </trkpt>
      <trkpt lat="46.85858" lon="-1.00941">
        <ele>113</ele>
        <time>2021-03-06T22:06:15Z</time>
      </trkpt>
      <trkpt lat="46.85854" lon="-1.00943">
        <ele>113</ele>
        <time>2021-03-06T22:06:16Z</time>
      </trkpt>
      <trkpt lat="46.8585" lon="-1.0095">
        <ele>113</ele>
        <time>2021-03-06T22:06:17Z</time>
      </trkpt>
      <trkpt lat="46.85826" lon="-1.01044">
        <ele>111</ele>
        <time>2021-03-06T22:06:29Z</time>
      </trkpt>
      <trkpt lat="46.85816" lon="-1.01095">
        <ele>111</ele>
        <time>2021-03-06T22:06:36Z</time>
      </trkpt>
      <trkpt lat="46.8581" lon="-1.01143">
        <ele>110</ele>
        <time>2021-03-06T22:06:42Z</time>
      </trkpt>
      <trkpt lat="46.85808" lon="-1.01187">
        <ele>110</ele>
        <time>2021-03-06T22:06:47Z</time>
      </trkpt>
      <trkpt lat="46.85809" lon="-1.01235">
        <ele>110</ele>
        <time>2021-03-06T22:06:53Z</time>
      </trkpt>
      <trkpt lat="46.85813" lon="-1.01276">
        <ele>110</ele>
        <time>2021-03-06T22:06:58Z</time>
      </trkpt>
      <trkpt lat="46.85818" lon="-1.01302">
        <ele>111</ele>
        <time>2021-03-06T22:07:01Z</time>
      </trkpt>
      <trkpt lat="46.85838" lon="-1.01378">
        <ele>110</ele>
        <time>2021-03-06T22:07:11Z</time>
      </trkpt>
      <trkpt lat="46.85856" lon="-1.01431">
        <ele>109</ele>
        <time>2021-03-06T22:07:18Z</time>
      </trkpt>
      <trkpt lat="46.85866" lon="-1.01449">
        <ele>109</ele>
        <time>2021-03-06T22:07:21Z</time>
      </trkpt>
      <trkpt lat="46.8587" lon="-1.01453">
        <ele>109</ele>
        <time>2021-03-06T22:07:22Z</time>
      </trkpt>
      <trkpt lat="46.85874" lon="-1.01461">
        <ele>109</ele>
        <time>2021-03-06T22:07:23Z</time>
      </trkpt>
      <trkpt lat="46.85874" lon="-1.01466">
        <ele>109</ele>
        <time>2021-03-06T22:07:24Z</time>
      </trkpt>
      <trkpt lat="46.8588" lon="-1.01474">
        <ele>109</ele>
        <time>2021-03-06T22:07:25Z</time>
      </trkpt>
      <trkpt lat="46.85919" lon="-1.01553">
        <ele>108</ele>
        <time>2021-03-06T22:07:37Z</time>
      </trkpt>
      <trkpt lat="46.85976" lon="-1.01709">
        <ele>109</ele>
        <time>2021-03-06T22:07:59Z</time>
      </trkpt>
      <trkpt lat="46.8606" lon="-1.01872">
        <ele>112</ele>
        <time>2021-03-06T22:08:24Z</time>
      </trkpt>
      <trkpt lat="46.86069" lon="-1.01886">
        <ele>112</ele>
        <time>2021-03-06T22:08:26Z</time>
      </trkpt>
      <trkpt lat="46.86075" lon="-1.01892">
        <ele>112</ele>
        <time>2021-03-06T22:08:27Z</time>
      </trkpt>
      <trkpt lat="46.86092" lon="-1.01896">
        <ele>113</ele>
        <time>2021-03-06T22:08:30Z</time>
      </trkpt>
      <trkpt lat="46.86095" lon="-1.01903">
        <ele>113</ele>
        <time>2021-03-06T22:08:31Z</time>
      </trkpt>
      <trkpt lat="46.86085" lon="-1.01909">
        <ele>113</ele>
        <time>2021-03-06T22:08:33Z</time>
      </trkpt>
      <trkpt lat="46.86087" lon="-1.01914">
        <ele>113</ele>
        <time>2021-03-06T22:08:34Z</time>
      </trkpt>
      <trkpt lat="46.86088" lon="-1.01926">
        <ele>113</ele>
        <time>2021-03-06T22:08:35Z</time>
      </trkpt>
      <trkpt lat="46.86084" lon="-1.01937">
        <ele>113</ele>
        <time>2021-03-06T22:08:37Z</time>
      </trkpt>
      <trkpt lat="46.86081" lon="-1.0194">
        <ele>113</ele>
        <time>2021-03-06T22:08:38Z</time>
      </trkpt>
      <trkpt lat="46.86077" lon="-1.01942">
        <ele>113</ele>
        <time>2021-03-06T22:08:38Z</time>
      </trkpt>
      <trkpt lat="46.86068" lon="-1.01939">
        <ele>113</ele>
        <time>2021-03-06T22:08:40Z</time>
      </trkpt>
      <trkpt lat="46.86063" lon="-1.0193">
        <ele>113</ele>
        <time>2021-03-06T22:08:41Z</time>
      </trkpt>
      <trkpt lat="46.86042" lon="-1.01947">
        <ele>113</ele>
        <time>2021-03-06T22:08:46Z</time>
      </trkpt>
      <trkpt lat="46.85953" lon="-1.02007">
        <ele>111</ele>
        <time>2021-03-06T22:09:03Z</time>
      </trkpt>
      <trkpt lat="46.85952" lon="-1.02016">
        <ele>110</ele>
        <time>2021-03-06T22:09:04Z</time>
      </trkpt>
      <trkpt lat="46.8594" lon="-1.02031">
        <ele>110</ele>
        <time>2021-03-06T22:09:07Z</time>
      </trkpt>
      <trkpt lat="46.85911" lon="-1.02085">
        <ele>108</ele>
        <time>2021-03-06T22:09:15Z</time>
      </trkpt>
      <trkpt lat="46.85905" lon="-1.02113">
        <ele>109</ele>
        <time>2021-03-06T22:09:19Z</time>
      </trkpt>
      <trkpt lat="46.85905" lon="-1.02132">
        <ele>109</ele>
        <time>2021-03-06T22:09:21Z</time>
      </trkpt>
      <trkpt lat="46.85902" lon="-1.02149">
        <ele>109</ele>
        <time>2021-03-06T22:09:23Z</time>
      </trkpt>
      <trkpt lat="46.859" lon="-1.02155">
        <ele>109</ele>
        <time>2021-03-06T22:09:24Z</time>
      </trkpt>
      <trkpt lat="46.85838" lon="-1.02267">
        <ele>110</ele>
        <time>2021-03-06T22:09:42Z</time>
      </trkpt>
      <trkpt lat="46.85853" lon="-1.02301">
        <ele>111</ele>
        <time>2021-03-06T22:09:47Z</time>
      </trkpt>
      <trkpt lat="46.85939" lon="-1.02451">
        <ele>111</ele>
        <time>2021-03-06T22:10:10Z</time>
      </trkpt>
      <trkpt lat="46.85942" lon="-1.02456">
        <ele>111</ele>
        <time>2021-03-06T22:10:11Z</time>
      </trkpt>
      <trkpt lat="46.85946" lon="-1.02454">
        <ele>111</ele>
        <time>2021-03-06T22:10:12Z</time>
      </trkpt>
      <trkpt lat="46.85953" lon="-1.02456">
        <ele>111</ele>
        <time>2021-03-06T22:10:13Z</time>
      </trkpt>
      <trkpt lat="46.85957" lon="-1.02464">
        <ele>111</ele>
        <time>2021-03-06T22:10:15Z</time>
      </trkpt>
      <trkpt lat="46.85958" lon="-1.0247">
        <ele>111</ele>
        <time>2021-03-06T22:10:15Z</time>
      </trkpt>
      <trkpt lat="46.85953" lon="-1.02481">
        <ele>111</ele>
        <time>2021-03-06T22:10:17Z</time>
      </trkpt>
      <trkpt lat="46.8595" lon="-1.02483">
        <ele>111</ele>
        <time>2021-03-06T22:10:17Z</time>
      </trkpt>
      <trkpt lat="46.85944" lon="-1.02483">
        <ele>111</ele>
        <time>2021-03-06T22:10:19Z</time>
      </trkpt>
      <trkpt lat="46.85941" lon="-1.0248">
        <ele>111</ele>
        <time>2021-03-06T22:10:19Z</time>
      </trkpt>
      <trkpt lat="46.85932" lon="-1.02498">
        <ele>111</ele>
        <time>2021-03-06T22:10:22Z</time>
      </trkpt>
      <trkpt lat="46.85888" lon="-1.02543">
        <ele>109</ele>
        <time>2021-03-06T22:10:31Z</time>
      </trkpt>
      <trkpt lat="46.85824" lon="-1.02616">
        <ele>108</ele>
        <time>2021-03-06T22:10:46Z</time>
      </trkpt>
      <trkpt lat="46.85801" lon="-1.02646">
        <ele>109</ele>
        <time>2021-03-06T22:10:51Z</time>
      </trkpt>
      <trkpt lat="46.85795" lon="-1.02658">
        <ele>109</ele>
        <time>2021-03-06T22:10:53Z</time>
      </trkpt>
      <trkpt lat="46.85796" lon="-1.02666">
        <ele>108</ele>
        <time>2021-03-06T22:10:54Z</time>
      </trkpt>
      <trkpt lat="46.85792" lon="-1.02671">
        <ele>108</ele>
        <time>2021-03-06T22:10:55Z</time>
      </trkpt>
      <trkpt lat="46.85796" lon="-1.02689">
        <ele>108</ele>
        <time>2021-03-06T22:10:57Z</time>
      </trkpt>
      <trkpt lat="46.85803" lon="-1.027">
        <ele>108</ele>
        <time>2021-03-06T22:10:59Z</time>
      </trkpt>
      <trkpt lat="46.85823" lon="-1.02723">
        <ele>107</ele>
        <time>2021-03-06T22:11:04Z</time>
      </trkpt>
      <trkpt lat="46.85829" lon="-1.02739">
        <ele>107</ele>
        <time>2021-03-06T22:11:06Z</time>
      </trkpt>
      <trkpt lat="46.85839" lon="-1.0279">
        <ele>107</ele>
        <time>2021-03-06T22:11:12Z</time>
      </trkpt>
      <trkpt lat="46.85862" lon="-1.02945">
        <ele>108</ele>
        <time>2021-03-06T22:11:32Z</time>
      </trkpt>
      <trkpt lat="46.8587" lon="-1.02978">
        <ele>108</ele>
        <time>2021-03-06T22:11:36Z</time>
      </trkpt>
      <trkpt lat="46.85883" lon="-1.03024">
        <ele>108</ele>
        <time>2021-03-06T22:11:42Z</time>
      </trkpt>
      <trkpt lat="46.85894" lon="-1.0309">
        <ele>107</ele>
        <time>2021-03-06T22:11:50Z</time>
      </trkpt>
      <trkpt lat="46.85898" lon="-1.0314">
        <ele>106</ele>
        <time>2021-03-06T22:11:56Z</time>
      </trkpt>
      <trkpt lat="46.85902" lon="-1.03159">
        <ele>106</ele>
        <time>2021-03-06T22:11:59Z</time>
      </trkpt>
      <trkpt lat="46.85969" lon="-1.03393">
        <ele>109</ele>
        <time>2021-03-06T22:12:30Z</time>
      </trkpt>
      <trkpt lat="46.85876" lon="-1.03544">
        <ele>106</ele>
        <time>2021-03-06T22:12:54Z</time>
      </trkpt>
      <trkpt lat="46.85869" lon="-1.0356">
        <ele>106</ele>
        <time>2021-03-06T22:12:57Z</time>
      </trkpt>
      <trkpt lat="46.85866" lon="-1.03575">
        <ele>106</ele>
        <time>2021-03-06T22:12:59Z</time>
      </trkpt>
      <trkpt lat="46.85858" lon="-1.0367">
        <ele>106</ele>
        <time>2021-03-06T22:13:10Z</time>
      </trkpt>
      <trkpt lat="46.85856" lon="-1.03677">
        <ele>106</ele>
        <time>2021-03-06T22:13:11Z</time>
      </trkpt>
      <trkpt lat="46.85987" lon="-1.03761">
        <ele>110</ele>
        <time>2021-03-06T22:13:37Z</time>
      </trkpt>
      <trkpt lat="46.85992" lon="-1.03766">
        <ele>110</ele>
        <time>2021-03-06T22:13:38Z</time>
      </trkpt>
      <trkpt lat="46.8598" lon="-1.03787">
        <ele>110</ele>
        <time>2021-03-06T22:13:41Z</time>
      </trkpt>
      <trkpt lat="46.85855" lon="-1.04091">
        <ele>108</ele>
        <time>2021-03-06T22:14:24Z</time>
      </trkpt>
      <trkpt lat="46.85712" lon="-1.04428">
        <ele>103</ele>
        <time>2021-03-06T22:15:13Z</time>
      </trkpt>
      <trkpt lat="46.85708" lon="-1.0444">
        <ele>103</ele>
        <time>2021-03-06T22:15:14Z</time>
      </trkpt>
      <trkpt lat="46.85712" lon="-1.04445">
        <ele>103</ele>
        <time>2021-03-06T22:15:15Z</time>
      </trkpt>
      <trkpt lat="46.85715" lon="-1.04459">
        <ele>104</ele>
        <time>2021-03-06T22:15:17Z</time>
      </trkpt>
      <trkpt lat="46.85713" lon="-1.04473">
        <ele>104</ele>
        <time>2021-03-06T22:15:19Z</time>
      </trkpt>
      <trkpt lat="46.85728" lon="-1.04492">
        <ele>104</ele>
        <time>2021-03-06T22:15:22Z</time>
      </trkpt>
      <trkpt lat="46.85732" lon="-1.04501">
        <ele>105</ele>
        <time>2021-03-06T22:15:23Z</time>
      </trkpt>
      <trkpt lat="46.8574" lon="-1.04553">
        <ele>104</ele>
        <time>2021-03-06T22:15:30Z</time>
      </trkpt>
      <trkpt lat="46.85741" lon="-1.04618">
        <ele>104</ele>
        <time>2021-03-06T22:15:38Z</time>
      </trkpt>
      <trkpt lat="46.85738" lon="-1.04657">
        <ele>103</ele>
        <time>2021-03-06T22:15:43Z</time>
      </trkpt>
      <trkpt lat="46.85721" lon="-1.04782">
        <ele>102</ele>
        <time>2021-03-06T22:15:58Z</time>
      </trkpt>
      <trkpt lat="46.85724" lon="-1.04825">
        <ele>102</ele>
        <time>2021-03-06T22:16:03Z</time>
      </trkpt>
      <trkpt lat="46.85739" lon="-1.04929">
        <ele>101</ele>
        <time>2021-03-06T22:16:16Z</time>
      </trkpt>
      <trkpt lat="46.85743" lon="-1.0493">
        <ele>101</ele>
        <time>2021-03-06T22:16:17Z</time>
      </trkpt>
      <trkpt lat="46.85747" lon="-1.04937">
        <ele>101</ele>
        <time>2021-03-06T22:16:18Z</time>
      </trkpt>
      <trkpt lat="46.85746" lon="-1.04945">
        <ele>100</ele>
        <time>2021-03-06T22:16:19Z</time>
      </trkpt>
      <trkpt lat="46.85742" lon="-1.04951">
        <ele>100</ele>
        <time>2021-03-06T22:16:20Z</time>
      </trkpt>
      <trkpt lat="46.85745" lon="-1.04963">
        <ele>100</ele>
        <time>2021-03-06T22:16:22Z</time>
      </trkpt>
      <trkpt lat="46.85747" lon="-1.04998">
        <ele>99</ele>
        <time>2021-03-06T22:16:26Z</time>
      </trkpt>
      <trkpt lat="46.8574" lon="-1.05153">
        <ele>99</ele>
        <time>2021-03-06T22:16:45Z</time>
      </trkpt>
      <trkpt lat="46.85724" lon="-1.05259">
        <ele>100</ele>
        <time>2021-03-06T22:16:58Z</time>
      </trkpt>
      <trkpt lat="46.85704" lon="-1.05351">
        <ele>99</ele>
        <time>2021-03-06T22:17:10Z</time>
      </trkpt>
      <trkpt lat="46.85701" lon="-1.05385">
        <ele>98</ele>
        <time>2021-03-06T22:17:14Z</time>
      </trkpt>
      <trkpt lat="46.85704" lon="-1.05438">
        <ele>97</ele>
        <time>2021-03-06T22:17:20Z</time>
      </trkpt>
      <trkpt lat="46.85735" lon="-1.05597">
        <ele>94</ele>
        <time>2021-03-06T22:17:41Z</time>
      </trkpt>
      <trkpt lat="46.85765" lon="-1.05715">
        <ele>93</ele>
        <time>2021-03-06T22:17:56Z</time>
      </trkpt>
      <trkpt lat="46.85773" lon="-1.05756">
        <ele>93</ele>
        <time>2021-03-06T22:18:01Z</time>
      </trkpt>
      <trkpt lat="46.8583" lon="-1.05952">
        <ele>93</ele>
        <time>2021-03-06T22:18:27Z</time>
      </trkpt>
      <trkpt lat="46.85841" lon="-1.06021">
        <ele>94</ele>
        <time>2021-03-06T22:18:36Z</time>
      </trkpt>
      <trkpt lat="46.85835" lon="-1.06104">
        <ele>96</ele>
        <time>2021-03-06T22:18:46Z</time>
      </trkpt>
      <trkpt lat="46.85818" lon="-1.06243">
        <ele>97</ele>
        <time>2021-03-06T22:19:03Z</time>
      </trkpt>
      <trkpt lat="46.85813" lon="-1.06502">
        <ele>99</ele>
        <time>2021-03-06T22:19:34Z</time>
      </trkpt>
      <trkpt lat="46.85805" lon="-1.06548">
        <ele>100</ele>
        <time>2021-03-06T22:19:40Z</time>
      </trkpt>
      <trkpt lat="46.85767" lon="-1.06678">
        <ele>101</ele>
        <time>2021-03-06T22:19:57Z</time>
      </trkpt>
      <trkpt lat="46.85676" lon="-1.07191">
        <ele>98</ele>
        <time>2021-03-06T22:21:02Z</time>
      </trkpt>
      <trkpt lat="46.8567" lon="-1.07275">
        <ele>97</ele>
        <time>2021-03-06T22:21:12Z</time>
      </trkpt>
      <trkpt lat="46.85673" lon="-1.07304">
        <ele>97</ele>
        <time>2021-03-06T22:21:16Z</time>
      </trkpt>
      <trkpt lat="46.85721" lon="-1.07539">
        <ele>95</ele>
        <time>2021-03-06T22:21:46Z</time>
      </trkpt>
      <trkpt lat="46.85728" lon="-1.07741">
        <ele>94</ele>
        <time>2021-03-06T22:22:10Z</time>
      </trkpt>
      <trkpt lat="46.85724" lon="-1.07875">
        <ele>95</ele>
        <time>2021-03-06T22:22:27Z</time>
      </trkpt>
      <trkpt lat="46.85726" lon="-1.07937">
        <ele>95</ele>
        <time>2021-03-06T22:22:34Z</time>
      </trkpt>
      <trkpt lat="46.85732" lon="-1.08003">
        <ele>95</ele>
        <time>2021-03-06T22:22:42Z</time>
      </trkpt>
      <trkpt lat="46.85741" lon="-1.0815">
        <ele>93</ele>
        <time>2021-03-06T22:23:00Z</time>
      </trkpt>
      <trkpt lat="46.85749" lon="-1.08203">
        <ele>93</ele>
        <time>2021-03-06T22:23:07Z</time>
      </trkpt>
      <trkpt lat="46.85807" lon="-1.08443">
        <ele>89</ele>
        <time>2021-03-06T22:23:38Z</time>
      </trkpt>
      <trkpt lat="46.85819" lon="-1.08482">
        <ele>89</ele>
        <time>2021-03-06T22:23:43Z</time>
      </trkpt>
      <trkpt lat="46.85833" lon="-1.08511">
        <ele>89</ele>
        <time>2021-03-06T22:23:47Z</time>
      </trkpt>
      <trkpt lat="46.8585" lon="-1.08537">
        <ele>89</ele>
        <time>2021-03-06T22:23:52Z</time>
      </trkpt>
      <trkpt lat="46.85848" lon="-1.08541">
        <ele>89</ele>
        <time>2021-03-06T22:23:52Z</time>
      </trkpt>
      <trkpt lat="46.85771" lon="-1.08697">
        <ele>85</ele>
        <time>2021-03-06T22:24:16Z</time>
      </trkpt>
      <trkpt lat="46.85746" lon="-1.08736">
        <ele>83</ele>
        <time>2021-03-06T22:24:22Z</time>
      </trkpt>
      <trkpt lat="46.85743" lon="-1.08742">
        <ele>83</ele>
        <time>2021-03-06T22:24:23Z</time>
      </trkpt>
      <trkpt lat="46.85741" lon="-1.0875">
        <ele>83</ele>
        <time>2021-03-06T22:24:24Z</time>
      </trkpt>
      <trkpt lat="46.85742" lon="-1.08768">
        <ele>82</ele>
        <time>2021-03-06T22:24:26Z</time>
      </trkpt>
      <trkpt lat="46.85749" lon="-1.08787">
        <ele>82</ele>
        <time>2021-03-06T22:24:29Z</time>
      </trkpt>
      <trkpt lat="46.85812" lon="-1.08876">
        <ele>80</ele>
        <time>2021-03-06T22:24:45Z</time>
      </trkpt>
      <trkpt lat="46.85823" lon="-1.08894">
        <ele>79</ele>
        <time>2021-03-06T22:24:47Z</time>
      </trkpt>
      <trkpt lat="46.85844" lon="-1.08944">
        <ele>79</ele>
        <time>2021-03-06T22:24:55Z</time>
      </trkpt>
      <trkpt lat="46.85854" lon="-1.08973">
        <ele>78</ele>
        <time>2021-03-06T22:24:59Z</time>
      </trkpt>
      <trkpt lat="46.85859" lon="-1.08993">
        <ele>78</ele>
        <time>2021-03-06T22:25:01Z</time>
      </trkpt>
      <trkpt lat="46.85861" lon="-1.09009">
        <ele>78</ele>
        <time>2021-03-06T22:25:03Z</time>
      </trkpt>
      <trkpt lat="46.85861" lon="-1.09021">
        <ele>78</ele>
        <time>2021-03-06T22:25:05Z</time>
      </trkpt>
      <trkpt lat="46.85862" lon="-1.09035">
        <ele>78</ele>
        <time>2021-03-06T22:25:06Z</time>
      </trkpt>
      <trkpt lat="46.85863" lon="-1.09136">
        <ele>80</ele>
        <time>2021-03-06T22:25:19Z</time>
      </trkpt>
      <trkpt lat="46.85865" lon="-1.09164">
        <ele>81</ele>
        <time>2021-03-06T22:25:22Z</time>
      </trkpt>
      <trkpt lat="46.85872" lon="-1.09205">
        <ele>82</ele>
        <time>2021-03-06T22:25:27Z</time>
      </trkpt>
      <trkpt lat="46.85878" lon="-1.09223">
        <ele>83</ele>
        <time>2021-03-06T22:25:30Z</time>
      </trkpt>
      <trkpt lat="46.85886" lon="-1.09246">
        <ele>83</ele>
        <time>2021-03-06T22:25:33Z</time>
      </trkpt>
      <trkpt lat="46.85933" lon="-1.09348">
        <ele>88</ele>
        <time>2021-03-06T22:25:48Z</time>
      </trkpt>
      <trkpt lat="46.85948" lon="-1.0939">
        <ele>88</ele>
        <time>2021-03-06T22:25:53Z</time>
      </trkpt>
      <trkpt lat="46.8595" lon="-1.09399">
        <ele>89</ele>
        <time>2021-03-06T22:25:55Z</time>
      </trkpt>
      <trkpt lat="46.85954" lon="-1.09414">
        <ele>89</ele>
        <time>2021-03-06T22:25:57Z</time>
      </trkpt>
      <trkpt lat="46.85959" lon="-1.09439">
        <ele>89</ele>
        <time>2021-03-06T22:26:00Z</time>
      </trkpt>
      <trkpt lat="46.85971" lon="-1.09502">
        <ele>88</ele>
        <time>2021-03-06T22:26:08Z</time>
      </trkpt>
      <trkpt lat="46.85973" lon="-1.0951">
        <ele>88</ele>
        <time>2021-03-06T22:26:09Z</time>
      </trkpt>
      <trkpt lat="46.85983" lon="-1.09568">
        <ele>89</ele>
        <time>2021-03-06T22:26:16Z</time>
      </trkpt>
      <trkpt lat="46.85985" lon="-1.09585">
        <ele>89</ele>
        <time>2021-03-06T22:26:18Z</time>
      </trkpt>
      <trkpt lat="46.85984" lon="-1.09598">
        <ele>89</ele>
        <time>2021-03-06T22:26:20Z</time>
      </trkpt>
      <trkpt lat="46.85981" lon="-1.09609">
        <ele>89</ele>
        <time>2021-03-06T22:26:21Z</time>
      </trkpt>
      <trkpt lat="46.85977" lon="-1.0962">
        <ele>90</ele>
        <time>2021-03-06T22:26:23Z</time>
      </trkpt>
      <trkpt lat="46.85966" lon="-1.09634">
        <ele>90</ele>
        <time>2021-03-06T22:26:25Z</time>
      </trkpt>
      <trkpt lat="46.85959" lon="-1.09643">
        <ele>91</ele>
        <time>2021-03-06T22:26:27Z</time>
      </trkpt>
      <trkpt lat="46.85952" lon="-1.09651">
        <ele>92</ele>
        <time>2021-03-06T22:26:28Z</time>
      </trkpt>
      <trkpt lat="46.85943" lon="-1.0966">
        <ele>92</ele>
        <time>2021-03-06T22:26:30Z</time>
      </trkpt>
      <trkpt lat="46.85975" lon="-1.09757">
        <ele>90</ele>
        <time>2021-03-06T22:26:44Z</time>
      </trkpt>
      <trkpt lat="46.85967" lon="-1.09794">
        <ele>90</ele>
        <time>2021-03-06T22:26:48Z</time>
      </trkpt>
      <trkpt lat="46.8597" lon="-1.09829">
        <ele>90</ele>
        <time>2021-03-06T22:26:53Z</time>
      </trkpt>
      <trkpt lat="46.85974" lon="-1.09844">
        <ele>90</ele>
        <time>2021-03-06T22:26:54Z</time>
      </trkpt>
      <trkpt lat="46.85974" lon="-1.0985">
        <ele>90</ele>
        <time>2021-03-06T22:26:55Z</time>
      </trkpt>
      <trkpt lat="46.859" lon="-1.09887">
        <ele>92</ele>
        <time>2021-03-06T22:27:09Z</time>
      </trkpt>
      <trkpt lat="46.85855" lon="-1.09907">
        <ele>94</ele>
        <time>2021-03-06T22:27:18Z</time>
      </trkpt>
      <trkpt lat="46.85848" lon="-1.09915">
        <ele>94</ele>
        <time>2021-03-06T22:27:19Z</time>
      </trkpt>
      <trkpt lat="46.85864" lon="-1.09953">
        <ele>94</ele>
        <time>2021-03-06T22:27:25Z</time>
      </trkpt>
      <trkpt lat="46.85879" lon="-1.10002">
        <ele>95</ele>
        <time>2021-03-06T22:27:31Z</time>
      </trkpt>
      <trkpt lat="46.85887" lon="-1.10017">
        <ele>95</ele>
        <time>2021-03-06T22:27:33Z</time>
      </trkpt>
      <trkpt lat="46.85827" lon="-1.1011">
        <ele>94</ele>
        <time>2021-03-06T22:27:49Z</time>
      </trkpt>
      <trkpt lat="46.85717" lon="-1.10177">
        <ele>95</ele>
        <time>2021-03-06T22:28:10Z</time>
      </trkpt>
      <trkpt lat="46.8565" lon="-1.10211">
        <ele>97</ele>
        <time>2021-03-06T22:28:23Z</time>
      </trkpt>
      <trkpt lat="46.85532" lon="-1.10256">
        <ele>99</ele>
        <time>2021-03-06T22:28:44Z</time>
      </trkpt>
      <trkpt lat="46.85489" lon="-1.10269">
        <ele>100</ele>
        <time>2021-03-06T22:28:52Z</time>
      </trkpt>
      <trkpt lat="46.85464" lon="-1.10273">
        <ele>101</ele>
        <time>2021-03-06T22:28:57Z</time>
      </trkpt>
      <trkpt lat="46.84954" lon="-1.1031">
        <ele>103</ele>
        <time>2021-03-06T22:30:28Z</time>
      </trkpt>
      <trkpt lat="46.84925" lon="-1.10319">
        <ele>103</ele>
        <time>2021-03-06T22:30:33Z</time>
      </trkpt>
      <trkpt lat="46.84762" lon="-1.10391">
        <ele>97</ele>
        <time>2021-03-06T22:31:03Z</time>
      </trkpt>
      <trkpt lat="46.84648" lon="-1.10428">
        <ele>96</ele>
        <time>2021-03-06T22:31:24Z</time>
      </trkpt>
      <trkpt lat="46.84525" lon="-1.10465">
        <ele>95</ele>
        <time>2021-03-06T22:31:46Z</time>
      </trkpt>
      <trkpt lat="46.84495" lon="-1.10479">
        <ele>95</ele>
        <time>2021-03-06T22:31:52Z</time>
      </trkpt>
      <trkpt lat="46.84472" lon="-1.10493">
        <ele>96</ele>
        <time>2021-03-06T22:31:56Z</time>
      </trkpt>
      <trkpt lat="46.84345" lon="-1.106">
        <ele>98</ele>
        <time>2021-03-06T22:32:22Z</time>
      </trkpt>
      <trkpt lat="46.83969" lon="-1.10928">
        <ele>95</ele>
        <time>2021-03-06T22:33:40Z</time>
      </trkpt>
      <trkpt lat="46.83944" lon="-1.10953">
        <ele>95</ele>
        <time>2021-03-06T22:33:46Z</time>
      </trkpt>
      <trkpt lat="46.83569" lon="-1.11418">
        <ele>96</ele>
        <time>2021-03-06T22:35:13Z</time>
      </trkpt>
      <trkpt lat="46.83545" lon="-1.11455">
        <ele>96</ele>
        <time>2021-03-06T22:35:19Z</time>
      </trkpt>
      <trkpt lat="46.83372" lon="-1.11855">
        <ele>99</ele>
        <time>2021-03-06T22:36:17Z</time>
      </trkpt>
      <trkpt lat="46.8335" lon="-1.11901">
        <ele>99</ele>
        <time>2021-03-06T22:36:24Z</time>
      </trkpt>
      <trkpt lat="46.83331" lon="-1.11931">
        <ele>98</ele>
        <time>2021-03-06T22:36:29Z</time>
      </trkpt>
      <trkpt lat="46.83312" lon="-1.11959">
        <ele>98</ele>
        <time>2021-03-06T22:36:34Z</time>
      </trkpt>
      <trkpt lat="46.83291" lon="-1.11983">
        <ele>97</ele>
        <time>2021-03-06T22:36:38Z</time>
      </trkpt>
      <trkpt lat="46.83257" lon="-1.12012">
        <ele>98</ele>
        <time>2021-03-06T22:36:45Z</time>
      </trkpt>
      <trkpt lat="46.83204" lon="-1.12047">
        <ele>97</ele>
        <time>2021-03-06T22:36:56Z</time>
      </trkpt>
      <trkpt lat="46.83152" lon="-1.12088">
        <ele>96</ele>
        <time>2021-03-06T22:37:06Z</time>
      </trkpt>
      <trkpt lat="46.82934" lon="-1.12306">
        <ele>89</ele>
        <time>2021-03-06T22:37:53Z</time>
      </trkpt>
      <trkpt lat="46.82835" lon="-1.12401">
        <ele>84</ele>
        <time>2021-03-06T22:38:14Z</time>
      </trkpt>
      <trkpt lat="46.82726" lon="-1.12467">
        <ele>83</ele>
        <time>2021-03-06T22:38:35Z</time>
      </trkpt>
      <trkpt lat="46.82713" lon="-1.12474">
        <ele>84</ele>
        <time>2021-03-06T22:38:38Z</time>
      </trkpt>
      <trkpt lat="46.82701" lon="-1.12476">
        <ele>84</ele>
        <time>2021-03-06T22:38:40Z</time>
      </trkpt>
      <trkpt lat="46.82691" lon="-1.12474">
        <ele>84</ele>
        <time>2021-03-06T22:38:42Z</time>
      </trkpt>
      <trkpt lat="46.82684" lon="-1.12469">
        <ele>84</ele>
        <time>2021-03-06T22:38:43Z</time>
      </trkpt>
      <trkpt lat="46.82675" lon="-1.12488">
        <ele>85</ele>
        <time>2021-03-06T22:38:46Z</time>
      </trkpt>
      <trkpt lat="46.82657" lon="-1.125">
        <ele>85</ele>
        <time>2021-03-06T22:38:49Z</time>
      </trkpt>
      <trkpt lat="46.82606" lon="-1.12527">
        <ele>85</ele>
        <time>2021-03-06T22:38:59Z</time>
      </trkpt>
      <trkpt lat="46.82577" lon="-1.12548">
        <ele>86</ele>
        <time>2021-03-06T22:39:05Z</time>
      </trkpt>
      <trkpt lat="46.82518" lon="-1.12609">
        <ele>87</ele>
        <time>2021-03-06T22:39:18Z</time>
      </trkpt>
      <trkpt lat="46.82485" lon="-1.12648">
        <ele>88</ele>
        <time>2021-03-06T22:39:25Z</time>
      </trkpt>
      <trkpt lat="46.82474" lon="-1.1267">
        <ele>89</ele>
        <time>2021-03-06T22:39:29Z</time>
      </trkpt>
      <trkpt lat="46.82472" lon="-1.12695">
        <ele>89</ele>
        <time>2021-03-06T22:39:32Z</time>
      </trkpt>
      <trkpt lat="46.82475" lon="-1.1274">
        <ele>88</ele>
        <time>2021-03-06T22:39:37Z</time>
      </trkpt>
      <trkpt lat="46.82475" lon="-1.12763">
        <ele>88</ele>
        <time>2021-03-06T22:39:40Z</time>
      </trkpt>
      <trkpt lat="46.82471" lon="-1.12786">
        <ele>88</ele>
        <time>2021-03-06T22:39:43Z</time>
      </trkpt>
      <trkpt lat="46.82448" lon="-1.12846">
        <ele>87</ele>
        <time>2021-03-06T22:39:51Z</time>
      </trkpt>
      <trkpt lat="46.82442" lon="-1.12874">
        <ele>87</ele>
        <time>2021-03-06T22:39:55Z</time>
      </trkpt>
      <trkpt lat="46.8244" lon="-1.12921">
        <ele>87</ele>
        <time>2021-03-06T22:40:00Z</time>
      </trkpt>
      <trkpt lat="46.82443" lon="-1.1296">
        <ele>87</ele>
        <time>2021-03-06T22:40:05Z</time>
      </trkpt>
      <trkpt lat="46.8245" lon="-1.13002">
        <ele>87</ele>
        <time>2021-03-06T22:40:11Z</time>
      </trkpt>
      <trkpt lat="46.82466" lon="-1.13064">
        <ele>88</ele>
        <time>2021-03-06T22:40:19Z</time>
      </trkpt>
      <trkpt lat="46.82489" lon="-1.13241">
        <ele>90</ele>
        <time>2021-03-06T22:40:41Z</time>
      </trkpt>
      <trkpt lat="46.82503" lon="-1.1357">
        <ele>94</ele>
        <time>2021-03-06T22:41:21Z</time>
      </trkpt>
      <trkpt lat="46.8251" lon="-1.13635">
        <ele>93</ele>
        <time>2021-03-06T22:41:29Z</time>
      </trkpt>
      <trkpt lat="46.82547" lon="-1.13796">
        <ele>92</ele>
        <time>2021-03-06T22:41:49Z</time>
      </trkpt>
      <trkpt lat="46.82564" lon="-1.1384">
        <ele>91</ele>
        <time>2021-03-06T22:41:55Z</time>
      </trkpt>
      <trkpt lat="46.82606" lon="-1.13922">
        <ele>89</ele>
        <time>2021-03-06T22:42:08Z</time>
      </trkpt>
      <trkpt lat="46.82638" lon="-1.13998">
        <ele>88</ele>
        <time>2021-03-06T22:42:19Z</time>
      </trkpt>
      <trkpt lat="46.82686" lon="-1.14094">
        <ele>87</ele>
        <time>2021-03-06T22:42:33Z</time>
      </trkpt>
      <trkpt lat="46.82737" lon="-1.14218">
        <ele>86</ele>
        <time>2021-03-06T22:42:51Z</time>
      </trkpt>
      <trkpt lat="46.8275" lon="-1.14263">
        <ele>85</ele>
        <time>2021-03-06T22:42:57Z</time>
      </trkpt>
      <trkpt lat="46.82759" lon="-1.14327">
        <ele>83</ele>
        <time>2021-03-06T22:43:05Z</time>
      </trkpt>
      <trkpt lat="46.82768" lon="-1.14368">
        <ele>82</ele>
        <time>2021-03-06T22:43:10Z</time>
      </trkpt>
      <trkpt lat="46.82785" lon="-1.14406">
        <ele>82</ele>
        <time>2021-03-06T22:43:16Z</time>
      </trkpt>
      <trkpt lat="46.82834" lon="-1.14482">
        <ele>81</ele>
        <time>2021-03-06T22:43:28Z</time>
      </trkpt>
      <trkpt lat="46.82859" lon="-1.14529">
        <ele>81</ele>
        <time>2021-03-06T22:43:36Z</time>
      </trkpt>
      <trkpt lat="46.82882" lon="-1.1458">
        <ele>81</ele>
        <time>2021-03-06T22:43:43Z</time>
      </trkpt>
      <trkpt lat="46.82893" lon="-1.14612">
        <ele>80</ele>
        <time>2021-03-06T22:43:47Z</time>
      </trkpt>
      <trkpt lat="46.82904" lon="-1.14655">
        <ele>79</ele>
        <time>2021-03-06T22:43:53Z</time>
      </trkpt>
      <trkpt lat="46.82932" lon="-1.14745">
        <ele>80</ele>
        <time>2021-03-06T22:44:05Z</time>
      </trkpt>
      <trkpt lat="46.82941" lon="-1.14786">
        <ele>79</ele>
        <time>2021-03-06T22:44:10Z</time>
      </trkpt>
      <trkpt lat="46.82953" lon="-1.14882">
        <ele>80</ele>
        <time>2021-03-06T22:44:22Z</time>
      </trkpt>
      <trkpt lat="46.82978" lon="-1.15028">
        <ele>81</ele>
        <time>2021-03-06T22:44:40Z</time>
      </trkpt>
      <trkpt lat="46.82988" lon="-1.1507">
        <ele>81</ele>
        <time>2021-03-06T22:44:46Z</time>
      </trkpt>
      <trkpt lat="46.82998" lon="-1.15084">
        <ele>82</ele>
        <time>2021-03-06T22:44:48Z</time>
      </trkpt>
      <trkpt lat="46.83012" lon="-1.15099">
        <ele>83</ele>
        <time>2021-03-06T22:44:51Z</time>
      </trkpt>
      <trkpt lat="46.83044" lon="-1.15122">
        <ele>84</ele>
        <time>2021-03-06T22:44:58Z</time>
      </trkpt>
      <trkpt lat="46.83055" lon="-1.15136">
        <ele>84</ele>
        <time>2021-03-06T22:45:00Z</time>
      </trkpt>
      <trkpt lat="46.83061" lon="-1.1515">
        <ele>85</ele>
        <time>2021-03-06T22:45:02Z</time>
      </trkpt>
      <trkpt lat="46.83064" lon="-1.15166">
        <ele>85</ele>
        <time>2021-03-06T22:45:04Z</time>
      </trkpt>
      <trkpt lat="46.83064" lon="-1.15182">
        <ele>85</ele>
        <time>2021-03-06T22:45:06Z</time>
      </trkpt>
      <trkpt lat="46.83062" lon="-1.15214">
        <ele>84</ele>
        <time>2021-03-06T22:45:10Z</time>
      </trkpt>
      <trkpt lat="46.83054" lon="-1.15253">
        <ele>84</ele>
        <time>2021-03-06T22:45:15Z</time>
      </trkpt>
      <trkpt lat="46.83045" lon="-1.15341">
        <ele>82</ele>
        <time>2021-03-06T22:45:26Z</time>
      </trkpt>
      <trkpt lat="46.83043" lon="-1.15399">
        <ele>79</ele>
        <time>2021-03-06T22:45:33Z</time>
      </trkpt>
      <trkpt lat="46.83046" lon="-1.1543">
        <ele>77</ele>
        <time>2021-03-06T22:45:37Z</time>
      </trkpt>
      <trkpt lat="46.83064" lon="-1.15493">
        <ele>75</ele>
        <time>2021-03-06T22:45:45Z</time>
      </trkpt>
      <trkpt lat="46.83102" lon="-1.15601">
        <ele>77</ele>
        <time>2021-03-06T22:46:00Z</time>
      </trkpt>
      <trkpt lat="46.83103" lon="-1.15614">
        <ele>78</ele>
        <time>2021-03-06T22:46:02Z</time>
      </trkpt>
      <trkpt lat="46.83091" lon="-1.15611">
        <ele>77</ele>
        <time>2021-03-06T22:46:04Z</time>
      </trkpt>
      <trkpt lat="46.83091" lon="-1.15659">
        <ele>78</ele>
        <time>2021-03-06T22:46:10Z</time>
      </trkpt>
      <trkpt lat="46.83094" lon="-1.15714">
        <ele>79</ele>
        <time>2021-03-06T22:46:16Z</time>
      </trkpt>
      <trkpt lat="46.83093" lon="-1.1572">
        <ele>79</ele>
        <time>2021-03-06T22:46:17Z</time>
      </trkpt>
      <trkpt lat="46.83091" lon="-1.15723">
        <ele>79</ele>
        <time>2021-03-06T22:46:18Z</time>
      </trkpt>
      <trkpt lat="46.82948" lon="-1.15747">
        <ele>78</ele>
        <time>2021-03-06T22:46:43Z</time>
      </trkpt>
      <trkpt lat="46.82941" lon="-1.15747">
        <ele>78</ele>
        <time>2021-03-06T22:46:44Z</time>
      </trkpt>
      <trkpt lat="46.82906" lon="-1.15765">
        <ele>78</ele>
        <time>2021-03-06T22:46:51Z</time>
      </trkpt>
      <trkpt lat="46.8288" lon="-1.15771">
        <ele>78</ele>
        <time>2021-03-06T22:46:56Z</time>
      </trkpt>
      <trkpt lat="46.82851" lon="-1.15775">
        <ele>78</ele>
        <time>2021-03-06T22:47:01Z</time>
      </trkpt>
      <trkpt lat="46.82827" lon="-1.15785">
        <ele>78</ele>
        <time>2021-03-06T22:47:05Z</time>
      </trkpt>
      <trkpt lat="46.82826" lon="-1.15803">
        <ele>79</ele>
        <time>2021-03-06T22:47:07Z</time>
      </trkpt>
      <trkpt lat="46.82816" lon="-1.15922">
        <ele>79</ele>
        <time>2021-03-06T22:47:22Z</time>
      </trkpt>
      <trkpt lat="46.82812" lon="-1.1598">
        <ele>80</ele>
        <time>2021-03-06T22:47:29Z</time>
      </trkpt>
      <trkpt lat="46.82813" lon="-1.16007">
        <ele>80</ele>
        <time>2021-03-06T22:47:32Z</time>
      </trkpt>
      <trkpt lat="46.82818" lon="-1.16025">
        <ele>80</ele>
        <time>2021-03-06T22:47:35Z</time>
      </trkpt>
      <trkpt lat="46.82823" lon="-1.16038">
        <ele>81</ele>
        <time>2021-03-06T22:47:37Z</time>
      </trkpt>
      <trkpt lat="46.82839" lon="-1.16069">
        <ele>81</ele>
        <time>2021-03-06T22:47:41Z</time>
      </trkpt>
      <trkpt lat="46.82848" lon="-1.16089">
        <ele>81</ele>
        <time>2021-03-06T22:47:44Z</time>
      </trkpt>
      <trkpt lat="46.82854" lon="-1.16106">
        <ele>81</ele>
        <time>2021-03-06T22:47:47Z</time>
      </trkpt>
      <trkpt lat="46.82866" lon="-1.1615">
        <ele>82</ele>
        <time>2021-03-06T22:47:52Z</time>
      </trkpt>
      <trkpt lat="46.82877" lon="-1.16195">
        <ele>83</ele>
        <time>2021-03-06T22:47:58Z</time>
      </trkpt>
      <trkpt lat="46.8288" lon="-1.16213">
        <ele>83</ele>
        <time>2021-03-06T22:48:00Z</time>
      </trkpt>
      <trkpt lat="46.82881" lon="-1.16229">
        <ele>83</ele>
        <time>2021-03-06T22:48:02Z</time>
      </trkpt>
      <trkpt lat="46.82881" lon="-1.16247">
        <ele>84</ele>
        <time>2021-03-06T22:48:05Z</time>
      </trkpt>
      <trkpt lat="46.82871" lon="-1.16328">
        <ele>87</ele>
        <time>2021-03-06T22:48:15Z</time>
      </trkpt>
      <trkpt lat="46.8287" lon="-1.16347">
        <ele>87</ele>
        <time>2021-03-06T22:48:17Z</time>
      </trkpt>
      <trkpt lat="46.82872" lon="-1.1647">
        <ele>88</ele>
        <time>2021-03-06T22:48:32Z</time>
      </trkpt>
      <trkpt lat="46.82872" lon="-1.16506">
        <ele>88</ele>
        <time>2021-03-06T22:48:36Z</time>
      </trkpt>
      <trkpt lat="46.82877" lon="-1.16751">
        <ele>91</ele>
        <time>2021-03-06T22:49:06Z</time>
      </trkpt>
      <trkpt lat="46.82881" lon="-1.16786">
        <ele>91</ele>
        <time>2021-03-06T22:49:10Z</time>
      </trkpt>
      <trkpt lat="46.82887" lon="-1.16816">
        <ele>91</ele>
        <time>2021-03-06T22:49:14Z</time>
      </trkpt>
      <trkpt lat="46.82893" lon="-1.16833">
        <ele>91</ele>
        <time>2021-03-06T22:49:17Z</time>
      </trkpt>
      <trkpt lat="46.82901" lon="-1.16848">
        <ele>92</ele>
        <time>2021-03-06T22:49:19Z</time>
      </trkpt>
      <trkpt lat="46.82911" lon="-1.16867">
        <ele>92</ele>
        <time>2021-03-06T22:49:22Z</time>
      </trkpt>
      <trkpt lat="46.82946" lon="-1.16919">
        <ele>92</ele>
        <time>2021-03-06T22:49:31Z</time>
      </trkpt>
      <trkpt lat="46.82958" lon="-1.1694">
        <ele>92</ele>
        <time>2021-03-06T22:49:34Z</time>
      </trkpt>
      <trkpt lat="46.82965" lon="-1.16955">
        <ele>92</ele>
        <time>2021-03-06T22:49:36Z</time>
      </trkpt>
      <trkpt lat="46.82977" lon="-1.16989">
        <ele>92</ele>
        <time>2021-03-06T22:49:41Z</time>
      </trkpt>
      <trkpt lat="46.82982" lon="-1.17004">
        <ele>92</ele>
        <time>2021-03-06T22:49:43Z</time>
      </trkpt>
      <trkpt lat="46.82983" lon="-1.17008">
        <ele>92</ele>
        <time>2021-03-06T22:49:43Z</time>
      </trkpt>
      <trkpt lat="46.83075" lon="-1.173">
        <ele>91</ele>
        <time>2021-03-06T22:50:23Z</time>
      </trkpt>
      <trkpt lat="46.83083" lon="-1.17336">
        <ele>91</ele>
        <time>2021-03-06T22:50:27Z</time>
      </trkpt>
      <trkpt lat="46.83088" lon="-1.17373">
        <ele>91</ele>
        <time>2021-03-06T22:50:32Z</time>
      </trkpt>
      <trkpt lat="46.83087" lon="-1.17418">
        <ele>90</ele>
        <time>2021-03-06T22:50:37Z</time>
      </trkpt>
      <trkpt lat="46.83076" lon="-1.17531">
        <ele>88</ele>
        <time>2021-03-06T22:50:51Z</time>
      </trkpt>
      <trkpt lat="46.83074" lon="-1.17575">
        <ele>87</ele>
        <time>2021-03-06T22:50:57Z</time>
      </trkpt>
      <trkpt lat="46.83079" lon="-1.17627">
        <ele>86</ele>
        <time>2021-03-06T22:51:03Z</time>
      </trkpt>
      <trkpt lat="46.83089" lon="-1.17698">
        <ele>86</ele>
        <time>2021-03-06T22:51:12Z</time>
      </trkpt>
      <trkpt lat="46.83106" lon="-1.1779">
        <ele>84</ele>
        <time>2021-03-06T22:51:23Z</time>
      </trkpt>
      <trkpt lat="46.83121" lon="-1.1784">
        <ele>83</ele>
        <time>2021-03-06T22:51:30Z</time>
      </trkpt>
      <trkpt lat="46.8317" lon="-1.17963">
        <ele>82</ele>
        <time>2021-03-06T22:51:47Z</time>
      </trkpt>
      <trkpt lat="46.832" lon="-1.18065">
        <ele>81</ele>
        <time>2021-03-06T22:52:01Z</time>
      </trkpt>
      <trkpt lat="46.83211" lon="-1.18116">
        <ele>81</ele>
        <time>2021-03-06T22:52:07Z</time>
      </trkpt>
      <trkpt lat="46.83221" lon="-1.18164">
        <ele>80</ele>
        <time>2021-03-06T22:52:13Z</time>
      </trkpt>
      <trkpt lat="46.83222" lon="-1.18168">
        <ele>80</ele>
        <time>2021-03-06T22:52:14Z</time>
      </trkpt>
      <trkpt lat="46.83228" lon="-1.18194">
        <ele>80</ele>
        <time>2021-03-06T22:52:17Z</time>
      </trkpt>
      <trkpt lat="46.83229" lon="-1.182">
        <ele>80</ele>
        <time>2021-03-06T22:52:18Z</time>
      </trkpt>
      <trkpt lat="46.83233" lon="-1.18212">
        <ele>80</ele>
        <time>2021-03-06T22:52:20Z</time>
      </trkpt>
      <trkpt lat="46.83237" lon="-1.18225">
        <ele>79</ele>
        <time>2021-03-06T22:52:21Z</time>
      </trkpt>
      <trkpt lat="46.83242" lon="-1.18236">
        <ele>79</ele>
        <time>2021-03-06T22:52:23Z</time>
      </trkpt>
      <trkpt lat="46.83246" lon="-1.18244">
        <ele>79</ele>
        <time>2021-03-06T22:52:24Z</time>
      </trkpt>
      <trkpt lat="46.83251" lon="-1.18255">
        <ele>79</ele>
        <time>2021-03-06T22:52:26Z</time>
      </trkpt>
      <trkpt lat="46.83262" lon="-1.1828">
        <ele>79</ele>
        <time>2021-03-06T22:52:29Z</time>
      </trkpt>
      <trkpt lat="46.83265" lon="-1.18289">
        <ele>79</ele>
        <time>2021-03-06T22:52:31Z</time>
      </trkpt>
      <trkpt lat="46.83266" lon="-1.18304">
        <ele>79</ele>
        <time>2021-03-06T22:52:33Z</time>
      </trkpt>
      <trkpt lat="46.83266" lon="-1.18328">
        <ele>79</ele>
        <time>2021-03-06T22:52:35Z</time>
      </trkpt>
      <trkpt lat="46.83268" lon="-1.1834">
        <ele>79</ele>
        <time>2021-03-06T22:52:37Z</time>
      </trkpt>
      <trkpt lat="46.83269" lon="-1.18347">
        <ele>79</ele>
        <time>2021-03-06T22:52:38Z</time>
      </trkpt>
      <trkpt lat="46.83272" lon="-1.1836">
        <ele>79</ele>
        <time>2021-03-06T22:52:39Z</time>
      </trkpt>
      <trkpt lat="46.83273" lon="-1.18366">
        <ele>79</ele>
        <time>2021-03-06T22:52:40Z</time>
      </trkpt>
      <trkpt lat="46.83297" lon="-1.1844">
        <ele>78</ele>
        <time>2021-03-06T22:52:50Z</time>
      </trkpt>
      <trkpt lat="46.83299" lon="-1.18446">
        <ele>78</ele>
        <time>2021-03-06T22:52:51Z</time>
      </trkpt>
      <trkpt lat="46.833" lon="-1.18455">
        <ele>78</ele>
        <time>2021-03-06T22:52:52Z</time>
      </trkpt>
      <trkpt lat="46.833" lon="-1.18471">
        <ele>78</ele>
        <time>2021-03-06T22:52:54Z</time>
      </trkpt>
      <trkpt lat="46.83299" lon="-1.18479">
        <ele>78</ele>
        <time>2021-03-06T22:52:55Z</time>
      </trkpt>
      <trkpt lat="46.83298" lon="-1.18483">
        <ele>77</ele>
        <time>2021-03-06T22:52:56Z</time>
      </trkpt>
      <trkpt lat="46.83295" lon="-1.18492">
        <ele>77</ele>
        <time>2021-03-06T22:52:57Z</time>
      </trkpt>
      <trkpt lat="46.83293" lon="-1.18498">
        <ele>77</ele>
        <time>2021-03-06T22:52:58Z</time>
      </trkpt>
      <trkpt lat="46.8329" lon="-1.18503">
        <ele>77</ele>
        <time>2021-03-06T22:52:58Z</time>
      </trkpt>
      <trkpt lat="46.83284" lon="-1.18513">
        <ele>77</ele>
        <time>2021-03-06T22:53:00Z</time>
      </trkpt>
      <trkpt lat="46.8328" lon="-1.18517">
        <ele>77</ele>
        <time>2021-03-06T22:53:01Z</time>
      </trkpt>
      <trkpt lat="46.83273" lon="-1.18526">
        <ele>77</ele>
        <time>2021-03-06T22:53:03Z</time>
      </trkpt>
      <trkpt lat="46.83261" lon="-1.18536">
        <ele>77</ele>
        <time>2021-03-06T22:53:05Z</time>
      </trkpt>
      <trkpt lat="46.83257" lon="-1.1854">
        <ele>77</ele>
        <time>2021-03-06T22:53:06Z</time>
      </trkpt>
      <trkpt lat="46.8325" lon="-1.18544">
        <ele>77</ele>
        <time>2021-03-06T22:53:07Z</time>
      </trkpt>
      <trkpt lat="46.83248" lon="-1.18546">
        <ele>77</ele>
        <time>2021-03-06T22:53:08Z</time>
      </trkpt>
      <trkpt lat="46.83239" lon="-1.18552">
        <ele>77</ele>
        <time>2021-03-06T22:53:09Z</time>
      </trkpt>
      <trkpt lat="46.83223" lon="-1.18563">
        <ele>77</ele>
        <time>2021-03-06T22:53:13Z</time>
      </trkpt>
      <trkpt lat="46.83201" lon="-1.1858">
        <ele>77</ele>
        <time>2021-03-06T22:53:17Z</time>
      </trkpt>
      <trkpt lat="46.83193" lon="-1.18589">
        <ele>77</ele>
        <time>2021-03-06T22:53:19Z</time>
      </trkpt>
      <trkpt lat="46.83192" lon="-1.1859">
        <ele>77</ele>
        <time>2021-03-06T22:53:19Z</time>
      </trkpt>
      <trkpt lat="46.83168" lon="-1.18634">
        <ele>77</ele>
        <time>2021-03-06T22:53:26Z</time>
      </trkpt>
      <trkpt lat="46.83159" lon="-1.18654">
        <ele>78</ele>
        <time>2021-03-06T22:53:29Z</time>
      </trkpt>
      <trkpt lat="46.83156" lon="-1.18661">
        <ele>78</ele>
        <time>2021-03-06T22:53:30Z</time>
      </trkpt>
      <trkpt lat="46.83143" lon="-1.18698">
        <ele>79</ele>
        <time>2021-03-06T22:53:35Z</time>
      </trkpt>
      <trkpt lat="46.83139" lon="-1.18724">
        <ele>79</ele>
        <time>2021-03-06T22:53:38Z</time>
      </trkpt>
      <trkpt lat="46.83142" lon="-1.1876">
        <ele>80</ele>
        <time>2021-03-06T22:53:43Z</time>
      </trkpt>
      <trkpt lat="46.83158" lon="-1.18822">
        <ele>81</ele>
        <time>2021-03-06T22:53:51Z</time>
      </trkpt>
      <trkpt lat="46.83161" lon="-1.18831">
        <ele>81</ele>
        <time>2021-03-06T22:53:52Z</time>
      </trkpt>
      <trkpt lat="46.83172" lon="-1.18856">
        <ele>81</ele>
        <time>2021-03-06T22:53:55Z</time>
      </trkpt>
      <trkpt lat="46.83179" lon="-1.1887">
        <ele>81</ele>
        <time>2021-03-06T22:53:58Z</time>
      </trkpt>
      <trkpt lat="46.83188" lon="-1.18887">
        <ele>81</ele>
        <time>2021-03-06T22:54:00Z</time>
      </trkpt>
      <trkpt lat="46.83231" lon="-1.18975">
        <ele>79</ele>
        <time>2021-03-06T22:54:13Z</time>
      </trkpt>
      <trkpt lat="46.83248" lon="-1.19001">
        <ele>79</ele>
        <time>2021-03-06T22:54:18Z</time>
      </trkpt>
      <trkpt lat="46.83252" lon="-1.19006">
        <ele>79</ele>
        <time>2021-03-06T22:54:19Z</time>
      </trkpt>
      <trkpt lat="46.83267" lon="-1.19025">
        <ele>79</ele>
        <time>2021-03-06T22:54:22Z</time>
      </trkpt>
      <trkpt lat="46.83281" lon="-1.19043">
        <ele>79</ele>
        <time>2021-03-06T22:54:25Z</time>
      </trkpt>
      <trkpt lat="46.83287" lon="-1.19051">
        <ele>79</ele>
        <time>2021-03-06T22:54:27Z</time>
      </trkpt>
      <trkpt lat="46.83298" lon="-1.19068">
        <ele>79</ele>
        <time>2021-03-06T22:54:30Z</time>
      </trkpt>
      <trkpt lat="46.833" lon="-1.1907">
        <ele>79</ele>
        <time>2021-03-06T22:54:30Z</time>
      </trkpt>
      <trkpt lat="46.83318" lon="-1.19096">
        <ele>79</ele>
        <time>2021-03-06T22:54:35Z</time>
      </trkpt>
      <trkpt lat="46.8332" lon="-1.19099">
        <ele>79</ele>
        <time>2021-03-06T22:54:35Z</time>
      </trkpt>
      <trkpt lat="46.83322" lon="-1.19102">
        <ele>79</ele>
        <time>2021-03-06T22:54:36Z</time>
      </trkpt>
      <trkpt lat="46.83324" lon="-1.19105">
        <ele>79</ele>
        <time>2021-03-06T22:54:36Z</time>
      </trkpt>
      <trkpt lat="46.83325" lon="-1.19106">
        <ele>80</ele>
        <time>2021-03-06T22:54:36Z</time>
      </trkpt>
      <trkpt lat="46.83334" lon="-1.19119">
        <ele>80</ele>
        <time>2021-03-06T22:54:39Z</time>
      </trkpt>
      <trkpt lat="46.83341" lon="-1.19131">
        <ele>79</ele>
        <time>2021-03-06T22:54:41Z</time>
      </trkpt>
      <trkpt lat="46.83353" lon="-1.19156">
        <ele>79</ele>
        <time>2021-03-06T22:54:44Z</time>
      </trkpt>
      <trkpt lat="46.83362" lon="-1.19176">
        <ele>79</ele>
        <time>2021-03-06T22:54:47Z</time>
      </trkpt>
      <trkpt lat="46.83363" lon="-1.19183">
        <ele>79</ele>
        <time>2021-03-06T22:54:48Z</time>
      </trkpt>
      <trkpt lat="46.83363" lon="-1.19188">
        <ele>78</ele>
        <time>2021-03-06T22:54:49Z</time>
      </trkpt>
      <trkpt lat="46.8334" lon="-1.19196">
        <ele>78</ele>
        <time>2021-03-06T22:54:53Z</time>
      </trkpt>
      <trkpt lat="46.83332" lon="-1.19197">
        <ele>78</ele>
        <time>2021-03-06T22:54:54Z</time>
      </trkpt>
      <trkpt lat="46.8332" lon="-1.19193">
        <ele>78</ele>
        <time>2021-03-06T22:54:57Z</time>
      </trkpt>
      <trkpt lat="46.83278" lon="-1.19173">
        <ele>77</ele>
        <time>2021-03-06T22:55:04Z</time>
      </trkpt>
      <trkpt lat="46.83276" lon="-1.19173">
        <ele>77</ele>
        <time>2021-03-06T22:55:05Z</time>
      </trkpt>
      <trkpt lat="46.83229" lon="-1.19221">
        <ele>75</ele>
        <time>2021-03-06T22:55:15Z</time>
      </trkpt>
      <trkpt lat="46.83292" lon="-1.19377">
        <ele>73</ele>
        <time>2021-03-06T22:55:37Z</time>
      </trkpt>
      <trkpt lat="46.83313" lon="-1.19423">
        <ele>72</ele>
        <time>2021-03-06T22:55:44Z</time>
      </trkpt>
      <trkpt lat="46.83316" lon="-1.19438">
        <ele>72</ele>
        <time>2021-03-06T22:55:46Z</time>
      </trkpt>
      <trkpt lat="46.83313" lon="-1.19458">
        <ele>72</ele>
        <time>2021-03-06T22:55:48Z</time>
      </trkpt>
      <trkpt lat="46.83276" lon="-1.19613">
        <ele>73</ele>
        <time>2021-03-06T22:56:08Z</time>
      </trkpt>
      <trkpt lat="46.83265" lon="-1.19678">
        <ele>73</ele>
        <time>2021-03-06T22:56:16Z</time>
      </trkpt>
      <trkpt lat="46.8326" lon="-1.19717">
        <ele>74</ele>
        <time>2021-03-06T22:56:21Z</time>
      </trkpt>
      <trkpt lat="46.83262" lon="-1.19747">
        <ele>75</ele>
        <time>2021-03-06T22:56:25Z</time>
      </trkpt>
      <trkpt lat="46.83272" lon="-1.19817">
        <ele>77</ele>
        <time>2021-03-06T22:56:33Z</time>
      </trkpt>
      <trkpt lat="46.83282" lon="-1.19904">
        <ele>78</ele>
        <time>2021-03-06T22:56:44Z</time>
      </trkpt>
      <trkpt lat="46.83282" lon="-1.19956">
        <ele>79</ele>
        <time>2021-03-06T22:56:51Z</time>
      </trkpt>
      <trkpt lat="46.8328" lon="-1.20025">
        <ele>80</ele>
        <time>2021-03-06T22:56:59Z</time>
      </trkpt>
      <trkpt lat="46.83282" lon="-1.20059">
        <ele>81</ele>
        <time>2021-03-06T22:57:03Z</time>
      </trkpt>
      <trkpt lat="46.83288" lon="-1.20148">
        <ele>82</ele>
        <time>2021-03-06T22:57:14Z</time>
      </trkpt>
      <trkpt lat="46.83289" lon="-1.2019">
        <ele>83</ele>
        <time>2021-03-06T22:57:19Z</time>
      </trkpt>
      <trkpt lat="46.8328" lon="-1.20234">
        <ele>84</ele>
        <time>2021-03-06T22:57:25Z</time>
      </trkpt>
      <trkpt lat="46.83259" lon="-1.20289">
        <ele>85</ele>
        <time>2021-03-06T22:57:32Z</time>
      </trkpt>
      <trkpt lat="46.83163" lon="-1.20507">
        <ele>84</ele>
        <time>2021-03-06T22:58:04Z</time>
      </trkpt>
      <trkpt lat="46.83087" lon="-1.20673">
        <ele>85</ele>
        <time>2021-03-06T22:58:28Z</time>
      </trkpt>
      <trkpt lat="46.83078" lon="-1.20714">
        <ele>85</ele>
        <time>2021-03-06T22:58:33Z</time>
      </trkpt>
      <trkpt lat="46.83076" lon="-1.20733">
        <ele>86</ele>
        <time>2021-03-06T22:58:36Z</time>
      </trkpt>
      <trkpt lat="46.83076" lon="-1.20767">
        <ele>86</ele>
        <time>2021-03-06T22:58:40Z</time>
      </trkpt>
      <trkpt lat="46.83078" lon="-1.20848">
        <ele>87</ele>
        <time>2021-03-06T22:58:50Z</time>
      </trkpt>
      <trkpt lat="46.83079" lon="-1.20891">
        <ele>86</ele>
        <time>2021-03-06T22:58:55Z</time>
      </trkpt>
      <trkpt lat="46.83078" lon="-1.20914">
        <ele>86</ele>
        <time>2021-03-06T22:58:58Z</time>
      </trkpt>
      <trkpt lat="46.83075" lon="-1.20941">
        <ele>86</ele>
        <time>2021-03-06T22:59:01Z</time>
      </trkpt>
      <trkpt lat="46.83079" lon="-1.20976">
        <ele>86</ele>
        <time>2021-03-06T22:59:06Z</time>
      </trkpt>
      <trkpt lat="46.83076" lon="-1.21046">
        <ele>85</ele>
        <time>2021-03-06T22:59:14Z</time>
      </trkpt>
      <trkpt lat="46.83069" lon="-1.21114">
        <ele>85</ele>
        <time>2021-03-06T22:59:22Z</time>
      </trkpt>
      <trkpt lat="46.83064" lon="-1.21148">
        <ele>85</ele>
        <time>2021-03-06T22:59:27Z</time>
      </trkpt>
      <trkpt lat="46.83033" lon="-1.21269">
        <ele>86</ele>
        <time>2021-03-06T22:59:42Z</time>
      </trkpt>
      <trkpt lat="46.83019" lon="-1.21322">
        <ele>86</ele>
        <time>2021-03-06T22:59:49Z</time>
      </trkpt>
      <trkpt lat="46.83001" lon="-1.21388">
        <ele>86</ele>
        <time>2021-03-06T22:59:58Z</time>
      </trkpt>
      <trkpt lat="46.82987" lon="-1.21419">
        <ele>86</ele>
        <time>2021-03-06T23:00:02Z</time>
      </trkpt>
      <trkpt lat="46.82965" lon="-1.21443">
        <ele>86</ele>
        <time>2021-03-06T23:00:07Z</time>
      </trkpt>
      <trkpt lat="46.82933" lon="-1.21461">
        <ele>87</ele>
        <time>2021-03-06T23:00:13Z</time>
      </trkpt>
      <trkpt lat="46.82915" lon="-1.21473">
        <ele>87</ele>
        <time>2021-03-06T23:00:17Z</time>
      </trkpt>
      <trkpt lat="46.82906" lon="-1.21479">
        <ele>87</ele>
        <time>2021-03-06T23:00:19Z</time>
      </trkpt>
      <trkpt lat="46.8289" lon="-1.21508">
        <ele>88</ele>
        <time>2021-03-06T23:00:23Z</time>
      </trkpt>
      <trkpt lat="46.82832" lon="-1.219">
        <ele>87</ele>
        <time>2021-03-06T23:01:12Z</time>
      </trkpt>
      <trkpt lat="46.82815" lon="-1.22019">
        <ele>86</ele>
        <time>2021-03-06T23:01:27Z</time>
      </trkpt>
      <trkpt lat="46.828" lon="-1.22122">
        <ele>86</ele>
        <time>2021-03-06T23:01:40Z</time>
      </trkpt>
      <trkpt lat="46.82797" lon="-1.22183">
        <ele>85</ele>
        <time>2021-03-06T23:01:47Z</time>
      </trkpt>
      <trkpt lat="46.82803" lon="-1.22264">
        <ele>85</ele>
        <time>2021-03-06T23:01:57Z</time>
      </trkpt>
      <trkpt lat="46.82808" lon="-1.22311">
        <ele>84</ele>
        <time>2021-03-06T23:02:03Z</time>
      </trkpt>
      <trkpt lat="46.82812" lon="-1.22352">
        <ele>84</ele>
        <time>2021-03-06T23:02:08Z</time>
      </trkpt>
      <trkpt lat="46.82814" lon="-1.22379">
        <ele>85</ele>
        <time>2021-03-06T23:02:11Z</time>
      </trkpt>
      <trkpt lat="46.82813" lon="-1.22428">
        <ele>84</ele>
        <time>2021-03-06T23:02:17Z</time>
      </trkpt>
      <trkpt lat="46.82808" lon="-1.22464">
        <ele>84</ele>
        <time>2021-03-06T23:02:22Z</time>
      </trkpt>
      <trkpt lat="46.82782" lon="-1.22594">
        <ele>81</ele>
        <time>2021-03-06T23:02:38Z</time>
      </trkpt>
      <trkpt lat="46.82774" lon="-1.22626">
        <ele>81</ele>
        <time>2021-03-06T23:02:42Z</time>
      </trkpt>
      <trkpt lat="46.82761" lon="-1.2269">
        <ele>81</ele>
        <time>2021-03-06T23:02:50Z</time>
      </trkpt>
      <trkpt lat="46.82757" lon="-1.22738">
        <ele>81</ele>
        <time>2021-03-06T23:02:56Z</time>
      </trkpt>
      <trkpt lat="46.82751" lon="-1.22849">
        <ele>83</ele>
        <time>2021-03-06T23:03:10Z</time>
      </trkpt>
      <trkpt lat="46.8275" lon="-1.22919">
        <ele>82</ele>
        <time>2021-03-06T23:03:18Z</time>
      </trkpt>
      <trkpt lat="46.82749" lon="-1.22978">
        <ele>82</ele>
        <time>2021-03-06T23:03:26Z</time>
      </trkpt>
      <trkpt lat="46.82745" lon="-1.23142">
        <ele>79</ele>
        <time>2021-03-06T23:03:46Z</time>
      </trkpt>
      <trkpt lat="46.82744" lon="-1.23213">
        <ele>77</ele>
        <time>2021-03-06T23:03:54Z</time>
      </trkpt>
      <trkpt lat="46.82742" lon="-1.2329">
        <ele>75</ele>
        <time>2021-03-06T23:04:04Z</time>
      </trkpt>
      <trkpt lat="46.82737" lon="-1.23393">
        <ele>75</ele>
        <time>2021-03-06T23:04:16Z</time>
      </trkpt>
      <trkpt lat="46.82717" lon="-1.23559">
        <ele>78</ele>
        <time>2021-03-06T23:04:37Z</time>
      </trkpt>
      <trkpt lat="46.82706" lon="-1.23618">
        <ele>78</ele>
        <time>2021-03-06T23:04:44Z</time>
      </trkpt>
      <trkpt lat="46.82661" lon="-1.23737">
        <ele>79</ele>
        <time>2021-03-06T23:05:01Z</time>
      </trkpt>
      <trkpt lat="46.8264" lon="-1.23787">
        <ele>79</ele>
        <time>2021-03-06T23:05:08Z</time>
      </trkpt>
      <trkpt lat="46.82603" lon="-1.23897">
        <ele>81</ele>
        <time>2021-03-06T23:05:23Z</time>
      </trkpt>
      <trkpt lat="46.82555" lon="-1.24014">
        <ele>81</ele>
        <time>2021-03-06T23:05:39Z</time>
      </trkpt>
      <trkpt lat="46.82536" lon="-1.24052">
        <ele>82</ele>
        <time>2021-03-06T23:05:45Z</time>
      </trkpt>
      <trkpt lat="46.82515" lon="-1.24083">
        <ele>83</ele>
        <time>2021-03-06T23:05:50Z</time>
      </trkpt>
      <trkpt lat="46.82499" lon="-1.24103">
        <ele>83</ele>
        <time>2021-03-06T23:05:54Z</time>
      </trkpt>
      <trkpt lat="46.82488" lon="-1.24122">
        <ele>82</ele>
        <time>2021-03-06T23:05:57Z</time>
      </trkpt>
      <trkpt lat="46.82477" lon="-1.24149">
        <ele>82</ele>
        <time>2021-03-06T23:06:01Z</time>
      </trkpt>
      <trkpt lat="46.82458" lon="-1.24207">
        <ele>82</ele>
        <time>2021-03-06T23:06:09Z</time>
      </trkpt>
      <trkpt lat="46.82417" lon="-1.2433">
        <ele>81</ele>
        <time>2021-03-06T23:06:25Z</time>
      </trkpt>
      <trkpt lat="46.82406" lon="-1.24353">
        <ele>81</ele>
        <time>2021-03-06T23:06:29Z</time>
      </trkpt>
      <trkpt lat="46.82394" lon="-1.24373">
        <ele>81</ele>
        <time>2021-03-06T23:06:32Z</time>
      </trkpt>
      <trkpt lat="46.82377" lon="-1.24394">
        <ele>81</ele>
        <time>2021-03-06T23:06:36Z</time>
      </trkpt>
      <trkpt lat="46.82347" lon="-1.24419">
        <ele>81</ele>
        <time>2021-03-06T23:06:42Z</time>
      </trkpt>
      <trkpt lat="46.82186" lon="-1.2451">
        <ele>79</ele>
        <time>2021-03-06T23:07:13Z</time>
      </trkpt>
      <trkpt lat="46.82182" lon="-1.24512">
        <ele>79</ele>
        <time>2021-03-06T23:07:14Z</time>
      </trkpt>
      <trkpt lat="46.82246" lon="-1.24666">
        <ele>79</ele>
        <time>2021-03-06T23:07:36Z</time>
      </trkpt>
      <trkpt lat="46.82295" lon="-1.24783">
        <ele>76</ele>
        <time>2021-03-06T23:07:52Z</time>
      </trkpt>
      <trkpt lat="46.82306" lon="-1.24816">
        <ele>76</ele>
        <time>2021-03-06T23:07:57Z</time>
      </trkpt>
      <trkpt lat="46.82314" lon="-1.24846">
        <ele>75</ele>
        <time>2021-03-06T23:08:01Z</time>
      </trkpt>
      <trkpt lat="46.82321" lon="-1.24887">
        <ele>75</ele>
        <time>2021-03-06T23:08:06Z</time>
      </trkpt>
      <trkpt lat="46.82327" lon="-1.24919">
        <ele>75</ele>
        <time>2021-03-06T23:08:10Z</time>
      </trkpt>
      <trkpt lat="46.82365" lon="-1.25143">
        <ele>74</ele>
        <time>2021-03-06T23:08:38Z</time>
      </trkpt>
      <trkpt lat="46.82398" lon="-1.25337">
        <ele>72</ele>
        <time>2021-03-06T23:09:02Z</time>
      </trkpt>
      <trkpt lat="46.82403" lon="-1.25358">
        <ele>72</ele>
        <time>2021-03-06T23:09:05Z</time>
      </trkpt>
      <trkpt lat="46.82414" lon="-1.25394">
        <ele>71</ele>
        <time>2021-03-06T23:09:10Z</time>
      </trkpt>
      <trkpt lat="46.82426" lon="-1.25422">
        <ele>71</ele>
        <time>2021-03-06T23:09:14Z</time>
      </trkpt>
      <trkpt lat="46.82451" lon="-1.25462">
        <ele>71</ele>
        <time>2021-03-06T23:09:20Z</time>
      </trkpt>
      <trkpt lat="46.82475" lon="-1.25489">
        <ele>70</ele>
        <time>2021-03-06T23:09:26Z</time>
      </trkpt>
      <trkpt lat="46.82487" lon="-1.255">
        <ele>70</ele>
        <time>2021-03-06T23:09:28Z</time>
      </trkpt>
      <trkpt lat="46.82674" lon="-1.25631">
        <ele>68</ele>
        <time>2021-03-06T23:10:05Z</time>
      </trkpt>
      <trkpt lat="46.82684" lon="-1.25642">
        <ele>68</ele>
        <time>2021-03-06T23:10:07Z</time>
      </trkpt>
      <trkpt lat="46.82701" lon="-1.25664">
        <ele>68</ele>
        <time>2021-03-06T23:10:12Z</time>
      </trkpt>
      <trkpt lat="46.82751" lon="-1.25745">
        <ele>69</ele>
        <time>2021-03-06T23:10:25Z</time>
      </trkpt>
      <trkpt lat="46.8277" lon="-1.25767">
        <ele>68</ele>
        <time>2021-03-06T23:10:29Z</time>
      </trkpt>
      <trkpt lat="46.82794" lon="-1.25787">
        <ele>68</ele>
        <time>2021-03-06T23:10:34Z</time>
      </trkpt>
      <trkpt lat="46.82939" lon="-1.25875">
        <ele>66</ele>
        <time>2021-03-06T23:11:02Z</time>
      </trkpt>
      <trkpt lat="46.82957" lon="-1.25888">
        <ele>66</ele>
        <time>2021-03-06T23:11:06Z</time>
      </trkpt>
      <trkpt lat="46.82976" lon="-1.25907">
        <ele>66</ele>
        <time>2021-03-06T23:11:10Z</time>
      </trkpt>
      <trkpt lat="46.8299" lon="-1.2593">
        <ele>66</ele>
        <time>2021-03-06T23:11:13Z</time>
      </trkpt>
      <trkpt lat="46.82999" lon="-1.2595">
        <ele>66</ele>
        <time>2021-03-06T23:11:16Z</time>
      </trkpt>
      <trkpt lat="46.83005" lon="-1.25968">
        <ele>66</ele>
        <time>2021-03-06T23:11:19Z</time>
      </trkpt>
      <trkpt lat="46.83047" lon="-1.26126">
        <ele>68</ele>
        <time>2021-03-06T23:11:39Z</time>
      </trkpt>
      <trkpt lat="46.83065" lon="-1.2617">
        <ele>69</ele>
        <time>2021-03-06T23:11:46Z</time>
      </trkpt>
      <trkpt lat="46.83125" lon="-1.26297">
        <ele>66</ele>
        <time>2021-03-06T23:12:04Z</time>
      </trkpt>
      <trkpt lat="46.83127" lon="-1.263">
        <ele>66</ele>
        <time>2021-03-06T23:12:05Z</time>
      </trkpt>
      <trkpt lat="46.83124" lon="-1.2631">
        <ele>66</ele>
        <time>2021-03-06T23:12:06Z</time>
      </trkpt>
      <trkpt lat="46.83118" lon="-1.26338">
        <ele>66</ele>
        <time>2021-03-06T23:12:10Z</time>
      </trkpt>
      <trkpt lat="46.83114" lon="-1.26369">
        <ele>66</ele>
        <time>2021-03-06T23:12:14Z</time>
      </trkpt>
      <trkpt lat="46.83113" lon="-1.26392">
        <ele>66</ele>
        <time>2021-03-06T23:12:16Z</time>
      </trkpt>
      <trkpt lat="46.8312" lon="-1.2657">
        <ele>63</ele>
        <time>2021-03-06T23:12:38Z</time>
      </trkpt>
      <trkpt lat="46.83121" lon="-1.2658">
        <ele>63</ele>
        <time>2021-03-06T23:12:39Z</time>
      </trkpt>
      <trkpt lat="46.83124" lon="-1.26668">
        <ele>60</ele>
        <time>2021-03-06T23:12:50Z</time>
      </trkpt>
      <trkpt lat="46.83126" lon="-1.26735">
        <ele>58</ele>
        <time>2021-03-06T23:12:58Z</time>
      </trkpt>
      <trkpt lat="46.83125" lon="-1.26758">
        <ele>58</ele>
        <time>2021-03-06T23:13:01Z</time>
      </trkpt>
      <trkpt lat="46.83122" lon="-1.26775">
        <ele>57</ele>
        <time>2021-03-06T23:13:03Z</time>
      </trkpt>
      <trkpt lat="46.83118" lon="-1.2679">
        <ele>56</ele>
        <time>2021-03-06T23:13:05Z</time>
      </trkpt>
      <trkpt lat="46.83107" lon="-1.26814">
        <ele>55</ele>
        <time>2021-03-06T23:13:09Z</time>
      </trkpt>
      <trkpt lat="46.83099" lon="-1.26833">
        <ele>55</ele>
        <time>2021-03-06T23:13:11Z</time>
      </trkpt>
      <trkpt lat="46.83079" lon="-1.26872">
        <ele>57</ele>
        <time>2021-03-06T23:13:17Z</time>
      </trkpt>
      <trkpt lat="46.83076" lon="-1.26878">
        <ele>57</ele>
        <time>2021-03-06T23:13:18Z</time>
      </trkpt>
      <trkpt lat="46.83062" lon="-1.26908">
        <ele>58</ele>
        <time>2021-03-06T23:13:23Z</time>
      </trkpt>
      <trkpt lat="46.83041" lon="-1.26945">
        <ele>61</ele>
        <time>2021-03-06T23:13:29Z</time>
      </trkpt>
      <trkpt lat="46.83023" lon="-1.26971">
        <ele>63</ele>
        <time>2021-03-06T23:13:33Z</time>
      </trkpt>
      <trkpt lat="46.83006" lon="-1.26989">
        <ele>64</ele>
        <time>2021-03-06T23:13:37Z</time>
      </trkpt>
      <trkpt lat="46.83002" lon="-1.26995">
        <ele>64</ele>
        <time>2021-03-06T23:13:38Z</time>
      </trkpt>
      <trkpt lat="46.83001" lon="-1.27">
        <ele>64</ele>
        <time>2021-03-06T23:13:38Z</time>
      </trkpt>
      <trkpt lat="46.83002" lon="-1.27001">
        <ele>64</ele>
        <time>2021-03-06T23:13:39Z</time>
      </trkpt>
      <trkpt lat="46.83003" lon="-1.27003">
        <ele>64</ele>
        <time>2021-03-06T23:13:39Z</time>
      </trkpt>
      <trkpt lat="46.83003" lon="-1.27006">
        <ele>64</ele>
        <time>2021-03-06T23:13:39Z</time>
      </trkpt>
      <trkpt lat="46.83003" lon="-1.27008">
        <ele>64</ele>
        <time>2021-03-06T23:13:40Z</time>
      </trkpt>
      <trkpt lat="46.83002" lon="-1.2701">
        <ele>64</ele>
        <time>2021-03-06T23:13:40Z</time>
      </trkpt>
      <trkpt lat="46.83001" lon="-1.27012">
        <ele>64</ele>
        <time>2021-03-06T23:13:40Z</time>
      </trkpt>
      <trkpt lat="46.82997" lon="-1.27013">
        <ele>65</ele>
        <time>2021-03-06T23:13:41Z</time>
      </trkpt>
      <trkpt lat="46.82993" lon="-1.27009">
        <ele>65</ele>
        <time>2021-03-06T23:13:42Z</time>
      </trkpt>
      <trkpt lat="46.82993" lon="-1.27007">
        <ele>65</ele>
        <time>2021-03-06T23:13:42Z</time>
      </trkpt>
      <trkpt lat="46.82989" lon="-1.27007">
        <ele>65</ele>
        <time>2021-03-06T23:13:43Z</time>
      </trkpt>
      <trkpt lat="46.8296" lon="-1.27022">
        <ele>66</ele>
        <time>2021-03-06T23:13:48Z</time>
      </trkpt>
      <trkpt lat="46.8295" lon="-1.27027">
        <ele>67</ele>
        <time>2021-03-06T23:13:50Z</time>
      </trkpt>
      <trkpt lat="46.82939" lon="-1.27032">
        <ele>68</ele>
        <time>2021-03-06T23:13:52Z</time>
      </trkpt>
      <trkpt lat="46.82936" lon="-1.27034">
        <ele>68</ele>
        <time>2021-03-06T23:13:53Z</time>
      </trkpt>
      <trkpt lat="46.82925" lon="-1.27039">
        <ele>69</ele>
        <time>2021-03-06T23:13:55Z</time>
      </trkpt>
      <trkpt lat="46.82922" lon="-1.2704">
        <ele>69</ele>
        <time>2021-03-06T23:13:55Z</time>
      </trkpt>
      <trkpt lat="46.82915" lon="-1.27053">
        <ele>70</ele>
        <time>2021-03-06T23:13:57Z</time>
      </trkpt>
      <trkpt lat="46.82914" lon="-1.27065">
        <ele>70</ele>
        <time>2021-03-06T23:13:59Z</time>
      </trkpt>
      <trkpt lat="46.8292" lon="-1.27091">
        <ele>71</ele>
        <time>2021-03-06T23:14:02Z</time>
      </trkpt>
      <trkpt lat="46.82926" lon="-1.27113">
        <ele>71</ele>
        <time>2021-03-06T23:14:05Z</time>
      </trkpt>
      <trkpt lat="46.82942" lon="-1.27158">
        <ele>72</ele>
        <time>2021-03-06T23:14:11Z</time>
      </trkpt>
      <trkpt lat="46.82944" lon="-1.27183">
        <ele>72</ele>
        <time>2021-03-06T23:14:14Z</time>
      </trkpt>
      <trkpt lat="46.82934" lon="-1.27224">
        <ele>72</ele>
        <time>2021-03-06T23:14:20Z</time>
      </trkpt>
      <trkpt lat="46.8293" lon="-1.27257">
        <ele>72</ele>
        <time>2021-03-06T23:14:24Z</time>
      </trkpt>
      <trkpt lat="46.82925" lon="-1.27271">
        <ele>72</ele>
        <time>2021-03-06T23:14:26Z</time>
      </trkpt>
      <trkpt lat="46.82884" lon="-1.27306">
        <ele>71</ele>
        <time>2021-03-06T23:14:34Z</time>
      </trkpt>
      <trkpt lat="46.82877" lon="-1.2732">
        <ele>70</ele>
        <time>2021-03-06T23:14:36Z</time>
      </trkpt>
      <trkpt lat="46.82876" lon="-1.27329">
        <ele>70</ele>
        <time>2021-03-06T23:14:37Z</time>
      </trkpt>
      <trkpt lat="46.82908" lon="-1.27499">
        <ele>67</ele>
        <time>2021-03-06T23:14:59Z</time>
      </trkpt>
      <trkpt lat="46.82908" lon="-1.27547">
        <ele>67</ele>
        <time>2021-03-06T23:15:04Z</time>
      </trkpt>
      <trkpt lat="46.82892" lon="-1.27603">
        <ele>66</ele>
        <time>2021-03-06T23:15:12Z</time>
      </trkpt>
      <trkpt lat="46.82905" lon="-1.2764">
        <ele>67</ele>
        <time>2021-03-06T23:15:17Z</time>
      </trkpt>
      <trkpt lat="46.82914" lon="-1.27675">
        <ele>68</ele>
        <time>2021-03-06T23:15:22Z</time>
      </trkpt>
      <trkpt lat="46.82921" lon="-1.27729">
        <ele>69</ele>
        <time>2021-03-06T23:15:28Z</time>
      </trkpt>
      <trkpt lat="46.82926" lon="-1.27833">
        <ele>68</ele>
        <time>2021-03-06T23:15:41Z</time>
      </trkpt>
      <trkpt lat="46.82934" lon="-1.28055">
        <ele>69</ele>
        <time>2021-03-06T23:16:08Z</time>
      </trkpt>
      <trkpt lat="46.8295" lon="-1.28188">
        <ele>70</ele>
        <time>2021-03-06T23:16:24Z</time>
      </trkpt>
      <trkpt lat="46.82953" lon="-1.28258">
        <ele>71</ele>
        <time>2021-03-06T23:16:33Z</time>
      </trkpt>
      <trkpt lat="46.82923" lon="-1.28493">
        <ele>72</ele>
        <time>2021-03-06T23:17:02Z</time>
      </trkpt>
      <trkpt lat="46.82865" lon="-1.28987">
        <ele>67</ele>
        <time>2021-03-06T23:18:03Z</time>
      </trkpt>
      <trkpt lat="46.82861" lon="-1.29037">
        <ele>67</ele>
        <time>2021-03-06T23:18:09Z</time>
      </trkpt>
      <trkpt lat="46.82861" lon="-1.29073">
        <ele>67</ele>
        <time>2021-03-06T23:18:14Z</time>
      </trkpt>
      <trkpt lat="46.82864" lon="-1.29105">
        <ele>67</ele>
        <time>2021-03-06T23:18:17Z</time>
      </trkpt>
      <trkpt lat="46.8289" lon="-1.29296">
        <ele>70</ele>
        <time>2021-03-06T23:18:41Z</time>
      </trkpt>
      <trkpt lat="46.82957" lon="-1.29737">
        <ele>72</ele>
        <time>2021-03-06T23:19:36Z</time>
      </trkpt>
      <trkpt lat="46.82979" lon="-1.2983">
        <ele>73</ele>
        <time>2021-03-06T23:19:48Z</time>
      </trkpt>
      <trkpt lat="46.82985" lon="-1.29867">
        <ele>75</ele>
        <time>2021-03-06T23:19:53Z</time>
      </trkpt>
      <trkpt lat="46.82996" lon="-1.29984">
        <ele>77</ele>
        <time>2021-03-06T23:20:07Z</time>
      </trkpt>
      <trkpt lat="46.83001" lon="-1.30013">
        <ele>77</ele>
        <time>2021-03-06T23:20:11Z</time>
      </trkpt>
      <trkpt lat="46.83007" lon="-1.30042">
        <ele>76</ele>
        <time>2021-03-06T23:20:14Z</time>
      </trkpt>
      <trkpt lat="46.83018" lon="-1.30072">
        <ele>76</ele>
        <time>2021-03-06T23:20:19Z</time>
      </trkpt>
      <trkpt lat="46.83169" lon="-1.3044">
        <ele>79</ele>
        <time>2021-03-06T23:21:11Z</time>
      </trkpt>
      <trkpt lat="46.832" lon="-1.30504">
        <ele>79</ele>
        <time>2021-03-06T23:21:20Z</time>
      </trkpt>
      <trkpt lat="46.83207" lon="-1.30525">
        <ele>79</ele>
        <time>2021-03-06T23:21:23Z</time>
      </trkpt>
      <trkpt lat="46.8326" lon="-1.30704">
        <ele>77</ele>
        <time>2021-03-06T23:21:47Z</time>
      </trkpt>
      <trkpt lat="46.8329" lon="-1.30769">
        <ele>77</ele>
        <time>2021-03-06T23:21:57Z</time>
      </trkpt>
      <trkpt lat="46.83315" lon="-1.30814">
        <ele>77</ele>
        <time>2021-03-06T23:22:04Z</time>
      </trkpt>
      <trkpt lat="46.83344" lon="-1.30858">
        <ele>77</ele>
        <time>2021-03-06T23:22:11Z</time>
      </trkpt>
      <trkpt lat="46.8336" lon="-1.30892">
        <ele>77</ele>
        <time>2021-03-06T23:22:16Z</time>
      </trkpt>
      <trkpt lat="46.83372" lon="-1.30934">
        <ele>77</ele>
        <time>2021-03-06T23:22:22Z</time>
      </trkpt>
      <trkpt lat="46.83447" lon="-1.31258">
        <ele>75</ele>
        <time>2021-03-06T23:23:03Z</time>
      </trkpt>
      <trkpt lat="46.83464" lon="-1.31315">
        <ele>75</ele>
        <time>2021-03-06T23:23:11Z</time>
      </trkpt>
      <trkpt lat="46.83475" lon="-1.31345">
        <ele>75</ele>
        <time>2021-03-06T23:23:15Z</time>
      </trkpt>
      <trkpt lat="46.83525" lon="-1.31455">
        <ele>76</ele>
        <time>2021-03-06T23:23:31Z</time>
      </trkpt>
      <trkpt lat="46.83533" lon="-1.31478">
        <ele>76</ele>
        <time>2021-03-06T23:23:34Z</time>
      </trkpt>
      <trkpt lat="46.83539" lon="-1.31501">
        <ele>77</ele>
        <time>2021-03-06T23:23:37Z</time>
      </trkpt>
      <trkpt lat="46.83542" lon="-1.31525">
        <ele>77</ele>
        <time>2021-03-06T23:23:40Z</time>
      </trkpt>
      <trkpt lat="46.83543" lon="-1.31544">
        <ele>77</ele>
        <time>2021-03-06T23:23:42Z</time>
      </trkpt>
      <trkpt lat="46.8354" lon="-1.3159">
        <ele>77</ele>
        <time>2021-03-06T23:23:48Z</time>
      </trkpt>
      <trkpt lat="46.83507" lon="-1.31826">
        <ele>79</ele>
        <time>2021-03-06T23:24:17Z</time>
      </trkpt>
      <trkpt lat="46.83491" lon="-1.3191">
        <ele>77</ele>
        <time>2021-03-06T23:24:28Z</time>
      </trkpt>
      <trkpt lat="46.8348" lon="-1.31955">
        <ele>77</ele>
        <time>2021-03-06T23:24:34Z</time>
      </trkpt>
      <trkpt lat="46.83281" lon="-1.32547">
        <ele>83</ele>
        <time>2021-03-06T23:25:54Z</time>
      </trkpt>
      <trkpt lat="46.83222" lon="-1.32689">
        <ele>79</ele>
        <time>2021-03-06T23:26:14Z</time>
      </trkpt>
      <trkpt lat="46.8321" lon="-1.32726">
        <ele>78</ele>
        <time>2021-03-06T23:26:19Z</time>
      </trkpt>
      <trkpt lat="46.83203" lon="-1.3276">
        <ele>78</ele>
        <time>2021-03-06T23:26:24Z</time>
      </trkpt>
      <trkpt lat="46.83201" lon="-1.32801">
        <ele>78</ele>
        <time>2021-03-06T23:26:29Z</time>
      </trkpt>
      <trkpt lat="46.83202" lon="-1.32844">
        <ele>78</ele>
        <time>2021-03-06T23:26:34Z</time>
      </trkpt>
      <trkpt lat="46.83228" lon="-1.33196">
        <ele>77</ele>
        <time>2021-03-06T23:27:17Z</time>
      </trkpt>
      <trkpt lat="46.83228" lon="-1.3322">
        <ele>77</ele>
        <time>2021-03-06T23:27:20Z</time>
      </trkpt>
      <trkpt lat="46.83226" lon="-1.33244">
        <ele>78</ele>
        <time>2021-03-06T23:27:23Z</time>
      </trkpt>
      <trkpt lat="46.83208" lon="-1.3332">
        <ele>78</ele>
        <time>2021-03-06T23:27:33Z</time>
      </trkpt>
      <trkpt lat="46.83207" lon="-1.33344">
        <ele>77</ele>
        <time>2021-03-06T23:27:36Z</time>
      </trkpt>
      <trkpt lat="46.83209" lon="-1.33373">
        <ele>77</ele>
        <time>2021-03-06T23:27:39Z</time>
      </trkpt>
      <trkpt lat="46.83215" lon="-1.33398">
        <ele>77</ele>
        <time>2021-03-06T23:27:42Z</time>
      </trkpt>
      <trkpt lat="46.83255" lon="-1.33513">
        <ele>76</ele>
        <time>2021-03-06T23:27:58Z</time>
      </trkpt>
      <trkpt lat="46.83263" lon="-1.33537">
        <ele>77</ele>
        <time>2021-03-06T23:28:01Z</time>
      </trkpt>
      <trkpt lat="46.83268" lon="-1.3356">
        <ele>77</ele>
        <time>2021-03-06T23:28:04Z</time>
      </trkpt>
      <trkpt lat="46.83269" lon="-1.33582">
        <ele>78</ele>
        <time>2021-03-06T23:28:07Z</time>
      </trkpt>
      <trkpt lat="46.83268" lon="-1.33605">
        <ele>78</ele>
        <time>2021-03-06T23:28:10Z</time>
      </trkpt>
      <trkpt lat="46.83241" lon="-1.33809">
        <ele>78</ele>
        <time>2021-03-06T23:28:35Z</time>
      </trkpt>
      <trkpt lat="46.83237" lon="-1.33846">
        <ele>78</ele>
        <time>2021-03-06T23:28:40Z</time>
      </trkpt>
      <trkpt lat="46.83236" lon="-1.33896">
        <ele>78</ele>
        <time>2021-03-06T23:28:46Z</time>
      </trkpt>
      <trkpt lat="46.8324" lon="-1.34112">
        <ele>77</ele>
        <time>2021-03-06T23:29:12Z</time>
      </trkpt>
      <trkpt lat="46.83243" lon="-1.34153">
        <ele>78</ele>
        <time>2021-03-06T23:29:17Z</time>
      </trkpt>
      <trkpt lat="46.83249" lon="-1.34194">
        <ele>78</ele>
        <time>2021-03-06T23:29:22Z</time>
      </trkpt>
      <trkpt lat="46.83261" lon="-1.34252">
        <ele>77</ele>
        <time>2021-03-06T23:29:29Z</time>
      </trkpt>
      <trkpt lat="46.83306" lon="-1.34465">
        <ele>76</ele>
        <time>2021-03-06T23:29:57Z</time>
      </trkpt>
      <trkpt lat="46.83316" lon="-1.34489">
        <ele>76</ele>
        <time>2021-03-06T23:30:00Z</time>
      </trkpt>
      <trkpt lat="46.83197" lon="-1.3461">
        <ele>79</ele>
        <time>2021-03-06T23:30:26Z</time>
      </trkpt>
      <trkpt lat="46.83149" lon="-1.34662">
        <ele>78</ele>
        <time>2021-03-06T23:30:36Z</time>
      </trkpt>
      <trkpt lat="46.83122" lon="-1.34693">
        <ele>78</ele>
        <time>2021-03-06T23:30:43Z</time>
      </trkpt>
      <trkpt lat="46.8305" lon="-1.3479">
        <ele>78</ele>
        <time>2021-03-06T23:31:00Z</time>
      </trkpt>
      <trkpt lat="46.82852" lon="-1.35061">
        <ele>74</ele>
        <time>2021-03-06T23:31:48Z</time>
      </trkpt>
      <trkpt lat="46.82826" lon="-1.35094">
        <ele>74</ele>
        <time>2021-03-06T23:31:54Z</time>
      </trkpt>
      <trkpt lat="46.82819" lon="-1.35105">
        <ele>73</ele>
        <time>2021-03-06T23:31:56Z</time>
      </trkpt>
      <trkpt lat="46.82745" lon="-1.35207">
        <ele>70</ele>
        <time>2021-03-06T23:32:14Z</time>
      </trkpt>
      <trkpt lat="46.82724" lon="-1.35235">
        <ele>69</ele>
        <time>2021-03-06T23:32:19Z</time>
      </trkpt>
      <trkpt lat="46.82632" lon="-1.3536">
        <ele>67</ele>
        <time>2021-03-06T23:32:42Z</time>
      </trkpt>
      <trkpt lat="46.82629" lon="-1.35365">
        <ele>67</ele>
        <time>2021-03-06T23:32:43Z</time>
      </trkpt>
      <trkpt lat="46.826" lon="-1.35408">
        <ele>65</ele>
        <time>2021-03-06T23:32:50Z</time>
      </trkpt>
      <trkpt lat="46.82594" lon="-1.35418">
        <ele>64</ele>
        <time>2021-03-06T23:32:51Z</time>
      </trkpt>
      <trkpt lat="46.82587" lon="-1.35443">
        <ele>63</ele>
        <time>2021-03-06T23:32:55Z</time>
      </trkpt>
      <trkpt lat="46.82589" lon="-1.35446">
        <ele>63</ele>
        <time>2021-03-06T23:32:55Z</time>
      </trkpt>
      <trkpt lat="46.82592" lon="-1.35455">
        <ele>63</ele>
        <time>2021-03-06T23:32:56Z</time>
      </trkpt>
      <trkpt lat="46.82592" lon="-1.3546">
        <ele>63</ele>
        <time>2021-03-06T23:32:57Z</time>
      </trkpt>
      <trkpt lat="46.82588" lon="-1.35468">
        <ele>63</ele>
        <time>2021-03-06T23:32:58Z</time>
      </trkpt>
      <trkpt lat="46.82585" lon="-1.35471">
        <ele>63</ele>
        <time>2021-03-06T23:32:59Z</time>
      </trkpt>
      <trkpt lat="46.82582" lon="-1.35472">
        <ele>63</ele>
        <time>2021-03-06T23:33:00Z</time>
      </trkpt>
      <trkpt lat="46.82574" lon="-1.35467">
        <ele>63</ele>
        <time>2021-03-06T23:33:01Z</time>
      </trkpt>
      <trkpt lat="46.82572" lon="-1.35464">
        <ele>63</ele>
        <time>2021-03-06T23:33:02Z</time>
      </trkpt>
      <trkpt lat="46.82564" lon="-1.35468">
        <ele>63</ele>
        <time>2021-03-06T23:33:03Z</time>
      </trkpt>
      <trkpt lat="46.82548" lon="-1.35478">
        <ele>63</ele>
        <time>2021-03-06T23:33:06Z</time>
      </trkpt>
      <trkpt lat="46.82458" lon="-1.35602">
        <ele>60</ele>
        <time>2021-03-06T23:33:28Z</time>
      </trkpt>
      <trkpt lat="46.82446" lon="-1.35617">
        <ele>60</ele>
        <time>2021-03-06T23:33:31Z</time>
      </trkpt>
      <trkpt lat="46.82442" lon="-1.35621">
        <ele>60</ele>
        <time>2021-03-06T23:33:32Z</time>
      </trkpt>
      <trkpt lat="46.82406" lon="-1.35658">
        <ele>59</ele>
        <time>2021-03-06T23:33:40Z</time>
      </trkpt>
      <trkpt lat="46.82395" lon="-1.3567">
        <ele>60</ele>
        <time>2021-03-06T23:33:42Z</time>
      </trkpt>
      <trkpt lat="46.82391" lon="-1.35674">
        <ele>60</ele>
        <time>2021-03-06T23:33:43Z</time>
      </trkpt>
      <trkpt lat="46.82365" lon="-1.35701">
        <ele>60</ele>
        <time>2021-03-06T23:33:49Z</time>
      </trkpt>
      <trkpt lat="46.82337" lon="-1.35728">
        <ele>60</ele>
        <time>2021-03-06T23:33:55Z</time>
      </trkpt>
      <trkpt lat="46.82325" lon="-1.35739">
        <ele>61</ele>
        <time>2021-03-06T23:33:57Z</time>
      </trkpt>
      <trkpt lat="46.82298" lon="-1.35757">
        <ele>62</ele>
        <time>2021-03-06T23:34:02Z</time>
      </trkpt>
      <trkpt lat="46.82296" lon="-1.35758">
        <ele>62</ele>
        <time>2021-03-06T23:34:03Z</time>
      </trkpt>
      <trkpt lat="46.82274" lon="-1.35771">
        <ele>64</ele>
        <time>2021-03-06T23:34:07Z</time>
      </trkpt>
      <trkpt lat="46.82254" lon="-1.35785">
        <ele>65</ele>
        <time>2021-03-06T23:34:11Z</time>
      </trkpt>
      <trkpt lat="46.82247" lon="-1.3579">
        <ele>65</ele>
        <time>2021-03-06T23:34:12Z</time>
      </trkpt>
      <trkpt lat="46.8224" lon="-1.35794">
        <ele>65</ele>
        <time>2021-03-06T23:34:14Z</time>
      </trkpt>
      <trkpt lat="46.82232" lon="-1.35795">
        <ele>65</ele>
        <time>2021-03-06T23:34:15Z</time>
      </trkpt>
      <trkpt lat="46.82226" lon="-1.35798">
        <ele>64</ele>
        <time>2021-03-06T23:34:16Z</time>
      </trkpt>
      <trkpt lat="46.82208" lon="-1.35806">
        <ele>64</ele>
        <time>2021-03-06T23:34:20Z</time>
      </trkpt>
      <trkpt lat="46.82216" lon="-1.35832">
        <ele>64</ele>
        <time>2021-03-06T23:34:23Z</time>
      </trkpt>
      <trkpt lat="46.82218" lon="-1.35836">
        <ele>64</ele>
        <time>2021-03-06T23:34:24Z</time>
      </trkpt>
      <trkpt lat="46.82233" lon="-1.35859">
        <ele>64</ele>
        <time>2021-03-06T23:34:28Z</time>
      </trkpt>
      <trkpt lat="46.82255" lon="-1.3588">
        <ele>64</ele>
        <time>2021-03-06T23:34:32Z</time>
      </trkpt>
      <trkpt lat="46.82256" lon="-1.35902">
        <ele>64</ele>
        <time>2021-03-06T23:34:35Z</time>
      </trkpt>
      <trkpt lat="46.82259" lon="-1.35926">
        <ele>64</ele>
        <time>2021-03-06T23:34:38Z</time>
      </trkpt>
      <trkpt lat="46.82262" lon="-1.35951">
        <ele>64</ele>
        <time>2021-03-06T23:34:41Z</time>
      </trkpt>
      <trkpt lat="46.82268" lon="-1.35992">
        <ele>65</ele>
        <time>2021-03-06T23:34:46Z</time>
      </trkpt>
      <trkpt lat="46.82269" lon="-1.36005">
        <ele>65</ele>
        <time>2021-03-06T23:34:48Z</time>
      </trkpt>
      <trkpt lat="46.82272" lon="-1.36026">
        <ele>65</ele>
        <time>2021-03-06T23:34:50Z</time>
      </trkpt>
      <trkpt lat="46.82276" lon="-1.3604">
        <ele>65</ele>
        <time>2021-03-06T23:34:52Z</time>
      </trkpt>
      <trkpt lat="46.82288" lon="-1.36093">
        <ele>65</ele>
        <time>2021-03-06T23:34:59Z</time>
      </trkpt>
      <trkpt lat="46.82291" lon="-1.36109">
        <ele>65</ele>
        <time>2021-03-06T23:35:01Z</time>
      </trkpt>
      <trkpt lat="46.82295" lon="-1.36127">
        <ele>65</ele>
        <time>2021-03-06T23:35:03Z</time>
      </trkpt>
      <trkpt lat="46.82304" lon="-1.36206">
        <ele>66</ele>
        <time>2021-03-06T23:35:13Z</time>
      </trkpt>
      <trkpt lat="46.82306" lon="-1.36229">
        <ele>66</ele>
        <time>2021-03-06T23:35:16Z</time>
      </trkpt>
      <trkpt lat="46.8232" lon="-1.36363">
        <ele>68</ele>
        <time>2021-03-06T23:35:32Z</time>
      </trkpt>
      <trkpt lat="46.82323" lon="-1.36381">
        <ele>68</ele>
        <time>2021-03-06T23:35:35Z</time>
      </trkpt>
      <trkpt lat="46.82337" lon="-1.36463">
        <ele>71</ele>
        <time>2021-03-06T23:35:45Z</time>
      </trkpt>
      <trkpt lat="46.82373" lon="-1.36622">
        <ele>74</ele>
        <time>2021-03-06T23:36:05Z</time>
      </trkpt>
      <trkpt lat="46.82375" lon="-1.36628">
        <ele>74</ele>
        <time>2021-03-06T23:36:06Z</time>
      </trkpt>
      <trkpt lat="46.82401" lon="-1.36743">
        <ele>77</ele>
        <time>2021-03-06T23:36:21Z</time>
      </trkpt>
      <trkpt lat="46.82421" lon="-1.36827">
        <ele>78</ele>
        <time>2021-03-06T23:36:32Z</time>
      </trkpt>
      <trkpt lat="46.82458" lon="-1.36952">
        <ele>81</ele>
        <time>2021-03-06T23:36:48Z</time>
      </trkpt>
      <trkpt lat="46.82476" lon="-1.36994">
        <ele>82</ele>
        <time>2021-03-06T23:36:54Z</time>
      </trkpt>
      <trkpt lat="46.8249" lon="-1.37025">
        <ele>82</ele>
        <time>2021-03-06T23:36:59Z</time>
      </trkpt>
      <trkpt lat="46.82522" lon="-1.37125">
        <ele>82</ele>
        <time>2021-03-06T23:37:12Z</time>
      </trkpt>
      <trkpt lat="46.82543" lon="-1.37209">
        <ele>82</ele>
        <time>2021-03-06T23:37:23Z</time>
      </trkpt>
      <trkpt lat="46.82579" lon="-1.37345">
        <ele>82</ele>
        <time>2021-03-06T23:37:41Z</time>
      </trkpt>
      <trkpt lat="46.82622" lon="-1.37512">
        <ele>82</ele>
        <time>2021-03-06T23:38:03Z</time>
      </trkpt>
      <trkpt lat="46.82626" lon="-1.37526">
        <ele>82</ele>
        <time>2021-03-06T23:38:04Z</time>
      </trkpt>
      <trkpt lat="46.82638" lon="-1.37574">
        <ele>81</ele>
        <time>2021-03-06T23:38:11Z</time>
      </trkpt>
      <trkpt lat="46.82659" lon="-1.37634">
        <ele>81</ele>
        <time>2021-03-06T23:38:19Z</time>
      </trkpt>
      <trkpt lat="46.82747" lon="-1.37837">
        <ele>80</ele>
        <time>2021-03-06T23:38:48Z</time>
      </trkpt>
      <trkpt lat="46.82765" lon="-1.37876">
        <ele>79</ele>
        <time>2021-03-06T23:38:54Z</time>
      </trkpt>
      <trkpt lat="46.8278" lon="-1.37907">
        <ele>79</ele>
        <time>2021-03-06T23:38:58Z</time>
      </trkpt>
      <trkpt lat="46.82826" lon="-1.37979">
        <ele>80</ele>
        <time>2021-03-06T23:39:10Z</time>
      </trkpt>
      <trkpt lat="46.82892" lon="-1.38076">
        <ele>81</ele>
        <time>2021-03-06T23:39:27Z</time>
      </trkpt>
      <trkpt lat="46.82906" lon="-1.38105">
        <ele>81</ele>
        <time>2021-03-06T23:39:31Z</time>
      </trkpt>
      <trkpt lat="46.82923" lon="-1.38152">
        <ele>81</ele>
        <time>2021-03-06T23:39:38Z</time>
      </trkpt>
      <trkpt lat="46.82926" lon="-1.38165">
        <ele>81</ele>
        <time>2021-03-06T23:39:40Z</time>
      </trkpt>
      <trkpt lat="46.82941" lon="-1.3823">
        <ele>80</ele>
        <time>2021-03-06T23:39:48Z</time>
      </trkpt>
      <trkpt lat="46.82979" lon="-1.38411">
        <ele>79</ele>
        <time>2021-03-06T23:40:11Z</time>
      </trkpt>
      <trkpt lat="46.83011" lon="-1.38577">
        <ele>79</ele>
        <time>2021-03-06T23:40:32Z</time>
      </trkpt>
      <trkpt lat="46.83024" lon="-1.38643">
        <ele>79</ele>
        <time>2021-03-06T23:40:40Z</time>
      </trkpt>
      <trkpt lat="46.83122" lon="-1.39154">
        <ele>73</ele>
        <time>2021-03-06T23:41:45Z</time>
      </trkpt>
      <trkpt lat="46.83133" lon="-1.39224">
        <ele>72</ele>
        <time>2021-03-06T23:41:54Z</time>
      </trkpt>
      <trkpt lat="46.83152" lon="-1.39464">
        <ele>68</ele>
        <time>2021-03-06T23:42:23Z</time>
      </trkpt>
      <trkpt lat="46.83153" lon="-1.39492">
        <ele>68</ele>
        <time>2021-03-06T23:42:26Z</time>
      </trkpt>
      <trkpt lat="46.83159" lon="-1.39585">
        <ele>69</ele>
        <time>2021-03-06T23:42:38Z</time>
      </trkpt>
      <trkpt lat="46.83175" lon="-1.39669">
        <ele>70</ele>
        <time>2021-03-06T23:42:48Z</time>
      </trkpt>
      <trkpt lat="46.83179" lon="-1.39718">
        <ele>69</ele>
        <time>2021-03-06T23:42:54Z</time>
      </trkpt>
      <trkpt lat="46.83175" lon="-1.39756">
        <ele>67</ele>
        <time>2021-03-06T23:42:59Z</time>
      </trkpt>
      <trkpt lat="46.83126" lon="-1.39922">
        <ele>66</ele>
        <time>2021-03-06T23:43:21Z</time>
      </trkpt>
      <trkpt lat="46.83118" lon="-1.39972">
        <ele>66</ele>
        <time>2021-03-06T23:43:27Z</time>
      </trkpt>
      <trkpt lat="46.83115" lon="-1.40069">
        <ele>67</ele>
        <time>2021-03-06T23:43:39Z</time>
      </trkpt>
      <trkpt lat="46.83123" lon="-1.4014">
        <ele>69</ele>
        <time>2021-03-06T23:43:48Z</time>
      </trkpt>
      <trkpt lat="46.83153" lon="-1.4024">
        <ele>72</ele>
        <time>2021-03-06T23:44:01Z</time>
      </trkpt>
      <trkpt lat="46.83157" lon="-1.40253">
        <ele>72</ele>
        <time>2021-03-06T23:44:03Z</time>
      </trkpt>
      <trkpt lat="46.83332" lon="-1.4073">
        <ele>62</ele>
        <time>2021-03-06T23:45:09Z</time>
      </trkpt>
      <trkpt lat="46.83343" lon="-1.40786">
        <ele>59</ele>
        <time>2021-03-06T23:45:16Z</time>
      </trkpt>
      <trkpt lat="46.83352" lon="-1.40961">
        <ele>55</ele>
        <time>2021-03-06T23:45:37Z</time>
      </trkpt>
      <trkpt lat="46.83366" lon="-1.41019">
        <ele>54</ele>
        <time>2021-03-06T23:45:45Z</time>
      </trkpt>
      <trkpt lat="46.83389" lon="-1.41047">
        <ele>55</ele>
        <time>2021-03-06T23:45:50Z</time>
      </trkpt>
      <trkpt lat="46.83406" lon="-1.41072">
        <ele>56</ele>
        <time>2021-03-06T23:45:54Z</time>
      </trkpt>
      <trkpt lat="46.83413" lon="-1.41092">
        <ele>58</ele>
        <time>2021-03-06T23:45:57Z</time>
      </trkpt>
      <trkpt lat="46.83415" lon="-1.41112">
        <ele>60</ele>
        <time>2021-03-06T23:46:00Z</time>
      </trkpt>
      <trkpt lat="46.83408" lon="-1.41137">
        <ele>61</ele>
        <time>2021-03-06T23:46:03Z</time>
      </trkpt>
      <trkpt lat="46.83351" lon="-1.4122">
        <ele>63</ele>
        <time>2021-03-06T23:46:17Z</time>
      </trkpt>
      <trkpt lat="46.83331" lon="-1.41245">
        <ele>64</ele>
        <time>2021-03-06T23:46:22Z</time>
      </trkpt>
      <trkpt lat="46.83294" lon="-1.41268">
        <ele>64</ele>
        <time>2021-03-06T23:46:29Z</time>
      </trkpt>
      <trkpt lat="46.83278" lon="-1.41286">
        <ele>65</ele>
        <time>2021-03-06T23:46:33Z</time>
      </trkpt>
      <trkpt lat="46.83262" lon="-1.41327">
        <ele>66</ele>
        <time>2021-03-06T23:46:38Z</time>
      </trkpt>
      <trkpt lat="46.83256" lon="-1.41463">
        <ele>73</ele>
        <time>2021-03-06T23:46:55Z</time>
      </trkpt>
      <trkpt lat="46.83256" lon="-1.41493">
        <ele>73</ele>
        <time>2021-03-06T23:46:59Z</time>
      </trkpt>
      <trkpt lat="46.83265" lon="-1.41558">
        <ele>74</ele>
        <time>2021-03-06T23:47:07Z</time>
      </trkpt>
      <trkpt lat="46.83297" lon="-1.41611">
        <ele>76</ele>
        <time>2021-03-06T23:47:15Z</time>
      </trkpt>
      <trkpt lat="46.83465" lon="-1.41875">
        <ele>79</ele>
        <time>2021-03-06T23:47:59Z</time>
      </trkpt>
      <trkpt lat="46.83485" lon="-1.41902">
        <ele>78</ele>
        <time>2021-03-06T23:48:04Z</time>
      </trkpt>
      <trkpt lat="46.83523" lon="-1.41942">
        <ele>78</ele>
        <time>2021-03-06T23:48:12Z</time>
      </trkpt>
      <trkpt lat="46.83536" lon="-1.41959">
        <ele>78</ele>
        <time>2021-03-06T23:48:16Z</time>
      </trkpt>
      <trkpt lat="46.83548" lon="-1.41984">
        <ele>79</ele>
        <time>2021-03-06T23:48:19Z</time>
      </trkpt>
      <trkpt lat="46.83571" lon="-1.42057">
        <ele>78</ele>
        <time>2021-03-06T23:48:29Z</time>
      </trkpt>
      <trkpt lat="46.83574" lon="-1.42073">
        <ele>78</ele>
        <time>2021-03-06T23:48:31Z</time>
      </trkpt>
      <trkpt lat="46.83573" lon="-1.42099">
        <ele>78</ele>
        <time>2021-03-06T23:48:34Z</time>
      </trkpt>
      <trkpt lat="46.83568" lon="-1.42119">
        <ele>78</ele>
        <time>2021-03-06T23:48:37Z</time>
      </trkpt>
      <trkpt lat="46.83533" lon="-1.42209">
        <ele>77</ele>
        <time>2021-03-06T23:48:49Z</time>
      </trkpt>
      <trkpt lat="46.83532" lon="-1.42218">
        <ele>78</ele>
        <time>2021-03-06T23:48:51Z</time>
      </trkpt>
      <trkpt lat="46.83534" lon="-1.42231">
        <ele>78</ele>
        <time>2021-03-06T23:48:52Z</time>
      </trkpt>
      <trkpt lat="46.83536" lon="-1.42236">
        <ele>78</ele>
        <time>2021-03-06T23:48:53Z</time>
      </trkpt>
      <trkpt lat="46.83601" lon="-1.42197">
        <ele>78</ele>
        <time>2021-03-06T23:49:05Z</time>
      </trkpt>
      <trkpt lat="46.83651" lon="-1.42462">
        <ele>80</ele>
        <time>2021-03-06T23:49:39Z</time>
      </trkpt>
      <trkpt lat="46.83665" lon="-1.42527">
        <ele>80</ele>
        <time>2021-03-06T23:49:47Z</time>
      </trkpt>
      <trkpt lat="46.83686" lon="-1.42595">
        <ele>79</ele>
        <time>2021-03-06T23:49:56Z</time>
      </trkpt>
      <trkpt lat="46.8379" lon="-1.42858">
        <ele>78</ele>
        <time>2021-03-06T23:50:33Z</time>
      </trkpt>
      <trkpt lat="46.83997" lon="-1.4337">
        <ele>78</ele>
        <time>2021-03-06T23:51:46Z</time>
      </trkpt>
      <trkpt lat="46.84013" lon="-1.43419">
        <ele>79</ele>
        <time>2021-03-06T23:51:52Z</time>
      </trkpt>
      <trkpt lat="46.84022" lon="-1.43465">
        <ele>78</ele>
        <time>2021-03-06T23:51:58Z</time>
      </trkpt>
      <trkpt lat="46.84032" lon="-1.43581">
        <ele>76</ele>
        <time>2021-03-06T23:52:12Z</time>
      </trkpt>
      <trkpt lat="46.84035" lon="-1.43605">
        <ele>77</ele>
        <time>2021-03-06T23:52:15Z</time>
      </trkpt>
      <trkpt lat="46.84045" lon="-1.43655">
        <ele>77</ele>
        <time>2021-03-06T23:52:22Z</time>
      </trkpt>
      <trkpt lat="46.84054" lon="-1.43694">
        <ele>77</ele>
        <time>2021-03-06T23:52:27Z</time>
      </trkpt>
      <trkpt lat="46.84191" lon="-1.44178">
        <ele>78</ele>
        <time>2021-03-06T23:53:30Z</time>
      </trkpt>
      <trkpt lat="46.84193" lon="-1.44219">
        <ele>78</ele>
        <time>2021-03-06T23:53:35Z</time>
      </trkpt>
      <trkpt lat="46.84188" lon="-1.44248">
        <ele>78</ele>
        <time>2021-03-06T23:53:39Z</time>
      </trkpt>
      <trkpt lat="46.8418" lon="-1.44279">
        <ele>79</ele>
        <time>2021-03-06T23:53:43Z</time>
      </trkpt>
      <trkpt lat="46.84135" lon="-1.44403">
        <ele>75</ele>
        <time>2021-03-06T23:54:00Z</time>
      </trkpt>
      <trkpt lat="46.84072" lon="-1.44561">
        <ele>72</ele>
        <time>2021-03-06T23:54:22Z</time>
      </trkpt>
      <trkpt lat="46.84065" lon="-1.44582">
        <ele>73</ele>
        <time>2021-03-06T23:54:25Z</time>
      </trkpt>
      <trkpt lat="46.84065" lon="-1.44603">
        <ele>72</ele>
        <time>2021-03-06T23:54:28Z</time>
      </trkpt>
      <trkpt lat="46.84075" lon="-1.44635">
        <ele>71</ele>
        <time>2021-03-06T23:54:32Z</time>
      </trkpt>
      <trkpt lat="46.84094" lon="-1.44685">
        <ele>69</ele>
        <time>2021-03-06T23:54:39Z</time>
      </trkpt>
      <trkpt lat="46.84131" lon="-1.44756">
        <ele>67</ele>
        <time>2021-03-06T23:54:50Z</time>
      </trkpt>
      <trkpt lat="46.84145" lon="-1.44792">
        <ele>66</ele>
        <time>2021-03-06T23:54:55Z</time>
      </trkpt>
      <trkpt lat="46.84152" lon="-1.44814">
        <ele>65</ele>
        <time>2021-03-06T23:54:58Z</time>
      </trkpt>
      <trkpt lat="46.84156" lon="-1.44837">
        <ele>64</ele>
        <time>2021-03-06T23:55:01Z</time>
      </trkpt>
      <trkpt lat="46.84156" lon="-1.44867">
        <ele>63</ele>
        <time>2021-03-06T23:55:04Z</time>
      </trkpt>
      <trkpt lat="46.84148" lon="-1.44904">
        <ele>62</ele>
        <time>2021-03-06T23:55:09Z</time>
      </trkpt>
      <trkpt lat="46.84135" lon="-1.44932">
        <ele>61</ele>
        <time>2021-03-06T23:55:13Z</time>
      </trkpt>
      <trkpt lat="46.84126" lon="-1.44946">
        <ele>61</ele>
        <time>2021-03-06T23:55:16Z</time>
      </trkpt>
      <trkpt lat="46.8409" lon="-1.44991">
        <ele>59</ele>
        <time>2021-03-06T23:55:24Z</time>
      </trkpt>
      <trkpt lat="46.84064" lon="-1.45034">
        <ele>58</ele>
        <time>2021-03-06T23:55:31Z</time>
      </trkpt>
      <trkpt lat="46.84052" lon="-1.45068">
        <ele>57</ele>
        <time>2021-03-06T23:55:36Z</time>
      </trkpt>
      <trkpt lat="46.8402" lon="-1.45215">
        <ele>47</ele>
        <time>2021-03-06T23:55:54Z</time>
      </trkpt>
      <trkpt lat="46.84008" lon="-1.45273">
        <ele>45</ele>
        <time>2021-03-06T23:56:02Z</time>
      </trkpt>
      <trkpt lat="46.83985" lon="-1.4538">
        <ele>48</ele>
        <time>2021-03-06T23:56:15Z</time>
      </trkpt>
      <trkpt lat="46.83978" lon="-1.45421">
        <ele>50</ele>
        <time>2021-03-06T23:56:21Z</time>
      </trkpt>
      <trkpt lat="46.83971" lon="-1.45465">
        <ele>52</ele>
        <time>2021-03-06T23:56:26Z</time>
      </trkpt>
      <trkpt lat="46.8396" lon="-1.45544">
        <ele>57</ele>
        <time>2021-03-06T23:56:36Z</time>
      </trkpt>
      <trkpt lat="46.83956" lon="-1.4556">
        <ele>59</ele>
        <time>2021-03-06T23:56:38Z</time>
      </trkpt>
      <trkpt lat="46.83948" lon="-1.4559">
        <ele>61</ele>
        <time>2021-03-06T23:56:42Z</time>
      </trkpt>
      <trkpt lat="46.83937" lon="-1.45622">
        <ele>62</ele>
        <time>2021-03-06T23:56:46Z</time>
      </trkpt>
      <trkpt lat="46.83926" lon="-1.45646">
        <ele>63</ele>
        <time>2021-03-06T23:56:50Z</time>
      </trkpt>
      <trkpt lat="46.83915" lon="-1.45663">
        <ele>64</ele>
        <time>2021-03-06T23:56:53Z</time>
      </trkpt>
      <trkpt lat="46.8389" lon="-1.45698">
        <ele>64</ele>
        <time>2021-03-06T23:56:59Z</time>
      </trkpt>
      <trkpt lat="46.83825" lon="-1.45771">
        <ele>66</ele>
        <time>2021-03-06T23:57:13Z</time>
      </trkpt>
      <trkpt lat="46.8381" lon="-1.45791">
        <ele>66</ele>
        <time>2021-03-06T23:57:17Z</time>
      </trkpt>
      <trkpt lat="46.83807" lon="-1.45797">
        <ele>66</ele>
        <time>2021-03-06T23:57:18Z</time>
      </trkpt>
      <trkpt lat="46.83802" lon="-1.45808">
        <ele>67</ele>
        <time>2021-03-06T23:57:19Z</time>
      </trkpt>
      <trkpt lat="46.83798" lon="-1.45815">
        <ele>67</ele>
        <time>2021-03-06T23:57:21Z</time>
      </trkpt>
      <trkpt lat="46.83793" lon="-1.45838">
        <ele>67</ele>
        <time>2021-03-06T23:57:23Z</time>
      </trkpt>
      <trkpt lat="46.83791" lon="-1.45864">
        <ele>66</ele>
        <time>2021-03-06T23:57:27Z</time>
      </trkpt>
      <trkpt lat="46.83798" lon="-1.46113">
        <ele>66</ele>
        <time>2021-03-06T23:57:57Z</time>
      </trkpt>
      <trkpt lat="46.83803" lon="-1.46155">
        <ele>67</ele>
        <time>2021-03-06T23:58:02Z</time>
      </trkpt>
      <trkpt lat="46.83808" lon="-1.46189">
        <ele>67</ele>
        <time>2021-03-06T23:58:06Z</time>
      </trkpt>
      <trkpt lat="46.8384" lon="-1.46321">
        <ele>69</ele>
        <time>2021-03-06T23:58:23Z</time>
      </trkpt>
      <trkpt lat="46.83847" lon="-1.46351">
        <ele>69</ele>
        <time>2021-03-06T23:58:27Z</time>
      </trkpt>
      <trkpt lat="46.83854" lon="-1.46375">
        <ele>69</ele>
        <time>2021-03-06T23:58:30Z</time>
      </trkpt>
      <trkpt lat="46.83868" lon="-1.46432">
        <ele>70</ele>
        <time>2021-03-06T23:58:38Z</time>
      </trkpt>
      <trkpt lat="46.8387" lon="-1.4644">
        <ele>70</ele>
        <time>2021-03-06T23:58:39Z</time>
      </trkpt>
      <trkpt lat="46.83881" lon="-1.46486">
        <ele>70</ele>
        <time>2021-03-06T23:58:45Z</time>
      </trkpt>
      <trkpt lat="46.83886" lon="-1.46519">
        <ele>70</ele>
        <time>2021-03-06T23:58:49Z</time>
      </trkpt>
      <trkpt lat="46.83889" lon="-1.46548">
        <ele>69</ele>
        <time>2021-03-06T23:58:53Z</time>
      </trkpt>
      <trkpt lat="46.83886" lon="-1.46665">
        <ele>69</ele>
        <time>2021-03-06T23:59:07Z</time>
      </trkpt>
      <trkpt lat="46.83887" lon="-1.46727">
        <ele>69</ele>
        <time>2021-03-06T23:59:14Z</time>
      </trkpt>
      <trkpt lat="46.83888" lon="-1.46736">
        <ele>69</ele>
        <time>2021-03-06T23:59:15Z</time>
      </trkpt>
      <trkpt lat="46.83889" lon="-1.46745">
        <ele>69</ele>
        <time>2021-03-06T23:59:17Z</time>
      </trkpt>
      <trkpt lat="46.83894" lon="-1.46765">
        <ele>69</ele>
        <time>2021-03-06T23:59:19Z</time>
      </trkpt>
      <trkpt lat="46.83906" lon="-1.46806">
        <ele>70</ele>
        <time>2021-03-06T23:59:25Z</time>
      </trkpt>
      <trkpt lat="46.83927" lon="-1.46854">
        <ele>70</ele>
        <time>2021-03-06T23:59:31Z</time>
      </trkpt>
      <trkpt lat="46.83957" lon="-1.46911">
        <ele>69</ele>
        <time>2021-03-06T23:59:40Z</time>
      </trkpt>
      <trkpt lat="46.83999" lon="-1.46988">
        <ele>69</ele>
        <time>2021-03-06T23:59:52Z</time>
      </trkpt>
      <trkpt lat="46.84015" lon="-1.47017">
        <ele>69</ele>
        <time>2021-03-06T23:59:57Z</time>
      </trkpt>
      <trkpt lat="46.84068" lon="-1.47114">
        <ele>69</ele>
        <time>2021-03-07T00:00:12Z</time>
      </trkpt>
      <trkpt lat="46.84127" lon="-1.47195">
        <ele>68</ele>
        <time>2021-03-07T00:00:26Z</time>
      </trkpt>
      <trkpt lat="46.84148" lon="-1.47233">
        <ele>67</ele>
        <time>2021-03-07T00:00:32Z</time>
      </trkpt>
      <trkpt lat="46.8416" lon="-1.47257">
        <ele>67</ele>
        <time>2021-03-07T00:00:36Z</time>
      </trkpt>
      <trkpt lat="46.84167" lon="-1.47279">
        <ele>67</ele>
        <time>2021-03-07T00:00:39Z</time>
      </trkpt>
      <trkpt lat="46.84183" lon="-1.47334">
        <ele>68</ele>
        <time>2021-03-07T00:00:46Z</time>
      </trkpt>
      <trkpt lat="46.84205" lon="-1.47435">
        <ele>66</ele>
        <time>2021-03-07T00:00:59Z</time>
      </trkpt>
      <trkpt lat="46.8423" lon="-1.47634">
        <ele>67</ele>
        <time>2021-03-07T00:01:24Z</time>
      </trkpt>
      <trkpt lat="46.84238" lon="-1.47737">
        <ele>69</ele>
        <time>2021-03-07T00:01:36Z</time>
      </trkpt>
      <trkpt lat="46.8424" lon="-1.47764">
        <ele>70</ele>
        <time>2021-03-07T00:01:39Z</time>
      </trkpt>
      <trkpt lat="46.84241" lon="-1.47769">
        <ele>70</ele>
        <time>2021-03-07T00:01:40Z</time>
      </trkpt>
      <trkpt lat="46.84244" lon="-1.47787">
        <ele>70</ele>
        <time>2021-03-07T00:01:42Z</time>
      </trkpt>
      <trkpt lat="46.8425" lon="-1.47818">
        <ele>71</ele>
        <time>2021-03-07T00:01:46Z</time>
      </trkpt>
      <trkpt lat="46.84269" lon="-1.47896">
        <ele>69</ele>
        <time>2021-03-07T00:01:56Z</time>
      </trkpt>
      <trkpt lat="46.84273" lon="-1.47917">
        <ele>68</ele>
        <time>2021-03-07T00:01:59Z</time>
      </trkpt>
      <trkpt lat="46.84275" lon="-1.47932">
        <ele>68</ele>
        <time>2021-03-07T00:02:01Z</time>
      </trkpt>
      <trkpt lat="46.8428" lon="-1.47978">
        <ele>67</ele>
        <time>2021-03-07T00:02:07Z</time>
      </trkpt>
      <trkpt lat="46.84289" lon="-1.48039">
        <ele>66</ele>
        <time>2021-03-07T00:02:14Z</time>
      </trkpt>
      <trkpt lat="46.84294" lon="-1.48065">
        <ele>67</ele>
        <time>2021-03-07T00:02:17Z</time>
      </trkpt>
      <trkpt lat="46.84299" lon="-1.48081">
        <ele>67</ele>
        <time>2021-03-07T00:02:20Z</time>
      </trkpt>
      <trkpt lat="46.84305" lon="-1.48099">
        <ele>67</ele>
        <time>2021-03-07T00:02:22Z</time>
      </trkpt>
      <trkpt lat="46.84358" lon="-1.48215">
        <ele>65</ele>
        <time>2021-03-07T00:02:39Z</time>
      </trkpt>
      <trkpt lat="46.8437" lon="-1.48246">
        <ele>66</ele>
        <time>2021-03-07T00:02:43Z</time>
      </trkpt>
      <trkpt lat="46.84391" lon="-1.48318">
        <ele>66</ele>
        <time>2021-03-07T00:02:53Z</time>
      </trkpt>
      <trkpt lat="46.84396" lon="-1.48333">
        <ele>66</ele>
        <time>2021-03-07T00:02:55Z</time>
      </trkpt>
      <trkpt lat="46.84415" lon="-1.48394">
        <ele>66</ele>
        <time>2021-03-07T00:03:03Z</time>
      </trkpt>
      <trkpt lat="46.84418" lon="-1.48406">
        <ele>66</ele>
        <time>2021-03-07T00:03:05Z</time>
      </trkpt>
      <trkpt lat="46.84422" lon="-1.48419">
        <ele>66</ele>
        <time>2021-03-07T00:03:06Z</time>
      </trkpt>
      <trkpt lat="46.84442" lon="-1.48491">
        <ele>66</ele>
        <time>2021-03-07T00:03:16Z</time>
      </trkpt>
      <trkpt lat="46.84443" lon="-1.485">
        <ele>66</ele>
        <time>2021-03-07T00:03:17Z</time>
      </trkpt>
      <trkpt lat="46.84444" lon="-1.48507">
        <ele>65</ele>
        <time>2021-03-07T00:03:18Z</time>
      </trkpt>
      <trkpt lat="46.84445" lon="-1.48535">
        <ele>65</ele>
        <time>2021-03-07T00:03:21Z</time>
      </trkpt>
      <trkpt lat="46.84443" lon="-1.48559">
        <ele>64</ele>
        <time>2021-03-07T00:03:24Z</time>
      </trkpt>
      <trkpt lat="46.8444" lon="-1.48581">
        <ele>63</ele>
        <time>2021-03-07T00:03:27Z</time>
      </trkpt>
      <trkpt lat="46.84439" lon="-1.48594">
        <ele>63</ele>
        <time>2021-03-07T00:03:28Z</time>
      </trkpt>
      <trkpt lat="46.84438" lon="-1.48602">
        <ele>63</ele>
        <time>2021-03-07T00:03:29Z</time>
      </trkpt>
      <trkpt lat="46.84436" lon="-1.4861">
        <ele>62</ele>
        <time>2021-03-07T00:03:30Z</time>
      </trkpt>
      <trkpt lat="46.8443" lon="-1.4863">
        <ele>61</ele>
        <time>2021-03-07T00:03:33Z</time>
      </trkpt>
      <trkpt lat="46.844" lon="-1.48723">
        <ele>60</ele>
        <time>2021-03-07T00:03:46Z</time>
      </trkpt>
      <trkpt lat="46.84396" lon="-1.48737">
        <ele>60</ele>
        <time>2021-03-07T00:03:48Z</time>
      </trkpt>
      <trkpt lat="46.84384" lon="-1.48786">
        <ele>61</ele>
        <time>2021-03-07T00:03:54Z</time>
      </trkpt>
      <trkpt lat="46.84376" lon="-1.48833">
        <ele>62</ele>
        <time>2021-03-07T00:04:00Z</time>
      </trkpt>
      <trkpt lat="46.8437" lon="-1.48881">
        <ele>63</ele>
        <time>2021-03-07T00:04:06Z</time>
      </trkpt>
      <trkpt lat="46.84359" lon="-1.48965">
        <ele>65</ele>
        <time>2021-03-07T00:04:16Z</time>
      </trkpt>
      <trkpt lat="46.84346" lon="-1.49035">
        <ele>66</ele>
        <time>2021-03-07T00:04:25Z</time>
      </trkpt>
      <trkpt lat="46.84345" lon="-1.4905">
        <ele>66</ele>
        <time>2021-03-07T00:04:27Z</time>
      </trkpt>
      <trkpt lat="46.84345" lon="-1.49056">
        <ele>66</ele>
        <time>2021-03-07T00:04:27Z</time>
      </trkpt>
      <trkpt lat="46.84345" lon="-1.49096">
        <ele>66</ele>
        <time>2021-03-07T00:04:32Z</time>
      </trkpt>
      <trkpt lat="46.84344" lon="-1.49111">
        <ele>66</ele>
        <time>2021-03-07T00:04:34Z</time>
      </trkpt>
      <trkpt lat="46.84343" lon="-1.49124">
        <ele>66</ele>
        <time>2021-03-07T00:04:36Z</time>
      </trkpt>
      <trkpt lat="46.84342" lon="-1.49129">
        <ele>66</ele>
        <time>2021-03-07T00:04:36Z</time>
      </trkpt>
      <trkpt lat="46.8433" lon="-1.49181">
        <ele>65</ele>
        <time>2021-03-07T00:04:43Z</time>
      </trkpt>
      <trkpt lat="46.84322" lon="-1.49206">
        <ele>65</ele>
        <time>2021-03-07T00:04:46Z</time>
      </trkpt>
      <trkpt lat="46.84324" lon="-1.49265">
        <ele>65</ele>
        <time>2021-03-07T00:04:54Z</time>
      </trkpt>
      <trkpt lat="46.84325" lon="-1.49304">
        <ele>66</ele>
        <time>2021-03-07T00:04:58Z</time>
      </trkpt>
      <trkpt lat="46.84332" lon="-1.49343">
        <ele>66</ele>
        <time>2021-03-07T00:05:03Z</time>
      </trkpt>
      <trkpt lat="46.84313" lon="-1.49357">
        <ele>66</ele>
        <time>2021-03-07T00:05:07Z</time>
      </trkpt>
      <trkpt lat="46.8427" lon="-1.49381">
        <ele>66</ele>
        <time>2021-03-07T00:05:15Z</time>
      </trkpt>
      <trkpt lat="46.84298" lon="-1.49409">
        <ele>66</ele>
        <time>2021-03-07T00:05:21Z</time>
      </trkpt>
      <trkpt lat="46.84311" lon="-1.49418">
        <ele>66</ele>
        <time>2021-03-07T00:05:24Z</time>
      </trkpt>
      <trkpt lat="46.8431" lon="-1.49437">
        <ele>67</ele>
        <time>2021-03-07T00:05:26Z</time>
      </trkpt>
      <trkpt lat="46.84307" lon="-1.49441">
        <ele>67</ele>
        <time>2021-03-07T00:05:27Z</time>
      </trkpt>
      <trkpt lat="46.843" lon="-1.49459">
        <ele>67</ele>
        <time>2021-03-07T00:05:29Z</time>
      </trkpt>
      <trkpt lat="46.84298" lon="-1.49468">
        <ele>67</ele>
        <time>2021-03-07T00:05:31Z</time>
      </trkpt>
      <trkpt lat="46.84279" lon="-1.49535">
        <ele>66</ele>
        <time>2021-03-07T00:05:39Z</time>
      </trkpt>
      <trkpt lat="46.84281" lon="-1.49678">
        <ele>66</ele>
        <time>2021-03-07T00:05:57Z</time>
      </trkpt>
      <trkpt lat="46.84281" lon="-1.49711">
        <ele>66</ele>
        <time>2021-03-07T00:06:01Z</time>
      </trkpt>
      <trkpt lat="46.84277" lon="-1.49739">
        <ele>66</ele>
        <time>2021-03-07T00:06:04Z</time>
      </trkpt>
      <trkpt lat="46.84274" lon="-1.4976">
        <ele>66</ele>
        <time>2021-03-07T00:06:07Z</time>
      </trkpt>
      <trkpt lat="46.84261" lon="-1.49822">
        <ele>67</ele>
        <time>2021-03-07T00:06:15Z</time>
      </trkpt>
      <trkpt lat="46.84254" lon="-1.4985">
        <ele>67</ele>
        <time>2021-03-07T00:06:18Z</time>
      </trkpt>
      <trkpt lat="46.84234" lon="-1.49926">
        <ele>67</ele>
        <time>2021-03-07T00:06:28Z</time>
      </trkpt>
      <trkpt lat="46.84175" lon="-1.50148">
        <ele>67</ele>
        <time>2021-03-07T00:06:57Z</time>
      </trkpt>
      <trkpt lat="46.84161" lon="-1.50202">
        <ele>67</ele>
        <time>2021-03-07T00:07:04Z</time>
      </trkpt>
      <trkpt lat="46.84158" lon="-1.50212">
        <ele>67</ele>
        <time>2021-03-07T00:07:06Z</time>
      </trkpt>
      <trkpt lat="46.84145" lon="-1.50255">
        <ele>66</ele>
        <time>2021-03-07T00:07:11Z</time>
      </trkpt>
      <trkpt lat="46.84137" lon="-1.50282">
        <ele>66</ele>
        <time>2021-03-07T00:07:15Z</time>
      </trkpt>
      <trkpt lat="46.84128" lon="-1.50307">
        <ele>65</ele>
        <time>2021-03-07T00:07:18Z</time>
      </trkpt>
      <trkpt lat="46.84109" lon="-1.5034">
        <ele>64</ele>
        <time>2021-03-07T00:07:24Z</time>
      </trkpt>
      <trkpt lat="46.84084" lon="-1.50373">
        <ele>64</ele>
        <time>2021-03-07T00:07:30Z</time>
      </trkpt>
      <trkpt lat="46.83966" lon="-1.50522">
        <ele>65</ele>
        <time>2021-03-07T00:07:57Z</time>
      </trkpt>
      <trkpt lat="46.83928" lon="-1.5057">
        <ele>67</ele>
        <time>2021-03-07T00:08:06Z</time>
      </trkpt>
      <trkpt lat="46.83879" lon="-1.50632">
        <ele>67</ele>
        <time>2021-03-07T00:08:18Z</time>
      </trkpt>
      <trkpt lat="46.83816" lon="-1.50699">
        <ele>67</ele>
        <time>2021-03-07T00:08:32Z</time>
      </trkpt>
      <trkpt lat="46.83814" lon="-1.50701">
        <ele>67</ele>
        <time>2021-03-07T00:08:32Z</time>
      </trkpt>
      <trkpt lat="46.83766" lon="-1.5075">
        <ele>68</ele>
        <time>2021-03-07T00:08:43Z</time>
      </trkpt>
      <trkpt lat="46.83716" lon="-1.50803">
        <ele>68</ele>
        <time>2021-03-07T00:08:54Z</time>
      </trkpt>
      <trkpt lat="46.83667" lon="-1.50855">
        <ele>68</ele>
        <time>2021-03-07T00:09:04Z</time>
      </trkpt>
      <trkpt lat="46.83634" lon="-1.50898">
        <ele>69</ele>
        <time>2021-03-07T00:09:12Z</time>
      </trkpt>
      <trkpt lat="46.83496" lon="-1.51117">
        <ele>69</ele>
        <time>2021-03-07T00:09:48Z</time>
      </trkpt>
      <trkpt lat="46.8338" lon="-1.51299">
        <ele>67</ele>
        <time>2021-03-07T00:10:19Z</time>
      </trkpt>
      <trkpt lat="46.83251" lon="-1.51505">
        <ele>68</ele>
        <time>2021-03-07T00:10:53Z</time>
      </trkpt>
      <trkpt lat="46.83234" lon="-1.5153">
        <ele>67</ele>
        <time>2021-03-07T00:10:57Z</time>
      </trkpt>
      <trkpt lat="46.83214" lon="-1.51555">
        <ele>67</ele>
        <time>2021-03-07T00:11:02Z</time>
      </trkpt>
      <trkpt lat="46.83165" lon="-1.51616">
        <ele>67</ele>
        <time>2021-03-07T00:11:13Z</time>
      </trkpt>
      <trkpt lat="46.83112" lon="-1.5168">
        <ele>67</ele>
        <time>2021-03-07T00:11:25Z</time>
      </trkpt>
      <trkpt lat="46.83065" lon="-1.51732">
        <ele>68</ele>
        <time>2021-03-07T00:11:36Z</time>
      </trkpt>
      <trkpt lat="46.83049" lon="-1.51755">
        <ele>68</ele>
        <time>2021-03-07T00:11:40Z</time>
      </trkpt>
      <trkpt lat="46.83034" lon="-1.5178">
        <ele>68</ele>
        <time>2021-03-07T00:11:44Z</time>
      </trkpt>
      <trkpt lat="46.82968" lon="-1.51904">
        <ele>68</ele>
        <time>2021-03-07T00:12:03Z</time>
      </trkpt>
      <trkpt lat="46.82939" lon="-1.51945">
        <ele>67</ele>
        <time>2021-03-07T00:12:10Z</time>
      </trkpt>
      <trkpt lat="46.82923" lon="-1.51961">
        <ele>67</ele>
        <time>2021-03-07T00:12:14Z</time>
      </trkpt>
      <trkpt lat="46.82914" lon="-1.51969">
        <ele>66</ele>
        <time>2021-03-07T00:12:16Z</time>
      </trkpt>
      <trkpt lat="46.82841" lon="-1.52026">
        <ele>65</ele>
        <time>2021-03-07T00:12:30Z</time>
      </trkpt>
      <trkpt lat="46.82825" lon="-1.52038">
        <ele>65</ele>
        <time>2021-03-07T00:12:33Z</time>
      </trkpt>
      <trkpt lat="46.82785" lon="-1.52072">
        <ele>64</ele>
        <time>2021-03-07T00:12:42Z</time>
      </trkpt>
      <trkpt lat="46.82671" lon="-1.52176">
        <ele>66</ele>
        <time>2021-03-07T00:13:06Z</time>
      </trkpt>
      <trkpt lat="46.82658" lon="-1.52191">
        <ele>66</ele>
        <time>2021-03-07T00:13:09Z</time>
      </trkpt>
      <trkpt lat="46.82648" lon="-1.52211">
        <ele>66</ele>
        <time>2021-03-07T00:13:12Z</time>
      </trkpt>
      <trkpt lat="46.82641" lon="-1.52237">
        <ele>66</ele>
        <time>2021-03-07T00:13:15Z</time>
      </trkpt>
      <trkpt lat="46.82637" lon="-1.52263">
        <ele>66</ele>
        <time>2021-03-07T00:13:18Z</time>
      </trkpt>
      <trkpt lat="46.82633" lon="-1.52316">
        <ele>65</ele>
        <time>2021-03-07T00:13:25Z</time>
      </trkpt>
      <trkpt lat="46.82625" lon="-1.5236">
        <ele>65</ele>
        <time>2021-03-07T00:13:30Z</time>
      </trkpt>
      <trkpt lat="46.82618" lon="-1.5238">
        <ele>66</ele>
        <time>2021-03-07T00:13:33Z</time>
      </trkpt>
      <trkpt lat="46.82609" lon="-1.52396">
        <ele>66</ele>
        <time>2021-03-07T00:13:36Z</time>
      </trkpt>
      <trkpt lat="46.82596" lon="-1.52412">
        <ele>66</ele>
        <time>2021-03-07T00:13:39Z</time>
      </trkpt>
      <trkpt lat="46.82443" lon="-1.52578">
        <ele>65</ele>
        <time>2021-03-07T00:14:12Z</time>
      </trkpt>
      <trkpt lat="46.82408" lon="-1.52615">
        <ele>66</ele>
        <time>2021-03-07T00:14:20Z</time>
      </trkpt>
      <trkpt lat="46.82401" lon="-1.52624">
        <ele>66</ele>
        <time>2021-03-07T00:14:22Z</time>
      </trkpt>
      <trkpt lat="46.82395" lon="-1.52631">
        <ele>66</ele>
        <time>2021-03-07T00:14:23Z</time>
      </trkpt>
      <trkpt lat="46.82389" lon="-1.52637">
        <ele>66</ele>
        <time>2021-03-07T00:14:24Z</time>
      </trkpt>
      <trkpt lat="46.82367" lon="-1.52667">
        <ele>66</ele>
        <time>2021-03-07T00:14:30Z</time>
      </trkpt>
      <trkpt lat="46.82344" lon="-1.52701">
        <ele>66</ele>
        <time>2021-03-07T00:14:36Z</time>
      </trkpt>
      <trkpt lat="46.82331" lon="-1.52723">
        <ele>66</ele>
        <time>2021-03-07T00:14:39Z</time>
      </trkpt>
      <trkpt lat="46.82323" lon="-1.52736">
        <ele>66</ele>
        <time>2021-03-07T00:14:41Z</time>
      </trkpt>
      <trkpt lat="46.82319" lon="-1.52744">
        <ele>66</ele>
        <time>2021-03-07T00:14:42Z</time>
      </trkpt>
      <trkpt lat="46.82315" lon="-1.52766">
        <ele>66</ele>
        <time>2021-03-07T00:14:45Z</time>
      </trkpt>
      <trkpt lat="46.82314" lon="-1.52786">
        <ele>66</ele>
        <time>2021-03-07T00:14:48Z</time>
      </trkpt>
      <trkpt lat="46.82316" lon="-1.52799">
        <ele>66</ele>
        <time>2021-03-07T00:14:49Z</time>
      </trkpt>
      <trkpt lat="46.82322" lon="-1.52814">
        <ele>66</ele>
        <time>2021-03-07T00:14:51Z</time>
      </trkpt>
      <trkpt lat="46.82324" lon="-1.52819">
        <ele>66</ele>
        <time>2021-03-07T00:14:52Z</time>
      </trkpt>
      <trkpt lat="46.82335" lon="-1.5284">
        <ele>66</ele>
        <time>2021-03-07T00:14:55Z</time>
      </trkpt>
      <trkpt lat="46.82359" lon="-1.52884">
        <ele>65</ele>
        <time>2021-03-07T00:15:02Z</time>
      </trkpt>
      <trkpt lat="46.82369" lon="-1.52902">
        <ele>65</ele>
        <time>2021-03-07T00:15:05Z</time>
      </trkpt>
      <trkpt lat="46.82378" lon="-1.52919">
        <ele>64</ele>
        <time>2021-03-07T00:15:08Z</time>
      </trkpt>
      <trkpt lat="46.82381" lon="-1.52925">
        <ele>64</ele>
        <time>2021-03-07T00:15:09Z</time>
      </trkpt>
      <trkpt lat="46.82387" lon="-1.52937">
        <ele>64</ele>
        <time>2021-03-07T00:15:10Z</time>
      </trkpt>
      <trkpt lat="46.82399" lon="-1.52964">
        <ele>64</ele>
        <time>2021-03-07T00:15:14Z</time>
      </trkpt>
      <trkpt lat="46.82405" lon="-1.52976">
        <ele>63</ele>
        <time>2021-03-07T00:15:16Z</time>
      </trkpt>
      <trkpt lat="46.82413" lon="-1.52999">
        <ele>63</ele>
        <time>2021-03-07T00:15:19Z</time>
      </trkpt>
      <trkpt lat="46.82416" lon="-1.53012">
        <ele>63</ele>
        <time>2021-03-07T00:15:21Z</time>
      </trkpt>
      <trkpt lat="46.82418" lon="-1.53023">
        <ele>63</ele>
        <time>2021-03-07T00:15:22Z</time>
      </trkpt>
      <trkpt lat="46.82419" lon="-1.53034">
        <ele>63</ele>
        <time>2021-03-07T00:15:24Z</time>
      </trkpt>
      <trkpt lat="46.82419" lon="-1.53062">
        <ele>62</ele>
        <time>2021-03-07T00:15:27Z</time>
      </trkpt>
      <trkpt lat="46.8242" lon="-1.53088">
        <ele>62</ele>
        <time>2021-03-07T00:15:30Z</time>
      </trkpt>
      <trkpt lat="46.82422" lon="-1.53093">
        <ele>62</ele>
        <time>2021-03-07T00:15:31Z</time>
      </trkpt>
      <trkpt lat="46.82449" lon="-1.53126">
        <ele>62</ele>
        <time>2021-03-07T00:15:37Z</time>
      </trkpt>
      <trkpt lat="46.82453" lon="-1.53139">
        <ele>62</ele>
        <time>2021-03-07T00:15:39Z</time>
      </trkpt>
      <trkpt lat="46.82453" lon="-1.53144">
        <ele>62</ele>
        <time>2021-03-07T00:15:40Z</time>
      </trkpt>
      <trkpt lat="46.82453" lon="-1.53151">
        <ele>62</ele>
        <time>2021-03-07T00:15:40Z</time>
      </trkpt>
      <trkpt lat="46.8245" lon="-1.53163">
        <ele>62</ele>
        <time>2021-03-07T00:15:42Z</time>
      </trkpt>
      <trkpt lat="46.82434" lon="-1.53212">
        <ele>62</ele>
        <time>2021-03-07T00:15:49Z</time>
      </trkpt>
      <trkpt lat="46.82426" lon="-1.5324">
        <ele>62</ele>
        <time>2021-03-07T00:15:52Z</time>
      </trkpt>
      <trkpt lat="46.82405" lon="-1.53303">
        <ele>61</ele>
        <time>2021-03-07T00:16:01Z</time>
      </trkpt>
      <trkpt lat="46.82403" lon="-1.53309">
        <ele>61</ele>
        <time>2021-03-07T00:16:02Z</time>
      </trkpt>
      <trkpt lat="46.82366" lon="-1.53423">
        <ele>59</ele>
        <time>2021-03-07T00:16:17Z</time>
      </trkpt>
      <trkpt lat="46.82361" lon="-1.53436">
        <ele>59</ele>
        <time>2021-03-07T00:16:19Z</time>
      </trkpt>
      <trkpt lat="46.82339" lon="-1.53501">
        <ele>59</ele>
        <time>2021-03-07T00:16:28Z</time>
      </trkpt>
      <trkpt lat="46.82333" lon="-1.53523">
        <ele>59</ele>
        <time>2021-03-07T00:16:30Z</time>
      </trkpt>
      <trkpt lat="46.82308" lon="-1.53601">
        <ele>59</ele>
        <time>2021-03-07T00:16:41Z</time>
      </trkpt>
      <trkpt lat="46.8229" lon="-1.53658">
        <ele>59</ele>
        <time>2021-03-07T00:16:49Z</time>
      </trkpt>
      <trkpt lat="46.82288" lon="-1.53665">
        <ele>59</ele>
        <time>2021-03-07T00:16:50Z</time>
      </trkpt>
      <trkpt lat="46.82264" lon="-1.5374">
        <ele>57</ele>
        <time>2021-03-07T00:17:00Z</time>
      </trkpt>
      <trkpt lat="46.82261" lon="-1.53749">
        <ele>57</ele>
        <time>2021-03-07T00:17:01Z</time>
      </trkpt>
      <trkpt lat="46.82258" lon="-1.53759">
        <ele>56</ele>
        <time>2021-03-07T00:17:02Z</time>
      </trkpt>
      <trkpt lat="46.82199" lon="-1.53945">
        <ele>59</ele>
        <time>2021-03-07T00:17:27Z</time>
      </trkpt>
      <trkpt lat="46.8219" lon="-1.53972">
        <ele>60</ele>
        <time>2021-03-07T00:17:31Z</time>
      </trkpt>
      <trkpt lat="46.82181" lon="-1.54">
        <ele>61</ele>
        <time>2021-03-07T00:17:35Z</time>
      </trkpt>
      <trkpt lat="46.82156" lon="-1.54101">
        <ele>60</ele>
        <time>2021-03-07T00:17:48Z</time>
      </trkpt>
      <trkpt lat="46.82151" lon="-1.54142">
        <ele>59</ele>
        <time>2021-03-07T00:17:53Z</time>
      </trkpt>
      <trkpt lat="46.82148" lon="-1.54175">
        <ele>59</ele>
        <time>2021-03-07T00:17:57Z</time>
      </trkpt>
      <trkpt lat="46.82142" lon="-1.54249">
        <ele>57</ele>
        <time>2021-03-07T00:18:06Z</time>
      </trkpt>
      <trkpt lat="46.82138" lon="-1.54284">
        <ele>56</ele>
        <time>2021-03-07T00:18:10Z</time>
      </trkpt>
      <trkpt lat="46.82126" lon="-1.54369">
        <ele>57</ele>
        <time>2021-03-07T00:18:21Z</time>
      </trkpt>
      <trkpt lat="46.82121" lon="-1.54393">
        <ele>57</ele>
        <time>2021-03-07T00:18:24Z</time>
      </trkpt>
      <trkpt lat="46.82117" lon="-1.54414">
        <ele>57</ele>
        <time>2021-03-07T00:18:26Z</time>
      </trkpt>
      <trkpt lat="46.82101" lon="-1.54471">
        <ele>58</ele>
        <time>2021-03-07T00:18:34Z</time>
      </trkpt>
      <trkpt lat="46.8207" lon="-1.54552">
        <ele>59</ele>
        <time>2021-03-07T00:18:45Z</time>
      </trkpt>
      <trkpt lat="46.82044" lon="-1.54602">
        <ele>60</ele>
        <time>2021-03-07T00:18:53Z</time>
      </trkpt>
      <trkpt lat="46.81943" lon="-1.54781">
        <ele>62</ele>
        <time>2021-03-07T00:19:21Z</time>
      </trkpt>
      <trkpt lat="46.81916" lon="-1.54831">
        <ele>63</ele>
        <time>2021-03-07T00:19:29Z</time>
      </trkpt>
      <trkpt lat="46.81888" lon="-1.54878">
        <ele>62</ele>
        <time>2021-03-07T00:19:36Z</time>
      </trkpt>
      <trkpt lat="46.81846" lon="-1.54955">
        <ele>62</ele>
        <time>2021-03-07T00:19:48Z</time>
      </trkpt>
      <trkpt lat="46.81824" lon="-1.55006">
        <ele>63</ele>
        <time>2021-03-07T00:19:56Z</time>
      </trkpt>
      <trkpt lat="46.8179" lon="-1.55106">
        <ele>62</ele>
        <time>2021-03-07T00:20:09Z</time>
      </trkpt>
      <trkpt lat="46.81665" lon="-1.55491">
        <ele>64</ele>
        <time>2021-03-07T00:21:01Z</time>
      </trkpt>
      <trkpt lat="46.81654" lon="-1.55537">
        <ele>64</ele>
        <time>2021-03-07T00:21:07Z</time>
      </trkpt>
      <trkpt lat="46.81651" lon="-1.5558">
        <ele>63</ele>
        <time>2021-03-07T00:21:12Z</time>
      </trkpt>
      <trkpt lat="46.81653" lon="-1.55625">
        <ele>63</ele>
        <time>2021-03-07T00:21:18Z</time>
      </trkpt>
      <trkpt lat="46.81657" lon="-1.55652">
        <ele>63</ele>
        <time>2021-03-07T00:21:21Z</time>
      </trkpt>
      <trkpt lat="46.81664" lon="-1.55707">
        <ele>63</ele>
        <time>2021-03-07T00:21:28Z</time>
      </trkpt>
      <trkpt lat="46.81682" lon="-1.55839">
        <ele>63</ele>
        <time>2021-03-07T00:21:45Z</time>
      </trkpt>
      <trkpt lat="46.81729" lon="-1.56174">
        <ele>59</ele>
        <time>2021-03-07T00:22:26Z</time>
      </trkpt>
      <trkpt lat="46.81746" lon="-1.56305">
        <ele>59</ele>
        <time>2021-03-07T00:22:42Z</time>
      </trkpt>
      <trkpt lat="46.81759" lon="-1.56393">
        <ele>59</ele>
        <time>2021-03-07T00:22:53Z</time>
      </trkpt>
      <trkpt lat="46.81769" lon="-1.56444">
        <ele>59</ele>
        <time>2021-03-07T00:23:00Z</time>
      </trkpt>
      <trkpt lat="46.81778" lon="-1.56474">
        <ele>58</ele>
        <time>2021-03-07T00:23:04Z</time>
      </trkpt>
      <trkpt lat="46.81812" lon="-1.56571">
        <ele>59</ele>
        <time>2021-03-07T00:23:17Z</time>
      </trkpt>
      <trkpt lat="46.81818" lon="-1.56591">
        <ele>59</ele>
        <time>2021-03-07T00:23:20Z</time>
      </trkpt>
      <trkpt lat="46.81822" lon="-1.56614">
        <ele>58</ele>
        <time>2021-03-07T00:23:23Z</time>
      </trkpt>
      <trkpt lat="46.81828" lon="-1.56659">
        <ele>58</ele>
        <time>2021-03-07T00:23:28Z</time>
      </trkpt>
      <trkpt lat="46.81829" lon="-1.56706">
        <ele>57</ele>
        <time>2021-03-07T00:23:34Z</time>
      </trkpt>
      <trkpt lat="46.81827" lon="-1.56752">
        <ele>57</ele>
        <time>2021-03-07T00:23:40Z</time>
      </trkpt>
      <trkpt lat="46.81824" lon="-1.56773">
        <ele>57</ele>
        <time>2021-03-07T00:23:42Z</time>
      </trkpt>
      <trkpt lat="46.81816" lon="-1.56815">
        <ele>56</ele>
        <time>2021-03-07T00:23:47Z</time>
      </trkpt>
      <trkpt lat="46.81807" lon="-1.56844">
        <ele>56</ele>
        <time>2021-03-07T00:23:51Z</time>
      </trkpt>
      <trkpt lat="46.81783" lon="-1.56906">
        <ele>57</ele>
        <time>2021-03-07T00:24:00Z</time>
      </trkpt>
      <trkpt lat="46.81769" lon="-1.56939">
        <ele>57</ele>
        <time>2021-03-07T00:24:05Z</time>
      </trkpt>
      <trkpt lat="46.81748" lon="-1.56988">
        <ele>56</ele>
        <time>2021-03-07T00:24:12Z</time>
      </trkpt>
      <trkpt lat="46.81737" lon="-1.57013">
        <ele>56</ele>
        <time>2021-03-07T00:24:15Z</time>
      </trkpt>
      <trkpt lat="46.81703" lon="-1.57089">
        <ele>55</ele>
        <time>2021-03-07T00:24:26Z</time>
      </trkpt>
      <trkpt lat="46.81679" lon="-1.57142">
        <ele>55</ele>
        <time>2021-03-07T00:24:34Z</time>
      </trkpt>
      <trkpt lat="46.81656" lon="-1.57195">
        <ele>54</ele>
        <time>2021-03-07T00:24:42Z</time>
      </trkpt>
      <trkpt lat="46.81624" lon="-1.57267">
        <ele>52</ele>
        <time>2021-03-07T00:24:52Z</time>
      </trkpt>
      <trkpt lat="46.81597" lon="-1.57329">
        <ele>51</ele>
        <time>2021-03-07T00:25:01Z</time>
      </trkpt>
      <trkpt lat="46.81557" lon="-1.57418">
        <ele>50</ele>
        <time>2021-03-07T00:25:14Z</time>
      </trkpt>
      <trkpt lat="46.81561" lon="-1.57421">
        <ele>50</ele>
        <time>2021-03-07T00:25:15Z</time>
      </trkpt>
      <trkpt lat="46.81578" lon="-1.57425">
        <ele>51</ele>
        <time>2021-03-07T00:25:18Z</time>
      </trkpt>
      <trkpt lat="46.81596" lon="-1.57423">
        <ele>51</ele>
        <time>2021-03-07T00:25:21Z</time>
      </trkpt>
      <trkpt lat="46.81609" lon="-1.57425">
        <ele>51</ele>
        <time>2021-03-07T00:25:24Z</time>
      </trkpt>
      <trkpt lat="46.81801" lon="-1.57462">
        <ele>52</ele>
        <time>2021-03-07T00:25:58Z</time>
      </trkpt>
      <trkpt lat="46.81854" lon="-1.57475">
        <ele>54</ele>
        <time>2021-03-07T00:26:08Z</time>
      </trkpt>
      <trkpt lat="46.81869" lon="-1.57483">
        <ele>54</ele>
        <time>2021-03-07T00:26:10Z</time>
      </trkpt>
      <trkpt lat="46.81883" lon="-1.57498">
        <ele>55</ele>
        <time>2021-03-07T00:26:14Z</time>
      </trkpt>
      <trkpt lat="46.81897" lon="-1.57522">
        <ele>56</ele>
        <time>2021-03-07T00:26:17Z</time>
      </trkpt>
      <trkpt lat="46.81901" lon="-1.57533">
        <ele>56</ele>
        <time>2021-03-07T00:26:19Z</time>
      </trkpt>
      <trkpt lat="46.81908" lon="-1.57555">
        <ele>56</ele>
        <time>2021-03-07T00:26:22Z</time>
      </trkpt>
      <trkpt lat="46.81936" lon="-1.57671">
        <ele>57</ele>
        <time>2021-03-07T00:26:37Z</time>
      </trkpt>
      <trkpt lat="46.81953" lon="-1.57719">
        <ele>58</ele>
        <time>2021-03-07T00:26:43Z</time>
      </trkpt>
      <trkpt lat="46.8197" lon="-1.57753">
        <ele>59</ele>
        <time>2021-03-07T00:26:49Z</time>
      </trkpt>
      <trkpt lat="46.8204" lon="-1.57861">
        <ele>62</ele>
        <time>2021-03-07T00:27:07Z</time>
      </trkpt>
      <trkpt lat="46.82067" lon="-1.57913">
        <ele>64</ele>
        <time>2021-03-07T00:27:15Z</time>
      </trkpt>
      <trkpt lat="46.82087" lon="-1.5796">
        <ele>63</ele>
        <time>2021-03-07T00:27:21Z</time>
      </trkpt>
      <trkpt lat="46.82104" lon="-1.58012">
        <ele>61</ele>
        <time>2021-03-07T00:27:28Z</time>
      </trkpt>
      <trkpt lat="46.82108" lon="-1.58024">
        <ele>61</ele>
        <time>2021-03-07T00:27:30Z</time>
      </trkpt>
      <trkpt lat="46.82123" lon="-1.58069">
        <ele>59</ele>
        <time>2021-03-07T00:27:36Z</time>
      </trkpt>
      <trkpt lat="46.82129" lon="-1.58087">
        <ele>58</ele>
        <time>2021-03-07T00:27:39Z</time>
      </trkpt>
      <trkpt lat="46.82136" lon="-1.58116">
        <ele>56</ele>
        <time>2021-03-07T00:27:42Z</time>
      </trkpt>
      <trkpt lat="46.82138" lon="-1.58121">
        <ele>55</ele>
        <time>2021-03-07T00:27:43Z</time>
      </trkpt>
      <trkpt lat="46.82141" lon="-1.58127">
        <ele>55</ele>
        <time>2021-03-07T00:27:44Z</time>
      </trkpt>
      <trkpt lat="46.82156" lon="-1.58145">
        <ele>53</ele>
        <time>2021-03-07T00:27:47Z</time>
      </trkpt>
      <trkpt lat="46.82295" lon="-1.58239">
        <ele>44</ele>
        <time>2021-03-07T00:28:15Z</time>
      </trkpt>
      <trkpt lat="46.82308" lon="-1.5825">
        <ele>43</ele>
        <time>2021-03-07T00:28:17Z</time>
      </trkpt>
      <trkpt lat="46.8238" lon="-1.58332">
        <ele>40</ele>
        <time>2021-03-07T00:28:33Z</time>
      </trkpt>
      <trkpt lat="46.82484" lon="-1.58458">
        <ele>38</ele>
        <time>2021-03-07T00:28:58Z</time>
      </trkpt>
      <trkpt lat="46.82532" lon="-1.58514">
        <ele>38</ele>
        <time>2021-03-07T00:29:08Z</time>
      </trkpt>
      <trkpt lat="46.8258" lon="-1.58572">
        <ele>38</ele>
        <time>2021-03-07T00:29:20Z</time>
      </trkpt>
      <trkpt lat="46.82626" lon="-1.58626">
        <ele>36</ele>
        <time>2021-03-07T00:29:30Z</time>
      </trkpt>
      <trkpt lat="46.82643" lon="-1.58646">
        <ele>36</ele>
        <time>2021-03-07T00:29:34Z</time>
      </trkpt>
      <trkpt lat="46.82661" lon="-1.58663">
        <ele>36</ele>
        <time>2021-03-07T00:29:38Z</time>
      </trkpt>
      <trkpt lat="46.82693" lon="-1.58681">
        <ele>36</ele>
        <time>2021-03-07T00:29:44Z</time>
      </trkpt>
      <trkpt lat="46.82892" lon="-1.58756">
        <ele>33</ele>
        <time>2021-03-07T00:30:20Z</time>
      </trkpt>
      <trkpt lat="46.82902" lon="-1.58762">
        <ele>32</ele>
        <time>2021-03-07T00:30:22Z</time>
      </trkpt>
      <trkpt lat="46.82914" lon="-1.58769">
        <ele>32</ele>
        <time>2021-03-07T00:30:25Z</time>
      </trkpt>
      <trkpt lat="46.82928" lon="-1.58781">
        <ele>32</ele>
        <time>2021-03-07T00:30:28Z</time>
      </trkpt>
      <trkpt lat="46.82993" lon="-1.58843">
        <ele>33</ele>
        <time>2021-03-07T00:30:41Z</time>
      </trkpt>
      <trkpt lat="46.82997" lon="-1.58847">
        <ele>33</ele>
        <time>2021-03-07T00:30:42Z</time>
      </trkpt>
      <trkpt lat="46.83073" lon="-1.58918">
        <ele>33</ele>
        <time>2021-03-07T00:30:58Z</time>
      </trkpt>
      <trkpt lat="46.83091" lon="-1.58936">
        <ele>33</ele>
        <time>2021-03-07T00:31:02Z</time>
      </trkpt>
      <trkpt lat="46.83112" lon="-1.58964">
        <ele>33</ele>
        <time>2021-03-07T00:31:07Z</time>
      </trkpt>
      <trkpt lat="46.8312" lon="-1.58977">
        <ele>32</ele>
        <time>2021-03-07T00:31:09Z</time>
      </trkpt>
      <trkpt lat="46.83143" lon="-1.59014">
        <ele>31</ele>
        <time>2021-03-07T00:31:15Z</time>
      </trkpt>
      <trkpt lat="46.83145" lon="-1.59017">
        <ele>31</ele>
        <time>2021-03-07T00:31:16Z</time>
      </trkpt>
      <trkpt lat="46.83147" lon="-1.5902">
        <ele>31</ele>
        <time>2021-03-07T00:31:16Z</time>
      </trkpt>
      <trkpt lat="46.83162" lon="-1.59049">
        <ele>30</ele>
        <time>2021-03-07T00:31:21Z</time>
      </trkpt>
      <trkpt lat="46.83169" lon="-1.59065">
        <ele>30</ele>
        <time>2021-03-07T00:31:23Z</time>
      </trkpt>
      <trkpt lat="46.83173" lon="-1.5908">
        <ele>30</ele>
        <time>2021-03-07T00:31:25Z</time>
      </trkpt>
      <trkpt lat="46.83176" lon="-1.59104">
        <ele>30</ele>
        <time>2021-03-07T00:31:28Z</time>
      </trkpt>
      <trkpt lat="46.83175" lon="-1.59129">
        <ele>30</ele>
        <time>2021-03-07T00:31:31Z</time>
      </trkpt>
      <trkpt lat="46.83171" lon="-1.59161">
        <ele>30</ele>
        <time>2021-03-07T00:31:35Z</time>
      </trkpt>
      <trkpt lat="46.83167" lon="-1.59196">
        <ele>31</ele>
        <time>2021-03-07T00:31:39Z</time>
      </trkpt>
      <trkpt lat="46.83165" lon="-1.5921">
        <ele>32</ele>
        <time>2021-03-07T00:31:41Z</time>
      </trkpt>
      <trkpt lat="46.83162" lon="-1.59221">
        <ele>32</ele>
        <time>2021-03-07T00:31:43Z</time>
      </trkpt>
      <trkpt lat="46.83158" lon="-1.59232">
        <ele>32</ele>
        <time>2021-03-07T00:31:44Z</time>
      </trkpt>
      <trkpt lat="46.83153" lon="-1.5924">
        <ele>32</ele>
        <time>2021-03-07T00:31:45Z</time>
      </trkpt>
      <trkpt lat="46.83075" lon="-1.59318">
        <ele>35</ele>
        <time>2021-03-07T00:32:02Z</time>
      </trkpt>
      <trkpt lat="46.83057" lon="-1.59343">
        <ele>35</ele>
        <time>2021-03-07T00:32:07Z</time>
      </trkpt>
      <trkpt lat="46.83046" lon="-1.59365">
        <ele>36</ele>
        <time>2021-03-07T00:32:10Z</time>
      </trkpt>
      <trkpt lat="46.83041" lon="-1.59378">
        <ele>36</ele>
        <time>2021-03-07T00:32:12Z</time>
      </trkpt>
      <trkpt lat="46.83037" lon="-1.5939">
        <ele>36</ele>
        <time>2021-03-07T00:32:13Z</time>
      </trkpt>
      <trkpt lat="46.83025" lon="-1.59452">
        <ele>38</ele>
        <time>2021-03-07T00:32:21Z</time>
      </trkpt>
      <trkpt lat="46.83024" lon="-1.59506">
        <ele>39</ele>
        <time>2021-03-07T00:32:28Z</time>
      </trkpt>
      <trkpt lat="46.83029" lon="-1.59517">
        <ele>39</ele>
        <time>2021-03-07T00:32:29Z</time>
      </trkpt>
      <trkpt lat="46.83054" lon="-1.59542">
        <ele>40</ele>
        <time>2021-03-07T00:32:35Z</time>
      </trkpt>
      <trkpt lat="46.83056" lon="-1.59547">
        <ele>40</ele>
        <time>2021-03-07T00:32:36Z</time>
      </trkpt>
      <trkpt lat="46.83058" lon="-1.59551">
        <ele>40</ele>
        <time>2021-03-07T00:32:36Z</time>
      </trkpt>
      <trkpt lat="46.83061" lon="-1.59555">
        <ele>40</ele>
        <time>2021-03-07T00:32:37Z</time>
      </trkpt>
      <trkpt lat="46.8307" lon="-1.59574">
        <ele>40</ele>
        <time>2021-03-07T00:32:40Z</time>
      </trkpt>
      <trkpt lat="46.83094" lon="-1.59617">
        <ele>42</ele>
        <time>2021-03-07T00:32:46Z</time>
      </trkpt>
      <trkpt lat="46.83099" lon="-1.59626">
        <ele>42</ele>
        <time>2021-03-07T00:32:48Z</time>
      </trkpt>
      <trkpt lat="46.83101" lon="-1.5963">
        <ele>42</ele>
        <time>2021-03-07T00:32:48Z</time>
      </trkpt>
      <trkpt lat="46.83113" lon="-1.59653">
        <ele>43</ele>
        <time>2021-03-07T00:32:52Z</time>
      </trkpt>
      <trkpt lat="46.83121" lon="-1.59668">
        <ele>44</ele>
        <time>2021-03-07T00:32:54Z</time>
      </trkpt>
      <trkpt lat="46.83132" lon="-1.59694">
        <ele>45</ele>
        <time>2021-03-07T00:32:58Z</time>
      </trkpt>
      <trkpt lat="46.83134" lon="-1.597">
        <ele>45</ele>
        <time>2021-03-07T00:32:59Z</time>
      </trkpt>
      <trkpt lat="46.83149" lon="-1.59738">
        <ele>47</ele>
        <time>2021-03-07T00:33:04Z</time>
      </trkpt>
      <trkpt lat="46.83161" lon="-1.59776">
        <ele>48</ele>
        <time>2021-03-07T00:33:09Z</time>
      </trkpt>
      <trkpt lat="46.83173" lon="-1.59873">
        <ele>51</ele>
        <time>2021-03-07T00:33:21Z</time>
      </trkpt>
      <trkpt lat="46.83174" lon="-1.59884">
        <ele>51</ele>
        <time>2021-03-07T00:33:23Z</time>
      </trkpt>
      <trkpt lat="46.83176" lon="-1.5989">
        <ele>52</ele>
        <time>2021-03-07T00:33:23Z</time>
      </trkpt>
      <trkpt lat="46.83178" lon="-1.59903">
        <ele>52</ele>
        <time>2021-03-07T00:33:25Z</time>
      </trkpt>
      <trkpt lat="46.83188" lon="-1.59928">
        <ele>53</ele>
        <time>2021-03-07T00:33:29Z</time>
      </trkpt>
      <trkpt lat="46.83192" lon="-1.59935">
        <ele>53</ele>
        <time>2021-03-07T00:33:30Z</time>
      </trkpt>
      <trkpt lat="46.83199" lon="-1.59948">
        <ele>53</ele>
        <time>2021-03-07T00:33:32Z</time>
      </trkpt>
      <trkpt lat="46.83211" lon="-1.59965">
        <ele>53</ele>
        <time>2021-03-07T00:33:35Z</time>
      </trkpt>
      <trkpt lat="46.83256" lon="-1.6003">
        <ele>53</ele>
        <time>2021-03-07T00:33:46Z</time>
      </trkpt>
      <trkpt lat="46.83268" lon="-1.60048">
        <ele>53</ele>
        <time>2021-03-07T00:33:49Z</time>
      </trkpt>
      <trkpt lat="46.83271" lon="-1.60052">
        <ele>53</ele>
        <time>2021-03-07T00:33:50Z</time>
      </trkpt>
      <trkpt lat="46.83281" lon="-1.60066">
        <ele>52</ele>
        <time>2021-03-07T00:33:52Z</time>
      </trkpt>
      <trkpt lat="46.83314" lon="-1.60113">
        <ele>51</ele>
        <time>2021-03-07T00:34:00Z</time>
      </trkpt>
      <trkpt lat="46.83327" lon="-1.6013">
        <ele>51</ele>
        <time>2021-03-07T00:34:03Z</time>
      </trkpt>
      <trkpt lat="46.83359" lon="-1.60175">
        <ele>50</ele>
        <time>2021-03-07T00:34:11Z</time>
      </trkpt>
      <trkpt lat="46.83434" lon="-1.60283">
        <ele>46</ele>
        <time>2021-03-07T00:34:30Z</time>
      </trkpt>
      <trkpt lat="46.83437" lon="-1.60288">
        <ele>46</ele>
        <time>2021-03-07T00:34:31Z</time>
      </trkpt>
      <trkpt lat="46.8344" lon="-1.60286">
        <ele>46</ele>
        <time>2021-03-07T00:34:31Z</time>
      </trkpt>
      <trkpt lat="46.83448" lon="-1.60288">
        <ele>46</ele>
        <time>2021-03-07T00:34:33Z</time>
      </trkpt>
      <trkpt lat="46.83449" lon="-1.60291">
        <ele>46</ele>
        <time>2021-03-07T00:34:33Z</time>
      </trkpt>
      <trkpt lat="46.8345" lon="-1.60295">
        <ele>46</ele>
        <time>2021-03-07T00:34:34Z</time>
      </trkpt>
      <trkpt lat="46.8345" lon="-1.60303">
        <ele>46</ele>
        <time>2021-03-07T00:34:35Z</time>
      </trkpt>
      <trkpt lat="46.83448" lon="-1.60306">
        <ele>46</ele>
        <time>2021-03-07T00:34:35Z</time>
      </trkpt>
      <trkpt lat="46.83451" lon="-1.60311">
        <ele>46</ele>
        <time>2021-03-07T00:34:36Z</time>
      </trkpt>
      <trkpt lat="46.83455" lon="-1.60318">
        <ele>45</ele>
        <time>2021-03-07T00:34:37Z</time>
      </trkpt>
      <trkpt lat="46.83472" lon="-1.60346">
        <ele>44</ele>
        <time>2021-03-07T00:34:42Z</time>
      </trkpt>
      <trkpt lat="46.83562" lon="-1.60509">
        <ele>43</ele>
        <time>2021-03-07T00:35:07Z</time>
      </trkpt>
      <trkpt lat="46.83584" lon="-1.60549">
        <ele>44</ele>
        <time>2021-03-07T00:35:14Z</time>
      </trkpt>
      <trkpt lat="46.83592" lon="-1.60563">
        <ele>45</ele>
        <time>2021-03-07T00:35:16Z</time>
      </trkpt>
      <trkpt lat="46.83599" lon="-1.60585">
        <ele>45</ele>
        <time>2021-03-07T00:35:19Z</time>
      </trkpt>
      <trkpt lat="46.83616" lon="-1.60684">
        <ele>47</ele>
        <time>2021-03-07T00:35:31Z</time>
      </trkpt>
      <trkpt lat="46.83617" lon="-1.60691">
        <ele>47</ele>
        <time>2021-03-07T00:35:32Z</time>
      </trkpt>
      <trkpt lat="46.83619" lon="-1.60703">
        <ele>48</ele>
        <time>2021-03-07T00:35:34Z</time>
      </trkpt>
      <trkpt lat="46.83624" lon="-1.60728">
        <ele>48</ele>
        <time>2021-03-07T00:35:37Z</time>
      </trkpt>
      <trkpt lat="46.8363" lon="-1.60761">
        <ele>48</ele>
        <time>2021-03-07T00:35:41Z</time>
      </trkpt>
      <trkpt lat="46.83634" lon="-1.60773">
        <ele>48</ele>
        <time>2021-03-07T00:35:42Z</time>
      </trkpt>
      <trkpt lat="46.83634" lon="-1.6078">
        <ele>48</ele>
        <time>2021-03-07T00:35:43Z</time>
      </trkpt>
      <trkpt lat="46.83643" lon="-1.6078">
        <ele>48</ele>
        <time>2021-03-07T00:35:45Z</time>
      </trkpt>
      <trkpt lat="46.83645" lon="-1.60788">
        <ele>48</ele>
        <time>2021-03-07T00:35:46Z</time>
      </trkpt>
      <trkpt lat="46.83673" lon="-1.60841">
        <ele>48</ele>
        <time>2021-03-07T00:35:54Z</time>
      </trkpt>
      <trkpt lat="46.83684" lon="-1.60868">
        <ele>48</ele>
        <time>2021-03-07T00:35:58Z</time>
      </trkpt>
      <trkpt lat="46.83774" lon="-1.61193">
        <ele>53</ele>
        <time>2021-03-07T00:36:41Z</time>
      </trkpt>
      <trkpt lat="46.83788" lon="-1.61225">
        <ele>53</ele>
        <time>2021-03-07T00:36:45Z</time>
      </trkpt>
      <trkpt lat="46.83799" lon="-1.61242">
        <ele>54</ele>
        <time>2021-03-07T00:36:48Z</time>
      </trkpt>
      <trkpt lat="46.83833" lon="-1.61282">
        <ele>54</ele>
        <time>2021-03-07T00:36:56Z</time>
      </trkpt>
      <trkpt lat="46.84025" lon="-1.61442">
        <ele>55</ele>
        <time>2021-03-07T00:37:35Z</time>
      </trkpt>
      <trkpt lat="46.84039" lon="-1.61459">
        <ele>56</ele>
        <time>2021-03-07T00:37:38Z</time>
      </trkpt>
      <trkpt lat="46.84046" lon="-1.61471">
        <ele>56</ele>
        <time>2021-03-07T00:37:40Z</time>
      </trkpt>
      <trkpt lat="46.84057" lon="-1.61499">
        <ele>57</ele>
        <time>2021-03-07T00:37:44Z</time>
      </trkpt>
      <trkpt lat="46.84075" lon="-1.61601">
        <ele>56</ele>
        <time>2021-03-07T00:37:57Z</time>
      </trkpt>
      <trkpt lat="46.84121" lon="-1.61893">
        <ele>51</ele>
        <time>2021-03-07T00:38:34Z</time>
      </trkpt>
      <trkpt lat="46.84142" lon="-1.62013">
        <ele>49</ele>
        <time>2021-03-07T00:38:49Z</time>
      </trkpt>
      <trkpt lat="46.84149" lon="-1.62043">
        <ele>48</ele>
        <time>2021-03-07T00:38:52Z</time>
      </trkpt>
      <trkpt lat="46.84159" lon="-1.62071">
        <ele>47</ele>
        <time>2021-03-07T00:38:56Z</time>
      </trkpt>
      <trkpt lat="46.84188" lon="-1.6214">
        <ele>46</ele>
        <time>2021-03-07T00:39:06Z</time>
      </trkpt>
      <trkpt lat="46.84208" lon="-1.62182">
        <ele>46</ele>
        <time>2021-03-07T00:39:12Z</time>
      </trkpt>
      <trkpt lat="46.84225" lon="-1.62207">
        <ele>46</ele>
        <time>2021-03-07T00:39:17Z</time>
      </trkpt>
      <trkpt lat="46.84236" lon="-1.62219">
        <ele>46</ele>
        <time>2021-03-07T00:39:19Z</time>
      </trkpt>
      <trkpt lat="46.84249" lon="-1.62228">
        <ele>46</ele>
        <time>2021-03-07T00:39:22Z</time>
      </trkpt>
      <trkpt lat="46.84261" lon="-1.62233">
        <ele>46</ele>
        <time>2021-03-07T00:39:24Z</time>
      </trkpt>
      <trkpt lat="46.8433" lon="-1.62248">
        <ele>46</ele>
        <time>2021-03-07T00:39:36Z</time>
      </trkpt>
      <trkpt lat="46.84365" lon="-1.62257">
        <ele>47</ele>
        <time>2021-03-07T00:39:43Z</time>
      </trkpt>
      <trkpt lat="46.84387" lon="-1.62266">
        <ele>48</ele>
        <time>2021-03-07T00:39:47Z</time>
      </trkpt>
      <trkpt lat="46.84406" lon="-1.62277">
        <ele>49</ele>
        <time>2021-03-07T00:39:50Z</time>
      </trkpt>
      <trkpt lat="46.84433" lon="-1.62297">
        <ele>50</ele>
        <time>2021-03-07T00:39:56Z</time>
      </trkpt>
      <trkpt lat="46.84448" lon="-1.62311">
        <ele>51</ele>
        <time>2021-03-07T00:39:59Z</time>
      </trkpt>
      <trkpt lat="46.84668" lon="-1.62592">
        <ele>54</ele>
        <time>2021-03-07T00:40:51Z</time>
      </trkpt>
      <trkpt lat="46.84732" lon="-1.62685">
        <ele>51</ele>
        <time>2021-03-07T00:41:07Z</time>
      </trkpt>
      <trkpt lat="46.84757" lon="-1.62711">
        <ele>52</ele>
        <time>2021-03-07T00:41:12Z</time>
      </trkpt>
      <trkpt lat="46.84778" lon="-1.62725">
        <ele>52</ele>
        <time>2021-03-07T00:41:17Z</time>
      </trkpt>
      <trkpt lat="46.8479" lon="-1.62729">
        <ele>52</ele>
        <time>2021-03-07T00:41:19Z</time>
      </trkpt>
      <trkpt lat="46.85169" lon="-1.62774">
        <ele>52</ele>
        <time>2021-03-07T00:42:26Z</time>
      </trkpt>
      <trkpt lat="46.85188" lon="-1.62782">
        <ele>51</ele>
        <time>2021-03-07T00:42:30Z</time>
      </trkpt>
      <trkpt lat="46.85213" lon="-1.62797">
        <ele>50</ele>
        <time>2021-03-07T00:42:35Z</time>
      </trkpt>
      <trkpt lat="46.85305" lon="-1.62865">
        <ele>50</ele>
        <time>2021-03-07T00:42:53Z</time>
      </trkpt>
      <trkpt lat="46.85359" lon="-1.62908">
        <ele>53</ele>
        <time>2021-03-07T00:43:04Z</time>
      </trkpt>
      <trkpt lat="46.85382" lon="-1.62929">
        <ele>53</ele>
        <time>2021-03-07T00:43:09Z</time>
      </trkpt>
      <trkpt lat="46.8549" lon="-1.63041">
        <ele>52</ele>
        <time>2021-03-07T00:43:32Z</time>
      </trkpt>
      <trkpt lat="46.85613" lon="-1.63162">
        <ele>52</ele>
        <time>2021-03-07T00:43:59Z</time>
      </trkpt>
      <trkpt lat="46.85645" lon="-1.63212">
        <ele>51</ele>
        <time>2021-03-07T00:44:07Z</time>
      </trkpt>
      <trkpt lat="46.85843" lon="-1.63657">
        <ele>56</ele>
        <time>2021-03-07T00:45:12Z</time>
      </trkpt>
      <trkpt lat="46.85869" lon="-1.63697">
        <ele>57</ele>
        <time>2021-03-07T00:45:18Z</time>
      </trkpt>
      <trkpt lat="46.86123" lon="-1.63989">
        <ele>58</ele>
        <time>2021-03-07T00:46:16Z</time>
      </trkpt>
      <trkpt lat="46.86266" lon="-1.64149">
        <ele>57</ele>
        <time>2021-03-07T00:46:48Z</time>
      </trkpt>
      <trkpt lat="46.86366" lon="-1.64268">
        <ele>58</ele>
        <time>2021-03-07T00:47:11Z</time>
      </trkpt>
      <trkpt lat="46.86385" lon="-1.64283">
        <ele>58</ele>
        <time>2021-03-07T00:47:15Z</time>
      </trkpt>
      <trkpt lat="46.86408" lon="-1.64295">
        <ele>58</ele>
        <time>2021-03-07T00:47:19Z</time>
      </trkpt>
      <trkpt lat="46.8642" lon="-1.64299">
        <ele>58</ele>
        <time>2021-03-07T00:47:21Z</time>
      </trkpt>
      <trkpt lat="46.86445" lon="-1.64299">
        <ele>58</ele>
        <time>2021-03-07T00:47:26Z</time>
      </trkpt>
      <trkpt lat="46.86827" lon="-1.64224">
        <ele>58</ele>
        <time>2021-03-07T00:48:34Z</time>
      </trkpt>
      <trkpt lat="46.86955" lon="-1.64206">
        <ele>57</ele>
        <time>2021-03-07T00:48:57Z</time>
      </trkpt>
      <trkpt lat="46.86995" lon="-1.64214">
        <ele>57</ele>
        <time>2021-03-07T00:49:04Z</time>
      </trkpt>
      <trkpt lat="46.87341" lon="-1.6443">
        <ele>52</ele>
        <time>2021-03-07T00:50:11Z</time>
      </trkpt>
      <trkpt lat="46.87515" lon="-1.64599">
        <ele>55</ele>
        <time>2021-03-07T00:50:48Z</time>
      </trkpt>
      <trkpt lat="46.87756" lon="-1.6482">
        <ele>59</ele>
        <time>2021-03-07T00:51:39Z</time>
      </trkpt>
      <trkpt lat="46.87786" lon="-1.64845">
        <ele>59</ele>
        <time>2021-03-07T00:51:45Z</time>
      </trkpt>
      <trkpt lat="46.87808" lon="-1.64857">
        <ele>60</ele>
        <time>2021-03-07T00:51:49Z</time>
      </trkpt>
      <trkpt lat="46.87854" lon="-1.64866">
        <ele>60</ele>
        <time>2021-03-07T00:51:58Z</time>
      </trkpt>
      <trkpt lat="46.87949" lon="-1.64877">
        <ele>59</ele>
        <time>2021-03-07T00:52:15Z</time>
      </trkpt>
      <trkpt lat="46.8815" lon="-1.64906">
        <ele>58</ele>
        <time>2021-03-07T00:52:50Z</time>
      </trkpt>
      <trkpt lat="46.88169" lon="-1.64912">
        <ele>58</ele>
        <time>2021-03-07T00:52:54Z</time>
      </trkpt>
      <trkpt lat="46.8819" lon="-1.64924">
        <ele>58</ele>
        <time>2021-03-07T00:52:58Z</time>
      </trkpt>
      <trkpt lat="46.88204" lon="-1.64935">
        <ele>57</ele>
        <time>2021-03-07T00:53:01Z</time>
      </trkpt>
      <trkpt lat="46.88223" lon="-1.64958">
        <ele>57</ele>
        <time>2021-03-07T00:53:05Z</time>
      </trkpt>
      <trkpt lat="46.88242" lon="-1.64992">
        <ele>56</ele>
        <time>2021-03-07T00:53:11Z</time>
      </trkpt>
      <trkpt lat="46.88257" lon="-1.65027">
        <ele>56</ele>
        <time>2021-03-07T00:53:16Z</time>
      </trkpt>
      <trkpt lat="46.8827" lon="-1.65045">
        <ele>56</ele>
        <time>2021-03-07T00:53:19Z</time>
      </trkpt>
      <trkpt lat="46.88277" lon="-1.65051">
        <ele>56</ele>
        <time>2021-03-07T00:53:20Z</time>
      </trkpt>
      <trkpt lat="46.88295" lon="-1.65051">
        <ele>55</ele>
        <time>2021-03-07T00:53:23Z</time>
      </trkpt>
      <trkpt lat="46.883" lon="-1.65052">
        <ele>55</ele>
        <time>2021-03-07T00:53:24Z</time>
      </trkpt>
      <trkpt lat="46.88302" lon="-1.65056">
        <ele>55</ele>
        <time>2021-03-07T00:53:25Z</time>
      </trkpt>
      <trkpt lat="46.88302" lon="-1.65123">
        <ele>55</ele>
        <time>2021-03-07T00:53:33Z</time>
      </trkpt>
      <trkpt lat="46.88303" lon="-1.65144">
        <ele>55</ele>
        <time>2021-03-07T00:53:36Z</time>
      </trkpt>
      <trkpt lat="46.88303" lon="-1.65181">
        <ele>55</ele>
        <time>2021-03-07T00:53:40Z</time>
      </trkpt>
      <trkpt lat="46.88309" lon="-1.65204">
        <ele>55</ele>
        <time>2021-03-07T00:53:43Z</time>
      </trkpt>
      <trkpt lat="46.88314" lon="-1.65215">
        <ele>55</ele>
        <time>2021-03-07T00:53:45Z</time>
      </trkpt>
      <trkpt lat="46.88345" lon="-1.65241">
        <ele>55</ele>
        <time>2021-03-07T00:53:51Z</time>
      </trkpt>
      <trkpt lat="46.88441" lon="-1.65297">
        <ele>52</ele>
        <time>2021-03-07T00:54:09Z</time>
      </trkpt>
      <trkpt lat="46.88475" lon="-1.65323">
        <ele>51</ele>
        <time>2021-03-07T00:54:16Z</time>
      </trkpt>
      <trkpt lat="46.88506" lon="-1.65353">
        <ele>51</ele>
        <time>2021-03-07T00:54:23Z</time>
      </trkpt>
      <trkpt lat="46.88523" lon="-1.65374">
        <ele>50</ele>
        <time>2021-03-07T00:54:27Z</time>
      </trkpt>
      <trkpt lat="46.88543" lon="-1.65402">
        <ele>50</ele>
        <time>2021-03-07T00:54:32Z</time>
      </trkpt>
      <trkpt lat="46.8857" lon="-1.65444">
        <ele>49</ele>
        <time>2021-03-07T00:54:39Z</time>
      </trkpt>
      <trkpt lat="46.89417" lon="-1.66865">
        <ele>45</ele>
        <time>2021-03-07T00:58:28Z</time>
      </trkpt>
      <trkpt lat="46.90006" lon="-1.67855">
        <ele>42</ele>
        <time>2021-03-07T01:01:08Z</time>
      </trkpt>
      <trkpt lat="46.90126" lon="-1.68061">
        <ele>44</ele>
        <time>2021-03-07T01:01:41Z</time>
      </trkpt>
      <trkpt lat="46.90135" lon="-1.68079">
        <ele>44</ele>
        <time>2021-03-07T01:01:43Z</time>
      </trkpt>
      <trkpt lat="46.90141" lon="-1.68098">
        <ele>44</ele>
        <time>2021-03-07T01:01:46Z</time>
      </trkpt>
      <trkpt lat="46.90215" lon="-1.6829">
        <ele>47</ele>
        <time>2021-03-07T01:02:13Z</time>
      </trkpt>
      <trkpt lat="46.90221" lon="-1.68302">
        <ele>47</ele>
        <time>2021-03-07T01:02:14Z</time>
      </trkpt>
      <trkpt lat="46.90242" lon="-1.68329">
        <ele>48</ele>
        <time>2021-03-07T01:02:19Z</time>
      </trkpt>
      <trkpt lat="46.90255" lon="-1.6835">
        <ele>48</ele>
        <time>2021-03-07T01:02:23Z</time>
      </trkpt>
      <trkpt lat="46.90262" lon="-1.68366">
        <ele>48</ele>
        <time>2021-03-07T01:02:25Z</time>
      </trkpt>
      <trkpt lat="46.90263" lon="-1.68396">
        <ele>48</ele>
        <time>2021-03-07T01:02:29Z</time>
      </trkpt>
      <trkpt lat="46.90225" lon="-1.68528">
        <ele>48</ele>
        <time>2021-03-07T01:02:46Z</time>
      </trkpt>
      <trkpt lat="46.90219" lon="-1.68566">
        <ele>48</ele>
        <time>2021-03-07T01:02:51Z</time>
      </trkpt>
      <trkpt lat="46.90219" lon="-1.68597">
        <ele>48</ele>
        <time>2021-03-07T01:02:55Z</time>
      </trkpt>
      <trkpt lat="46.9022" lon="-1.68607">
        <ele>48</ele>
        <time>2021-03-07T01:02:56Z</time>
      </trkpt>
      <trkpt lat="46.90223" lon="-1.68617">
        <ele>48</ele>
        <time>2021-03-07T01:02:57Z</time>
      </trkpt>
      <trkpt lat="46.90231" lon="-1.68635">
        <ele>49</ele>
        <time>2021-03-07T01:03:00Z</time>
      </trkpt>
      <trkpt lat="46.90239" lon="-1.68649">
        <ele>49</ele>
        <time>2021-03-07T01:03:02Z</time>
      </trkpt>
      <trkpt lat="46.90652" lon="-1.69107">
        <ele>52</ele>
        <time>2021-03-07T01:04:34Z</time>
      </trkpt>
      <trkpt lat="46.90824" lon="-1.693">
        <ele>52</ele>
        <time>2021-03-07T01:05:13Z</time>
      </trkpt>
      <trkpt lat="46.91299" lon="-1.69826">
        <ele>45</ele>
        <time>2021-03-07T01:06:59Z</time>
      </trkpt>
      <trkpt lat="46.92751" lon="-1.7145">
        <ele>28</ele>
        <time>2021-03-07T01:12:24Z</time>
      </trkpt>
      <trkpt lat="46.9275" lon="-1.71459">
        <ele>29</ele>
        <time>2021-03-07T01:12:25Z</time>
      </trkpt>
      <trkpt lat="46.92751" lon="-1.71483">
        <ele>29</ele>
        <time>2021-03-07T01:12:28Z</time>
      </trkpt>
      <trkpt lat="46.92754" lon="-1.71532">
        <ele>30</ele>
        <time>2021-03-07T01:12:34Z</time>
      </trkpt>
      <trkpt lat="46.9276" lon="-1.71652">
        <ele>30</ele>
        <time>2021-03-07T01:12:49Z</time>
      </trkpt>
      <trkpt lat="46.92761" lon="-1.71662">
        <ele>30</ele>
        <time>2021-03-07T01:12:50Z</time>
      </trkpt>
      <trkpt lat="46.92765" lon="-1.71753">
        <ele>28</ele>
        <time>2021-03-07T01:13:01Z</time>
      </trkpt>
      <trkpt lat="46.92797" lon="-1.72383">
        <ele>29</ele>
        <time>2021-03-07T01:14:18Z</time>
      </trkpt>
      <trkpt lat="46.92816" lon="-1.72796">
        <ele>30</ele>
        <time>2021-03-07T01:15:08Z</time>
      </trkpt>
      <trkpt lat="46.9284" lon="-1.73266">
        <ele>30</ele>
        <time>2021-03-07T01:16:05Z</time>
      </trkpt>
      <trkpt lat="46.92847" lon="-1.73394">
        <ele>31</ele>
        <time>2021-03-07T01:16:21Z</time>
      </trkpt>
      <trkpt lat="46.92853" lon="-1.73524">
        <ele>32</ele>
        <time>2021-03-07T01:16:37Z</time>
      </trkpt>
      <trkpt lat="46.92856" lon="-1.73587">
        <ele>32</ele>
        <time>2021-03-07T01:16:44Z</time>
      </trkpt>
      <trkpt lat="46.9286" lon="-1.73668">
        <ele>33</ele>
        <time>2021-03-07T01:16:54Z</time>
      </trkpt>
      <trkpt lat="46.92864" lon="-1.73754">
        <ele>33</ele>
        <time>2021-03-07T01:17:05Z</time>
      </trkpt>
      <trkpt lat="46.92869" lon="-1.73879">
        <ele>32</ele>
        <time>2021-03-07T01:17:20Z</time>
      </trkpt>
      <trkpt lat="46.92872" lon="-1.73906">
        <ele>32</ele>
        <time>2021-03-07T01:17:23Z</time>
      </trkpt>
      <trkpt lat="46.92874" lon="-1.73943">
        <ele>32</ele>
        <time>2021-03-07T01:17:28Z</time>
      </trkpt>
      <trkpt lat="46.92875" lon="-1.73958">
        <ele>32</ele>
        <time>2021-03-07T01:17:30Z</time>
      </trkpt>
      <trkpt lat="46.92883" lon="-1.74117">
        <ele>33</ele>
        <time>2021-03-07T01:17:49Z</time>
      </trkpt>
      <trkpt lat="46.92884" lon="-1.74133">
        <ele>33</ele>
        <time>2021-03-07T01:17:51Z</time>
      </trkpt>
      <trkpt lat="46.92887" lon="-1.74151">
        <ele>33</ele>
        <time>2021-03-07T01:17:53Z</time>
      </trkpt>
      <trkpt lat="46.9289" lon="-1.74165">
        <ele>34</ele>
        <time>2021-03-07T01:17:55Z</time>
      </trkpt>
      <trkpt lat="46.92895" lon="-1.74182">
        <ele>34</ele>
        <time>2021-03-07T01:17:57Z</time>
      </trkpt>
      <trkpt lat="46.92905" lon="-1.74217">
        <ele>33</ele>
        <time>2021-03-07T01:18:02Z</time>
      </trkpt>
      <trkpt lat="46.92913" lon="-1.74242">
        <ele>33</ele>
        <time>2021-03-07T01:18:05Z</time>
      </trkpt>
      <trkpt lat="46.92919" lon="-1.74271">
        <ele>33</ele>
        <time>2021-03-07T01:18:09Z</time>
      </trkpt>
      <trkpt lat="46.92921" lon="-1.74289">
        <ele>33</ele>
        <time>2021-03-07T01:18:11Z</time>
      </trkpt>
      <trkpt lat="46.92922" lon="-1.74304">
        <ele>33</ele>
        <time>2021-03-07T01:18:13Z</time>
      </trkpt>
      <trkpt lat="46.92921" lon="-1.74321">
        <ele>33</ele>
        <time>2021-03-07T01:18:15Z</time>
      </trkpt>
      <trkpt lat="46.9292" lon="-1.74334">
        <ele>33</ele>
        <time>2021-03-07T01:18:16Z</time>
      </trkpt>
      <trkpt lat="46.92919" lon="-1.74363">
        <ele>33</ele>
        <time>2021-03-07T01:18:20Z</time>
      </trkpt>
      <trkpt lat="46.92919" lon="-1.74367">
        <ele>33</ele>
        <time>2021-03-07T01:18:21Z</time>
      </trkpt>
      <trkpt lat="46.92918" lon="-1.74391">
        <ele>32</ele>
        <time>2021-03-07T01:18:23Z</time>
      </trkpt>
      <trkpt lat="46.92918" lon="-1.74401">
        <ele>32</ele>
        <time>2021-03-07T01:18:25Z</time>
      </trkpt>
      <trkpt lat="46.9292" lon="-1.7445">
        <ele>31</ele>
        <time>2021-03-07T01:18:31Z</time>
      </trkpt>
      <trkpt lat="46.92921" lon="-1.74465">
        <ele>31</ele>
        <time>2021-03-07T01:18:32Z</time>
      </trkpt>
      <trkpt lat="46.92921" lon="-1.7447">
        <ele>31</ele>
        <time>2021-03-07T01:18:33Z</time>
      </trkpt>
      <trkpt lat="46.92925" lon="-1.74504">
        <ele>31</ele>
        <time>2021-03-07T01:18:37Z</time>
      </trkpt>
      <trkpt lat="46.92939" lon="-1.74557">
        <ele>30</ele>
        <time>2021-03-07T01:18:44Z</time>
      </trkpt>
      <trkpt lat="46.9294" lon="-1.74567">
        <ele>30</ele>
        <time>2021-03-07T01:18:45Z</time>
      </trkpt>
      <trkpt lat="46.92939" lon="-1.74595">
        <ele>29</ele>
        <time>2021-03-07T01:18:49Z</time>
      </trkpt>
      <trkpt lat="46.92939" lon="-1.74605">
        <ele>29</ele>
        <time>2021-03-07T01:18:50Z</time>
      </trkpt>
      <trkpt lat="46.92946" lon="-1.74647">
        <ele>28</ele>
        <time>2021-03-07T01:18:55Z</time>
      </trkpt>
      <trkpt lat="46.92961" lon="-1.74722">
        <ele>27</ele>
        <time>2021-03-07T01:19:05Z</time>
      </trkpt>
      <trkpt lat="46.92968" lon="-1.74757">
        <ele>27</ele>
        <time>2021-03-07T01:19:09Z</time>
      </trkpt>
      <trkpt lat="46.92972" lon="-1.74772">
        <ele>26</ele>
        <time>2021-03-07T01:19:11Z</time>
      </trkpt>
      <trkpt lat="46.92984" lon="-1.74842">
        <ele>23</ele>
        <time>2021-03-07T01:19:20Z</time>
      </trkpt>
      <trkpt lat="46.92996" lon="-1.74878">
        <ele>22</ele>
        <time>2021-03-07T01:19:25Z</time>
      </trkpt>
      <trkpt lat="46.93028" lon="-1.74925">
        <ele>19</ele>
        <time>2021-03-07T01:19:33Z</time>
      </trkpt>
      <trkpt lat="46.93036" lon="-1.7494">
        <ele>19</ele>
        <time>2021-03-07T01:19:35Z</time>
      </trkpt>
      <trkpt lat="46.93039" lon="-1.74949">
        <ele>19</ele>
        <time>2021-03-07T01:19:36Z</time>
      </trkpt>
      <trkpt lat="46.93041" lon="-1.74957">
        <ele>19</ele>
        <time>2021-03-07T01:19:37Z</time>
      </trkpt>
      <trkpt lat="46.93042" lon="-1.74961">
        <ele>18</ele>
        <time>2021-03-07T01:19:38Z</time>
      </trkpt>
      <trkpt lat="46.93046" lon="-1.74991">
        <ele>19</ele>
        <time>2021-03-07T01:19:42Z</time>
      </trkpt>
      <trkpt lat="46.93046" lon="-1.75017">
        <ele>19</ele>
        <time>2021-03-07T01:19:45Z</time>
      </trkpt>
      <trkpt lat="46.93047" lon="-1.75052">
        <ele>21</ele>
        <time>2021-03-07T01:19:49Z</time>
      </trkpt>
      <trkpt lat="46.93049" lon="-1.75129">
        <ele>26</ele>
        <time>2021-03-07T01:19:58Z</time>
      </trkpt>
      <trkpt lat="46.93051" lon="-1.75147">
        <ele>27</ele>
        <time>2021-03-07T01:20:01Z</time>
      </trkpt>
      <trkpt lat="46.93059" lon="-1.75173">
        <ele>29</ele>
        <time>2021-03-07T01:20:04Z</time>
      </trkpt>
      <trkpt lat="46.93068" lon="-1.75192">
        <ele>29</ele>
        <time>2021-03-07T01:20:07Z</time>
      </trkpt>
      <trkpt lat="46.93086" lon="-1.75222">
        <ele>31</ele>
        <time>2021-03-07T01:20:12Z</time>
      </trkpt>
      <trkpt lat="46.93107" lon="-1.75264">
        <ele>32</ele>
        <time>2021-03-07T01:20:18Z</time>
      </trkpt>
      <trkpt lat="46.93116" lon="-1.75286">
        <ele>33</ele>
        <time>2021-03-07T01:20:21Z</time>
      </trkpt>
      <trkpt lat="46.93164" lon="-1.75425">
        <ele>33</ele>
        <time>2021-03-07T01:20:40Z</time>
      </trkpt>
      <trkpt lat="46.93169" lon="-1.75439">
        <ele>33</ele>
        <time>2021-03-07T01:20:42Z</time>
      </trkpt>
      <trkpt lat="46.93183" lon="-1.75469">
        <ele>34</ele>
        <time>2021-03-07T01:20:46Z</time>
      </trkpt>
      <trkpt lat="46.93195" lon="-1.75493">
        <ele>34</ele>
        <time>2021-03-07T01:20:50Z</time>
      </trkpt>
      <trkpt lat="46.93319" lon="-1.75707">
        <ele>35</ele>
        <time>2021-03-07T01:21:24Z</time>
      </trkpt>
      <trkpt lat="46.93425" lon="-1.7589">
        <ele>36</ele>
        <time>2021-03-07T01:21:53Z</time>
      </trkpt>
      <trkpt lat="46.93488" lon="-1.75997">
        <ele>37</ele>
        <time>2021-03-07T01:22:10Z</time>
      </trkpt>
      <trkpt lat="46.935" lon="-1.76018">
        <ele>37</ele>
        <time>2021-03-07T01:22:14Z</time>
      </trkpt>
      <trkpt lat="46.9351" lon="-1.76035">
        <ele>37</ele>
        <time>2021-03-07T01:22:17Z</time>
      </trkpt>
      <trkpt lat="46.93529" lon="-1.76075">
        <ele>37</ele>
        <time>2021-03-07T01:22:22Z</time>
      </trkpt>
      <trkpt lat="46.93539" lon="-1.76102">
        <ele>37</ele>
        <time>2021-03-07T01:22:26Z</time>
      </trkpt>
      <trkpt lat="46.93555" lon="-1.76155">
        <ele>37</ele>
        <time>2021-03-07T01:22:33Z</time>
      </trkpt>
      <trkpt lat="46.93587" lon="-1.76276">
        <ele>40</ele>
        <time>2021-03-07T01:22:49Z</time>
      </trkpt>
      <trkpt lat="46.93669" lon="-1.76588">
        <ele>40</ele>
        <time>2021-03-07T01:23:30Z</time>
      </trkpt>
      <trkpt lat="46.93771" lon="-1.76977">
        <ele>41</ele>
        <time>2021-03-07T01:24:20Z</time>
      </trkpt>
      <trkpt lat="46.93886" lon="-1.77417">
        <ele>44</ele>
        <time>2021-03-07T01:25:17Z</time>
      </trkpt>
      <trkpt lat="46.9393" lon="-1.7758">
        <ele>42</ele>
        <time>2021-03-07T01:25:39Z</time>
      </trkpt>
      <trkpt lat="46.93948" lon="-1.77651">
        <ele>42</ele>
        <time>2021-03-07T01:25:48Z</time>
      </trkpt>
      <trkpt lat="46.94063" lon="-1.78089">
        <ele>43</ele>
        <time>2021-03-07T01:26:45Z</time>
      </trkpt>
      <trkpt lat="46.9408" lon="-1.78154">
        <ele>44</ele>
        <time>2021-03-07T01:26:53Z</time>
      </trkpt>
      <trkpt lat="46.94115" lon="-1.78285">
        <ele>43</ele>
        <time>2021-03-07T01:27:11Z</time>
      </trkpt>
      <trkpt lat="46.94121" lon="-1.78307">
        <ele>43</ele>
        <time>2021-03-07T01:27:13Z</time>
      </trkpt>
      <trkpt lat="46.94128" lon="-1.78335">
        <ele>43</ele>
        <time>2021-03-07T01:27:17Z</time>
      </trkpt>
      <trkpt lat="46.94146" lon="-1.78401">
        <ele>42</ele>
        <time>2021-03-07T01:27:26Z</time>
      </trkpt>
      <trkpt lat="46.94155" lon="-1.78438">
        <ele>42</ele>
        <time>2021-03-07T01:27:30Z</time>
      </trkpt>
      <trkpt lat="46.94168" lon="-1.78489">
        <ele>41</ele>
        <time>2021-03-07T01:27:37Z</time>
      </trkpt>
      <trkpt lat="46.94242" lon="-1.78774">
        <ele>37</ele>
        <time>2021-03-07T01:28:14Z</time>
      </trkpt>
      <trkpt lat="46.94274" lon="-1.78895">
        <ele>34</ele>
        <time>2021-03-07T01:28:30Z</time>
      </trkpt>
      <trkpt lat="46.94276" lon="-1.78901">
        <ele>34</ele>
        <time>2021-03-07T01:28:31Z</time>
      </trkpt>
      <trkpt lat="46.9428" lon="-1.789">
        <ele>34</ele>
        <time>2021-03-07T01:28:31Z</time>
      </trkpt>
      <trkpt lat="46.94289" lon="-1.78902">
        <ele>34</ele>
        <time>2021-03-07T01:28:33Z</time>
      </trkpt>
      <trkpt lat="46.94293" lon="-1.78908">
        <ele>34</ele>
        <time>2021-03-07T01:28:34Z</time>
      </trkpt>
      <trkpt lat="46.94294" lon="-1.78911">
        <ele>34</ele>
        <time>2021-03-07T01:28:34Z</time>
      </trkpt>
      <trkpt lat="46.94294" lon="-1.78914">
        <ele>34</ele>
        <time>2021-03-07T01:28:35Z</time>
      </trkpt>
      <trkpt lat="46.94291" lon="-1.78922">
        <ele>33</ele>
        <time>2021-03-07T01:28:36Z</time>
      </trkpt>
      <trkpt lat="46.94289" lon="-1.78923">
        <ele>33</ele>
        <time>2021-03-07T01:28:36Z</time>
      </trkpt>
      <trkpt lat="46.94286" lon="-1.78924">
        <ele>33</ele>
        <time>2021-03-07T01:28:37Z</time>
      </trkpt>
      <trkpt lat="46.94279" lon="-1.78924">
        <ele>34</ele>
        <time>2021-03-07T01:28:38Z</time>
      </trkpt>
      <trkpt lat="46.94274" lon="-1.7892">
        <ele>34</ele>
        <time>2021-03-07T01:28:39Z</time>
      </trkpt>
      <trkpt lat="46.94273" lon="-1.78916">
        <ele>34</ele>
        <time>2021-03-07T01:28:40Z</time>
      </trkpt>
      <trkpt lat="46.94268" lon="-1.78918">
        <ele>34</ele>
        <time>2021-03-07T01:28:41Z</time>
      </trkpt>
      <trkpt lat="46.94251" lon="-1.78925">
        <ele>34</ele>
        <time>2021-03-07T01:28:44Z</time>
      </trkpt>
      <trkpt lat="46.9424" lon="-1.78927">
        <ele>34</ele>
        <time>2021-03-07T01:28:46Z</time>
      </trkpt>
      <trkpt lat="46.94242" lon="-1.78934">
        <ele>34</ele>
        <time>2021-03-07T01:28:47Z</time>
      </trkpt>
      <trkpt lat="46.94242" lon="-1.78943">
        <ele>34</ele>
        <time>2021-03-07T01:28:48Z</time>
      </trkpt>
      <trkpt lat="46.9424" lon="-1.78951">
        <ele>34</ele>
        <time>2021-03-07T01:28:49Z</time>
      </trkpt>
      <trkpt lat="46.94144" lon="-1.79142">
        <ele>38</ele>
        <time>2021-03-07T01:29:17Z</time>
      </trkpt>
      <trkpt lat="46.94092" lon="-1.79244">
        <ele>42</ele>
        <time>2021-03-07T01:29:33Z</time>
      </trkpt>
      <trkpt lat="46.94046" lon="-1.79331">
        <ele>43</ele>
        <time>2021-03-07T01:29:46Z</time>
      </trkpt>
      <trkpt lat="46.94013" lon="-1.79396">
        <ele>42</ele>
        <time>2021-03-07T01:29:56Z</time>
      </trkpt>
      <trkpt lat="46.9397" lon="-1.7948">
        <ele>42</ele>
        <time>2021-03-07T01:30:09Z</time>
      </trkpt>
      <trkpt lat="46.93964" lon="-1.79495">
        <ele>42</ele>
        <time>2021-03-07T01:30:11Z</time>
      </trkpt>
      <trkpt lat="46.93899" lon="-1.79681">
        <ele>44</ele>
        <time>2021-03-07T01:30:36Z</time>
      </trkpt>
      <trkpt lat="46.93822" lon="-1.79912">
        <ele>46</ele>
        <time>2021-03-07T01:31:08Z</time>
      </trkpt>
      <trkpt lat="46.93801" lon="-1.79989">
        <ele>47</ele>
        <time>2021-03-07T01:31:18Z</time>
      </trkpt>
      <trkpt lat="46.9379" lon="-1.80041">
        <ele>47</ele>
        <time>2021-03-07T01:31:24Z</time>
      </trkpt>
      <trkpt lat="46.93786" lon="-1.80096">
        <ele>46</ele>
        <time>2021-03-07T01:31:31Z</time>
      </trkpt>
      <trkpt lat="46.93789" lon="-1.80204">
        <ele>44</ele>
        <time>2021-03-07T01:31:44Z</time>
      </trkpt>
      <trkpt lat="46.93804" lon="-1.8047">
        <ele>41</ele>
        <time>2021-03-07T01:32:17Z</time>
      </trkpt>
      <trkpt lat="46.93828" lon="-1.80966">
        <ele>35</ele>
        <time>2021-03-07T01:33:17Z</time>
      </trkpt>
      <trkpt lat="46.9383" lon="-1.80993">
        <ele>35</ele>
        <time>2021-03-07T01:33:20Z</time>
      </trkpt>
      <trkpt lat="46.93835" lon="-1.81109">
        <ele>36</ele>
        <time>2021-03-07T01:33:34Z</time>
      </trkpt>
      <trkpt lat="46.93831" lon="-1.8116">
        <ele>36</ele>
        <time>2021-03-07T01:33:41Z</time>
      </trkpt>
      <trkpt lat="46.93823" lon="-1.81197">
        <ele>37</ele>
        <time>2021-03-07T01:33:45Z</time>
      </trkpt>
      <trkpt lat="46.93799" lon="-1.81265">
        <ele>37</ele>
        <time>2021-03-07T01:33:55Z</time>
      </trkpt>
      <trkpt lat="46.9373" lon="-1.81435">
        <ele>37</ele>
        <time>2021-03-07T01:34:19Z</time>
      </trkpt>
      <trkpt lat="46.93683" lon="-1.81557">
        <ele>38</ele>
        <time>2021-03-07T01:34:36Z</time>
      </trkpt>
      <trkpt lat="46.93675" lon="-1.81578">
        <ele>37</ele>
        <time>2021-03-07T01:34:39Z</time>
      </trkpt>
      <trkpt lat="46.93664" lon="-1.81622">
        <ele>37</ele>
        <time>2021-03-07T01:34:44Z</time>
      </trkpt>
      <trkpt lat="46.93648" lon="-1.81705">
        <ele>38</ele>
        <time>2021-03-07T01:34:55Z</time>
      </trkpt>
      <trkpt lat="46.93638" lon="-1.81816">
        <ele>36</ele>
        <time>2021-03-07T01:35:08Z</time>
      </trkpt>
      <trkpt lat="46.93639" lon="-1.81978">
        <ele>37</ele>
        <time>2021-03-07T01:35:28Z</time>
      </trkpt>
      <trkpt lat="46.93645" lon="-1.82232">
        <ele>36</ele>
        <time>2021-03-07T01:35:59Z</time>
      </trkpt>
      <trkpt lat="46.93648" lon="-1.82385">
        <ele>37</ele>
        <time>2021-03-07T01:36:18Z</time>
      </trkpt>
      <trkpt lat="46.93647" lon="-1.82425">
        <ele>37</ele>
        <time>2021-03-07T01:36:22Z</time>
      </trkpt>
      <trkpt lat="46.93641" lon="-1.82459">
        <ele>37</ele>
        <time>2021-03-07T01:36:27Z</time>
      </trkpt>
      <trkpt lat="46.93628" lon="-1.82499">
        <ele>37</ele>
        <time>2021-03-07T01:36:32Z</time>
      </trkpt>
      <trkpt lat="46.93572" lon="-1.82612">
        <ele>36</ele>
        <time>2021-03-07T01:36:49Z</time>
      </trkpt>
      <trkpt lat="46.93566" lon="-1.82623">
        <ele>36</ele>
        <time>2021-03-07T01:36:51Z</time>
      </trkpt>
      <trkpt lat="46.9349" lon="-1.82775">
        <ele>39</ele>
        <time>2021-03-07T01:37:14Z</time>
      </trkpt>
      <trkpt lat="46.9347" lon="-1.82828">
        <ele>40</ele>
        <time>2021-03-07T01:37:21Z</time>
      </trkpt>
      <trkpt lat="46.93462" lon="-1.82863">
        <ele>40</ele>
        <time>2021-03-07T01:37:25Z</time>
      </trkpt>
      <trkpt lat="46.93457" lon="-1.82899">
        <ele>40</ele>
        <time>2021-03-07T01:37:30Z</time>
      </trkpt>
      <trkpt lat="46.93456" lon="-1.82909">
        <ele>40</ele>
        <time>2021-03-07T01:37:31Z</time>
      </trkpt>
      <trkpt lat="46.93455" lon="-1.8294">
        <ele>39</ele>
        <time>2021-03-07T01:37:35Z</time>
      </trkpt>
      <trkpt lat="46.93456" lon="-1.8299">
        <ele>39</ele>
        <time>2021-03-07T01:37:41Z</time>
      </trkpt>
      <trkpt lat="46.9346" lon="-1.83023">
        <ele>39</ele>
        <time>2021-03-07T01:37:45Z</time>
      </trkpt>
      <trkpt lat="46.9351" lon="-1.83264">
        <ele>37</ele>
        <time>2021-03-07T01:38:16Z</time>
      </trkpt>
      <trkpt lat="46.93552" lon="-1.83473">
        <ele>37</ele>
        <time>2021-03-07T01:38:42Z</time>
      </trkpt>
      <trkpt lat="46.93599" lon="-1.83699">
        <ele>37</ele>
        <time>2021-03-07T01:39:11Z</time>
      </trkpt>
      <trkpt lat="46.93609" lon="-1.83699">
        <ele>37</ele>
        <time>2021-03-07T01:39:13Z</time>
      </trkpt>
      <trkpt lat="46.93617" lon="-1.83704">
        <ele>37</ele>
        <time>2021-03-07T01:39:14Z</time>
      </trkpt>
      <trkpt lat="46.93624" lon="-1.83714">
        <ele>37</ele>
        <time>2021-03-07T01:39:16Z</time>
      </trkpt>
      <trkpt lat="46.93627" lon="-1.83726">
        <ele>37</ele>
        <time>2021-03-07T01:39:17Z</time>
      </trkpt>
      <trkpt lat="46.93626" lon="-1.83739">
        <ele>37</ele>
        <time>2021-03-07T01:39:19Z</time>
      </trkpt>
      <trkpt lat="46.93623" lon="-1.83751">
        <ele>37</ele>
        <time>2021-03-07T01:39:21Z</time>
      </trkpt>
      <trkpt lat="46.93617" lon="-1.83759">
        <ele>37</ele>
        <time>2021-03-07T01:39:22Z</time>
      </trkpt>
      <trkpt lat="46.93616" lon="-1.83785">
        <ele>37</ele>
        <time>2021-03-07T01:39:25Z</time>
      </trkpt>
      <trkpt lat="46.93663" lon="-1.84008">
        <ele>36</ele>
        <time>2021-03-07T01:39:54Z</time>
      </trkpt>
      <trkpt lat="46.93684" lon="-1.8412">
        <ele>35</ele>
        <time>2021-03-07T01:40:08Z</time>
      </trkpt>
      <trkpt lat="46.9371" lon="-1.84246">
        <ele>34</ele>
        <time>2021-03-07T01:40:24Z</time>
      </trkpt>
      <trkpt lat="46.93713" lon="-1.8426">
        <ele>34</ele>
        <time>2021-03-07T01:40:25Z</time>
      </trkpt>
      <trkpt lat="46.93719" lon="-1.84312">
        <ele>34</ele>
        <time>2021-03-07T01:40:32Z</time>
      </trkpt>
      <trkpt lat="46.93723" lon="-1.84362">
        <ele>34</ele>
        <time>2021-03-07T01:40:38Z</time>
      </trkpt>
      <trkpt lat="46.93723" lon="-1.84398">
        <ele>34</ele>
        <time>2021-03-07T01:40:42Z</time>
      </trkpt>
      <trkpt lat="46.93721" lon="-1.84439">
        <ele>34</ele>
        <time>2021-03-07T01:40:47Z</time>
      </trkpt>
      <trkpt lat="46.93717" lon="-1.84473">
        <ele>34</ele>
        <time>2021-03-07T01:40:52Z</time>
      </trkpt>
      <trkpt lat="46.93689" lon="-1.84596">
        <ele>32</ele>
        <time>2021-03-07T01:41:07Z</time>
      </trkpt>
      <trkpt lat="46.93682" lon="-1.84629">
        <ele>32</ele>
        <time>2021-03-07T01:41:12Z</time>
      </trkpt>
      <trkpt lat="46.93678" lon="-1.8466">
        <ele>32</ele>
        <time>2021-03-07T01:41:15Z</time>
      </trkpt>
      <trkpt lat="46.93675" lon="-1.84696">
        <ele>32</ele>
        <time>2021-03-07T01:41:20Z</time>
      </trkpt>
      <trkpt lat="46.93681" lon="-1.84862">
        <ele>31</ele>
        <time>2021-03-07T01:41:40Z</time>
      </trkpt>
      <trkpt lat="46.9368" lon="-1.84913">
        <ele>31</ele>
        <time>2021-03-07T01:41:46Z</time>
      </trkpt>
      <trkpt lat="46.93676" lon="-1.84967">
        <ele>31</ele>
        <time>2021-03-07T01:41:53Z</time>
      </trkpt>
      <trkpt lat="46.93668" lon="-1.85012">
        <ele>31</ele>
        <time>2021-03-07T01:41:58Z</time>
      </trkpt>
      <trkpt lat="46.9361" lon="-1.8528">
        <ele>27</ele>
        <time>2021-03-07T01:42:33Z</time>
      </trkpt>
      <trkpt lat="46.93604" lon="-1.85321">
        <ele>26</ele>
        <time>2021-03-07T01:42:38Z</time>
      </trkpt>
      <trkpt lat="46.93603" lon="-1.85343">
        <ele>26</ele>
        <time>2021-03-07T01:42:40Z</time>
      </trkpt>
      <trkpt lat="46.93603" lon="-1.85367">
        <ele>26</ele>
        <time>2021-03-07T01:42:43Z</time>
      </trkpt>
      <trkpt lat="46.93605" lon="-1.85399">
        <ele>26</ele>
        <time>2021-03-07T01:42:47Z</time>
      </trkpt>
      <trkpt lat="46.93618" lon="-1.85512">
        <ele>26</ele>
        <time>2021-03-07T01:43:01Z</time>
      </trkpt>
      <trkpt lat="46.93633" lon="-1.85722">
        <ele>23</ele>
        <time>2021-03-07T01:43:27Z</time>
      </trkpt>
      <trkpt lat="46.93647" lon="-1.85947">
        <ele>22</ele>
        <time>2021-03-07T01:43:54Z</time>
      </trkpt>
      <trkpt lat="46.93651" lon="-1.8601">
        <ele>21</ele>
        <time>2021-03-07T01:44:02Z</time>
      </trkpt>
      <trkpt lat="46.93668" lon="-1.86305">
        <ele>22</ele>
        <time>2021-03-07T01:44:38Z</time>
      </trkpt>
      <trkpt lat="46.93672" lon="-1.86367">
        <ele>22</ele>
        <time>2021-03-07T01:44:45Z</time>
      </trkpt>
      <trkpt lat="46.93677" lon="-1.86431">
        <ele>22</ele>
        <time>2021-03-07T01:44:53Z</time>
      </trkpt>
      <trkpt lat="46.93686" lon="-1.86494">
        <ele>22</ele>
        <time>2021-03-07T01:45:01Z</time>
      </trkpt>
      <trkpt lat="46.93716" lon="-1.86641">
        <ele>20</ele>
        <time>2021-03-07T01:45:20Z</time>
      </trkpt>
      <trkpt lat="46.9372" lon="-1.86661">
        <ele>20</ele>
        <time>2021-03-07T01:45:22Z</time>
      </trkpt>
      <trkpt lat="46.93734" lon="-1.8673">
        <ele>21</ele>
        <time>2021-03-07T01:45:31Z</time>
      </trkpt>
      <trkpt lat="46.9375" lon="-1.86811">
        <ele>22</ele>
        <time>2021-03-07T01:45:41Z</time>
      </trkpt>
      <trkpt lat="46.93779" lon="-1.86944">
        <ele>19</ele>
        <time>2021-03-07T01:45:58Z</time>
      </trkpt>
      <trkpt lat="46.9378" lon="-1.86951">
        <ele>19</ele>
        <time>2021-03-07T01:45:59Z</time>
      </trkpt>
      <trkpt lat="46.93788" lon="-1.86995">
        <ele>19</ele>
        <time>2021-03-07T01:46:05Z</time>
      </trkpt>
      <trkpt lat="46.93798" lon="-1.87054">
        <ele>20</ele>
        <time>2021-03-07T01:46:12Z</time>
      </trkpt>
      <trkpt lat="46.938" lon="-1.87081">
        <ele>21</ele>
        <time>2021-03-07T01:46:15Z</time>
      </trkpt>
      <trkpt lat="46.938" lon="-1.87084">
        <ele>21</ele>
        <time>2021-03-07T01:46:16Z</time>
      </trkpt>
      <trkpt lat="46.93804" lon="-1.87137">
        <ele>20</ele>
        <time>2021-03-07T01:46:22Z</time>
      </trkpt>
      <trkpt lat="46.93807" lon="-1.87171">
        <ele>20</ele>
        <time>2021-03-07T01:46:26Z</time>
      </trkpt>
      <trkpt lat="46.93814" lon="-1.87288">
        <ele>17</ele>
        <time>2021-03-07T01:46:41Z</time>
      </trkpt>
      <trkpt lat="46.93814" lon="-1.87325">
        <ele>16</ele>
        <time>2021-03-07T01:46:45Z</time>
      </trkpt>
      <trkpt lat="46.93811" lon="-1.87358">
        <ele>16</ele>
        <time>2021-03-07T01:46:49Z</time>
      </trkpt>
      <trkpt lat="46.93801" lon="-1.87464">
        <ele>16</ele>
        <time>2021-03-07T01:47:02Z</time>
      </trkpt>
      <trkpt lat="46.93794" lon="-1.87523">
        <ele>15</ele>
        <time>2021-03-07T01:47:09Z</time>
      </trkpt>
      <trkpt lat="46.93786" lon="-1.87601">
        <ele>14</ele>
        <time>2021-03-07T01:47:19Z</time>
      </trkpt>
      <trkpt lat="46.93783" lon="-1.87658">
        <ele>14</ele>
        <time>2021-03-07T01:47:26Z</time>
      </trkpt>
      <trkpt lat="46.93785" lon="-1.87668">
        <ele>14</ele>
        <time>2021-03-07T01:47:27Z</time>
      </trkpt>
      <trkpt lat="46.93789" lon="-1.87674">
        <ele>14</ele>
        <time>2021-03-07T01:47:28Z</time>
      </trkpt>
      <trkpt lat="46.93778" lon="-1.87699">
        <ele>13</ele>
        <time>2021-03-07T01:47:32Z</time>
      </trkpt>
      <trkpt lat="46.93758" lon="-1.87759">
        <ele>12</ele>
        <time>2021-03-07T01:47:40Z</time>
      </trkpt>
      <trkpt lat="46.93742" lon="-1.87816">
        <ele>11</ele>
        <time>2021-03-07T01:47:47Z</time>
      </trkpt>
      <trkpt lat="46.93734" lon="-1.87854">
        <ele>11</ele>
        <time>2021-03-07T01:47:52Z</time>
      </trkpt>
      <trkpt lat="46.93729" lon="-1.87881">
        <ele>11</ele>
        <time>2021-03-07T01:47:56Z</time>
      </trkpt>
      <trkpt lat="46.93728" lon="-1.87907">
        <ele>12</ele>
        <time>2021-03-07T01:47:59Z</time>
      </trkpt>
      <trkpt lat="46.93729" lon="-1.8794">
        <ele>12</ele>
        <time>2021-03-07T01:48:03Z</time>
      </trkpt>
      <trkpt lat="46.93766" lon="-1.88171">
        <ele>9</ele>
        <time>2021-03-07T01:48:32Z</time>
      </trkpt>
      <trkpt lat="46.93775" lon="-1.88223">
        <ele>8</ele>
        <time>2021-03-07T01:48:38Z</time>
      </trkpt>
      <trkpt lat="46.93778" lon="-1.88258">
        <ele>8</ele>
        <time>2021-03-07T01:48:42Z</time>
      </trkpt>
      <trkpt lat="46.93775" lon="-1.88334">
        <ele>6</ele>
        <time>2021-03-07T01:48:52Z</time>
      </trkpt>
      <trkpt lat="46.93774" lon="-1.88351">
        <ele>6</ele>
        <time>2021-03-07T01:48:54Z</time>
      </trkpt>
      <trkpt lat="46.93771" lon="-1.88383">
        <ele>6</ele>
        <time>2021-03-07T01:48:58Z</time>
      </trkpt>
      <trkpt lat="46.93771" lon="-1.88396">
        <ele>6</ele>
        <time>2021-03-07T01:48:59Z</time>
      </trkpt>
      <trkpt lat="46.93771" lon="-1.88407">
        <ele>6</ele>
        <time>2021-03-07T01:49:01Z</time>
      </trkpt>
      <trkpt lat="46.93776" lon="-1.88456">
        <ele>6</ele>
        <time>2021-03-07T01:49:07Z</time>
      </trkpt>
      <trkpt lat="46.93776" lon="-1.88465">
        <ele>6</ele>
        <time>2021-03-07T01:49:08Z</time>
      </trkpt>
      <trkpt lat="46.93773" lon="-1.88496">
        <ele>6</ele>
        <time>2021-03-07T01:49:11Z</time>
      </trkpt>
      <trkpt lat="46.93767" lon="-1.88534">
        <ele>6</ele>
        <time>2021-03-07T01:49:16Z</time>
      </trkpt>
      <trkpt lat="46.93765" lon="-1.886">
        <ele>6</ele>
        <time>2021-03-07T01:49:24Z</time>
      </trkpt>
      <trkpt lat="46.93765" lon="-1.88616">
        <ele>7</ele>
        <time>2021-03-07T01:49:26Z</time>
      </trkpt>
      <trkpt lat="46.93767" lon="-1.88627">
        <ele>6</ele>
        <time>2021-03-07T01:49:28Z</time>
      </trkpt>
      <trkpt lat="46.93752" lon="-1.88631">
        <ele>7</ele>
        <time>2021-03-07T01:49:30Z</time>
      </trkpt>
      <trkpt lat="46.93744" lon="-1.88634">
        <ele>7</ele>
        <time>2021-03-07T01:49:32Z</time>
      </trkpt>
      <trkpt lat="46.93731" lon="-1.88639">
        <ele>7</ele>
        <time>2021-03-07T01:49:34Z</time>
      </trkpt>
      <trkpt lat="46.93713" lon="-1.88646">
        <ele>8</ele>
        <time>2021-03-07T01:49:37Z</time>
      </trkpt>
      <trkpt lat="46.93681" lon="-1.88656">
        <ele>9</ele>
        <time>2021-03-07T01:49:43Z</time>
      </trkpt>
      <trkpt lat="46.93633" lon="-1.88665">
        <ele>9</ele>
        <time>2021-03-07T01:49:52Z</time>
      </trkpt>
      <trkpt lat="46.93626" lon="-1.88667">
        <ele>9</ele>
        <time>2021-03-07T01:49:53Z</time>
      </trkpt>
      <trkpt lat="46.9362" lon="-1.88668">
        <ele>10</ele>
        <time>2021-03-07T01:49:54Z</time>
      </trkpt>
      <trkpt lat="46.93609" lon="-1.88671">
        <ele>10</ele>
        <time>2021-03-07T01:49:56Z</time>
      </trkpt>
      <trkpt lat="46.93559" lon="-1.88669">
        <ele>10</ele>
        <time>2021-03-07T01:50:05Z</time>
      </trkpt>
      <trkpt lat="46.93536" lon="-1.88674">
        <ele>11</ele>
        <time>2021-03-07T01:50:09Z</time>
      </trkpt>
      <trkpt lat="46.93528" lon="-1.88676">
        <ele>11</ele>
        <time>2021-03-07T01:50:11Z</time>
      </trkpt>
      <trkpt lat="46.93517" lon="-1.88679">
        <ele>11</ele>
        <time>2021-03-07T01:50:13Z</time>
      </trkpt>
      <trkpt lat="46.93427" lon="-1.88707">
        <ele>11</ele>
        <time>2021-03-07T01:50:29Z</time>
      </trkpt>
      <trkpt lat="46.93422" lon="-1.88707">
        <ele>11</ele>
        <time>2021-03-07T01:50:30Z</time>
      </trkpt>
      <trkpt lat="46.93422" lon="-1.8871">
        <ele>11</ele>
        <time>2021-03-07T01:50:30Z</time>
      </trkpt>
      <trkpt lat="46.93421" lon="-1.88711">
        <ele>11</ele>
        <time>2021-03-07T01:50:31Z</time>
      </trkpt>
      <trkpt lat="46.93419" lon="-1.88714">
        <ele>11</ele>
        <time>2021-03-07T01:50:31Z</time>
      </trkpt>
      <trkpt lat="46.93417" lon="-1.88716">
        <ele>11</ele>
        <time>2021-03-07T01:50:31Z</time>
      </trkpt>
      <trkpt lat="46.93415" lon="-1.88716">
        <ele>11</ele>
        <time>2021-03-07T01:50:32Z</time>
      </trkpt>
      <trkpt lat="46.93414" lon="-1.88715">
        <ele>11</ele>
        <time>2021-03-07T01:50:32Z</time>
      </trkpt>
      <trkpt lat="46.93409" lon="-1.88723">
        <ele>11</ele>
        <time>2021-03-07T01:50:33Z</time>
      </trkpt>
      <trkpt lat="46.93358" lon="-1.88773">
        <ele>11</ele>
        <time>2021-03-07T01:50:44Z</time>
      </trkpt>
      <trkpt lat="46.93306" lon="-1.88805">
        <ele>9</ele>
        <time>2021-03-07T01:50:54Z</time>
      </trkpt>
      <trkpt lat="46.9314" lon="-1.88934">
        <ele>5</ele>
        <time>2021-03-07T01:51:28Z</time>
      </trkpt>
      <trkpt lat="46.93121" lon="-1.88946">
        <ele>5</ele>
        <time>2021-03-07T01:51:31Z</time>
      </trkpt>
      <trkpt lat="46.93084" lon="-1.88958">
        <ele>5</ele>
        <time>2021-03-07T01:51:38Z</time>
      </trkpt>
      <trkpt lat="46.93033" lon="-1.88966">
        <ele>4</ele>
        <time>2021-03-07T01:51:47Z</time>
      </trkpt>
      <trkpt lat="46.92938" lon="-1.88979">
        <ele>3</ele>
        <time>2021-03-07T01:52:04Z</time>
      </trkpt>
      <trkpt lat="46.92912" lon="-1.88985">
        <ele>3</ele>
        <time>2021-03-07T01:52:09Z</time>
      </trkpt>
      <trkpt lat="46.92897" lon="-1.88993">
        <ele>3</ele>
        <time>2021-03-07T01:52:12Z</time>
      </trkpt>
      <trkpt lat="46.9288" lon="-1.89009">
        <ele>3</ele>
        <time>2021-03-07T01:52:15Z</time>
      </trkpt>
      <trkpt lat="46.9284" lon="-1.89062">
        <ele>4</ele>
        <time>2021-03-07T01:52:25Z</time>
      </trkpt>
      <trkpt lat="46.92786" lon="-1.89133">
        <ele>4</ele>
        <time>2021-03-07T01:52:38Z</time>
      </trkpt>
      <trkpt lat="46.92493" lon="-1.89529">
        <ele>5</ele>
        <time>2021-03-07T01:53:49Z</time>
      </trkpt>
      <trkpt lat="46.92369" lon="-1.89698">
        <ele>3</ele>
        <time>2021-03-07T01:54:19Z</time>
      </trkpt>
      <trkpt lat="46.92335" lon="-1.89754">
        <ele>3</ele>
        <time>2021-03-07T01:54:28Z</time>
      </trkpt>
      <trkpt lat="46.92179" lon="-1.90049">
        <ele>8</ele>
        <time>2021-03-07T01:55:13Z</time>
      </trkpt>
      <trkpt lat="46.92092" lon="-1.90212">
        <ele>10</ele>
        <time>2021-03-07T01:55:39Z</time>
      </trkpt>
      <trkpt lat="46.92036" lon="-1.90317">
        <ele>10</ele>
        <time>2021-03-07T01:55:55Z</time>
      </trkpt>
      <trkpt lat="46.92012" lon="-1.90362">
        <ele>10</ele>
        <time>2021-03-07T01:56:02Z</time>
      </trkpt>
      <trkpt lat="46.91994" lon="-1.90396">
        <ele>10</ele>
        <time>2021-03-07T01:56:07Z</time>
      </trkpt>
      <trkpt lat="46.91958" lon="-1.90462">
        <ele>10</ele>
        <time>2021-03-07T01:56:17Z</time>
      </trkpt>
      <trkpt lat="46.91914" lon="-1.90538">
        <ele>11</ele>
        <time>2021-03-07T01:56:29Z</time>
      </trkpt>
      <trkpt lat="46.91882" lon="-1.90592">
        <ele>13</ele>
        <time>2021-03-07T01:56:38Z</time>
      </trkpt>
      <trkpt lat="46.91871" lon="-1.90611">
        <ele>13</ele>
        <time>2021-03-07T01:56:41Z</time>
      </trkpt>
      <trkpt lat="46.91859" lon="-1.90635">
        <ele>13</ele>
        <time>2021-03-07T01:56:45Z</time>
      </trkpt>
      <trkpt lat="46.91855" lon="-1.90642">
        <ele>13</ele>
        <time>2021-03-07T01:56:46Z</time>
      </trkpt>
      <trkpt lat="46.91849" lon="-1.90656">
        <ele>12</ele>
        <time>2021-03-07T01:56:48Z</time>
      </trkpt>
      <trkpt lat="46.91836" lon="-1.90689">
        <ele>11</ele>
        <time>2021-03-07T01:56:52Z</time>
      </trkpt>
      <trkpt lat="46.91833" lon="-1.90698">
        <ele>11</ele>
        <time>2021-03-07T01:56:54Z</time>
      </trkpt>
      <trkpt lat="46.91798" lon="-1.90794">
        <ele>11</ele>
        <time>2021-03-07T01:57:07Z</time>
      </trkpt>
      <trkpt lat="46.91797" lon="-1.90796">
        <ele>11</ele>
        <time>2021-03-07T01:57:07Z</time>
      </trkpt>
      <trkpt lat="46.91793" lon="-1.90806">
        <ele>11</ele>
        <time>2021-03-07T01:57:09Z</time>
      </trkpt>
      <trkpt lat="46.91764" lon="-1.90888">
        <ele>11</ele>
        <time>2021-03-07T01:57:20Z</time>
      </trkpt>
      <trkpt lat="46.91747" lon="-1.90936">
        <ele>10</ele>
        <time>2021-03-07T01:57:26Z</time>
      </trkpt>
      <trkpt lat="46.91742" lon="-1.90953">
        <ele>10</ele>
        <time>2021-03-07T01:57:29Z</time>
      </trkpt>
      <trkpt lat="46.91738" lon="-1.90966">
        <ele>11</ele>
        <time>2021-03-07T01:57:30Z</time>
      </trkpt>
      <trkpt lat="46.91734" lon="-1.90979">
        <ele>11</ele>
        <time>2021-03-07T01:57:32Z</time>
      </trkpt>
      <trkpt lat="46.91731" lon="-1.90991">
        <ele>11</ele>
        <time>2021-03-07T01:57:34Z</time>
      </trkpt>
      <trkpt lat="46.91729" lon="-1.91">
        <ele>11</ele>
        <time>2021-03-07T01:57:35Z</time>
      </trkpt>
      <trkpt lat="46.91726" lon="-1.91038">
        <ele>11</ele>
        <time>2021-03-07T01:57:39Z</time>
      </trkpt>
      <trkpt lat="46.91727" lon="-1.91085">
        <ele>10</ele>
        <time>2021-03-07T01:57:45Z</time>
      </trkpt>
      <trkpt lat="46.91728" lon="-1.91101">
        <ele>10</ele>
        <time>2021-03-07T01:57:47Z</time>
      </trkpt>
      <trkpt lat="46.91731" lon="-1.91128">
        <ele>11</ele>
        <time>2021-03-07T01:57:50Z</time>
      </trkpt>
      <trkpt lat="46.91735" lon="-1.91158">
        <ele>11</ele>
        <time>2021-03-07T01:57:54Z</time>
      </trkpt>
      <trkpt lat="46.91737" lon="-1.9117">
        <ele>11</ele>
        <time>2021-03-07T01:57:56Z</time>
      </trkpt>
      <trkpt lat="46.9174" lon="-1.91179">
        <ele>11</ele>
        <time>2021-03-07T01:57:57Z</time>
      </trkpt>
      <trkpt lat="46.91743" lon="-1.91187">
        <ele>11</ele>
        <time>2021-03-07T01:57:58Z</time>
      </trkpt>
      <trkpt lat="46.9176" lon="-1.91225">
        <ele>10</ele>
        <time>2021-03-07T01:58:03Z</time>
      </trkpt>
      <trkpt lat="46.91765" lon="-1.91238">
        <ele>10</ele>
        <time>2021-03-07T01:58:05Z</time>
      </trkpt>
      <trkpt lat="46.9177" lon="-1.9125">
        <ele>10</ele>
        <time>2021-03-07T01:58:07Z</time>
      </trkpt>
      <trkpt lat="46.91813" lon="-1.91349">
        <ele>10</ele>
        <time>2021-03-07T01:58:21Z</time>
      </trkpt>
      <trkpt lat="46.91823" lon="-1.91374">
        <ele>9</ele>
        <time>2021-03-07T01:58:25Z</time>
      </trkpt>
      <trkpt lat="46.91837" lon="-1.91404">
        <ele>8</ele>
        <time>2021-03-07T01:58:29Z</time>
      </trkpt>
      <trkpt lat="46.91837" lon="-1.91405">
        <ele>8</ele>
        <time>2021-03-07T01:58:29Z</time>
      </trkpt>
      <trkpt lat="46.91844" lon="-1.91421">
        <ele>8</ele>
        <time>2021-03-07T01:58:32Z</time>
      </trkpt>
      <trkpt lat="46.91848" lon="-1.91432">
        <ele>8</ele>
        <time>2021-03-07T01:58:33Z</time>
      </trkpt>
      <trkpt lat="46.91853" lon="-1.91451">
        <ele>8</ele>
        <time>2021-03-07T01:58:36Z</time>
      </trkpt>
      <trkpt lat="46.9186" lon="-1.91473">
        <ele>8</ele>
        <time>2021-03-07T01:58:39Z</time>
      </trkpt>
      <trkpt lat="46.91894" lon="-1.91588">
        <ele>9</ele>
        <time>2021-03-07T01:58:54Z</time>
      </trkpt>
      <trkpt lat="46.919" lon="-1.91606">
        <ele>9</ele>
        <time>2021-03-07T01:58:56Z</time>
      </trkpt>
      <trkpt lat="46.91934" lon="-1.91726">
        <ele>9</ele>
        <time>2021-03-07T01:59:12Z</time>
      </trkpt>
      <trkpt lat="46.9194" lon="-1.91747">
        <ele>9</ele>
        <time>2021-03-07T01:59:15Z</time>
      </trkpt>
      <trkpt lat="46.91942" lon="-1.91759">
        <ele>9</ele>
        <time>2021-03-07T01:59:16Z</time>
      </trkpt>
      <trkpt lat="46.91944" lon="-1.91778">
        <ele>9</ele>
        <time>2021-03-07T01:59:19Z</time>
      </trkpt>
      <trkpt lat="46.91944" lon="-1.918">
        <ele>9</ele>
        <time>2021-03-07T01:59:21Z</time>
      </trkpt>
      <trkpt lat="46.91942" lon="-1.9187">
        <ele>9</ele>
        <time>2021-03-07T01:59:30Z</time>
      </trkpt>
      <trkpt lat="46.9194" lon="-1.91899">
        <ele>9</ele>
        <time>2021-03-07T01:59:33Z</time>
      </trkpt>
      <trkpt lat="46.91927" lon="-1.91967">
        <ele>9</ele>
        <time>2021-03-07T01:59:42Z</time>
      </trkpt>
      <trkpt lat="46.91914" lon="-1.92043">
        <ele>11</ele>
        <time>2021-03-07T01:59:51Z</time>
      </trkpt>
      <trkpt lat="46.91907" lon="-1.92091">
        <ele>11</ele>
        <time>2021-03-07T01:59:57Z</time>
      </trkpt>
      <trkpt lat="46.91906" lon="-1.92129">
        <ele>11</ele>
        <time>2021-03-07T02:00:02Z</time>
      </trkpt>
      <trkpt lat="46.91907" lon="-1.92136">
        <ele>12</ele>
        <time>2021-03-07T02:00:03Z</time>
      </trkpt>
      <trkpt lat="46.91912" lon="-1.92198">
        <ele>12</ele>
        <time>2021-03-07T02:00:10Z</time>
      </trkpt>
      <trkpt lat="46.91921" lon="-1.92296">
        <ele>11</ele>
        <time>2021-03-07T02:00:22Z</time>
      </trkpt>
      <trkpt lat="46.91929" lon="-1.92374">
        <ele>10</ele>
        <time>2021-03-07T02:00:32Z</time>
      </trkpt>
      <trkpt lat="46.91936" lon="-1.92464">
        <ele>10</ele>
        <time>2021-03-07T02:00:43Z</time>
      </trkpt>
      <trkpt lat="46.91934" lon="-1.92548">
        <ele>11</ele>
        <time>2021-03-07T02:00:53Z</time>
      </trkpt>
      <trkpt lat="46.91891" lon="-1.92876">
        <ele>14</ele>
        <time>2021-03-07T02:01:34Z</time>
      </trkpt>
      <trkpt lat="46.91889" lon="-1.92893">
        <ele>14</ele>
        <time>2021-03-07T02:01:36Z</time>
      </trkpt>
      <trkpt lat="46.91878" lon="-1.92968">
        <ele>15</ele>
        <time>2021-03-07T02:01:45Z</time>
      </trkpt>
      <trkpt lat="46.91852" lon="-1.93155">
        <ele>15</ele>
        <time>2021-03-07T02:02:09Z</time>
      </trkpt>
      <trkpt lat="46.91825" lon="-1.93285">
        <ele>13</ele>
        <time>2021-03-07T02:02:25Z</time>
      </trkpt>
      <trkpt lat="46.91734" lon="-1.93689">
        <ele>19</ele>
        <time>2021-03-07T02:03:17Z</time>
      </trkpt>
      <trkpt lat="46.91724" lon="-1.93738">
        <ele>20</ele>
        <time>2021-03-07T02:03:23Z</time>
      </trkpt>
      <trkpt lat="46.91718" lon="-1.93779">
        <ele>21</ele>
        <time>2021-03-07T02:03:28Z</time>
      </trkpt>
      <trkpt lat="46.91694" lon="-1.94166">
        <ele>21</ele>
        <time>2021-03-07T02:04:15Z</time>
      </trkpt>
      <trkpt lat="46.91679" lon="-1.94416">
        <ele>23</ele>
        <time>2021-03-07T02:04:46Z</time>
      </trkpt>
      <trkpt lat="46.91674" lon="-1.94501">
        <ele>24</ele>
        <time>2021-03-07T02:04:56Z</time>
      </trkpt>
      <trkpt lat="46.9167" lon="-1.94551">
        <ele>26</ele>
        <time>2021-03-07T02:05:02Z</time>
      </trkpt>
      <trkpt lat="46.91663" lon="-1.94601">
        <ele>27</ele>
        <time>2021-03-07T02:05:08Z</time>
      </trkpt>
      <trkpt lat="46.9166" lon="-1.94617">
        <ele>27</ele>
        <time>2021-03-07T02:05:10Z</time>
      </trkpt>
      <trkpt lat="46.91646" lon="-1.9468">
        <ele>26</ele>
        <time>2021-03-07T02:05:19Z</time>
      </trkpt>
      <trkpt lat="46.91508" lon="-1.95215">
        <ele>29</ele>
        <time>2021-03-07T02:06:28Z</time>
      </trkpt>
      <trkpt lat="46.91303" lon="-1.96">
        <ele>31</ele>
        <time>2021-03-07T02:08:10Z</time>
      </trkpt>
      <trkpt lat="46.91042" lon="-1.9678">
        <ele>31</ele>
        <time>2021-03-07T02:09:56Z</time>
      </trkpt>
      <trkpt lat="46.90952" lon="-1.97053">
        <ele>31</ele>
        <time>2021-03-07T02:10:33Z</time>
      </trkpt>
      <trkpt lat="46.9078" lon="-1.97749">
        <ele>26</ele>
        <time>2021-03-07T02:12:03Z</time>
      </trkpt>
      <trkpt lat="46.90772" lon="-1.97787">
        <ele>27</ele>
        <time>2021-03-07T02:12:07Z</time>
      </trkpt>
      <trkpt lat="46.90768" lon="-1.97821">
        <ele>28</ele>
        <time>2021-03-07T02:12:12Z</time>
      </trkpt>
      <trkpt lat="46.90768" lon="-1.97895">
        <ele>29</ele>
        <time>2021-03-07T02:12:21Z</time>
      </trkpt>
      <trkpt lat="46.90763" lon="-1.98042">
        <ele>30</ele>
        <time>2021-03-07T02:12:38Z</time>
      </trkpt>
      <trkpt lat="46.90757" lon="-1.98077">
        <ele>31</ele>
        <time>2021-03-07T02:12:43Z</time>
      </trkpt>
      <trkpt lat="46.90748" lon="-1.98104">
        <ele>31</ele>
        <time>2021-03-07T02:12:47Z</time>
      </trkpt>
      <trkpt lat="46.90741" lon="-1.98119">
        <ele>31</ele>
        <time>2021-03-07T02:12:49Z</time>
      </trkpt>
      <trkpt lat="46.90728" lon="-1.98147">
        <ele>30</ele>
        <time>2021-03-07T02:12:53Z</time>
      </trkpt>
      <trkpt lat="46.90701" lon="-1.9819">
        <ele>29</ele>
        <time>2021-03-07T02:13:00Z</time>
      </trkpt>
      <trkpt lat="46.9063" lon="-1.98262">
        <ele>27</ele>
        <time>2021-03-07T02:13:15Z</time>
      </trkpt>
      <trkpt lat="46.90622" lon="-1.98273">
        <ele>27</ele>
        <time>2021-03-07T02:13:17Z</time>
      </trkpt>
      <trkpt lat="46.9061" lon="-1.98302">
        <ele>27</ele>
        <time>2021-03-07T02:13:21Z</time>
      </trkpt>
      <trkpt lat="46.90604" lon="-1.98333">
        <ele>26</ele>
        <time>2021-03-07T02:13:25Z</time>
      </trkpt>
      <trkpt lat="46.90597" lon="-1.98455">
        <ele>24</ele>
        <time>2021-03-07T02:13:40Z</time>
      </trkpt>
      <trkpt lat="46.90584" lon="-1.98538">
        <ele>22</ele>
        <time>2021-03-07T02:13:51Z</time>
      </trkpt>
      <trkpt lat="46.90566" lon="-1.98595">
        <ele>21</ele>
        <time>2021-03-07T02:13:58Z</time>
      </trkpt>
      <trkpt lat="46.90531" lon="-1.98681">
        <ele>21</ele>
        <time>2021-03-07T02:14:10Z</time>
      </trkpt>
      <trkpt lat="46.90528" lon="-1.98711">
        <ele>20</ele>
        <time>2021-03-07T02:14:14Z</time>
      </trkpt>
      <trkpt lat="46.90528" lon="-1.98734">
        <ele>20</ele>
        <time>2021-03-07T02:14:17Z</time>
      </trkpt>
      <trkpt lat="46.90532" lon="-1.98768">
        <ele>20</ele>
        <time>2021-03-07T02:14:21Z</time>
      </trkpt>
      <trkpt lat="46.90535" lon="-1.98784">
        <ele>20</ele>
        <time>2021-03-07T02:14:23Z</time>
      </trkpt>
      <trkpt lat="46.90555" lon="-1.98845">
        <ele>21</ele>
        <time>2021-03-07T02:14:31Z</time>
      </trkpt>
      <trkpt lat="46.90563" lon="-1.98867">
        <ele>21</ele>
        <time>2021-03-07T02:14:34Z</time>
      </trkpt>
      <trkpt lat="46.90577" lon="-1.98906">
        <ele>22</ele>
        <time>2021-03-07T02:14:40Z</time>
      </trkpt>
      <trkpt lat="46.90587" lon="-1.98932">
        <ele>22</ele>
        <time>2021-03-07T02:14:43Z</time>
      </trkpt>
      <trkpt lat="46.90593" lon="-1.98949">
        <ele>23</ele>
        <time>2021-03-07T02:14:46Z</time>
      </trkpt>
      <trkpt lat="46.906" lon="-1.98974">
        <ele>23</ele>
        <time>2021-03-07T02:14:49Z</time>
      </trkpt>
      <trkpt lat="46.90602" lon="-1.98989">
        <ele>23</ele>
        <time>2021-03-07T02:14:51Z</time>
      </trkpt>
      <trkpt lat="46.90601" lon="-1.98994">
        <ele>23</ele>
        <time>2021-03-07T02:14:51Z</time>
      </trkpt>
      <trkpt lat="46.90598" lon="-1.98999">
        <ele>23</ele>
        <time>2021-03-07T02:14:52Z</time>
      </trkpt>
      <trkpt lat="46.906" lon="-1.99005">
        <ele>23</ele>
        <time>2021-03-07T02:14:53Z</time>
      </trkpt>
      <trkpt lat="46.90602" lon="-1.99027">
        <ele>24</ele>
        <time>2021-03-07T02:14:56Z</time>
      </trkpt>
      <trkpt lat="46.90598" lon="-1.99137">
        <ele>24</ele>
        <time>2021-03-07T02:15:09Z</time>
      </trkpt>
      <trkpt lat="46.90597" lon="-1.99191">
        <ele>24</ele>
        <time>2021-03-07T02:15:16Z</time>
      </trkpt>
      <trkpt lat="46.90594" lon="-1.99222">
        <ele>23</ele>
        <time>2021-03-07T02:15:19Z</time>
      </trkpt>
      <trkpt lat="46.90586" lon="-1.99251">
        <ele>23</ele>
        <time>2021-03-07T02:15:23Z</time>
      </trkpt>
      <trkpt lat="46.90545" lon="-1.99334">
        <ele>22</ele>
        <time>2021-03-07T02:15:36Z</time>
      </trkpt>
      <trkpt lat="46.90522" lon="-1.99384">
        <ele>22</ele>
        <time>2021-03-07T02:15:43Z</time>
      </trkpt>
      <trkpt lat="46.90502" lon="-1.99421">
        <ele>22</ele>
        <time>2021-03-07T02:15:49Z</time>
      </trkpt>
      <trkpt lat="46.90493" lon="-1.99435">
        <ele>22</ele>
        <time>2021-03-07T02:15:51Z</time>
      </trkpt>
      <trkpt lat="46.9046" lon="-1.99472">
        <ele>20</ele>
        <time>2021-03-07T02:15:58Z</time>
      </trkpt>
      <trkpt lat="46.9041" lon="-1.99514">
        <ele>17</ele>
        <time>2021-03-07T02:16:09Z</time>
      </trkpt>
      <trkpt lat="46.90398" lon="-1.99531">
        <ele>16</ele>
        <time>2021-03-07T02:16:12Z</time>
      </trkpt>
      <trkpt lat="46.90393" lon="-1.99549">
        <ele>15</ele>
        <time>2021-03-07T02:16:14Z</time>
      </trkpt>
      <trkpt lat="46.90381" lon="-1.99623">
        <ele>14</ele>
        <time>2021-03-07T02:16:23Z</time>
      </trkpt>
      <trkpt lat="46.90379" lon="-1.99646">
        <ele>14</ele>
        <time>2021-03-07T02:16:26Z</time>
      </trkpt>
      <trkpt lat="46.90382" lon="-1.99661">
        <ele>14</ele>
        <time>2021-03-07T02:16:28Z</time>
      </trkpt>
      <trkpt lat="46.90355" lon="-1.99683">
        <ele>13</ele>
        <time>2021-03-07T02:16:34Z</time>
      </trkpt>
      <trkpt lat="46.9034" lon="-1.997">
        <ele>12</ele>
        <time>2021-03-07T02:16:37Z</time>
      </trkpt>
      <trkpt lat="46.90365" lon="-1.99746">
        <ele>12</ele>
        <time>2021-03-07T02:16:44Z</time>
      </trkpt>
      <trkpt lat="46.90366" lon="-1.99754">
        <ele>12</ele>
        <time>2021-03-07T02:16:45Z</time>
      </trkpt>
      <trkpt lat="46.90364" lon="-1.99768">
        <ele>12</ele>
        <time>2021-03-07T02:16:47Z</time>
      </trkpt>
      <trkpt lat="46.90326" lon="-1.99814">
        <ele>12</ele>
        <time>2021-03-07T02:16:56Z</time>
      </trkpt>
      <trkpt lat="46.90296" lon="-1.99845">
        <ele>11</ele>
        <time>2021-03-07T02:17:02Z</time>
      </trkpt>
      <trkpt lat="46.90281" lon="-1.99879">
        <ele>11</ele>
        <time>2021-03-07T02:17:07Z</time>
      </trkpt>
      <trkpt lat="46.90277" lon="-1.99886">
        <ele>11</ele>
        <time>2021-03-07T02:17:08Z</time>
      </trkpt>
      <trkpt lat="46.90253" lon="-1.99907">
        <ele>10</ele>
        <time>2021-03-07T02:17:13Z</time>
      </trkpt>
      <trkpt lat="46.90257" lon="-1.99919">
        <ele>10</ele>
        <time>2021-03-07T02:17:15Z</time>
      </trkpt>
      <trkpt lat="46.9026" lon="-1.99934">
        <ele>10</ele>
        <time>2021-03-07T02:17:17Z</time>
      </trkpt>
      <trkpt lat="46.90259" lon="-1.99964">
        <ele>10</ele>
        <time>2021-03-07T02:17:20Z</time>
      </trkpt>
      <trkpt lat="46.90242" lon="-2.00088">
        <ele>7</ele>
        <time>2021-03-07T02:17:36Z</time>
      </trkpt>
      <trkpt lat="46.9024" lon="-2.00136">
        <ele>6</ele>
        <time>2021-03-07T02:17:41Z</time>
      </trkpt>
      <trkpt lat="46.90249" lon="-2.00286">
        <ele>6</ele>
        <time>2021-03-07T02:18:00Z</time>
      </trkpt>
      <trkpt lat="46.90263" lon="-2.00394">
        <ele>6</ele>
        <time>2021-03-07T02:18:13Z</time>
      </trkpt>
      <trkpt lat="46.90256" lon="-2.00509">
        <ele>6</ele>
        <time>2021-03-07T02:18:27Z</time>
      </trkpt>
      <trkpt lat="46.90254" lon="-2.00594">
        <ele>5</ele>
        <time>2021-03-07T02:18:38Z</time>
      </trkpt>
      <trkpt lat="46.90254" lon="-2.00612">
        <ele>6</ele>
        <time>2021-03-07T02:18:40Z</time>
      </trkpt>
      <trkpt lat="46.90278" lon="-2.00754">
        <ele>7</ele>
        <time>2021-03-07T02:18:58Z</time>
      </trkpt>
      <trkpt lat="46.90389" lon="-2.01378">
        <ele>10</ele>
        <time>2021-03-07T02:20:16Z</time>
      </trkpt>
      <trkpt lat="46.90398" lon="-2.01404">
        <ele>11</ele>
        <time>2021-03-07T02:20:19Z</time>
      </trkpt>
      <trkpt lat="46.90403" lon="-2.01413">
        <ele>11</ele>
        <time>2021-03-07T02:20:21Z</time>
      </trkpt>
      <trkpt lat="46.90409" lon="-2.01421">
        <ele>11</ele>
        <time>2021-03-07T02:20:22Z</time>
      </trkpt>
      <trkpt lat="46.90411" lon="-2.01426">
        <ele>12</ele>
        <time>2021-03-07T02:20:23Z</time>
      </trkpt>
      <trkpt lat="46.90411" lon="-2.01436">
        <ele>12</ele>
        <time>2021-03-07T02:20:24Z</time>
      </trkpt>
      <trkpt lat="46.90406" lon="-2.01446">
        <ele>11</ele>
        <time>2021-03-07T02:20:26Z</time>
      </trkpt>
      <trkpt lat="46.90407" lon="-2.01478">
        <ele>11</ele>
        <time>2021-03-07T02:20:30Z</time>
      </trkpt>
      <trkpt lat="46.90533" lon="-2.02186">
        <ele>17</ele>
        <time>2021-03-07T02:21:59Z</time>
      </trkpt>
      <trkpt lat="46.90552" lon="-2.0226">
        <ele>18</ele>
        <time>2021-03-07T02:22:08Z</time>
      </trkpt>
      <trkpt lat="46.9063" lon="-2.02501">
        <ele>20</ele>
        <time>2021-03-07T02:22:41Z</time>
      </trkpt>
      <trkpt lat="46.90646" lon="-2.02541">
        <ele>20</ele>
        <time>2021-03-07T02:22:46Z</time>
      </trkpt>
      <trkpt lat="46.9067" lon="-2.02596">
        <ele>19</ele>
        <time>2021-03-07T02:22:54Z</time>
      </trkpt>
      <trkpt lat="46.90747" lon="-2.02759">
        <ele>20</ele>
        <time>2021-03-07T02:23:18Z</time>
      </trkpt>
      <trkpt lat="46.90741" lon="-2.0277">
        <ele>20</ele>
        <time>2021-03-07T02:23:20Z</time>
      </trkpt>
      <trkpt lat="46.9074" lon="-2.02822">
        <ele>19</ele>
        <time>2021-03-07T02:23:26Z</time>
      </trkpt>
      <trkpt lat="46.90741" lon="-2.02849">
        <ele>19</ele>
        <time>2021-03-07T02:23:30Z</time>
      </trkpt>
      <trkpt lat="46.90742" lon="-2.02862">
        <ele>19</ele>
        <time>2021-03-07T02:23:31Z</time>
      </trkpt>
      <trkpt lat="46.9076" lon="-2.02941">
        <ele>18</ele>
        <time>2021-03-07T02:23:41Z</time>
      </trkpt>
      <trkpt lat="46.90765" lon="-2.03029">
        <ele>18</ele>
        <time>2021-03-07T02:23:52Z</time>
      </trkpt>
      <trkpt lat="46.90773" lon="-2.03082">
        <ele>18</ele>
        <time>2021-03-07T02:23:59Z</time>
      </trkpt>
      <trkpt lat="46.90789" lon="-2.03153">
        <ele>18</ele>
        <time>2021-03-07T02:24:08Z</time>
      </trkpt>
      <trkpt lat="46.90807" lon="-2.03209">
        <ele>18</ele>
        <time>2021-03-07T02:24:15Z</time>
      </trkpt>
      <trkpt lat="46.90822" lon="-2.0325">
        <ele>18</ele>
        <time>2021-03-07T02:24:21Z</time>
      </trkpt>
      <trkpt lat="46.90825" lon="-2.03272">
        <ele>18</ele>
        <time>2021-03-07T02:24:24Z</time>
      </trkpt>
      <trkpt lat="46.90827" lon="-2.03311">
        <ele>18</ele>
        <time>2021-03-07T02:24:28Z</time>
      </trkpt>
      <trkpt lat="46.90765" lon="-2.03314">
        <ele>18</ele>
        <time>2021-03-07T02:24:39Z</time>
      </trkpt>
      <trkpt lat="46.90699" lon="-2.03325">
        <ele>17</ele>
        <time>2021-03-07T02:24:51Z</time>
      </trkpt>
      <trkpt lat="46.90623" lon="-2.03326">
        <ele>14</ele>
        <time>2021-03-07T02:25:05Z</time>
      </trkpt>
      <trkpt lat="46.90526" lon="-2.03342">
        <ele>9</ele>
        <time>2021-03-07T02:25:22Z</time>
      </trkpt>
      <trkpt lat="46.90504" lon="-2.03348">
        <ele>7</ele>
        <time>2021-03-07T02:25:26Z</time>
      </trkpt>
      <trkpt lat="46.9045" lon="-2.03367">
        <ele>6</ele>
        <time>2021-03-07T02:25:36Z</time>
      </trkpt>
      <trkpt lat="46.9042" lon="-2.03373">
        <ele>5</ele>
        <time>2021-03-07T02:25:41Z</time>
      </trkpt>
      <trkpt lat="46.90391" lon="-2.03372">
        <ele>4</ele>
        <time>2021-03-07T02:25:47Z</time>
      </trkpt>
      <trkpt lat="46.90365" lon="-2.03359">
        <ele>3</ele>
        <time>2021-03-07T02:25:51Z</time>
      </trkpt>
      <trkpt lat="46.90364" lon="-2.03364">
        <ele>3</ele>
        <time>2021-03-07T02:25:52Z</time>
      </trkpt>
      <trkpt lat="46.90364" lon="-2.03376">
        <ele>3</ele>
        <time>2021-03-07T02:25:53Z</time>
      </trkpt>
      <trkpt lat="46.90372" lon="-2.03435">
        <ele>3</ele>
        <time>2021-03-07T02:26:01Z</time>
      </trkpt>
      <trkpt lat="46.90375" lon="-2.03493">
        <ele>3</ele>
        <time>2021-03-07T02:26:08Z</time>
      </trkpt>
      <trkpt lat="46.90381" lon="-2.03561">
        <ele>2</ele>
        <time>2021-03-07T02:26:16Z</time>
      </trkpt>
      <trkpt lat="46.90384" lon="-2.03614">
        <ele>2</ele>
        <time>2021-03-07T02:26:23Z</time>
      </trkpt>
      <trkpt lat="46.90398" lon="-2.03703">
        <ele>1</ele>
        <time>2021-03-07T02:26:34Z</time>
      </trkpt>
      <trkpt lat="46.90414" lon="-2.03785">
        <ele>1</ele>
        <time>2021-03-07T02:26:44Z</time>
      </trkpt>
      <trkpt lat="46.90422" lon="-2.03869">
        <ele>3</ele>
        <time>2021-03-07T02:26:54Z</time>
      </trkpt>
      <trkpt lat="46.90426" lon="-2.03937">
        <ele>3</ele>
        <time>2021-03-07T02:27:03Z</time>
      </trkpt>
      <trkpt lat="46.90425" lon="-2.04054">
        <ele>2</ele>
        <time>2021-03-07T02:27:17Z</time>
      </trkpt>
      <trkpt lat="46.90429" lon="-2.04086">
        <ele>2</ele>
        <time>2021-03-07T02:27:21Z</time>
      </trkpt>
      <trkpt lat="46.90437" lon="-2.04114">
        <ele>2</ele>
        <time>2021-03-07T02:27:25Z</time>
      </trkpt>
      <trkpt lat="46.90439" lon="-2.04127">
        <ele>3</ele>
        <time>2021-03-07T02:27:26Z</time>
      </trkpt>
      <trkpt lat="46.90441" lon="-2.04163">
        <ele>3</ele>
        <time>2021-03-07T02:27:31Z</time>
      </trkpt>
      <trkpt lat="46.90448" lon="-2.04207">
        <ele>2</ele>
        <time>2021-03-07T02:27:36Z</time>
      </trkpt>
      <trkpt lat="46.90461" lon="-2.04278">
        <ele>2</ele>
        <time>2021-03-07T02:27:45Z</time>
      </trkpt>
      <trkpt lat="46.90476" lon="-2.04344">
        <ele>2</ele>
        <time>2021-03-07T02:27:54Z</time>
      </trkpt>
      <trkpt lat="46.90486" lon="-2.04398">
        <ele>2</ele>
        <time>2021-03-07T02:28:00Z</time>
      </trkpt>
      <trkpt lat="46.90487" lon="-2.04424">
        <ele>2</ele>
        <time>2021-03-07T02:28:03Z</time>
      </trkpt>
      <trkpt lat="46.90481" lon="-2.0447">
        <ele>2</ele>
        <time>2021-03-07T02:28:09Z</time>
      </trkpt>
      <trkpt lat="46.9048" lon="-2.045">
        <ele>3</ele>
        <time>2021-03-07T02:28:13Z</time>
      </trkpt>
      <trkpt lat="46.90482" lon="-2.04525">
        <ele>3</ele>
        <time>2021-03-07T02:28:16Z</time>
      </trkpt>
      <trkpt lat="46.905" lon="-2.04609">
        <ele>3</ele>
        <time>2021-03-07T02:28:27Z</time>
      </trkpt>
      <trkpt lat="46.90508" lon="-2.04656">
        <ele>3</ele>
        <time>2021-03-07T02:28:32Z</time>
      </trkpt>
      <trkpt lat="46.90515" lon="-2.0468">
        <ele>3</ele>
        <time>2021-03-07T02:28:36Z</time>
      </trkpt>
      <trkpt lat="46.9053" lon="-2.04724">
        <ele>3</ele>
        <time>2021-03-07T02:28:42Z</time>
      </trkpt>
      <trkpt lat="46.90553" lon="-2.04769">
        <ele>3</ele>
        <time>2021-03-07T02:28:48Z</time>
      </trkpt>
      <trkpt lat="46.90581" lon="-2.04849">
        <ele>2</ele>
        <time>2021-03-07T02:28:59Z</time>
      </trkpt>
      <trkpt lat="46.90601" lon="-2.04891">
        <ele>3</ele>
        <time>2021-03-07T02:29:06Z</time>
      </trkpt>
      <trkpt lat="46.90615" lon="-2.04915">
        <ele>4</ele>
        <time>2021-03-07T02:29:09Z</time>
      </trkpt>
      <trkpt lat="46.90626" lon="-2.04925">
        <ele>3</ele>
        <time>2021-03-07T02:29:12Z</time>
      </trkpt>
      <trkpt lat="46.90637" lon="-2.0493">
        <ele>3</ele>
        <time>2021-03-07T02:29:14Z</time>
      </trkpt>
      <trkpt lat="46.90662" lon="-2.04937">
        <ele>3</ele>
        <time>2021-03-07T02:29:18Z</time>
      </trkpt>
      <trkpt lat="46.90674" lon="-2.04961">
        <ele>3</ele>
        <time>2021-03-07T02:29:22Z</time>
      </trkpt>
      <trkpt lat="46.9056" lon="-2.05043">
        <ele>3</ele>
        <time>2021-03-07T02:29:45Z</time>
      </trkpt>
      <trkpt lat="46.90547" lon="-2.05055">
        <ele>2</ele>
        <time>2021-03-07T02:29:47Z</time>
      </trkpt>
      <trkpt lat="46.90516" lon="-2.05089">
        <ele>1</ele>
        <time>2021-03-07T02:29:54Z</time>
      </trkpt>
      <trkpt lat="46.90502" lon="-2.05109">
        <ele>1</ele>
        <time>2021-03-07T02:29:58Z</time>
      </trkpt>
      <trkpt lat="46.90489" lon="-2.05132">
        <ele>2</ele>
        <time>2021-03-07T02:30:01Z</time>
      </trkpt>
      <trkpt lat="46.9048" lon="-2.05154">
        <ele>2</ele>
        <time>2021-03-07T02:30:04Z</time>
      </trkpt>
      <trkpt lat="46.90471" lon="-2.05178">
        <ele>2</ele>
        <time>2021-03-07T02:30:08Z</time>
      </trkpt>
      <trkpt lat="46.90466" lon="-2.05198">
        <ele>2</ele>
        <time>2021-03-07T02:30:10Z</time>
      </trkpt>
      <trkpt lat="46.90421" lon="-2.05389">
        <ele>2</ele>
        <time>2021-03-07T02:30:35Z</time>
      </trkpt>
      <trkpt lat="46.90417" lon="-2.05416">
        <ele>2</ele>
        <time>2021-03-07T02:30:38Z</time>
      </trkpt>
      <trkpt lat="46.90415" lon="-2.05445">
        <ele>2.9</ele>
        <time>2021-03-07T02:30:42Z</time>
      </trkpt>
      <trkpt lat="46.90419" lon="-2.05542">
        <ele>2.5</ele>
        <time>2021-03-07T02:30:54Z</time>
      </trkpt>
      <trkpt lat="46.90414" lon="-2.05582">
        <ele>2</ele>
        <time>2021-03-07T02:30:59Z</time>
      </trkpt>
      <trkpt lat="46.90409" lon="-2.05601">
        <ele>1</ele>
        <time>2021-03-07T02:31:01Z</time>
      </trkpt>
      <trkpt lat="46.90403" lon="-2.0562">
        <ele>1</ele>
        <time>2021-03-07T02:31:04Z</time>
      </trkpt>
      <trkpt lat="46.90389" lon="-2.05651">
        <ele>1</ele>
        <time>2021-03-07T02:31:08Z</time>
      </trkpt>
      <trkpt lat="46.90367" lon="-2.05699">
        <ele>1</ele>
        <time>2021-03-07T02:31:15Z</time>
      </trkpt>
      <trkpt lat="46.90333" lon="-2.05762">
        <ele>1</ele>
        <time>2021-03-07T02:31:25Z</time>
      </trkpt>
      <trkpt lat="46.90316" lon="-2.0579">
        <ele>1</ele>
        <time>2021-03-07T02:31:29Z</time>
      </trkpt>
      <trkpt lat="46.90294" lon="-2.0582">
        <ele>1</ele>
        <time>2021-03-07T02:31:35Z</time>
      </trkpt>
      <trkpt lat="46.9025" lon="-2.0587">
        <ele>1</ele>
        <time>2021-03-07T02:31:45Z</time>
      </trkpt>
      <trkpt lat="46.90197" lon="-2.05927">
        <ele>1</ele>
        <time>2021-03-07T02:31:56Z</time>
      </trkpt>
      <trkpt lat="46.90181" lon="-2.05948">
        <ele>1</ele>
        <time>2021-03-07T02:32:00Z</time>
      </trkpt>
      <trkpt lat="46.90168" lon="-2.0597">
        <ele>2.9</ele>
        <time>2021-03-07T02:32:04Z</time>
      </trkpt>
      <trkpt lat="46.9004" lon="-2.06204">
        <ele>2.3</ele>
        <time>2021-03-07T02:32:40Z</time>
      </trkpt>
      <trkpt lat="46.90026" lon="-2.0623">
        <ele>2</ele>
        <time>2021-03-07T02:32:44Z</time>
      </trkpt>
      <trkpt lat="46.90009" lon="-2.06255">
        <ele>2.1</ele>
        <time>2021-03-07T02:32:48Z</time>
      </trkpt>
      <trkpt lat="46.89993" lon="-2.06272">
        <ele>2.6</ele>
        <time>2021-03-07T02:32:52Z</time>
      </trkpt>
      <trkpt lat="46.89959" lon="-2.06302">
        <ele>1</ele>
        <time>2021-03-07T02:32:59Z</time>
      </trkpt>
      <trkpt lat="46.89936" lon="-2.06314">
        <ele>1</ele>
        <time>2021-03-07T02:33:03Z</time>
      </trkpt>
      <trkpt lat="46.89909" lon="-2.06324">
        <ele>1</ele>
        <time>2021-03-07T02:33:08Z</time>
      </trkpt>
      <trkpt lat="46.89691" lon="-2.06398">
        <ele>1</ele>
        <time>2021-03-07T02:33:48Z</time>
      </trkpt>
      <trkpt lat="46.89663" lon="-2.06408">
        <ele>2</ele>
        <time>2021-03-07T02:33:53Z</time>
      </trkpt>
      <trkpt lat="46.89623" lon="-2.06422">
        <ele>1</ele>
        <time>2021-03-07T02:34:01Z</time>
      </trkpt>
      <trkpt lat="46.89582" lon="-2.06438">
        <ele>1</ele>
        <time>2021-03-07T02:34:08Z</time>
      </trkpt>
      <trkpt lat="46.8958" lon="-2.06438">
        <ele>1</ele>
        <time>2021-03-07T02:34:09Z</time>
      </trkpt>
      <trkpt lat="46.89579" lon="-2.06439">
        <ele>1</ele>
        <time>2021-03-07T02:34:09Z</time>
      </trkpt>
      <trkpt lat="46.89559" lon="-2.06448">
        <ele>1</ele>
        <time>2021-03-07T02:34:12Z</time>
      </trkpt>
      <trkpt lat="46.8954" lon="-2.06457">
        <ele>3</ele>
        <time>2021-03-07T02:34:16Z</time>
      </trkpt>
      <trkpt lat="46.89461" lon="-2.06515">
        <ele>3</ele>
        <time>2021-03-07T02:34:32Z</time>
      </trkpt>
      <trkpt lat="46.89435" lon="-2.06529">
        <ele>2.6</ele>
        <time>2021-03-07T02:34:37Z</time>
      </trkpt>
      <trkpt lat="46.89393" lon="-2.06548">
        <ele>2.1</ele>
        <time>2021-03-07T02:34:45Z</time>
      </trkpt>
      <trkpt lat="46.89334" lon="-2.06581">
        <ele>1</ele>
        <time>2021-03-07T02:34:56Z</time>
      </trkpt>
      <trkpt lat="46.89327" lon="-2.06589">
        <ele>1</ele>
        <time>2021-03-07T02:34:57Z</time>
      </trkpt>
      <trkpt lat="46.89322" lon="-2.06598">
        <ele>1</ele>
        <time>2021-03-07T02:34:59Z</time>
      </trkpt>
      <trkpt lat="46.89322" lon="-2.06612">
        <ele>1</ele>
        <time>2021-03-07T02:35:00Z</time>
      </trkpt>
      <trkpt lat="46.89316" lon="-2.06623">
        <ele>1</ele>
        <time>2021-03-07T02:35:02Z</time>
      </trkpt>
      <trkpt lat="46.89307" lon="-2.06625">
        <ele>1</ele>
        <time>2021-03-07T02:35:04Z</time>
      </trkpt>
      <trkpt lat="46.89294" lon="-2.06623">
        <ele>1</ele>
        <time>2021-03-07T02:35:06Z</time>
      </trkpt>
      <trkpt lat="46.89285" lon="-2.06626">
        <ele>1</ele>
        <time>2021-03-07T02:35:08Z</time>
      </trkpt>
      <trkpt lat="46.89216" lon="-2.06711">
        <ele>1</ele>
        <time>2021-03-07T02:35:24Z</time>
      </trkpt>
      <trkpt lat="46.89176" lon="-2.06763">
        <ele>1</ele>
        <time>2021-03-07T02:35:33Z</time>
      </trkpt>
      <trkpt lat="46.89159" lon="-2.0679">
        <ele>1</ele>
        <time>2021-03-07T02:35:38Z</time>
      </trkpt>
      <trkpt lat="46.89145" lon="-2.06821">
        <ele>1</ele>
        <time>2021-03-07T02:35:42Z</time>
      </trkpt>
      <trkpt lat="46.89111" lon="-2.06911">
        <ele>1</ele>
        <time>2021-03-07T02:35:55Z</time>
      </trkpt>
      <trkpt lat="46.89099" lon="-2.06939">
        <ele>2</ele>
        <time>2021-03-07T02:35:59Z</time>
      </trkpt>
      <trkpt lat="46.89083" lon="-2.06966">
        <ele>2</ele>
        <time>2021-03-07T02:36:03Z</time>
      </trkpt>
      <trkpt lat="46.89011" lon="-2.07052">
        <ele>1</ele>
        <time>2021-03-07T02:36:20Z</time>
      </trkpt>
      <trkpt lat="46.88969" lon="-2.07113">
        <ele>2</ele>
        <time>2021-03-07T02:36:30Z</time>
      </trkpt>
      <trkpt lat="46.88787" lon="-2.07428">
        <ele>1</ele>
        <time>2021-03-07T02:37:20Z</time>
      </trkpt>
      <trkpt lat="46.88777" lon="-2.0745">
        <ele>1</ele>
        <time>2021-03-07T02:37:24Z</time>
      </trkpt>
      <trkpt lat="46.88769" lon="-2.07477">
        <ele>2</ele>
        <time>2021-03-07T02:37:27Z</time>
      </trkpt>
      <trkpt lat="46.88764" lon="-2.07502">
        <ele>2</ele>
        <time>2021-03-07T02:37:30Z</time>
      </trkpt>
      <trkpt lat="46.88761" lon="-2.07525">
        <ele>2.5</ele>
        <time>2021-03-07T02:37:33Z</time>
      </trkpt>
      <trkpt lat="46.88761" lon="-2.07548">
        <ele>1</ele>
        <time>2021-03-07T02:37:36Z</time>
      </trkpt>
      <trkpt lat="46.88763" lon="-2.07576">
        <ele>1</ele>
        <time>2021-03-07T02:37:39Z</time>
      </trkpt>
      <trkpt lat="46.88986" lon="-2.09489">
        <ele>1</ele>
        <time>2021-03-07T02:41:35Z</time>
      </trkpt>
      <trkpt lat="46.88991" lon="-2.09567">
        <ele>1</ele>
        <time>2021-03-07T02:41:45Z</time>
      </trkpt>
      <trkpt lat="46.88986" lon="-2.09715">
        <ele>2</ele>
        <time>2021-03-07T02:42:03Z</time>
      </trkpt>
      <trkpt lat="46.88987" lon="-2.0975">
        <ele>2</ele>
        <time>2021-03-07T02:42:07Z</time>
      </trkpt>
      <trkpt lat="46.88994" lon="-2.09769">
        <ele>2</ele>
        <time>2021-03-07T02:42:10Z</time>
      </trkpt>
      <trkpt lat="46.88994" lon="-2.0978">
        <ele>1</ele>
        <time>2021-03-07T02:42:11Z</time>
      </trkpt>
      <trkpt lat="46.8899" lon="-2.09788">
        <ele>1</ele>
        <time>2021-03-07T02:42:12Z</time>
      </trkpt>
      <trkpt lat="46.88983" lon="-2.09792">
        <ele>1</ele>
        <time>2021-03-07T02:42:14Z</time>
      </trkpt>
      <trkpt lat="46.88925" lon="-2.10962">
        <ele>3</ele>
        <time>2021-03-07T02:44:36Z</time>
      </trkpt>
      <trkpt lat="46.88924" lon="-2.10989">
        <ele>3</ele>
        <time>2021-03-07T02:44:40Z</time>
      </trkpt>
      <trkpt lat="46.88925" lon="-2.10996">
        <ele>3</ele>
        <time>2021-03-07T02:44:40Z</time>
      </trkpt>
      <trkpt lat="46.88925" lon="-2.11008">
        <ele>3</ele>
        <time>2021-03-07T02:44:42Z</time>
      </trkpt>
      <trkpt lat="46.88924" lon="-2.11021">
        <ele>3</ele>
        <time>2021-03-07T02:44:44Z</time>
      </trkpt>
      <trkpt lat="46.88921" lon="-2.11035">
        <ele>4</ele>
        <time>2021-03-07T02:44:45Z</time>
      </trkpt>
      <trkpt lat="46.88892" lon="-2.11134">
        <ele>4</ele>
        <time>2021-03-07T02:44:58Z</time>
      </trkpt>
      <trkpt lat="46.88888" lon="-2.11162">
        <ele>4</ele>
        <time>2021-03-07T02:45:02Z</time>
      </trkpt>
      <trkpt lat="46.8889" lon="-2.11164">
        <ele>4</ele>
        <time>2021-03-07T02:45:02Z</time>
      </trkpt>
      <trkpt lat="46.88893" lon="-2.1117">
        <ele>4</ele>
        <time>2021-03-07T02:45:03Z</time>
      </trkpt>
      <trkpt lat="46.88893" lon="-2.11179">
        <ele>4</ele>
        <time>2021-03-07T02:45:04Z</time>
      </trkpt>
      <trkpt lat="46.88892" lon="-2.11182">
        <ele>4</ele>
        <time>2021-03-07T02:45:05Z</time>
      </trkpt>
      <trkpt lat="46.88894" lon="-2.11204">
        <ele>4</ele>
        <time>2021-03-07T02:45:07Z</time>
      </trkpt>
      <trkpt lat="46.88896" lon="-2.1123">
        <ele>3</ele>
        <time>2021-03-07T02:45:11Z</time>
      </trkpt>
      <trkpt lat="46.88898" lon="-2.11262">
        <ele>3</ele>
        <time>2021-03-07T02:45:15Z</time>
      </trkpt>
      <trkpt lat="46.88901" lon="-2.11304">
        <ele>2</ele>
        <time>2021-03-07T02:45:20Z</time>
      </trkpt>
      <trkpt lat="46.88905" lon="-2.11366">
        <ele>2</ele>
        <time>2021-03-07T02:45:27Z</time>
      </trkpt>
      <trkpt lat="46.88904" lon="-2.1138">
        <ele>2</ele>
        <time>2021-03-07T02:45:29Z</time>
      </trkpt>
      <trkpt lat="46.88906" lon="-2.11396">
        <ele>2</ele>
        <time>2021-03-07T02:45:31Z</time>
      </trkpt>
      <trkpt lat="46.88908" lon="-2.11445">
        <ele>2</ele>
        <time>2021-03-07T02:45:37Z</time>
      </trkpt>
      <trkpt lat="46.88909" lon="-2.11458">
        <ele>2</ele>
        <time>2021-03-07T02:45:38Z</time>
      </trkpt>
      <trkpt lat="46.8891" lon="-2.11483">
        <ele>2</ele>
        <time>2021-03-07T02:45:42Z</time>
      </trkpt>
      <trkpt lat="46.88915" lon="-2.11595">
        <ele>2</ele>
        <time>2021-03-07T02:45:55Z</time>
      </trkpt>
      <trkpt lat="46.88916" lon="-2.11627">
        <ele>3</ele>
        <time>2021-03-07T02:45:59Z</time>
      </trkpt>
      <trkpt lat="46.88929" lon="-2.11891">
        <ele>2</ele>
        <time>2021-03-07T02:46:31Z</time>
      </trkpt>
      <trkpt lat="46.88932" lon="-2.11915">
        <ele>2</ele>
        <time>2021-03-07T02:46:34Z</time>
      </trkpt>
      <trkpt lat="46.88933" lon="-2.11944">
        <ele>3</ele>
        <time>2021-03-07T02:46:38Z</time>
      </trkpt>
      <trkpt lat="46.88937" lon="-2.12017">
        <ele>3</ele>
        <time>2021-03-07T02:46:47Z</time>
      </trkpt>
      <trkpt lat="46.8894" lon="-2.12052">
        <ele>3</ele>
        <time>2021-03-07T02:46:51Z</time>
      </trkpt>
      <trkpt lat="46.88943" lon="-2.12083">
        <ele>3</ele>
        <time>2021-03-07T02:46:55Z</time>
      </trkpt>
      <trkpt lat="46.88937" lon="-2.12085">
        <ele>3</ele>
        <time>2021-03-07T02:46:56Z</time>
      </trkpt>
      <trkpt lat="46.8892" lon="-2.12095">
        <ele>3</ele>
        <time>2021-03-07T02:46:59Z</time>
      </trkpt>
      <trkpt lat="46.88904" lon="-2.12114">
        <ele>4</ele>
        <time>2021-03-07T02:47:03Z</time>
      </trkpt>
      <trkpt lat="46.88891" lon="-2.12124">
        <ele>4</ele>
        <time>2021-03-07T02:47:05Z</time>
      </trkpt>
      <trkpt lat="46.88857" lon="-2.12139">
        <ele>4</ele>
        <time>2021-03-07T02:47:12Z</time>
      </trkpt>
      <trkpt lat="46.88812" lon="-2.12159">
        <ele>4</ele>
        <time>2021-03-07T02:47:20Z</time>
      </trkpt>
      <trkpt lat="46.88781" lon="-2.12176">
        <ele>4</ele>
        <time>2021-03-07T02:47:26Z</time>
      </trkpt>
      <trkpt lat="46.8872" lon="-2.12216">
        <ele>5</ele>
        <time>2021-03-07T02:47:38Z</time>
      </trkpt>
      <trkpt lat="46.88716" lon="-2.12218">
        <ele>5</ele>
        <time>2021-03-07T02:47:39Z</time>
      </trkpt>
      <trkpt lat="46.88681" lon="-2.12239">
        <ele>5</ele>
        <time>2021-03-07T02:47:45Z</time>
      </trkpt>
      <trkpt lat="46.88653" lon="-2.12264">
        <ele>5</ele>
        <time>2021-03-07T02:47:51Z</time>
      </trkpt>
      <trkpt lat="46.88637" lon="-2.12281">
        <ele>5</ele>
        <time>2021-03-07T02:47:55Z</time>
      </trkpt>
      <trkpt lat="46.88625" lon="-2.12294">
        <ele>6</ele>
        <time>2021-03-07T02:47:57Z</time>
      </trkpt>
      <trkpt lat="46.88603" lon="-2.12317">
        <ele>6</ele>
        <time>2021-03-07T02:48:02Z</time>
      </trkpt>
      <trkpt lat="46.88555" lon="-2.12364">
        <ele>6</ele>
        <time>2021-03-07T02:48:12Z</time>
      </trkpt>
      <trkpt lat="46.88541" lon="-2.12375">
        <ele>6</ele>
        <time>2021-03-07T02:48:15Z</time>
      </trkpt>
      <trkpt lat="46.8853" lon="-2.12384">
        <ele>6</ele>
        <time>2021-03-07T02:48:18Z</time>
      </trkpt>
      <trkpt lat="46.88526" lon="-2.12387">
        <ele>6</ele>
        <time>2021-03-07T02:48:18Z</time>
      </trkpt>
      <trkpt lat="46.88504" lon="-2.12396">
        <ele>5</ele>
        <time>2021-03-07T02:48:22Z</time>
      </trkpt>
      <trkpt lat="46.88504" lon="-2.12402">
        <ele>5</ele>
        <time>2021-03-07T02:48:23Z</time>
      </trkpt>
      <trkpt lat="46.88498" lon="-2.12408">
        <ele>5</ele>
        <time>2021-03-07T02:48:24Z</time>
      </trkpt>
      <trkpt lat="46.88495" lon="-2.12425">
        <ele>5</ele>
        <time>2021-03-07T02:48:27Z</time>
      </trkpt>
      <trkpt lat="46.88495" lon="-2.12431">
        <ele>5</ele>
        <time>2021-03-07T02:48:27Z</time>
      </trkpt>
      <trkpt lat="46.88482" lon="-2.12437">
        <ele>5</ele>
        <time>2021-03-07T02:48:30Z</time>
      </trkpt>
      <trkpt lat="46.88476" lon="-2.12433">
        <ele>5</ele>
        <time>2021-03-07T02:48:31Z</time>
      </trkpt>
      <trkpt lat="46.88474" lon="-2.12434">
        <ele>5</ele>
        <time>2021-03-07T02:48:31Z</time>
      </trkpt>
      <trkpt lat="46.88475" lon="-2.12459">
        <ele>6</ele>
        <time>2021-03-07T02:48:34Z</time>
      </trkpt>
      <trkpt lat="46.88471" lon="-2.12484">
        <ele>6</ele>
        <time>2021-03-07T02:48:37Z</time>
      </trkpt>
      <trkpt lat="46.88468" lon="-2.12487">
        <ele>6</ele>
        <time>2021-03-07T02:48:38Z</time>
      </trkpt>
      <trkpt lat="46.88473" lon="-2.12512">
        <ele>7</ele>
        <time>2021-03-07T02:48:41Z</time>
      </trkpt>
      <trkpt lat="46.88486" lon="-2.12552">
        <ele>10</ele>
        <time>2021-03-07T02:48:47Z</time>
      </trkpt>
      <trkpt lat="46.8849" lon="-2.12572">
        <ele>11</ele>
        <time>2021-03-07T02:48:49Z</time>
      </trkpt>
      <trkpt lat="46.88512" lon="-2.12661">
        <ele>13</ele>
        <time>2021-03-07T02:49:01Z</time>
      </trkpt>
      <trkpt lat="46.88527" lon="-2.12735">
        <ele>13</ele>
        <time>2021-03-07T02:49:10Z</time>
      </trkpt>
      <trkpt lat="46.88535" lon="-2.12797">
        <ele>13</ele>
        <time>2021-03-07T02:49:18Z</time>
      </trkpt>
      <trkpt lat="46.8854" lon="-2.12858">
        <ele>13</ele>
        <time>2021-03-07T02:49:25Z</time>
      </trkpt>
      <trkpt lat="46.8854" lon="-2.1292">
        <ele>12</ele>
        <time>2021-03-07T02:49:33Z</time>
      </trkpt>
      <trkpt lat="46.88538" lon="-2.12985">
        <ele>11</ele>
        <time>2021-03-07T02:49:41Z</time>
      </trkpt>
      <trkpt lat="46.88531" lon="-2.13065">
        <ele>11</ele>
        <time>2021-03-07T02:49:50Z</time>
      </trkpt>
      <trkpt lat="46.88492" lon="-2.13278">
        <ele>12</ele>
        <time>2021-03-07T02:50:17Z</time>
      </trkpt>
      <trkpt lat="46.88441" lon="-2.13551">
        <ele>5</ele>
        <time>2021-03-07T02:50:52Z</time>
      </trkpt>
      <trkpt lat="46.88436" lon="-2.13583">
        <ele>5</ele>
        <time>2021-03-07T02:50:56Z</time>
      </trkpt>
      <trkpt lat="46.88425" lon="-2.13638">
        <ele>5</ele>
        <time>2021-03-07T02:51:03Z</time>
      </trkpt>
      <trkpt lat="46.88416" lon="-2.1373">
        <ele>7</ele>
        <time>2021-03-07T02:51:14Z</time>
      </trkpt>
      <trkpt lat="46.88418" lon="-2.1376">
        <ele>7</ele>
        <time>2021-03-07T02:51:18Z</time>
      </trkpt>
      <trkpt lat="46.88423" lon="-2.13788">
        <ele>7</ele>
        <time>2021-03-07T02:51:21Z</time>
      </trkpt>
      <trkpt lat="46.88428" lon="-2.13798">
        <ele>7</ele>
        <time>2021-03-07T02:51:23Z</time>
      </trkpt>
      <trkpt lat="46.88439" lon="-2.13811">
        <ele>7</ele>
        <time>2021-03-07T02:51:25Z</time>
      </trkpt>
      <trkpt lat="46.88446" lon="-2.13815">
        <ele>7</ele>
        <time>2021-03-07T02:51:26Z</time>
      </trkpt>
      <trkpt lat="46.88455" lon="-2.13818">
        <ele>8</ele>
        <time>2021-03-07T02:51:28Z</time>
      </trkpt>
      <trkpt lat="46.88445" lon="-2.13826">
        <ele>8</ele>
        <time>2021-03-07T02:51:30Z</time>
      </trkpt>
      <trkpt lat="46.88438" lon="-2.13834">
        <ele>8</ele>
        <time>2021-03-07T02:51:32Z</time>
      </trkpt>
      <trkpt lat="46.88433" lon="-2.13841">
        <ele>8</ele>
        <time>2021-03-07T02:51:33Z</time>
      </trkpt>
      <trkpt lat="46.8843" lon="-2.13869">
        <ele>9</ele>
        <time>2021-03-07T02:51:36Z</time>
      </trkpt>
      <trkpt lat="46.88428" lon="-2.13891">
        <ele>9</ele>
        <time>2021-03-07T02:51:39Z</time>
      </trkpt>
      <trkpt lat="46.88439" lon="-2.14095">
        <ele>8</ele>
        <time>2021-03-07T02:52:04Z</time>
      </trkpt>
      <trkpt lat="46.88439" lon="-2.14155">
        <ele>8</ele>
        <time>2021-03-07T02:52:11Z</time>
      </trkpt>
      <trkpt lat="46.88436" lon="-2.14214">
        <ele>7</ele>
        <time>2021-03-07T02:52:18Z</time>
      </trkpt>
      <trkpt lat="46.88437" lon="-2.1423">
        <ele>6</ele>
        <time>2021-03-07T02:52:20Z</time>
      </trkpt>
      <trkpt lat="46.88441" lon="-2.14242">
        <ele>6</ele>
        <time>2021-03-07T02:52:22Z</time>
      </trkpt>
      <trkpt lat="46.88446" lon="-2.14251">
        <ele>6</ele>
        <time>2021-03-07T02:52:23Z</time>
      </trkpt>
      <trkpt lat="46.88451" lon="-2.14258">
        <ele>6</ele>
        <time>2021-03-07T02:52:25Z</time>
      </trkpt>
      <trkpt lat="46.88457" lon="-2.14261">
        <ele>6</ele>
        <time>2021-03-07T02:52:26Z</time>
      </trkpt>
      <trkpt lat="46.88465" lon="-2.1426">
        <ele>6</ele>
        <time>2021-03-07T02:52:27Z</time>
      </trkpt>
      <trkpt lat="46.88533" lon="-2.14275">
        <ele>7</ele>
        <time>2021-03-07T02:52:39Z</time>
      </trkpt>
      <trkpt lat="46.88567" lon="-2.1428">
        <ele>8</ele>
        <time>2021-03-07T02:52:46Z</time>
      </trkpt>
      <trkpt lat="46.88562" lon="-2.14364">
        <ele>7</ele>
        <time>2021-03-07T02:52:56Z</time>
      </trkpt>
      <trkpt lat="46.88517" lon="-2.14418">
        <ele>8</ele>
        <time>2021-03-07T02:53:06Z</time>
      </trkpt>
      <trkpt lat="46.88511" lon="-2.14459">
        <ele>8</ele>
        <time>2021-03-07T02:53:11Z</time>
      </trkpt>
      <trkpt lat="46.8851" lon="-2.14525">
        <ele>7</ele>
        <time>2021-03-07T02:53:19Z</time>
      </trkpt>
      <trkpt lat="46.88503" lon="-2.14579">
        <ele>6</ele>
        <time>2021-03-07T02:53:26Z</time>
      </trkpt>
      <trkpt lat="46.88503" lon="-2.14668">
        <ele>6</ele>
        <time>2021-03-07T02:53:37Z</time>
      </trkpt>
      <trkpt lat="46.88507" lon="-2.14712">
        <ele>6</ele>
        <time>2021-03-07T02:53:42Z</time>
      </trkpt>
      <trkpt lat="46.88512" lon="-2.14737">
        <ele>7</ele>
        <time>2021-03-07T02:53:45Z</time>
      </trkpt>
      <trkpt lat="46.88526" lon="-2.14788">
        <ele>7</ele>
        <time>2021-03-07T02:53:52Z</time>
      </trkpt>
      <trkpt lat="46.88525" lon="-2.14861">
        <ele>7</ele>
        <time>2021-03-07T02:54:01Z</time>
      </trkpt>
      <trkpt lat="46.88533" lon="-2.14934">
        <ele>6</ele>
        <time>2021-03-07T02:54:10Z</time>
      </trkpt>
      <trkpt lat="46.88534" lon="-2.14981">
        <ele>6</ele>
        <time>2021-03-07T02:54:16Z</time>
      </trkpt>
      <trkpt lat="46.88533" lon="-2.15013">
        <ele>6</ele>
        <time>2021-03-07T02:54:20Z</time>
      </trkpt>
      <trkpt lat="46.88531" lon="-2.15021">
        <ele>6</ele>
        <time>2021-03-07T02:54:21Z</time>
      </trkpt>
      <trkpt lat="46.88526" lon="-2.15029">
        <ele>6</ele>
        <time>2021-03-07T02:54:22Z</time>
      </trkpt>
      <trkpt lat="46.88484" lon="-2.14978">
        <ele>7</ele>
        <time>2021-03-07T02:54:32Z</time>
      </trkpt>
      <trkpt lat="46.88459" lon="-2.14942">
        <ele>8</ele>
        <time>2021-03-07T02:54:38Z</time>
      </trkpt>
      <trkpt lat="46.88454" lon="-2.14932">
        <ele>7</ele>
        <time>2021-03-07T02:54:39Z</time>
      </trkpt>
      <trkpt lat="46.88448" lon="-2.14931">
        <ele>7</ele>
        <time>2021-03-07T02:54:40Z</time>
      </trkpt>
      <trkpt lat="46.88447" lon="-2.14925">
        <ele>7</ele>
        <time>2021-03-07T02:54:41Z</time>
      </trkpt>
      <trkpt lat="46.8845" lon="-2.1492">
        <ele>7</ele>
        <time>2021-03-07T02:54:42Z</time>
      </trkpt>
      <trkpt lat="46.88455" lon="-2.14924">
        <ele>7</ele>
        <time>2021-03-07T02:54:43Z</time>
      </trkpt>
      <trkpt lat="46.88463" lon="-2.1492">
        <ele>8</ele>
        <time>2021-03-07T02:54:45Z</time>
      </trkpt>
      <trkpt lat="46.88479" lon="-2.14949">
        <ele>8</ele>
        <time>2021-03-07T02:54:49Z</time>
      </trkpt>
      <trkpt lat="46.88517" lon="-2.14998">
        <ele>7</ele>
        <time>2021-03-07T02:54:58Z</time>
      </trkpt>
      <trkpt lat="46.88523" lon="-2.15005">
        <ele>6</ele>
        <time>2021-03-07T02:54:59Z</time>
      </trkpt>
      <trkpt lat="46.88546" lon="-2.15027">
        <ele>6</ele>
        <time>2021-03-07T02:55:04Z</time>
      </trkpt>
      <trkpt lat="46.88593" lon="-2.15058">
        <ele>6</ele>
        <time>2021-03-07T02:55:13Z</time>
      </trkpt>
      <trkpt lat="46.8862" lon="-2.1507">
        <ele>6</ele>
        <time>2021-03-07T02:55:19Z</time>
      </trkpt>
      <trkpt lat="46.88672" lon="-2.15082">
        <ele>5</ele>
        <time>2021-03-07T02:55:28Z</time>
      </trkpt>
      <trkpt lat="46.88701" lon="-2.15084">
        <ele>5</ele>
        <time>2021-03-07T02:55:33Z</time>
      </trkpt>
      <trkpt lat="46.88721" lon="-2.15082">
        <ele>6</ele>
        <time>2021-03-07T02:55:37Z</time>
      </trkpt>
      <trkpt lat="46.88869" lon="-2.15052">
        <ele>5</ele>
        <time>2021-03-07T02:56:03Z</time>
      </trkpt>
      <trkpt lat="46.88904" lon="-2.15042">
        <ele>5</ele>
        <time>2021-03-07T02:56:10Z</time>
      </trkpt>
      <trkpt lat="46.88922" lon="-2.15038">
        <ele>5</ele>
        <time>2021-03-07T02:56:13Z</time>
      </trkpt>
      <trkpt lat="46.89448" lon="-2.1492">
        <ele>6</ele>
        <time>2021-03-07T02:57:47Z</time>
      </trkpt>
      <trkpt lat="46.89461" lon="-2.14917">
        <ele>7</ele>
        <time>2021-03-07T02:57:50Z</time>
      </trkpt>
      <trkpt lat="46.89492" lon="-2.14913">
        <ele>8</ele>
        <time>2021-03-07T02:57:55Z</time>
      </trkpt>
      <trkpt lat="46.89519" lon="-2.14913">
        <ele>9</ele>
        <time>2021-03-07T02:58:00Z</time>
      </trkpt>
      <trkpt lat="46.89555" lon="-2.14915">
        <ele>8</ele>
        <time>2021-03-07T02:58:07Z</time>
      </trkpt>
      <trkpt lat="46.89591" lon="-2.14922">
        <ele>8</ele>
        <time>2021-03-07T02:58:13Z</time>
      </trkpt>
      <trkpt lat="46.89617" lon="-2.1493">
        <ele>7</ele>
        <time>2021-03-07T02:58:18Z</time>
      </trkpt>
      <trkpt lat="46.89662" lon="-2.14949">
        <ele>6</ele>
        <time>2021-03-07T02:58:26Z</time>
      </trkpt>
      <trkpt lat="46.89713" lon="-2.14975">
        <ele>6</ele>
        <time>2021-03-07T02:58:36Z</time>
      </trkpt>
      <trkpt lat="46.89741" lon="-2.14992">
        <ele>6</ele>
        <time>2021-03-07T02:58:41Z</time>
      </trkpt>
      <trkpt lat="46.89764" lon="-2.15004">
        <ele>6</ele>
        <time>2021-03-07T02:58:45Z</time>
      </trkpt>
      <trkpt lat="46.89778" lon="-2.15011">
        <ele>6</ele>
        <time>2021-03-07T02:58:48Z</time>
      </trkpt>
      <trkpt lat="46.89892" lon="-2.15068">
        <ele>5</ele>
        <time>2021-03-07T02:59:09Z</time>
      </trkpt>
      <trkpt lat="46.89967" lon="-2.15108">
        <ele>6</ele>
        <time>2021-03-07T02:59:24Z</time>
      </trkpt>
      <trkpt lat="46.90005" lon="-2.15145">
        <ele>5</ele>
        <time>2021-03-07T02:59:32Z</time>
      </trkpt>
      <trkpt lat="46.90009" lon="-2.15145">
        <ele>5</ele>
        <time>2021-03-07T02:59:33Z</time>
      </trkpt>
      <trkpt lat="46.90016" lon="-2.15157">
        <ele>5</ele>
        <time>2021-03-07T02:59:34Z</time>
      </trkpt>
      <trkpt lat="46.90029" lon="-2.15171">
        <ele>5</ele>
        <time>2021-03-07T02:59:37Z</time>
      </trkpt>
      <trkpt lat="46.90053" lon="-2.15192">
        <ele>6</ele>
        <time>2021-03-07T02:59:42Z</time>
      </trkpt>
      <trkpt lat="46.90056" lon="-2.15188">
        <ele>6</ele>
        <time>2021-03-07T02:59:43Z</time>
      </trkpt>
      <trkpt lat="46.90089" lon="-2.15217">
        <ele>6</ele>
        <time>2021-03-07T02:59:50Z</time>
      </trkpt>
      <trkpt lat="46.90117" lon="-2.15245">
        <ele>6</ele>
        <time>2021-03-07T02:59:56Z</time>
      </trkpt>
      <trkpt lat="46.90146" lon="-2.15278">
        <ele>5</ele>
        <time>2021-03-07T03:00:02Z</time>
      </trkpt>
      <trkpt lat="46.90163" lon="-2.153">
        <ele>4</ele>
        <time>2021-03-07T03:00:06Z</time>
      </trkpt>
      <trkpt lat="46.90202" lon="-2.1536">
        <ele>3</ele>
        <time>2021-03-07T03:00:17Z</time>
      </trkpt>
      <trkpt lat="46.90259" lon="-2.15439">
        <ele>3</ele>
        <time>2021-03-07T03:00:31Z</time>
      </trkpt>
      <trkpt lat="46.90329" lon="-2.15504">
        <ele>3</ele>
        <time>2021-03-07T03:00:45Z</time>
      </trkpt>
      <trkpt lat="46.90357" lon="-2.15532">
        <ele>3</ele>
        <time>2021-03-07T03:00:51Z</time>
      </trkpt>
      <trkpt lat="46.90364" lon="-2.15541">
        <ele>3</ele>
        <time>2021-03-07T03:00:53Z</time>
      </trkpt>
      <trkpt lat="46.90411" lon="-2.15616">
        <ele>4</ele>
        <time>2021-03-07T03:01:05Z</time>
      </trkpt>
      <trkpt lat="46.90441" lon="-2.15655">
        <ele>4</ele>
        <time>2021-03-07T03:01:12Z</time>
      </trkpt>
      <trkpt lat="46.90471" lon="-2.15683">
        <ele>4</ele>
        <time>2021-03-07T03:01:19Z</time>
      </trkpt>
      <trkpt lat="46.90495" lon="-2.15698">
        <ele>4</ele>
        <time>2021-03-07T03:01:23Z</time>
      </trkpt>
      <trkpt lat="46.9064" lon="-2.15773">
        <ele>6</ele>
        <time>2021-03-07T03:01:51Z</time>
      </trkpt>
      <trkpt lat="46.90778" lon="-2.15855">
        <ele>5</ele>
        <time>2021-03-07T03:02:17Z</time>
      </trkpt>
      <trkpt lat="46.90831" lon="-2.15883">
        <ele>4</ele>
        <time>2021-03-07T03:02:27Z</time>
      </trkpt>
      <trkpt lat="46.91042" lon="-2.1597">
        <ele>4</ele>
        <time>2021-03-07T03:03:06Z</time>
      </trkpt>
      <trkpt lat="46.9106" lon="-2.15981">
        <ele>3</ele>
        <time>2021-03-07T03:03:10Z</time>
      </trkpt>
      <trkpt lat="46.91103" lon="-2.16017">
        <ele>4</ele>
        <time>2021-03-07T03:03:19Z</time>
      </trkpt>
      <trkpt lat="46.91122" lon="-2.16026">
        <ele>4</ele>
        <time>2021-03-07T03:03:22Z</time>
      </trkpt>
      <trkpt lat="46.9114" lon="-2.16029">
        <ele>4</ele>
        <time>2021-03-07T03:03:25Z</time>
      </trkpt>
      <trkpt lat="46.91158" lon="-2.1603">
        <ele>4</ele>
        <time>2021-03-07T03:03:29Z</time>
      </trkpt>
      <trkpt lat="46.91248" lon="-2.16028">
        <ele>3</ele>
        <time>2021-03-07T03:03:45Z</time>
      </trkpt>
      <trkpt lat="46.91303" lon="-2.16025">
        <ele>3</ele>
        <time>2021-03-07T03:03:54Z</time>
      </trkpt>
      <trkpt lat="46.91321" lon="-2.16028">
        <ele>4</ele>
        <time>2021-03-07T03:03:58Z</time>
      </trkpt>
      <trkpt lat="46.91393" lon="-2.16051">
        <ele>4</ele>
        <time>2021-03-07T03:04:11Z</time>
      </trkpt>
      <trkpt lat="46.91401" lon="-2.16056">
        <ele>4</ele>
        <time>2021-03-07T03:04:12Z</time>
      </trkpt>
      <trkpt lat="46.91416" lon="-2.1607">
        <ele>4</ele>
        <time>2021-03-07T03:04:15Z</time>
      </trkpt>
      <trkpt lat="46.91443" lon="-2.16104">
        <ele>4</ele>
        <time>2021-03-07T03:04:22Z</time>
      </trkpt>
      <trkpt lat="46.91452" lon="-2.16112">
        <ele>4</ele>
        <time>2021-03-07T03:04:24Z</time>
      </trkpt>
      <trkpt lat="46.91463" lon="-2.16119">
        <ele>4</ele>
        <time>2021-03-07T03:04:26Z</time>
      </trkpt>
      <trkpt lat="46.91487" lon="-2.16128">
        <ele>3</ele>
        <time>2021-03-07T03:04:30Z</time>
      </trkpt>
      <trkpt lat="46.91503" lon="-2.16128">
        <ele>3</ele>
        <time>2021-03-07T03:04:33Z</time>
      </trkpt>
      <trkpt lat="46.91561" lon="-2.16107">
        <ele>3</ele>
        <time>2021-03-07T03:04:44Z</time>
      </trkpt>
      <trkpt lat="46.91656" lon="-2.16086">
        <ele>4</ele>
        <time>2021-03-07T03:05:01Z</time>
      </trkpt>
      <trkpt lat="46.91671" lon="-2.16085">
        <ele>4</ele>
        <time>2021-03-07T03:05:03Z</time>
      </trkpt>
      <trkpt lat="46.9169" lon="-2.16091">
        <ele>5</ele>
        <time>2021-03-07T03:05:07Z</time>
      </trkpt>
      <trkpt lat="46.91728" lon="-2.16107">
        <ele>5</ele>
        <time>2021-03-07T03:05:14Z</time>
      </trkpt>
      <trkpt lat="46.91759" lon="-2.16123">
        <ele>6</ele>
        <time>2021-03-07T03:05:20Z</time>
      </trkpt>
      <trkpt lat="46.9183" lon="-2.16182">
        <ele>4</ele>
        <time>2021-03-07T03:05:34Z</time>
      </trkpt>
      <trkpt lat="46.91848" lon="-2.16194">
        <ele>4</ele>
        <time>2021-03-07T03:05:38Z</time>
      </trkpt>
      <trkpt lat="46.91861" lon="-2.16198">
        <ele>4</ele>
        <time>2021-03-07T03:05:40Z</time>
      </trkpt>
      <trkpt lat="46.91977" lon="-2.16222">
        <ele>3</ele>
        <time>2021-03-07T03:06:01Z</time>
      </trkpt>
      <trkpt lat="46.9202" lon="-2.16236">
        <ele>2</ele>
        <time>2021-03-07T03:06:09Z</time>
      </trkpt>
      <trkpt lat="46.92105" lon="-2.16269">
        <ele>1</ele>
        <time>2021-03-07T03:06:25Z</time>
      </trkpt>
      <trkpt lat="46.92125" lon="-2.16279">
        <ele>1</ele>
        <time>2021-03-07T03:06:28Z</time>
      </trkpt>
      <trkpt lat="46.92179" lon="-2.16315">
        <ele>1</ele>
        <time>2021-03-07T03:06:39Z</time>
      </trkpt>
      <trkpt lat="46.92358" lon="-2.16414">
        <ele>2</ele>
        <time>2021-03-07T03:07:13Z</time>
      </trkpt>
      <trkpt lat="46.92367" lon="-2.16423">
        <ele>2</ele>
        <time>2021-03-07T03:07:15Z</time>
      </trkpt>
      <trkpt lat="46.92402" lon="-2.16472">
        <ele>2</ele>
        <time>2021-03-07T03:07:23Z</time>
      </trkpt>
      <trkpt lat="46.92408" lon="-2.16479">
        <ele>2</ele>
        <time>2021-03-07T03:07:25Z</time>
      </trkpt>
      <trkpt lat="46.92423" lon="-2.16489">
        <ele>2</ele>
        <time>2021-03-07T03:07:28Z</time>
      </trkpt>
      <trkpt lat="46.92651" lon="-2.16566">
        <ele>5</ele>
        <time>2021-03-07T03:08:09Z</time>
      </trkpt>
      <trkpt lat="46.92713" lon="-2.16591">
        <ele>5</ele>
        <time>2021-03-07T03:08:21Z</time>
      </trkpt>
      <trkpt lat="46.93014" lon="-2.1673">
        <ele>6</ele>
        <time>2021-03-07T03:09:17Z</time>
      </trkpt>
      <trkpt lat="46.93138" lon="-2.16824">
        <ele>5</ele>
        <time>2021-03-07T03:09:42Z</time>
      </trkpt>
      <trkpt lat="46.93263" lon="-2.16963">
        <ele>3</ele>
        <time>2021-03-07T03:10:10Z</time>
      </trkpt>
      <trkpt lat="46.93304" lon="-2.16999">
        <ele>3</ele>
        <time>2021-03-07T03:10:18Z</time>
      </trkpt>
      <trkpt lat="46.93382" lon="-2.1706">
        <ele>3</ele>
        <time>2021-03-07T03:10:34Z</time>
      </trkpt>
      <trkpt lat="46.93453" lon="-2.17141">
        <ele>3</ele>
        <time>2021-03-07T03:10:50Z</time>
      </trkpt>
      <trkpt lat="46.93473" lon="-2.17159">
        <ele>2</ele>
        <time>2021-03-07T03:10:54Z</time>
      </trkpt>
      <trkpt lat="46.93517" lon="-2.17191">
        <ele>2</ele>
        <time>2021-03-07T03:11:03Z</time>
      </trkpt>
      <trkpt lat="46.93537" lon="-2.1721">
        <ele>3</ele>
        <time>2021-03-07T03:11:07Z</time>
      </trkpt>
      <trkpt lat="46.93633" lon="-2.1733">
        <ele>2</ele>
        <time>2021-03-07T03:11:30Z</time>
      </trkpt>
      <trkpt lat="46.93641" lon="-2.17311">
        <ele>2</ele>
        <time>2021-03-07T03:11:32Z</time>
      </trkpt>
      <trkpt lat="46.93668" lon="-2.17205">
        <ele>2</ele>
        <time>2021-03-07T03:11:46Z</time>
      </trkpt>
      <trkpt lat="46.93694" lon="-2.17119">
        <ele>2</ele>
        <time>2021-03-07T03:11:57Z</time>
      </trkpt>
      <trkpt lat="46.93709" lon="-2.17059">
        <ele>2</ele>
        <time>2021-03-07T03:12:05Z</time>
      </trkpt>
      <trkpt lat="46.93722" lon="-2.16988">
        <ele>2</ele>
        <time>2021-03-07T03:12:14Z</time>
      </trkpt>
      <trkpt lat="46.93724" lon="-2.16978">
        <ele>2</ele>
        <time>2021-03-07T03:12:15Z</time>
      </trkpt>
      <trkpt lat="46.93733" lon="-2.16968">
        <ele>2</ele>
        <time>2021-03-07T03:12:17Z</time>
      </trkpt>
      <trkpt lat="46.93673" lon="-2.16789">
        <ele>2</ele>
        <time>2021-03-07T03:12:42Z</time>
      </trkpt>
      <trkpt lat="46.93667" lon="-2.16776">
        <ele>1</ele>
        <time>2021-03-07T03:12:44Z</time>
      </trkpt>
      <trkpt lat="46.93647" lon="-2.1675">
        <ele>1</ele>
        <time>2021-03-07T03:12:48Z</time>
      </trkpt>
      <trkpt lat="46.93591" lon="-2.16704">
        <ele>2</ele>
        <time>2021-03-07T03:13:00Z</time>
      </trkpt>
      <trkpt lat="46.93583" lon="-2.16683">
        <ele>2</ele>
        <time>2021-03-07T03:13:03Z</time>
      </trkpt>
      <trkpt lat="46.9358" lon="-2.16667">
        <ele>2</ele>
        <time>2021-03-07T03:13:05Z</time>
      </trkpt>
      <trkpt lat="46.93576" lon="-2.16656">
        <ele>2</ele>
        <time>2021-03-07T03:13:06Z</time>
      </trkpt>
      <trkpt lat="46.93572" lon="-2.16651">
        <ele>2</ele>
        <time>2021-03-07T03:13:07Z</time>
      </trkpt>
      <trkpt lat="46.93568" lon="-2.16639">
        <ele>3</ele>
        <time>2021-03-07T03:13:09Z</time>
      </trkpt>
      <trkpt lat="46.93567" lon="-2.16622">
        <ele>3</ele>
        <time>2021-03-07T03:13:11Z</time>
      </trkpt>
      <trkpt lat="46.93569" lon="-2.16613">
        <ele>3</ele>
        <time>2021-03-07T03:13:12Z</time>
      </trkpt>
      <trkpt lat="46.93573" lon="-2.16606">
        <ele>3</ele>
        <time>2021-03-07T03:13:13Z</time>
      </trkpt>
      <trkpt lat="46.93582" lon="-2.16598">
        <ele>3</ele>
        <time>2021-03-07T03:13:15Z</time>
      </trkpt>
      <trkpt lat="46.93586" lon="-2.16597">
        <ele>3</ele>
        <time>2021-03-07T03:13:16Z</time>
      </trkpt>
      <trkpt lat="46.93591" lon="-2.16583">
        <ele>3</ele>
        <time>2021-03-07T03:13:18Z</time>
      </trkpt>
      <trkpt lat="46.93593" lon="-2.16566">
        <ele>3</ele>
        <time>2021-03-07T03:13:20Z</time>
      </trkpt>
      <trkpt lat="46.93591" lon="-2.16549">
        <ele>2</ele>
        <time>2021-03-07T03:13:22Z</time>
      </trkpt>
      <trkpt lat="46.93312" lon="-2.15734">
        <ele>1</ele>
        <time>2021-03-07T03:15:13Z</time>
      </trkpt>
      <trkpt lat="46.93303" lon="-2.15712">
        <ele>1</ele>
        <time>2021-03-07T03:15:16Z</time>
      </trkpt>
      <trkpt lat="46.93244" lon="-2.15537">
        <ele>2</ele>
        <time>2021-03-07T03:15:39Z</time>
      </trkpt>
      <trkpt lat="46.93226" lon="-2.15482">
        <ele>2</ele>
        <time>2021-03-07T03:15:47Z</time>
      </trkpt>
      <trkpt lat="46.9322" lon="-2.15462">
        <ele>2</ele>
        <time>2021-03-07T03:15:49Z</time>
      </trkpt>
      <trkpt lat="46.93218" lon="-2.15448">
        <ele>2</ele>
        <time>2021-03-07T03:15:51Z</time>
      </trkpt>
      <trkpt lat="46.93217" lon="-2.15435">
        <ele>3</ele>
        <time>2021-03-07T03:15:53Z</time>
      </trkpt>
      <trkpt lat="46.93216" lon="-2.15424">
        <ele>3</ele>
        <time>2021-03-07T03:15:54Z</time>
      </trkpt>
      <trkpt lat="46.93215" lon="-2.15323">
        <ele>3</ele>
        <time>2021-03-07T03:16:06Z</time>
      </trkpt>
      <trkpt lat="46.93217" lon="-2.15308">
        <ele>3</ele>
        <time>2021-03-07T03:16:08Z</time>
      </trkpt>
      <trkpt lat="46.93218" lon="-2.15299">
        <ele>2</ele>
        <time>2021-03-07T03:16:09Z</time>
      </trkpt>
      <trkpt lat="46.93238" lon="-2.15235">
        <ele>2</ele>
        <time>2021-03-07T03:16:18Z</time>
      </trkpt>
      <trkpt lat="46.93252" lon="-2.15203">
        <ele>1</ele>
        <time>2021-03-07T03:16:23Z</time>
      </trkpt>
      <trkpt lat="46.93263" lon="-2.15159">
        <ele>1</ele>
        <time>2021-03-07T03:16:28Z</time>
      </trkpt>
      <trkpt lat="46.93314" lon="-2.15">
        <ele>3</ele>
        <time>2021-03-07T03:16:50Z</time>
      </trkpt>
      <trkpt lat="46.93371" lon="-2.14817">
        <ele>2</ele>
        <time>2021-03-07T03:17:14Z</time>
      </trkpt>
      <trkpt lat="46.93377" lon="-2.14796">
        <ele>2</ele>
        <time>2021-03-07T03:17:17Z</time>
      </trkpt>
      <trkpt lat="46.93382" lon="-2.14787">
        <ele>2</ele>
        <time>2021-03-07T03:17:18Z</time>
      </trkpt>
      <trkpt lat="46.93387" lon="-2.14764">
        <ele>2</ele>
        <time>2021-03-07T03:17:21Z</time>
      </trkpt>
      <trkpt lat="46.93389" lon="-2.14748">
        <ele>2</ele>
        <time>2021-03-07T03:17:23Z</time>
      </trkpt>
      <trkpt lat="46.93388" lon="-2.13622">
        <time>2021-03-07T03:19:40Z</time>
      </trkpt>
      <trkpt lat="46.93386" lon="-2.13477">
        <time>2021-03-07T03:19:58Z</time>
      </trkpt>
      <trkpt lat="46.93384" lon="-2.13461">
        <time>2021-03-07T03:20:00Z</time>
      </trkpt>
      <trkpt lat="46.92763" lon="-2.11423">
        <time>2021-03-07T03:24:31Z</time>
      </trkpt>
      <trkpt lat="46.92407" lon="-2.10884">
        <ele>1</ele>
        <time>2021-03-07T03:26:02Z</time>
      </trkpt>
      <trkpt lat="46.92315" lon="-2.10758">
        <ele>1</ele>
        <time>2021-03-07T03:26:24Z</time>
      </trkpt>
      <trkpt lat="46.92255" lon="-2.10662">
        <ele>1</ele>
        <time>2021-03-07T03:26:40Z</time>
      </trkpt>
      <trkpt lat="46.9211" lon="-2.10385">
        <ele>1</ele>
        <time>2021-03-07T03:27:22Z</time>
      </trkpt>
      <trkpt lat="46.9201" lon="-2.10203">
        <ele>1</ele>
        <time>2021-03-07T03:27:51Z</time>
      </trkpt>
      <trkpt lat="46.91989" lon="-2.1016">
        <ele>1</ele>
        <time>2021-03-07T03:27:57Z</time>
      </trkpt>
      <trkpt lat="46.91978" lon="-2.10128">
        <ele>1</ele>
        <time>2021-03-07T03:28:02Z</time>
      </trkpt>
      <trkpt lat="46.91973" lon="-2.10095">
        <ele>2</ele>
        <time>2021-03-07T03:28:06Z</time>
      </trkpt>
      <trkpt lat="46.91973" lon="-2.10068">
        <ele>2</ele>
        <time>2021-03-07T03:28:09Z</time>
      </trkpt>
      <trkpt lat="46.91975" lon="-2.10049">
        <ele>2</ele>
        <time>2021-03-07T03:28:11Z</time>
      </trkpt>
      <trkpt lat="46.92009" lon="-2.0989">
        <ele>1</ele>
        <time>2021-03-07T03:28:32Z</time>
      </trkpt>
      <trkpt lat="46.92014" lon="-2.09867">
        <ele>1</ele>
        <time>2021-03-07T03:28:35Z</time>
      </trkpt>
      <trkpt lat="46.92081" lon="-2.09556">
        <ele>1</ele>
        <time>2021-03-07T03:29:14Z</time>
      </trkpt>
      <trkpt lat="46.92086" lon="-2.09532">
        <ele>1</ele>
        <time>2021-03-07T03:29:17Z</time>
      </trkpt>
      <trkpt lat="46.921" lon="-2.09468">
        <ele>1</ele>
        <time>2021-03-07T03:29:25Z</time>
      </trkpt>
      <trkpt lat="46.92107" lon="-2.09439">
        <ele>1</ele>
        <time>2021-03-07T03:29:29Z</time>
      </trkpt>
      <trkpt lat="46.92149" lon="-2.09315">
        <ele>1</ele>
        <time>2021-03-07T03:29:46Z</time>
      </trkpt>
      <trkpt lat="46.92156" lon="-2.0929">
        <ele>2</ele>
        <time>2021-03-07T03:29:49Z</time>
      </trkpt>
      <trkpt lat="46.92158" lon="-2.09274">
        <ele>2</ele>
        <time>2021-03-07T03:29:51Z</time>
      </trkpt>
      <trkpt lat="46.92159" lon="-2.09264">
        <ele>2</ele>
        <time>2021-03-07T03:29:52Z</time>
      </trkpt>
      <trkpt lat="46.92159" lon="-2.09253">
        <ele>2</ele>
        <time>2021-03-07T03:29:54Z</time>
      </trkpt>
      <trkpt lat="46.92149" lon="-2.09182">
        <ele>2</ele>
        <time>2021-03-07T03:30:03Z</time>
      </trkpt>
      <trkpt lat="46.92098" lon="-2.08817">
        <ele>1</ele>
        <time>2021-03-07T03:30:48Z</time>
      </trkpt>
      <trkpt lat="46.92091" lon="-2.08767">
        <ele>1</ele>
        <time>2021-03-07T03:30:54Z</time>
      </trkpt>
      <trkpt lat="46.92074" lon="-2.08644">
        <ele>2</ele>
        <time>2021-03-07T03:31:09Z</time>
      </trkpt>
      <trkpt lat="46.92062" lon="-2.08569">
        <ele>2</ele>
        <time>2021-03-07T03:31:19Z</time>
      </trkpt>
      <trkpt lat="46.91983" lon="-2.08312">
        <ele>2</ele>
        <time>2021-03-07T03:31:53Z</time>
      </trkpt>
      <trkpt lat="46.91972" lon="-2.08282">
        <ele>2</ele>
        <time>2021-03-07T03:31:57Z</time>
      </trkpt>
      <trkpt lat="46.91958" lon="-2.08257">
        <ele>2</ele>
        <time>2021-03-07T03:32:01Z</time>
      </trkpt>
      <trkpt lat="46.91924" lon="-2.08214">
        <ele>1</ele>
        <time>2021-03-07T03:32:09Z</time>
      </trkpt>
      <trkpt lat="46.91889" lon="-2.08182">
        <ele>1</ele>
        <time>2021-03-07T03:32:16Z</time>
      </trkpt>
      <trkpt lat="46.91891" lon="-2.08176">
        <ele>1</ele>
        <time>2021-03-07T03:32:17Z</time>
      </trkpt>
      <trkpt lat="46.91927" lon="-2.08082">
        <ele>2</ele>
        <time>2021-03-07T03:32:30Z</time>
      </trkpt>
      <trkpt lat="46.9196" lon="-2.07996">
        <ele>2</ele>
        <time>2021-03-07T03:32:42Z</time>
      </trkpt>
      <trkpt lat="46.91973" lon="-2.07976">
        <ele>2</ele>
        <time>2021-03-07T03:32:46Z</time>
      </trkpt>
      <trkpt lat="46.91982" lon="-2.07967">
        <ele>2</ele>
        <time>2021-03-07T03:32:47Z</time>
      </trkpt>
      <trkpt lat="46.91996" lon="-2.07958">
        <ele>2</ele>
        <time>2021-03-07T03:32:50Z</time>
      </trkpt>
      <trkpt lat="46.92093" lon="-2.07913">
        <ele>2.9</ele>
        <time>2021-03-07T03:33:08Z</time>
      </trkpt>
      <trkpt lat="46.92113" lon="-2.07901">
        <ele>1</ele>
        <time>2021-03-07T03:33:12Z</time>
      </trkpt>
      <trkpt lat="46.92194" lon="-2.07834">
        <ele>3</ele>
        <time>2021-03-07T03:33:29Z</time>
      </trkpt>
      <trkpt lat="46.92216" lon="-2.07811">
        <ele>3</ele>
        <time>2021-03-07T03:33:34Z</time>
      </trkpt>
      <trkpt lat="46.92363" lon="-2.07632">
        <ele>3</ele>
        <time>2021-03-07T03:34:08Z</time>
      </trkpt>
      <trkpt lat="46.9238" lon="-2.07614">
        <ele>3</ele>
        <time>2021-03-07T03:34:11Z</time>
      </trkpt>
      <trkpt lat="46.9241" lon="-2.07586">
        <ele>2</ele>
        <time>2021-03-07T03:34:18Z</time>
      </trkpt>
      <trkpt lat="46.92428" lon="-2.07576">
        <ele>2</ele>
        <time>2021-03-07T03:34:21Z</time>
      </trkpt>
      <trkpt lat="46.92449" lon="-2.0757">
        <ele>2</ele>
        <time>2021-03-07T03:34:25Z</time>
      </trkpt>
      <trkpt lat="46.92601" lon="-2.07539">
        <ele>3</ele>
        <time>2021-03-07T03:34:52Z</time>
      </trkpt>
      <trkpt lat="46.9262" lon="-2.07533">
        <ele>3</ele>
        <time>2021-03-07T03:34:56Z</time>
      </trkpt>
      <trkpt lat="46.92664" lon="-2.07508">
        <ele>2</ele>
        <time>2021-03-07T03:35:04Z</time>
      </trkpt>
      <trkpt lat="46.92716" lon="-2.07482">
        <ele>2</ele>
        <time>2021-03-07T03:35:14Z</time>
      </trkpt>
      <trkpt lat="46.92744" lon="-2.07468">
        <ele>2</ele>
        <time>2021-03-07T03:35:19Z</time>
      </trkpt>
      <trkpt lat="46.92953" lon="-2.07375">
        <ele>3</ele>
        <time>2021-03-07T03:35:58Z</time>
      </trkpt>
      <trkpt lat="46.93049" lon="-2.07334">
        <ele>3</ele>
        <time>2021-03-07T03:36:16Z</time>
      </trkpt>
      <trkpt lat="46.9317" lon="-2.07274">
        <ele>2</ele>
        <time>2021-03-07T03:36:38Z</time>
      </trkpt>
      <trkpt lat="46.93449" lon="-2.07144">
        <ele>1</ele>
        <time>2021-03-07T03:37:31Z</time>
      </trkpt>
      <trkpt lat="46.93459" lon="-2.0714">
        <ele>2</ele>
        <time>2021-03-07T03:37:32Z</time>
      </trkpt>
      <trkpt lat="46.93461" lon="-2.07139">
        <ele>2</ele>
        <time>2021-03-07T03:37:33Z</time>
      </trkpt>
      <trkpt lat="46.93477" lon="-2.07127">
        <ele>2</ele>
        <time>2021-03-07T03:37:36Z</time>
      </trkpt>
      <trkpt lat="46.93496" lon="-2.07109">
        <ele>1</ele>
        <time>2021-03-07T03:37:40Z</time>
      </trkpt>
      <trkpt lat="46.93499" lon="-2.07105">
        <ele>1</ele>
        <time>2021-03-07T03:37:41Z</time>
      </trkpt>
      <trkpt lat="46.93502" lon="-2.07098">
        <ele>1</ele>
        <time>2021-03-07T03:37:42Z</time>
      </trkpt>
      <trkpt lat="46.93505" lon="-2.07089">
        <ele>1</ele>
        <time>2021-03-07T03:37:43Z</time>
      </trkpt>
      <trkpt lat="46.93507" lon="-2.07084">
        <ele>1</ele>
        <time>2021-03-07T03:37:44Z</time>
      </trkpt>
      <trkpt lat="46.93507" lon="-2.07081">
        <ele>1</ele>
        <time>2021-03-07T03:37:44Z</time>
      </trkpt>
      <trkpt lat="46.93507" lon="-2.07076">
        <ele>1</ele>
        <time>2021-03-07T03:37:45Z</time>
      </trkpt>
      <trkpt lat="46.93503" lon="-2.07064">
        <ele>1</ele>
        <time>2021-03-07T03:37:46Z</time>
      </trkpt>
      <trkpt lat="46.9339" lon="-2.06823">
        <ele>1</ele>
        <time>2021-03-07T03:38:22Z</time>
      </trkpt>
      <trkpt lat="46.93333" lon="-2.06722">
        <ele>1</ele>
        <time>2021-03-07T03:38:38Z</time>
      </trkpt>
      <trkpt lat="46.93323" lon="-2.067">
        <ele>1</ele>
        <time>2021-03-07T03:38:41Z</time>
      </trkpt>
      <trkpt lat="46.9332" lon="-2.06683">
        <ele>1</ele>
        <time>2021-03-07T03:38:43Z</time>
      </trkpt>
      <trkpt lat="46.93319" lon="-2.06656">
        <ele>1</ele>
        <time>2021-03-07T03:38:46Z</time>
      </trkpt>
      <trkpt lat="46.93318" lon="-2.06605">
        <ele>1</ele>
        <time>2021-03-07T03:38:52Z</time>
      </trkpt>
      <trkpt lat="46.9332" lon="-2.06514">
        <ele>2</ele>
        <time>2021-03-07T03:39:04Z</time>
      </trkpt>
      <trkpt lat="46.9332" lon="-2.06477">
        <ele>2</ele>
        <time>2021-03-07T03:39:08Z</time>
      </trkpt>
      <trkpt lat="46.93321" lon="-2.06397">
        <ele>3</ele>
        <time>2021-03-07T03:39:18Z</time>
      </trkpt>
      <trkpt lat="46.93324" lon="-2.06272">
        <ele>1</ele>
        <time>2021-03-07T03:39:33Z</time>
      </trkpt>
      <trkpt lat="46.93325" lon="-2.06259">
        <ele>1</ele>
        <time>2021-03-07T03:39:35Z</time>
      </trkpt>
      <trkpt lat="46.93328" lon="-2.06226">
        <ele>1</ele>
        <time>2021-03-07T03:39:39Z</time>
      </trkpt>
      <trkpt lat="46.93334" lon="-2.06175">
        <ele>1</ele>
        <time>2021-03-07T03:39:45Z</time>
      </trkpt>
      <trkpt lat="46.93337" lon="-2.0614">
        <ele>1</ele>
        <time>2021-03-07T03:39:49Z</time>
      </trkpt>
      <trkpt lat="46.93346" lon="-2.06054">
        <ele>1</ele>
        <time>2021-03-07T03:40:00Z</time>
      </trkpt>
      <trkpt lat="46.93354" lon="-2.0598">
        <ele>1</ele>
        <time>2021-03-07T03:40:09Z</time>
      </trkpt>
      <trkpt lat="46.93365" lon="-2.05928">
        <ele>2</ele>
        <time>2021-03-07T03:40:15Z</time>
      </trkpt>
      <trkpt lat="46.93372" lon="-2.0591">
        <ele>2</ele>
        <time>2021-03-07T03:40:18Z</time>
      </trkpt>
      <trkpt lat="46.93375" lon="-2.05901">
        <ele>2</ele>
        <time>2021-03-07T03:40:19Z</time>
      </trkpt>
      <trkpt lat="46.934" lon="-2.05859">
        <ele>2</ele>
        <time>2021-03-07T03:40:26Z</time>
      </trkpt>
      <trkpt lat="46.93434" lon="-2.05807">
        <ele>2</ele>
        <time>2021-03-07T03:40:35Z</time>
      </trkpt>
      <trkpt lat="46.9344" lon="-2.05794">
        <ele>2</ele>
        <time>2021-03-07T03:40:37Z</time>
      </trkpt>
      <trkpt lat="46.93447" lon="-2.05758">
        <ele>3</ele>
        <time>2021-03-07T03:40:41Z</time>
      </trkpt>
      <trkpt lat="46.93451" lon="-2.05744">
        <ele>3</ele>
        <time>2021-03-07T03:40:43Z</time>
      </trkpt>
      <trkpt lat="46.93458" lon="-2.05733">
        <ele>3</ele>
        <time>2021-03-07T03:40:45Z</time>
      </trkpt>
      <trkpt lat="46.93475" lon="-2.0568">
        <ele>4</ele>
        <time>2021-03-07T03:40:52Z</time>
      </trkpt>
      <trkpt lat="46.93483" lon="-2.0565">
        <ele>4</ele>
        <time>2021-03-07T03:40:56Z</time>
      </trkpt>
      <trkpt lat="46.9349" lon="-2.0563">
        <ele>4</ele>
        <time>2021-03-07T03:40:59Z</time>
      </trkpt>
      <trkpt lat="46.9349" lon="-2.05628">
        <ele>4</ele>
        <time>2021-03-07T03:40:59Z</time>
      </trkpt>
      <trkpt lat="46.9349" lon="-2.05626">
        <ele>4</ele>
        <time>2021-03-07T03:40:59Z</time>
      </trkpt>
      <trkpt lat="46.93495" lon="-2.0562">
        <ele>4</ele>
        <time>2021-03-07T03:41:00Z</time>
      </trkpt>
      <trkpt lat="46.9352" lon="-2.05557">
        <ele>3</ele>
        <time>2021-03-07T03:41:09Z</time>
      </trkpt>
      <trkpt lat="46.93538" lon="-2.05504">
        <ele>3</ele>
        <time>2021-03-07T03:41:16Z</time>
      </trkpt>
      <trkpt lat="46.93551" lon="-2.05474">
        <ele>2</ele>
        <time>2021-03-07T03:41:21Z</time>
      </trkpt>
      <trkpt lat="46.93632" lon="-2.0535">
        <ele>4</ele>
        <time>2021-03-07T03:41:41Z</time>
      </trkpt>
      <trkpt lat="46.93651" lon="-2.05316">
        <ele>4</ele>
        <time>2021-03-07T03:41:47Z</time>
      </trkpt>
      <trkpt lat="46.93653" lon="-2.05312">
        <ele>4</ele>
        <time>2021-03-07T03:41:47Z</time>
      </trkpt>
      <trkpt lat="46.93689" lon="-2.0525">
        <ele>3</ele>
        <time>2021-03-07T03:41:57Z</time>
      </trkpt>
      <trkpt lat="46.93727" lon="-2.05182">
        <ele>2</ele>
        <time>2021-03-07T03:42:08Z</time>
      </trkpt>
      <trkpt lat="46.93788" lon="-2.05064">
        <ele>2</ele>
        <time>2021-03-07T03:42:26Z</time>
      </trkpt>
      <trkpt lat="46.93824" lon="-2.04986">
        <ele>1</ele>
        <time>2021-03-07T03:42:37Z</time>
      </trkpt>
      <trkpt lat="46.93839" lon="-2.04942">
        <ele>1</ele>
        <time>2021-03-07T03:42:43Z</time>
      </trkpt>
      <trkpt lat="46.93876" lon="-2.04794">
        <ele>1</ele>
        <time>2021-03-07T03:43:02Z</time>
      </trkpt>
      <trkpt lat="46.939" lon="-2.04703">
        <ele>1</ele>
        <time>2021-03-07T03:43:14Z</time>
      </trkpt>
      <trkpt lat="46.93908" lon="-2.04682">
        <ele>2</ele>
        <time>2021-03-07T03:43:17Z</time>
      </trkpt>
      <trkpt lat="46.93919" lon="-2.04665">
        <ele>2</ele>
        <time>2021-03-07T03:43:20Z</time>
      </trkpt>
      <trkpt lat="46.93935" lon="-2.04646">
        <ele>2</ele>
        <time>2021-03-07T03:43:24Z</time>
      </trkpt>
      <trkpt lat="46.94015" lon="-2.04569">
        <ele>1</ele>
        <time>2021-03-07T03:43:41Z</time>
      </trkpt>
      <trkpt lat="46.94026" lon="-2.04557">
        <ele>1</ele>
        <time>2021-03-07T03:43:43Z</time>
      </trkpt>
      <trkpt lat="46.94037" lon="-2.04542">
        <ele>1</ele>
        <time>2021-03-07T03:43:46Z</time>
      </trkpt>
      <trkpt lat="46.94175" lon="-2.04261">
        <ele>2</ele>
        <time>2021-03-07T03:44:28Z</time>
      </trkpt>
      <trkpt lat="46.94192" lon="-2.04225">
        <ele>2</ele>
        <time>2021-03-07T03:44:33Z</time>
      </trkpt>
      <trkpt lat="46.94205" lon="-2.0419">
        <ele>2</ele>
        <time>2021-03-07T03:44:38Z</time>
      </trkpt>
      <trkpt lat="46.94217" lon="-2.04153">
        <ele>2</ele>
        <time>2021-03-07T03:44:43Z</time>
      </trkpt>
      <trkpt lat="46.94334" lon="-2.03752">
        <ele>3</ele>
        <time>2021-03-07T03:45:36Z</time>
      </trkpt>
      <trkpt lat="46.94341" lon="-2.03717">
        <ele>2</ele>
        <time>2021-03-07T03:45:40Z</time>
      </trkpt>
      <trkpt lat="46.94343" lon="-2.03703">
        <ele>2</ele>
        <time>2021-03-07T03:45:42Z</time>
      </trkpt>
      <trkpt lat="46.94345" lon="-2.03682">
        <ele>1</ele>
        <time>2021-03-07T03:45:45Z</time>
      </trkpt>
      <trkpt lat="46.94363" lon="-2.03241">
        <ele>1</ele>
        <time>2021-03-07T03:46:38Z</time>
      </trkpt>
      <trkpt lat="46.94369" lon="-2.03174">
        <ele>1</ele>
        <time>2021-03-07T03:46:47Z</time>
      </trkpt>
      <trkpt lat="46.94376" lon="-2.03141">
        <ele>1</ele>
        <time>2021-03-07T03:46:51Z</time>
      </trkpt>
      <trkpt lat="46.9438" lon="-2.0313">
        <ele>1</ele>
        <time>2021-03-07T03:46:52Z</time>
      </trkpt>
      <trkpt lat="46.94386" lon="-2.03113">
        <ele>1</ele>
        <time>2021-03-07T03:46:55Z</time>
      </trkpt>
      <trkpt lat="46.94393" lon="-2.03096">
        <ele>1</ele>
        <time>2021-03-07T03:46:57Z</time>
      </trkpt>
      <trkpt lat="46.94447" lon="-2.02964">
        <ele>2</ele>
        <time>2021-03-07T03:47:16Z</time>
      </trkpt>
      <trkpt lat="46.94462" lon="-2.02918">
        <ele>1</ele>
        <time>2021-03-07T03:47:22Z</time>
      </trkpt>
      <trkpt lat="46.94468" lon="-2.02869">
        <ele>1</ele>
        <time>2021-03-07T03:47:28Z</time>
      </trkpt>
      <trkpt lat="46.94473" lon="-2.02749">
        <ele>2</ele>
        <time>2021-03-07T03:47:43Z</time>
      </trkpt>
      <trkpt lat="46.94473" lon="-2.02715">
        <ele>2</ele>
        <time>2021-03-07T03:47:47Z</time>
      </trkpt>
      <trkpt lat="46.94472" lon="-2.02707">
        <ele>2</ele>
        <time>2021-03-07T03:47:48Z</time>
      </trkpt>
      <trkpt lat="46.94471" lon="-2.02702">
        <ele>2</ele>
        <time>2021-03-07T03:47:48Z</time>
      </trkpt>
      <trkpt lat="46.94588" lon="-2.0261">
        <ele>1</ele>
        <time>2021-03-07T03:48:12Z</time>
      </trkpt>
      <trkpt lat="46.94796" lon="-2.02447">
        <ele>2</ele>
        <time>2021-03-07T03:48:54Z</time>
      </trkpt>
      <trkpt lat="46.94817" lon="-2.02431">
        <ele>2</ele>
        <time>2021-03-07T03:48:58Z</time>
      </trkpt>
      <trkpt lat="46.94966" lon="-2.02314">
        <ele>1</ele>
        <time>2021-03-07T03:49:28Z</time>
      </trkpt>
      <trkpt lat="46.94985" lon="-2.02299">
        <ele>1</ele>
        <time>2021-03-07T03:49:32Z</time>
      </trkpt>
      <trkpt lat="46.95027" lon="-2.02267">
        <ele>2.4</ele>
        <time>2021-03-07T03:49:41Z</time>
      </trkpt>
      <trkpt lat="46.95049" lon="-2.02248">
        <ele>1</ele>
        <time>2021-03-07T03:49:45Z</time>
      </trkpt>
      <trkpt lat="46.95069" lon="-2.02226">
        <ele>1</ele>
        <time>2021-03-07T03:49:50Z</time>
      </trkpt>
      <trkpt lat="46.9509" lon="-2.022">
        <ele>1</ele>
        <time>2021-03-07T03:49:54Z</time>
      </trkpt>
      <trkpt lat="46.95115" lon="-2.02163">
        <ele>1</ele>
        <time>2021-03-07T03:50:01Z</time>
      </trkpt>
      <trkpt lat="46.95134" lon="-2.02125">
        <ele>1</ele>
        <time>2021-03-07T03:50:07Z</time>
      </trkpt>
      <trkpt lat="46.95285" lon="-2.01816">
        <ele>1</ele>
        <time>2021-03-07T03:50:53Z</time>
      </trkpt>
      <trkpt lat="46.95291" lon="-2.01802">
        <ele>1</ele>
        <time>2021-03-07T03:50:55Z</time>
      </trkpt>
      <trkpt lat="46.95357" lon="-2.0167">
        <ele>1</ele>
        <time>2021-03-07T03:51:15Z</time>
      </trkpt>
      <trkpt lat="46.95375" lon="-2.01644">
        <ele>1</ele>
        <time>2021-03-07T03:51:19Z</time>
      </trkpt>
      <trkpt lat="46.95395" lon="-2.0162">
        <ele>1</ele>
        <time>2021-03-07T03:51:24Z</time>
      </trkpt>
      <trkpt lat="46.95433" lon="-2.0159">
        <ele>2</ele>
        <time>2021-03-07T03:51:31Z</time>
      </trkpt>
      <trkpt lat="46.95517" lon="-2.01554">
        <ele>2</ele>
        <time>2021-03-07T03:51:47Z</time>
      </trkpt>
      <trkpt lat="46.95525" lon="-2.0155">
        <ele>2</ele>
        <time>2021-03-07T03:51:48Z</time>
      </trkpt>
      <trkpt lat="46.95707" lon="-2.01476">
        <ele>2</ele>
        <time>2021-03-07T03:52:22Z</time>
      </trkpt>
      <trkpt lat="46.95724" lon="-2.01466">
        <ele>2</ele>
        <time>2021-03-07T03:52:25Z</time>
      </trkpt>
      <trkpt lat="46.95737" lon="-2.01453">
        <ele>2</ele>
        <time>2021-03-07T03:52:28Z</time>
      </trkpt>
      <trkpt lat="46.95749" lon="-2.01434">
        <ele>2</ele>
        <time>2021-03-07T03:52:31Z</time>
      </trkpt>
      <trkpt lat="46.95758" lon="-2.01413">
        <ele>2</ele>
        <time>2021-03-07T03:52:34Z</time>
      </trkpt>
      <trkpt lat="46.95906" lon="-2.00962">
        <ele>3</ele>
        <time>2021-03-07T03:53:35Z</time>
      </trkpt>
      <trkpt lat="46.95916" lon="-2.00933">
        <ele>3</ele>
        <time>2021-03-07T03:53:39Z</time>
      </trkpt>
      <trkpt lat="46.95928" lon="-2.00908">
        <ele>3</ele>
        <time>2021-03-07T03:53:43Z</time>
      </trkpt>
      <trkpt lat="46.95959" lon="-2.00855">
        <ele>1</ele>
        <time>2021-03-07T03:53:51Z</time>
      </trkpt>
      <trkpt lat="46.96012" lon="-2.00787">
        <ele>3</ele>
        <time>2021-03-07T03:54:04Z</time>
      </trkpt>
      <trkpt lat="46.96032" lon="-2.00767">
        <ele>3</ele>
        <time>2021-03-07T03:54:08Z</time>
      </trkpt>
      <trkpt lat="46.96172" lon="-2.0065">
        <ele>3</ele>
        <time>2021-03-07T03:54:37Z</time>
      </trkpt>
      <trkpt lat="46.96185" lon="-2.0064">
        <ele>3</ele>
        <time>2021-03-07T03:54:39Z</time>
      </trkpt>
      <trkpt lat="46.96356" lon="-2.00496">
        <ele>3</ele>
        <time>2021-03-07T03:55:14Z</time>
      </trkpt>
      <trkpt lat="46.96375" lon="-2.00483">
        <ele>3</ele>
        <time>2021-03-07T03:55:18Z</time>
      </trkpt>
      <trkpt lat="46.96396" lon="-2.00473">
        <ele>3</ele>
        <time>2021-03-07T03:55:22Z</time>
      </trkpt>
      <trkpt lat="46.96419" lon="-2.00468">
        <ele>3</ele>
        <time>2021-03-07T03:55:26Z</time>
      </trkpt>
      <trkpt lat="46.96541" lon="-2.00465">
        <ele>1</ele>
        <time>2021-03-07T03:55:48Z</time>
      </trkpt>
      <trkpt lat="46.96569" lon="-2.00458">
        <ele>2</ele>
        <time>2021-03-07T03:55:53Z</time>
      </trkpt>
      <trkpt lat="46.96613" lon="-2.00432">
        <ele>2</ele>
        <time>2021-03-07T03:56:01Z</time>
      </trkpt>
      <trkpt lat="46.96866" lon="-2.00257">
        <ele>1</ele>
        <time>2021-03-07T03:56:51Z</time>
      </trkpt>
      <trkpt lat="46.96876" lon="-2.0025">
        <ele>1</ele>
        <time>2021-03-07T03:56:53Z</time>
      </trkpt>
      <trkpt lat="46.96977" lon="-2.00179">
        <ele>3</ele>
        <time>2021-03-07T03:57:13Z</time>
      </trkpt>
      <trkpt lat="46.97001" lon="-2.00163">
        <ele>3</ele>
        <time>2021-03-07T03:57:18Z</time>
      </trkpt>
      <trkpt lat="46.97014" lon="-2.00147">
        <ele>2</ele>
        <time>2021-03-07T03:57:21Z</time>
      </trkpt>
      <trkpt lat="46.97033" lon="-2.00117">
        <ele>2</ele>
        <time>2021-03-07T03:57:26Z</time>
      </trkpt>
      <trkpt lat="46.97049" lon="-2.00088">
        <ele>2</ele>
        <time>2021-03-07T03:57:30Z</time>
      </trkpt>
      <trkpt lat="46.9707" lon="-2.00048">
        <ele>2</ele>
        <time>2021-03-07T03:57:36Z</time>
      </trkpt>
      <trkpt lat="46.97195" lon="-2.001">
        <ele>3</ele>
        <time>2021-03-07T03:57:59Z</time>
      </trkpt>
      <trkpt lat="46.97246" lon="-2.00092">
        <ele>3</ele>
        <time>2021-03-07T03:58:09Z</time>
      </trkpt>
      <trkpt lat="46.9726" lon="-2.00083">
        <ele>3</ele>
        <time>2021-03-07T03:58:11Z</time>
      </trkpt>
      <trkpt lat="46.97279" lon="-2.00075">
        <ele>3</ele>
        <time>2021-03-07T03:58:15Z</time>
      </trkpt>
      <trkpt lat="46.97328" lon="-2.00065">
        <ele>4</ele>
        <time>2021-03-07T03:58:24Z</time>
      </trkpt>
      <trkpt lat="46.97333" lon="-2.00067">
        <ele>4</ele>
        <time>2021-03-07T03:58:25Z</time>
      </trkpt>
      <trkpt lat="46.97418" lon="-2.00035">
        <ele>4</ele>
        <time>2021-03-07T03:58:40Z</time>
      </trkpt>
      <trkpt lat="46.97443" lon="-2.00021">
        <ele>4</ele>
        <time>2021-03-07T03:58:45Z</time>
      </trkpt>
      <trkpt lat="46.97469" lon="-1.99994">
        <ele>4</ele>
        <time>2021-03-07T03:58:51Z</time>
      </trkpt>
      <trkpt lat="46.97503" lon="-2.00092">
        <ele>3</ele>
        <time>2021-03-07T03:59:04Z</time>
      </trkpt>
      <trkpt lat="46.97509" lon="-2.00108">
        <ele>3</ele>
        <time>2021-03-07T03:59:06Z</time>
      </trkpt>
      <trkpt lat="46.97525" lon="-2.00153">
        <ele>2</ele>
        <time>2021-03-07T03:59:12Z</time>
      </trkpt>
      <trkpt lat="46.97534" lon="-2.0017">
        <ele>2</ele>
        <time>2021-03-07T03:59:15Z</time>
      </trkpt>
      <trkpt lat="46.97539" lon="-2.00173">
        <ele>2</ele>
        <time>2021-03-07T03:59:16Z</time>
      </trkpt>
      <trkpt lat="46.97547" lon="-2.00174">
        <ele>3</ele>
        <time>2021-03-07T03:59:17Z</time>
      </trkpt>
      <trkpt lat="46.97635" lon="-2.00157">
        <ele>2</ele>
        <time>2021-03-07T03:59:33Z</time>
      </trkpt>
      <trkpt lat="46.97658" lon="-2.00154">
        <ele>2</ele>
        <time>2021-03-07T03:59:37Z</time>
      </trkpt>
      <trkpt lat="46.97674" lon="-2.00151">
        <ele>2</ele>
        <time>2021-03-07T03:59:40Z</time>
      </trkpt>
      <trkpt lat="46.97685" lon="-2.00149">
        <ele>2</ele>
        <time>2021-03-07T03:59:42Z</time>
      </trkpt>
      <trkpt lat="46.97754" lon="-2.00136">
        <ele>1</ele>
        <time>2021-03-07T03:59:54Z</time>
      </trkpt>
      <trkpt lat="46.9782" lon="-2.00124">
        <ele>1</ele>
        <time>2021-03-07T04:00:06Z</time>
      </trkpt>
      <trkpt lat="46.97826" lon="-2.00122">
        <ele>1</ele>
        <time>2021-03-07T04:00:07Z</time>
      </trkpt>
      <trkpt lat="46.97875" lon="-2.00112">
        <ele>1</ele>
        <time>2021-03-07T04:00:16Z</time>
      </trkpt>
      <trkpt lat="46.97897" lon="-2.00109">
        <ele>1</ele>
        <time>2021-03-07T04:00:20Z</time>
      </trkpt>
      <trkpt lat="46.9792" lon="-2.00111">
        <ele>3</ele>
        <time>2021-03-07T04:00:24Z</time>
      </trkpt>
      <trkpt lat="46.98012" lon="-2.00153">
        <ele>3</ele>
        <time>2021-03-07T04:00:41Z</time>
      </trkpt>
      <trkpt lat="46.98018" lon="-2.00156">
        <ele>3</ele>
        <time>2021-03-07T04:00:43Z</time>
      </trkpt>
      <trkpt lat="46.98024" lon="-2.00159">
        <ele>1</ele>
        <time>2021-03-07T04:00:44Z</time>
      </trkpt>
      <trkpt lat="46.98048" lon="-2.0017">
        <ele>1</ele>
        <time>2021-03-07T04:00:48Z</time>
      </trkpt>
      <trkpt lat="46.98084" lon="-2.00184">
        <ele>2</ele>
        <time>2021-03-07T04:00:55Z</time>
      </trkpt>
      <trkpt lat="46.98157" lon="-2.00196">
        <ele>1</ele>
        <time>2021-03-07T04:01:08Z</time>
      </trkpt>
      <trkpt lat="46.98175" lon="-2.00198">
        <ele>1</ele>
        <time>2021-03-07T04:01:11Z</time>
      </trkpt>
      <trkpt lat="46.98184" lon="-2.00199">
        <ele>1</ele>
        <time>2021-03-07T04:01:13Z</time>
      </trkpt>
      <trkpt lat="46.98274" lon="-2.00209">
        <ele>1</ele>
        <time>2021-03-07T04:01:29Z</time>
      </trkpt>
      <trkpt lat="46.98303" lon="-2.00204">
        <ele>1</ele>
        <time>2021-03-07T04:01:34Z</time>
      </trkpt>
      <trkpt lat="46.98419" lon="-2.00153">
        <ele>2.5</ele>
        <time>2021-03-07T04:01:55Z</time>
      </trkpt>
      <trkpt lat="46.98443" lon="-2.00145">
        <ele>3</ele>
        <time>2021-03-07T04:02:00Z</time>
      </trkpt>
      <trkpt lat="46.9846" lon="-2.00146">
        <ele>2.6</ele>
        <time>2021-03-07T04:02:03Z</time>
      </trkpt>
      <trkpt lat="46.98473" lon="-2.00153">
        <ele>2.5</ele>
        <time>2021-03-07T04:02:05Z</time>
      </trkpt>
      <trkpt lat="46.9848" lon="-2.00159">
        <ele>2.5</ele>
        <time>2021-03-07T04:02:07Z</time>
      </trkpt>
      <trkpt lat="46.98508" lon="-2.00205">
        <ele>2.7</ele>
        <time>2021-03-07T04:02:14Z</time>
      </trkpt>
      <trkpt lat="46.98528" lon="-2.00225">
        <ele>3</ele>
        <time>2021-03-07T04:02:19Z</time>
      </trkpt>
      <trkpt lat="46.98553" lon="-2.00237">
        <ele>1</ele>
        <time>2021-03-07T04:02:23Z</time>
      </trkpt>
      <trkpt lat="46.98616" lon="-2.00261">
        <ele>1</ele>
        <time>2021-03-07T04:02:35Z</time>
      </trkpt>
      <trkpt lat="46.98644" lon="-2.00282">
        <ele>2</ele>
        <time>2021-03-07T04:02:40Z</time>
      </trkpt>
      <trkpt lat="46.98648" lon="-2.00276">
        <ele>2</ele>
        <time>2021-03-07T04:02:41Z</time>
      </trkpt>
      <trkpt lat="46.98793" lon="-2.00222">
        <ele>1</ele>
        <time>2021-03-07T04:03:08Z</time>
      </trkpt>
      <trkpt lat="46.9881" lon="-2.00218">
        <ele>1</ele>
        <time>2021-03-07T04:03:11Z</time>
      </trkpt>
      <trkpt lat="46.98839" lon="-2.00216">
        <ele>2.2</ele>
        <time>2021-03-07T04:03:16Z</time>
      </trkpt>
      <trkpt lat="46.98903" lon="-2.00219">
        <ele>2</ele>
        <time>2021-03-07T04:03:28Z</time>
      </trkpt>
      <trkpt lat="46.98921" lon="-2.0021">
        <ele>2</ele>
        <time>2021-03-07T04:03:31Z</time>
      </trkpt>
      <trkpt lat="46.98936" lon="-2.00198">
        <ele>2</ele>
        <time>2021-03-07T04:03:34Z</time>
      </trkpt>
      <trkpt lat="46.99166" lon="-1.99936">
        <ele>1</ele>
        <time>2021-03-07T04:04:26Z</time>
      </trkpt>
      <trkpt lat="46.99246" lon="-1.99859">
        <ele>3</ele>
        <time>2021-03-07T04:04:43Z</time>
      </trkpt>
      <trkpt lat="46.99312" lon="-1.99828">
        <ele>1</ele>
        <time>2021-03-07T04:04:55Z</time>
      </trkpt>
      <trkpt lat="46.99341" lon="-1.99817">
        <ele>2.3</ele>
        <time>2021-03-07T04:05:01Z</time>
      </trkpt>
      <trkpt lat="46.99473" lon="-1.99805">
        <ele>3</ele>
        <time>2021-03-07T04:05:24Z</time>
      </trkpt>
      <trkpt lat="46.99482" lon="-1.99805">
        <ele>2.6</ele>
        <time>2021-03-07T04:05:26Z</time>
      </trkpt>
      <trkpt lat="46.99531" lon="-1.99798">
        <ele>2.9</ele>
        <time>2021-03-07T04:05:34Z</time>
      </trkpt>
      <trkpt lat="46.9963" lon="-1.99767">
        <ele>2</ele>
        <time>2021-03-07T04:05:52Z</time>
      </trkpt>
      <trkpt lat="46.99641" lon="-1.9976">
        <ele>2.1</ele>
        <time>2021-03-07T04:05:55Z</time>
      </trkpt>
      <trkpt lat="46.99652" lon="-1.99753">
        <ele>2.5</ele>
        <time>2021-03-07T04:05:57Z</time>
      </trkpt>
      <trkpt lat="46.99674" lon="-1.9974">
        <ele>2.9</ele>
        <time>2021-03-07T04:06:01Z</time>
      </trkpt>
      <trkpt lat="46.99686" lon="-1.99728">
        <ele>2.4</ele>
        <time>2021-03-07T04:06:04Z</time>
      </trkpt>
      <trkpt lat="46.99743" lon="-1.99656">
        <ele>1</ele>
        <time>2021-03-07T04:06:17Z</time>
      </trkpt>
      <trkpt lat="46.99795" lon="-1.99585">
        <ele>2</ele>
        <time>2021-03-07T04:06:30Z</time>
      </trkpt>
      <trkpt lat="46.99897" lon="-1.99436">
        <ele>1</ele>
        <time>2021-03-07T04:06:55Z</time>
      </trkpt>
      <trkpt lat="46.99938" lon="-1.99395">
        <ele>1</ele>
        <time>2021-03-07T04:07:04Z</time>
      </trkpt>
      <trkpt lat="47.00104" lon="-1.99203">
        <ele>1</ele>
        <time>2021-03-07T04:07:42Z</time>
      </trkpt>
      <trkpt lat="47.00109" lon="-1.99194">
        <ele>1</ele>
        <time>2021-03-07T04:07:43Z</time>
      </trkpt>
      <trkpt lat="47.00116" lon="-1.99169">
        <ele>1</ele>
        <time>2021-03-07T04:07:46Z</time>
      </trkpt>
      <trkpt lat="47.00119" lon="-1.99151">
        <ele>1</ele>
        <time>2021-03-07T04:07:49Z</time>
      </trkpt>
      <trkpt lat="47.00115" lon="-1.991">
        <ele>1</ele>
        <time>2021-03-07T04:07:55Z</time>
      </trkpt>
      <trkpt lat="47.00118" lon="-1.99087">
        <ele>1</ele>
        <time>2021-03-07T04:07:56Z</time>
      </trkpt>
      <trkpt lat="47.00126" lon="-1.99073">
        <ele>1</ele>
        <time>2021-03-07T04:07:59Z</time>
      </trkpt>
      <trkpt lat="47.00135" lon="-1.99064">
        <ele>1</ele>
        <time>2021-03-07T04:08:01Z</time>
      </trkpt>
      <trkpt lat="47.0022" lon="-1.98997">
        <ele>2</ele>
        <time>2021-03-07T04:08:18Z</time>
      </trkpt>
      <trkpt lat="47.00276" lon="-1.98952">
        <ele>3</ele>
        <time>2021-03-07T04:08:29Z</time>
      </trkpt>
      <trkpt lat="47.00299" lon="-1.98938">
        <ele>2.8</ele>
        <time>2021-03-07T04:08:34Z</time>
      </trkpt>
      <trkpt lat="47.00467" lon="-1.98852">
        <ele>2</ele>
        <time>2021-03-07T04:09:05Z</time>
      </trkpt>
      <trkpt lat="47.00531" lon="-1.98808">
        <ele>2</ele>
        <time>2021-03-07T04:09:18Z</time>
      </trkpt>
      <trkpt lat="47.00553" lon="-1.98796">
        <ele>2</ele>
        <time>2021-03-07T04:09:22Z</time>
      </trkpt>
      <trkpt lat="47.00569" lon="-1.9879">
        <ele>2</ele>
        <time>2021-03-07T04:09:25Z</time>
      </trkpt>
      <trkpt lat="47.00576" lon="-1.98789">
        <ele>2</ele>
        <time>2021-03-07T04:09:26Z</time>
      </trkpt>
      <trkpt lat="47.00587" lon="-1.98789">
        <ele>2</ele>
        <time>2021-03-07T04:09:28Z</time>
      </trkpt>
      <trkpt lat="47.00601" lon="-1.9879">
        <ele>2</ele>
        <time>2021-03-07T04:09:31Z</time>
      </trkpt>
      <trkpt lat="47.0062" lon="-1.98788">
        <ele>2</ele>
        <time>2021-03-07T04:09:34Z</time>
      </trkpt>
      <trkpt lat="47.00842" lon="-1.98704">
        <ele>1</ele>
        <time>2021-03-07T04:10:15Z</time>
      </trkpt>
      <trkpt lat="47.00879" lon="-1.98695">
        <ele>1</ele>
        <time>2021-03-07T04:10:22Z</time>
      </trkpt>
      <trkpt lat="47.00895" lon="-1.98696">
        <ele>1</ele>
        <time>2021-03-07T04:10:24Z</time>
      </trkpt>
      <trkpt lat="47.00916" lon="-1.98705">
        <ele>1</ele>
        <time>2021-03-07T04:10:28Z</time>
      </trkpt>
      <trkpt lat="47.00956" lon="-1.98746">
        <ele>3</ele>
        <time>2021-03-07T04:10:37Z</time>
      </trkpt>
      <trkpt lat="47.00972" lon="-1.98757">
        <ele>1</ele>
        <time>2021-03-07T04:10:40Z</time>
      </trkpt>
      <trkpt lat="47.00982" lon="-1.98759">
        <ele>1</ele>
        <time>2021-03-07T04:10:42Z</time>
      </trkpt>
      <trkpt lat="47.0099" lon="-1.9876">
        <ele>1</ele>
        <time>2021-03-07T04:10:43Z</time>
      </trkpt>
      <trkpt lat="47.00997" lon="-1.98758">
        <ele>1</ele>
        <time>2021-03-07T04:10:45Z</time>
      </trkpt>
      <trkpt lat="47.01005" lon="-1.98754">
        <ele>1</ele>
        <time>2021-03-07T04:10:46Z</time>
      </trkpt>
      <trkpt lat="47.0104" lon="-1.98726">
        <ele>3</ele>
        <time>2021-03-07T04:10:53Z</time>
      </trkpt>
      <trkpt lat="47.01052" lon="-1.98718">
        <ele>2.9</ele>
        <time>2021-03-07T04:10:56Z</time>
      </trkpt>
      <trkpt lat="47.01078" lon="-1.9871">
        <ele>2.1</ele>
        <time>2021-03-07T04:11:00Z</time>
      </trkpt>
      <trkpt lat="47.01111" lon="-1.98706">
        <ele>2.4</ele>
        <time>2021-03-07T04:11:06Z</time>
      </trkpt>
      <trkpt lat="47.01132" lon="-1.98704">
        <ele>2.8</ele>
        <time>2021-03-07T04:11:10Z</time>
      </trkpt>
      <trkpt lat="47.01142" lon="-1.98703">
        <ele>3</ele>
        <time>2021-03-07T04:11:12Z</time>
      </trkpt>
      <trkpt lat="47.01192" lon="-1.98701">
        <ele>3</ele>
        <time>2021-03-07T04:11:21Z</time>
      </trkpt>
      <trkpt lat="47.01228" lon="-1.98701">
        <ele>2</ele>
        <time>2021-03-07T04:11:27Z</time>
      </trkpt>
      <trkpt lat="47.01322" lon="-1.98698">
        <ele>2.6</ele>
        <time>2021-03-07T04:11:44Z</time>
      </trkpt>
      <trkpt lat="47.01344" lon="-1.98697">
        <ele>2.6</ele>
        <time>2021-03-07T04:11:48Z</time>
      </trkpt>
      <trkpt lat="47.01505" lon="-1.98693">
        <ele>2</ele>
        <time>2021-03-07T04:12:16Z</time>
      </trkpt>
      <trkpt lat="47.01576" lon="-1.98691">
        <ele>2</ele>
        <time>2021-03-07T04:12:29Z</time>
      </trkpt>
      <trkpt lat="47.01589" lon="-1.9869">
        <ele>1.8</ele>
        <time>2021-03-07T04:12:31Z</time>
      </trkpt>
      <trkpt lat="47.01596" lon="-1.98686">
        <ele>1.7</ele>
        <time>2021-03-07T04:12:33Z</time>
      </trkpt>
      <trkpt lat="47.01602" lon="-1.9868">
        <ele>1.7</ele>
        <time>2021-03-07T04:12:34Z</time>
      </trkpt>
      <trkpt lat="47.01607" lon="-1.98673">
        <ele>1.8</ele>
        <time>2021-03-07T04:12:35Z</time>
      </trkpt>
      <trkpt lat="47.02115" lon="-1.97716">
        <ele>1.9</ele>
        <time>2021-03-07T04:15:02Z</time>
      </trkpt>
      <trkpt lat="47.02146" lon="-1.97656">
        <ele>1</ele>
        <time>2021-03-07T04:15:11Z</time>
      </trkpt>
      <trkpt lat="47.02161" lon="-1.9763">
        <ele>1.3</ele>
        <time>2021-03-07T04:15:15Z</time>
      </trkpt>
      <trkpt lat="47.0217" lon="-1.97618">
        <ele>1.7</ele>
        <time>2021-03-07T04:15:18Z</time>
      </trkpt>
      <trkpt lat="47.02176" lon="-1.97613">
        <ele>1.6</ele>
        <time>2021-03-07T04:15:19Z</time>
      </trkpt>
      <trkpt lat="47.0218" lon="-1.97611">
        <ele>1.5</ele>
        <time>2021-03-07T04:15:20Z</time>
      </trkpt>
      <trkpt lat="47.02205" lon="-1.97606">
        <ele>1</ele>
        <time>2021-03-07T04:15:24Z</time>
      </trkpt>
      <trkpt lat="47.02252" lon="-1.97602">
        <ele>1</ele>
        <time>2021-03-07T04:15:32Z</time>
      </trkpt>
      <trkpt lat="47.02551" lon="-1.97578">
        <ele>1</ele>
        <time>2021-03-07T04:16:26Z</time>
      </trkpt>
      <trkpt lat="47.0265" lon="-1.9757">
        <ele>1</ele>
        <time>2021-03-07T04:16:43Z</time>
      </trkpt>
      <trkpt lat="47.02674" lon="-1.97568">
        <ele>1.3</ele>
        <time>2021-03-07T04:16:48Z</time>
      </trkpt>
      <trkpt lat="47.02684" lon="-1.97563">
        <ele>1.9</ele>
        <time>2021-03-07T04:16:50Z</time>
      </trkpt>
      <trkpt lat="47.02688" lon="-1.97559">
        <ele>2.3</ele>
        <time>2021-03-07T04:16:50Z</time>
      </trkpt>
      <trkpt lat="47.02693" lon="-1.97552">
        <ele>2.8</ele>
        <time>2021-03-07T04:16:52Z</time>
      </trkpt>
      <trkpt lat="47.02706" lon="-1.97562">
        <ele>2.6</ele>
        <time>2021-03-07T04:16:54Z</time>
      </trkpt>
      <trkpt lat="47.02711" lon="-1.97563">
        <ele>2.6</ele>
        <time>2021-03-07T04:16:55Z</time>
      </trkpt>
      <trkpt lat="47.0278" lon="-1.97558">
        <ele>4.7</ele>
        <time>2021-03-07T04:17:07Z</time>
      </trkpt>
      <trkpt lat="47.0284" lon="-1.9755">
        <ele>1</ele>
        <time>2021-03-07T04:17:18Z</time>
      </trkpt>
      <trkpt lat="47.02861" lon="-1.97554">
        <ele>1</ele>
        <time>2021-03-07T04:17:22Z</time>
      </trkpt>
      <trkpt lat="47.02871" lon="-1.97554">
        <ele>1</ele>
        <time>2021-03-07T04:17:24Z</time>
      </trkpt>
      <trkpt lat="47.02875" lon="-1.97554">
        <ele>2</ele>
        <time>2021-03-07T04:17:24Z</time>
      </trkpt>
      <trkpt lat="47.02892" lon="-1.97553">
        <ele>2</ele>
        <time>2021-03-07T04:17:27Z</time>
      </trkpt>
      <trkpt lat="47.02896" lon="-1.97552">
        <ele>2</ele>
        <time>2021-03-07T04:17:28Z</time>
      </trkpt>
      <trkpt lat="47.02911" lon="-1.97551">
        <ele>2</ele>
        <time>2021-03-07T04:17:31Z</time>
      </trkpt>
      <trkpt lat="47.02913" lon="-1.97614">
        <ele>1</ele>
        <time>2021-03-07T04:17:39Z</time>
      </trkpt>
      <trkpt lat="47.02915" lon="-1.97676">
        <ele>4.5</ele>
        <time>2021-03-07T04:17:46Z</time>
      </trkpt>
      <trkpt lat="47.02918" lon="-1.97722">
        <ele>4</ele>
        <time>2021-03-07T04:17:52Z</time>
      </trkpt>
      <trkpt lat="47.02922" lon="-1.97758">
        <ele>3.8</ele>
        <time>2021-03-07T04:17:56Z</time>
      </trkpt>
      <trkpt lat="47.02929" lon="-1.97788">
        <ele>3.6</ele>
        <time>2021-03-07T04:18:00Z</time>
      </trkpt>
      <trkpt lat="47.02951" lon="-1.97868">
        <ele>3.5</ele>
        <time>2021-03-07T04:18:10Z</time>
      </trkpt>
      <trkpt lat="47.02958" lon="-1.97885">
        <ele>3.4</ele>
        <time>2021-03-07T04:18:13Z</time>
      </trkpt>
      <trkpt lat="47.02961" lon="-1.9789">
        <ele>3.6</ele>
        <time>2021-03-07T04:18:14Z</time>
      </trkpt>
      <trkpt lat="47.02969" lon="-1.97895">
        <ele>3.9</ele>
        <time>2021-03-07T04:18:15Z</time>
      </trkpt>
      <trkpt lat="47.03048" lon="-1.97958">
        <ele>1</ele>
        <time>2021-03-07T04:18:31Z</time>
      </trkpt>
      <trkpt lat="47.03107" lon="-1.98019">
        <ele>2</ele>
        <time>2021-03-07T04:18:44Z</time>
      </trkpt>
      <trkpt lat="47.03125" lon="-1.9804">
        <ele>3</ele>
        <time>2021-03-07T04:18:48Z</time>
      </trkpt>
      <trkpt lat="47.03139" lon="-1.98062">
        <ele>3</ele>
        <time>2021-03-07T04:18:52Z</time>
      </trkpt>
      <trkpt lat="47.03182" lon="-1.98135">
        <ele>4</ele>
        <time>2021-03-07T04:19:03Z</time>
      </trkpt>
      <trkpt lat="47.03199" lon="-1.98157">
        <ele>5</ele>
        <time>2021-03-07T04:19:07Z</time>
      </trkpt>
      <trkpt lat="47.03247" lon="-1.98187">
        <ele>7</ele>
        <time>2021-03-07T04:19:17Z</time>
      </trkpt>
      <trkpt lat="47.03261" lon="-1.98198">
        <ele>7</ele>
        <time>2021-03-07T04:19:20Z</time>
      </trkpt>
      <trkpt lat="47.03337" lon="-1.98278">
        <ele>6</ele>
        <time>2021-03-07T04:19:36Z</time>
      </trkpt>
      <trkpt lat="47.03473" lon="-1.98401">
        <ele>6</ele>
        <time>2021-03-07T04:20:05Z</time>
      </trkpt>
      <trkpt lat="47.03623" lon="-1.98526">
        <ele>5</ele>
        <time>2021-03-07T04:20:35Z</time>
      </trkpt>
      <trkpt lat="47.03645" lon="-1.9854">
        <ele>4</ele>
        <time>2021-03-07T04:20:40Z</time>
      </trkpt>
      <trkpt lat="47.03669" lon="-1.98544">
        <ele>4</ele>
        <time>2021-03-07T04:20:44Z</time>
      </trkpt>
      <trkpt lat="47.03696" lon="-1.98539">
        <ele>4</ele>
        <time>2021-03-07T04:20:49Z</time>
      </trkpt>
      <trkpt lat="47.03821" lon="-1.98514">
        <ele>2</ele>
        <time>2021-03-07T04:21:11Z</time>
      </trkpt>
      <trkpt lat="47.03856" lon="-1.9852">
        <ele>2</ele>
        <time>2021-03-07T04:21:17Z</time>
      </trkpt>
      <trkpt lat="47.0389" lon="-1.98544">
        <ele>2</ele>
        <time>2021-03-07T04:21:24Z</time>
      </trkpt>
      <trkpt lat="47.03949" lon="-1.98616">
        <ele>2</ele>
        <time>2021-03-07T04:21:38Z</time>
      </trkpt>
      <trkpt lat="47.04057" lon="-1.98818">
        <ele>3</ele>
        <time>2021-03-07T04:22:09Z</time>
      </trkpt>
      <trkpt lat="47.0406" lon="-1.98822">
        <ele>3</ele>
        <time>2021-03-07T04:22:10Z</time>
      </trkpt>
      <trkpt lat="47.04084" lon="-1.98849">
        <ele>3</ele>
        <time>2021-03-07T04:22:15Z</time>
      </trkpt>
      <trkpt lat="47.04235" lon="-1.98966">
        <ele>2</ele>
        <time>2021-03-07T04:22:45Z</time>
      </trkpt>
      <trkpt lat="47.04356" lon="-1.99057">
        <ele>4</ele>
        <time>2021-03-07T04:23:10Z</time>
      </trkpt>
      <trkpt lat="47.04415" lon="-1.99072">
        <ele>4</ele>
        <time>2021-03-07T04:23:20Z</time>
      </trkpt>
      <trkpt lat="47.04487" lon="-1.99121">
        <ele>3</ele>
        <time>2021-03-07T04:23:34Z</time>
      </trkpt>
      <trkpt lat="47.04606" lon="-1.99151">
        <ele>5</ele>
        <time>2021-03-07T04:23:56Z</time>
      </trkpt>
      <trkpt lat="47.04637" lon="-1.99153">
        <ele>4</ele>
        <time>2021-03-07T04:24:01Z</time>
      </trkpt>
      <trkpt lat="47.04714" lon="-1.99133">
        <ele>2</ele>
        <time>2021-03-07T04:24:15Z</time>
      </trkpt>
      <trkpt lat="47.0474" lon="-1.99132">
        <ele>2</ele>
        <time>2021-03-07T04:24:20Z</time>
      </trkpt>
      <trkpt lat="47.0476" lon="-1.99131">
        <ele>2</ele>
        <time>2021-03-07T04:24:24Z</time>
      </trkpt>
      <trkpt lat="47.04799" lon="-1.99123">
        <ele>2</ele>
        <time>2021-03-07T04:24:31Z</time>
      </trkpt>
      <trkpt lat="47.04855" lon="-1.99103">
        <ele>2</ele>
        <time>2021-03-07T04:24:41Z</time>
      </trkpt>
      <trkpt lat="47.04868" lon="-1.99094">
        <ele>2</ele>
        <time>2021-03-07T04:24:43Z</time>
      </trkpt>
      <trkpt lat="47.04902" lon="-1.99067">
        <ele>1</ele>
        <time>2021-03-07T04:24:50Z</time>
      </trkpt>
      <trkpt lat="47.04924" lon="-1.99058">
        <ele>1</ele>
        <time>2021-03-07T04:24:54Z</time>
      </trkpt>
      <trkpt lat="47.04984" lon="-1.99057">
        <ele>2</ele>
        <time>2021-03-07T04:25:05Z</time>
      </trkpt>
      <trkpt lat="47.05041" lon="-1.99046">
        <ele>2</ele>
        <time>2021-03-07T04:25:15Z</time>
      </trkpt>
      <trkpt lat="47.05061" lon="-1.9905">
        <ele>2</ele>
        <time>2021-03-07T04:25:19Z</time>
      </trkpt>
      <trkpt lat="47.0507" lon="-1.99055">
        <ele>2</ele>
        <time>2021-03-07T04:25:20Z</time>
      </trkpt>
      <trkpt lat="47.05075" lon="-1.99059">
        <ele>2</ele>
        <time>2021-03-07T04:25:21Z</time>
      </trkpt>
      <trkpt lat="47.05094" lon="-1.99035">
        <ele>1</ele>
        <time>2021-03-07T04:25:26Z</time>
      </trkpt>
      <trkpt lat="47.05111" lon="-1.99017">
        <ele>1</ele>
        <time>2021-03-07T04:25:30Z</time>
      </trkpt>
      <trkpt lat="47.05119" lon="-1.99013">
        <ele>1</ele>
        <time>2021-03-07T04:25:31Z</time>
      </trkpt>
      <trkpt lat="47.05146" lon="-1.99017">
        <ele>1</ele>
        <time>2021-03-07T04:25:36Z</time>
      </trkpt>
      <trkpt lat="47.05158" lon="-1.99015">
        <ele>1</ele>
        <time>2021-03-07T04:25:38Z</time>
      </trkpt>
      <trkpt lat="47.05167" lon="-1.99008">
        <ele>1</ele>
        <time>2021-03-07T04:25:40Z</time>
      </trkpt>
      <trkpt lat="47.05192" lon="-1.98979">
        <ele>1</ele>
        <time>2021-03-07T04:25:46Z</time>
      </trkpt>
      <trkpt lat="47.05208" lon="-1.9897">
        <ele>1</ele>
        <time>2021-03-07T04:25:49Z</time>
      </trkpt>
      <trkpt lat="47.05228" lon="-1.98965">
        <ele>2</ele>
        <time>2021-03-07T04:25:52Z</time>
      </trkpt>
      <trkpt lat="47.05236" lon="-1.98964">
        <ele>2</ele>
        <time>2021-03-07T04:25:54Z</time>
      </trkpt>
      <trkpt lat="47.05247" lon="-1.98959">
        <ele>2</ele>
        <time>2021-03-07T04:25:56Z</time>
      </trkpt>
      <trkpt lat="47.05274" lon="-1.98938">
        <ele>2</ele>
        <time>2021-03-07T04:26:01Z</time>
      </trkpt>
      <trkpt lat="47.05284" lon="-1.98932">
        <ele>2</ele>
        <time>2021-03-07T04:26:03Z</time>
      </trkpt>
      <trkpt lat="47.05305" lon="-1.98923">
        <ele>2</ele>
        <time>2021-03-07T04:26:07Z</time>
      </trkpt>
      <trkpt lat="47.05396" lon="-1.9888">
        <ele>2</ele>
        <time>2021-03-07T04:26:24Z</time>
      </trkpt>
      <trkpt lat="47.05416" lon="-1.98872">
        <ele>2</ele>
        <time>2021-03-07T04:26:28Z</time>
      </trkpt>
      <trkpt lat="47.05432" lon="-1.98874">
        <ele>2</ele>
        <time>2021-03-07T04:26:31Z</time>
      </trkpt>
      <trkpt lat="47.05455" lon="-1.98892">
        <ele>1</ele>
        <time>2021-03-07T04:26:35Z</time>
      </trkpt>
      <trkpt lat="47.055" lon="-1.989">
        <ele>1</ele>
        <time>2021-03-07T04:26:43Z</time>
      </trkpt>
      <trkpt lat="47.05706" lon="-1.98904">
        <ele>1</ele>
        <time>2021-03-07T04:27:20Z</time>
      </trkpt>
      <trkpt lat="47.05802" lon="-1.98906">
        <ele>1</ele>
        <time>2021-03-07T04:27:37Z</time>
      </trkpt>
      <trkpt lat="47.05825" lon="-1.98902">
        <ele>2.8</ele>
        <time>2021-03-07T04:27:41Z</time>
      </trkpt>
      <trkpt lat="47.05843" lon="-1.98897">
        <ele>1</ele>
        <time>2021-03-07T04:27:44Z</time>
      </trkpt>
      <trkpt lat="47.05904" lon="-1.98865">
        <ele>1</ele>
        <time>2021-03-07T04:27:56Z</time>
      </trkpt>
      <trkpt lat="47.05918" lon="-1.98853">
        <ele>1</ele>
        <time>2021-03-07T04:27:59Z</time>
      </trkpt>
      <trkpt lat="47.05928" lon="-1.98841">
        <ele>1</ele>
        <time>2021-03-07T04:28:01Z</time>
      </trkpt>
      <trkpt lat="47.05934" lon="-1.98825">
        <ele>1</ele>
        <time>2021-03-07T04:28:03Z</time>
      </trkpt>
      <trkpt lat="47.05942" lon="-1.98776">
        <ele>2</ele>
        <time>2021-03-07T04:28:09Z</time>
      </trkpt>
      <trkpt lat="47.05947" lon="-1.98761">
        <ele>2</ele>
        <time>2021-03-07T04:28:11Z</time>
      </trkpt>
      <trkpt lat="47.05957" lon="-1.98747">
        <ele>2</ele>
        <time>2021-03-07T04:28:14Z</time>
      </trkpt>
      <trkpt lat="47.05969" lon="-1.98737">
        <ele>2</ele>
        <time>2021-03-07T04:28:16Z</time>
      </trkpt>
      <trkpt lat="47.05987" lon="-1.98724">
        <ele>3</ele>
        <time>2021-03-07T04:28:20Z</time>
      </trkpt>
      <trkpt lat="47.05991" lon="-1.98722">
        <ele>3</ele>
        <time>2021-03-07T04:28:21Z</time>
      </trkpt>
      <trkpt lat="47.05998" lon="-1.98716">
        <ele>3</ele>
        <time>2021-03-07T04:28:22Z</time>
      </trkpt>
      <trkpt lat="47.06007" lon="-1.98706">
        <ele>3</ele>
        <time>2021-03-07T04:28:24Z</time>
      </trkpt>
      <trkpt lat="47.0606" lon="-1.9864">
        <ele>3</ele>
        <time>2021-03-07T04:28:37Z</time>
      </trkpt>
      <trkpt lat="47.06089" lon="-1.98604">
        <ele>4</ele>
        <time>2021-03-07T04:28:43Z</time>
      </trkpt>
      <trkpt lat="47.06111" lon="-1.98578">
        <ele>5</ele>
        <time>2021-03-07T04:28:48Z</time>
      </trkpt>
      <trkpt lat="47.06171" lon="-1.98528">
        <ele>6</ele>
        <time>2021-03-07T04:29:01Z</time>
      </trkpt>
      <trkpt lat="47.06226" lon="-1.9849">
        <ele>8</ele>
        <time>2021-03-07T04:29:11Z</time>
      </trkpt>
      <trkpt lat="47.06245" lon="-1.98478">
        <ele>8</ele>
        <time>2021-03-07T04:29:15Z</time>
      </trkpt>
      <trkpt lat="47.06269" lon="-1.9847">
        <ele>9</ele>
        <time>2021-03-07T04:29:19Z</time>
      </trkpt>
      <trkpt lat="47.06423" lon="-1.98409">
        <ele>11</ele>
        <time>2021-03-07T04:29:48Z</time>
      </trkpt>
      <trkpt lat="47.06454" lon="-1.98453">
        <ele>12</ele>
        <time>2021-03-07T04:29:56Z</time>
      </trkpt>
      <trkpt lat="47.06455" lon="-1.98464">
        <ele>12</ele>
        <time>2021-03-07T04:29:57Z</time>
      </trkpt>
      <trkpt lat="47.06432" lon="-1.98585">
        <ele>10</ele>
        <time>2021-03-07T04:30:12Z</time>
      </trkpt>
      <trkpt lat="47.06432" lon="-1.98599">
        <ele>10</ele>
        <time>2021-03-07T04:30:14Z</time>
      </trkpt>
      <trkpt lat="47.06434" lon="-1.98611">
        <ele>10</ele>
        <time>2021-03-07T04:30:15Z</time>
      </trkpt>
      <trkpt lat="47.06437" lon="-1.98614">
        <ele>10</ele>
        <time>2021-03-07T04:30:16Z</time>
      </trkpt>
      <trkpt lat="47.06439" lon="-1.98618">
        <ele>10</ele>
        <time>2021-03-07T04:30:17Z</time>
      </trkpt>
      <trkpt lat="47.06446" lon="-1.98605">
        <ele>10</ele>
        <time>2021-03-07T04:30:19Z</time>
      </trkpt>
      <trkpt lat="47.06449" lon="-1.98596">
        <ele>11</ele>
        <time>2021-03-07T04:30:20Z</time>
      </trkpt>
      <trkpt lat="47.06465" lon="-1.98565">
        <ele>12</ele>
        <time>2021-03-07T04:30:24Z</time>
      </trkpt>
      <trkpt lat="47.06483" lon="-1.98513">
        <ele>14</ele>
        <time>2021-03-07T04:30:32Z</time>
      </trkpt>
      <trkpt lat="47.06505" lon="-1.98337">
        <ele>10</ele>
        <time>2021-03-07T04:30:53Z</time>
      </trkpt>
      <trkpt lat="47.06512" lon="-1.98296">
        <ele>11</ele>
        <time>2021-03-07T04:30:58Z</time>
      </trkpt>
      <trkpt lat="47.06519" lon="-1.98273">
        <ele>11</ele>
        <time>2021-03-07T04:31:01Z</time>
      </trkpt>
      <trkpt lat="47.06522" lon="-1.98267">
        <ele>12</ele>
        <time>2021-03-07T04:31:02Z</time>
      </trkpt>
      <trkpt lat="47.06568" lon="-1.98154">
        <ele>17</ele>
        <time>2021-03-07T04:31:18Z</time>
      </trkpt>
      <trkpt lat="47.06577" lon="-1.98142">
        <ele>18</ele>
        <time>2021-03-07T04:31:20Z</time>
      </trkpt>
      <trkpt lat="47.0659" lon="-1.98131">
        <ele>19</ele>
        <time>2021-03-07T04:31:23Z</time>
      </trkpt>
      <trkpt lat="47.06657" lon="-1.98087">
        <ele>20</ele>
        <time>2021-03-07T04:31:36Z</time>
      </trkpt>
      <trkpt lat="47.06699" lon="-1.9805">
        <ele>20</ele>
        <time>2021-03-07T04:31:45Z</time>
      </trkpt>
      <trkpt lat="47.06833" lon="-1.97898">
        <ele>17</ele>
        <time>2021-03-07T04:32:15Z</time>
      </trkpt>
      <trkpt lat="47.06864" lon="-1.97871">
        <ele>14</ele>
        <time>2021-03-07T04:32:21Z</time>
      </trkpt>
      <trkpt lat="47.06912" lon="-1.97842">
        <ele>12</ele>
        <time>2021-03-07T04:32:31Z</time>
      </trkpt>
      <trkpt lat="47.07032" lon="-1.97776">
        <ele>9</ele>
        <time>2021-03-07T04:32:53Z</time>
      </trkpt>
      <trkpt lat="47.07072" lon="-1.97759">
        <ele>8</ele>
        <time>2021-03-07T04:33:01Z</time>
      </trkpt>
      <trkpt lat="47.07101" lon="-1.97751">
        <ele>8</ele>
        <time>2021-03-07T04:33:06Z</time>
      </trkpt>
      <trkpt lat="47.07175" lon="-1.97744">
        <ele>9</ele>
        <time>2021-03-07T04:33:19Z</time>
      </trkpt>
      <trkpt lat="47.07316" lon="-1.97752">
        <ele>11</ele>
        <time>2021-03-07T04:33:44Z</time>
      </trkpt>
      <trkpt lat="47.07355" lon="-1.97745">
        <ele>14</ele>
        <time>2021-03-07T04:33:51Z</time>
      </trkpt>
      <trkpt lat="47.07394" lon="-1.97731">
        <ele>18</ele>
        <time>2021-03-07T04:33:59Z</time>
      </trkpt>
      <trkpt lat="47.07437" lon="-1.97708">
        <ele>20</ele>
        <time>2021-03-07T04:34:07Z</time>
      </trkpt>
      <trkpt lat="47.07472" lon="-1.97686">
        <ele>22</ele>
        <time>2021-03-07T04:34:13Z</time>
      </trkpt>
      <trkpt lat="47.07509" lon="-1.97659">
        <ele>22</ele>
        <time>2021-03-07T04:34:21Z</time>
      </trkpt>
      <trkpt lat="47.07569" lon="-1.97628">
        <ele>19</ele>
        <time>2021-03-07T04:34:32Z</time>
      </trkpt>
      <trkpt lat="47.0782" lon="-1.97557">
        <ele>15</ele>
        <time>2021-03-07T04:35:18Z</time>
      </trkpt>
      <trkpt lat="47.07852" lon="-1.97543">
        <ele>16</ele>
        <time>2021-03-07T04:35:24Z</time>
      </trkpt>
      <trkpt lat="47.07882" lon="-1.97527">
        <ele>16</ele>
        <time>2021-03-07T04:35:29Z</time>
      </trkpt>
      <trkpt lat="47.08047" lon="-1.97423">
        <ele>20</ele>
        <time>2021-03-07T04:36:01Z</time>
      </trkpt>
      <trkpt lat="47.0808" lon="-1.97408">
        <ele>21</ele>
        <time>2021-03-07T04:36:07Z</time>
      </trkpt>
      <trkpt lat="47.08165" lon="-1.97351">
        <ele>23</ele>
        <time>2021-03-07T04:36:24Z</time>
      </trkpt>
      <trkpt lat="47.08204" lon="-1.97323">
        <ele>24</ele>
        <time>2021-03-07T04:36:32Z</time>
      </trkpt>
      <trkpt lat="47.08395" lon="-1.97157">
        <ele>21</ele>
        <time>2021-03-07T04:37:11Z</time>
      </trkpt>
      <trkpt lat="47.08568" lon="-1.97021">
        <ele>22</ele>
        <time>2021-03-07T04:37:46Z</time>
      </trkpt>
      <trkpt lat="47.08585" lon="-1.97004">
        <ele>22</ele>
        <time>2021-03-07T04:37:50Z</time>
      </trkpt>
      <trkpt lat="47.08692" lon="-1.96858">
        <ele>22</ele>
        <time>2021-03-07T04:38:16Z</time>
      </trkpt>
      <trkpt lat="47.09142" lon="-1.96402">
        <ele>16</ele>
        <time>2021-03-07T04:39:53Z</time>
      </trkpt>
      <trkpt lat="47.09225" lon="-1.96319">
        <ele>15</ele>
        <time>2021-03-07T04:40:11Z</time>
      </trkpt>
      <trkpt lat="47.09259" lon="-1.96293">
        <ele>14</ele>
        <time>2021-03-07T04:40:18Z</time>
      </trkpt>
      <trkpt lat="47.09293" lon="-1.9627">
        <ele>14</ele>
        <time>2021-03-07T04:40:24Z</time>
      </trkpt>
      <trkpt lat="47.09324" lon="-1.96254">
        <ele>14</ele>
        <time>2021-03-07T04:40:30Z</time>
      </trkpt>
      <trkpt lat="47.09356" lon="-1.96241">
        <ele>15</ele>
        <time>2021-03-07T04:40:36Z</time>
      </trkpt>
      <trkpt lat="47.09413" lon="-1.96228">
        <ele>16</ele>
        <time>2021-03-07T04:40:46Z</time>
      </trkpt>
      <trkpt lat="47.09446" lon="-1.96225">
        <ele>17</ele>
        <time>2021-03-07T04:40:52Z</time>
      </trkpt>
      <trkpt lat="47.09525" lon="-1.96225">
        <ele>17</ele>
        <time>2021-03-07T04:41:06Z</time>
      </trkpt>
      <trkpt lat="47.09547" lon="-1.96223">
        <ele>18</ele>
        <time>2021-03-07T04:41:10Z</time>
      </trkpt>
      <trkpt lat="47.09567" lon="-1.96217">
        <ele>18</ele>
        <time>2021-03-07T04:41:14Z</time>
      </trkpt>
      <trkpt lat="47.09683" lon="-1.96162">
        <ele>19</ele>
        <time>2021-03-07T04:41:36Z</time>
      </trkpt>
      <trkpt lat="47.09746" lon="-1.96129">
        <ele>18</ele>
        <time>2021-03-07T04:41:47Z</time>
      </trkpt>
      <trkpt lat="47.10004" lon="-1.95954">
        <ele>12</ele>
        <time>2021-03-07T04:42:38Z</time>
      </trkpt>
      <trkpt lat="47.10215" lon="-1.95794">
        <ele>17</ele>
        <time>2021-03-07T04:43:20Z</time>
      </trkpt>
      <trkpt lat="47.10255" lon="-1.95771">
        <ele>17</ele>
        <time>2021-03-07T04:43:28Z</time>
      </trkpt>
      <trkpt lat="47.10607" lon="-1.95601">
        <ele>16</ele>
        <time>2021-03-07T04:44:34Z</time>
      </trkpt>
      <trkpt lat="47.10627" lon="-1.95581">
        <ele>17</ele>
        <time>2021-03-07T04:44:38Z</time>
      </trkpt>
      <trkpt lat="47.107" lon="-1.95501">
        <ele>16</ele>
        <time>2021-03-07T04:44:54Z</time>
      </trkpt>
      <trkpt lat="47.10733" lon="-1.95461">
        <ele>15</ele>
        <time>2021-03-07T04:45:02Z</time>
      </trkpt>
      <trkpt lat="47.10899" lon="-1.95183">
        <ele>12</ele>
        <time>2021-03-07T04:45:47Z</time>
      </trkpt>
      <trkpt lat="47.10976" lon="-1.95051">
        <ele>13</ele>
        <time>2021-03-07T04:46:08Z</time>
      </trkpt>
      <trkpt lat="47.11002" lon="-1.95013">
        <ele>13</ele>
        <time>2021-03-07T04:46:14Z</time>
      </trkpt>
      <trkpt lat="47.11061" lon="-1.94949">
        <ele>13</ele>
        <time>2021-03-07T04:46:27Z</time>
      </trkpt>
      <trkpt lat="47.11076" lon="-1.94929">
        <ele>13</ele>
        <time>2021-03-07T04:46:31Z</time>
      </trkpt>
      <trkpt lat="47.11094" lon="-1.94894">
        <ele>14</ele>
        <time>2021-03-07T04:46:36Z</time>
      </trkpt>
      <trkpt lat="47.11121" lon="-1.94825">
        <ele>15</ele>
        <time>2021-03-07T04:46:46Z</time>
      </trkpt>
      <trkpt lat="47.11131" lon="-1.94807">
        <ele>15</ele>
        <time>2021-03-07T04:46:49Z</time>
      </trkpt>
      <trkpt lat="47.11161" lon="-1.94763">
        <ele>15</ele>
        <time>2021-03-07T04:46:56Z</time>
      </trkpt>
      <trkpt lat="47.11211" lon="-1.9468">
        <ele>17</ele>
        <time>2021-03-07T04:47:10Z</time>
      </trkpt>
      <trkpt lat="47.11255" lon="-1.94534">
        <ele>18</ele>
        <time>2021-03-07T04:47:29Z</time>
      </trkpt>
      <trkpt lat="47.11293" lon="-1.94444">
        <ele>14</ele>
        <time>2021-03-07T04:47:42Z</time>
      </trkpt>
      <trkpt lat="47.11321" lon="-1.94363">
        <ele>13</ele>
        <time>2021-03-07T04:47:53Z</time>
      </trkpt>
      <trkpt lat="47.11335" lon="-1.9434">
        <ele>12</ele>
        <time>2021-03-07T04:47:57Z</time>
      </trkpt>
      <trkpt lat="47.11353" lon="-1.94325">
        <ele>12</ele>
        <time>2021-03-07T04:48:00Z</time>
      </trkpt>
      <trkpt lat="47.11483" lon="-1.94288">
        <ele>12</ele>
        <time>2021-03-07T04:48:24Z</time>
      </trkpt>
      <trkpt lat="47.11516" lon="-1.94275">
        <ele>12</ele>
        <time>2021-03-07T04:48:30Z</time>
      </trkpt>
      <trkpt lat="47.11535" lon="-1.94263">
        <ele>12</ele>
        <time>2021-03-07T04:48:34Z</time>
      </trkpt>
      <trkpt lat="47.11561" lon="-1.94238">
        <ele>12</ele>
        <time>2021-03-07T04:48:39Z</time>
      </trkpt>
      <trkpt lat="47.11607" lon="-1.94183">
        <ele>11</ele>
        <time>2021-03-07T04:48:50Z</time>
      </trkpt>
      <trkpt lat="47.11586" lon="-1.94134">
        <ele>12</ele>
        <time>2021-03-07T04:48:57Z</time>
      </trkpt>
      <trkpt lat="47.11581" lon="-1.94118">
        <ele>12</ele>
        <time>2021-03-07T04:48:59Z</time>
      </trkpt>
      <trkpt lat="47.11566" lon="-1.94087">
        <ele>12</ele>
        <time>2021-03-07T04:49:03Z</time>
      </trkpt>
      <trkpt lat="47.11515" lon="-1.93996">
        <ele>12</ele>
        <time>2021-03-07T04:49:18Z</time>
      </trkpt>
      <trkpt lat="47.11476" lon="-1.93946">
        <ele>13</ele>
        <time>2021-03-07T04:49:27Z</time>
      </trkpt>
      <trkpt lat="47.11464" lon="-1.93922">
        <ele>13</ele>
        <time>2021-03-07T04:49:30Z</time>
      </trkpt>
      <trkpt lat="47.11424" lon="-1.93863">
        <ele>13</ele>
        <time>2021-03-07T04:49:41Z</time>
      </trkpt>
      <trkpt lat="47.11463" lon="-1.93784">
        <ele>13</ele>
        <time>2021-03-07T04:49:52Z</time>
      </trkpt>
      <trkpt lat="47.11487" lon="-1.93732">
        <ele>14</ele>
        <time>2021-03-07T04:50:00Z</time>
      </trkpt>
      <trkpt lat="47.115" lon="-1.93708">
        <ele>15</ele>
        <time>2021-03-07T04:50:04Z</time>
      </trkpt>
      <trkpt lat="47.11519" lon="-1.93671">
        <ele>15</ele>
        <time>2021-03-07T04:50:09Z</time>
      </trkpt>
      <trkpt lat="47.11542" lon="-1.93621">
        <ele>15</ele>
        <time>2021-03-07T04:50:17Z</time>
      </trkpt>
      <trkpt lat="47.11559" lon="-1.93576">
        <ele>15</ele>
        <time>2021-03-07T04:50:23Z</time>
      </trkpt>
      <trkpt lat="47.11581" lon="-1.93502">
        <ele>15</ele>
        <time>2021-03-07T04:50:33Z</time>
      </trkpt>
      <trkpt lat="47.11631" lon="-1.9334">
        <ele>14</ele>
        <time>2021-03-07T04:50:54Z</time>
      </trkpt>
      <trkpt lat="47.11695" lon="-1.93133">
        <ele>14</ele>
        <time>2021-03-07T04:51:22Z</time>
      </trkpt>
      <trkpt lat="47.11703" lon="-1.93104">
        <ele>14</ele>
        <time>2021-03-07T04:51:26Z</time>
      </trkpt>
      <trkpt lat="47.1173" lon="-1.93018">
        <ele>13</ele>
        <time>2021-03-07T04:51:37Z</time>
      </trkpt>
      <trkpt lat="47.11735" lon="-1.93001">
        <ele>13</ele>
        <time>2021-03-07T04:51:39Z</time>
      </trkpt>
      <trkpt lat="47.11741" lon="-1.92982">
        <ele>12</ele>
        <time>2021-03-07T04:51:42Z</time>
      </trkpt>
      <trkpt lat="47.11749" lon="-1.92956">
        <ele>12</ele>
        <time>2021-03-07T04:51:45Z</time>
      </trkpt>
      <trkpt lat="47.11789" lon="-1.92824">
        <ele>11</ele>
        <time>2021-03-07T04:52:03Z</time>
      </trkpt>
      <trkpt lat="47.1187" lon="-1.92561">
        <ele>10</ele>
        <time>2021-03-07T04:52:38Z</time>
      </trkpt>
      <trkpt lat="47.1191" lon="-1.92429">
        <ele>11</ele>
        <time>2021-03-07T04:52:55Z</time>
      </trkpt>
      <trkpt lat="47.11951" lon="-1.92298">
        <ele>12</ele>
        <time>2021-03-07T04:53:13Z</time>
      </trkpt>
      <trkpt lat="47.11977" lon="-1.92214">
        <ele>12</ele>
        <time>2021-03-07T04:53:24Z</time>
      </trkpt>
      <trkpt lat="47.11979" lon="-1.92205">
        <ele>12</ele>
        <time>2021-03-07T04:53:25Z</time>
      </trkpt>
      <trkpt lat="47.11979" lon="-1.92202">
        <ele>12</ele>
        <time>2021-03-07T04:53:25Z</time>
      </trkpt>
      <trkpt lat="47.11977" lon="-1.92201">
        <ele>12</ele>
        <time>2021-03-07T04:53:26Z</time>
      </trkpt>
      <trkpt lat="47.11975" lon="-1.92197">
        <ele>12</ele>
        <time>2021-03-07T04:53:26Z</time>
      </trkpt>
      <trkpt lat="47.11974" lon="-1.92194">
        <ele>12</ele>
        <time>2021-03-07T04:53:27Z</time>
      </trkpt>
      <trkpt lat="47.11974" lon="-1.92192">
        <ele>12</ele>
        <time>2021-03-07T04:53:27Z</time>
      </trkpt>
      <trkpt lat="47.11976" lon="-1.92187">
        <ele>12</ele>
        <time>2021-03-07T04:53:28Z</time>
      </trkpt>
      <trkpt lat="47.11978" lon="-1.92186">
        <ele>12</ele>
        <time>2021-03-07T04:53:28Z</time>
      </trkpt>
      <trkpt lat="47.1198" lon="-1.92186">
        <ele>12</ele>
        <time>2021-03-07T04:53:28Z</time>
      </trkpt>
      <trkpt lat="47.11981" lon="-1.92186">
        <ele>12</ele>
        <time>2021-03-07T04:53:29Z</time>
      </trkpt>
      <trkpt lat="47.11983" lon="-1.92187">
        <ele>12</ele>
        <time>2021-03-07T04:53:29Z</time>
      </trkpt>
      <trkpt lat="47.11991" lon="-1.9217">
        <ele>11</ele>
        <time>2021-03-07T04:53:31Z</time>
      </trkpt>
      <trkpt lat="47.1199" lon="-1.92168">
        <ele>11</ele>
        <time>2021-03-07T04:53:32Z</time>
      </trkpt>
      <trkpt lat="47.11989" lon="-1.92161">
        <ele>12</ele>
        <time>2021-03-07T04:53:33Z</time>
      </trkpt>
      <trkpt lat="47.11991" lon="-1.92157">
        <ele>12</ele>
        <time>2021-03-07T04:53:33Z</time>
      </trkpt>
      <trkpt lat="47.11994" lon="-1.92155">
        <ele>11</ele>
        <time>2021-03-07T04:53:34Z</time>
      </trkpt>
      <trkpt lat="47.11995" lon="-1.92155">
        <ele>11</ele>
        <time>2021-03-07T04:53:34Z</time>
      </trkpt>
      <trkpt lat="47.11996" lon="-1.92153">
        <ele>11</ele>
        <time>2021-03-07T04:53:34Z</time>
      </trkpt>
      <trkpt lat="47.12003" lon="-1.92125">
        <ele>12</ele>
        <time>2021-03-07T04:53:38Z</time>
      </trkpt>
      <trkpt lat="47.12035" lon="-1.92026">
        <ele>13</ele>
        <time>2021-03-07T04:53:51Z</time>
      </trkpt>
      <trkpt lat="47.12086" lon="-1.9188">
        <ele>13</ele>
        <time>2021-03-07T04:54:11Z</time>
      </trkpt>
      <trkpt lat="47.12096" lon="-1.91854">
        <ele>13</ele>
        <time>2021-03-07T04:54:15Z</time>
      </trkpt>
      <trkpt lat="47.121" lon="-1.91845">
        <ele>13</ele>
        <time>2021-03-07T04:54:16Z</time>
      </trkpt>
      <trkpt lat="47.12105" lon="-1.91832">
        <ele>12</ele>
        <time>2021-03-07T04:54:18Z</time>
      </trkpt>
      <trkpt lat="47.12119" lon="-1.91795">
        <ele>12</ele>
        <time>2021-03-07T04:54:23Z</time>
      </trkpt>
      <trkpt lat="47.1218" lon="-1.91614">
        <ele>11</ele>
        <time>2021-03-07T04:54:47Z</time>
      </trkpt>
      <trkpt lat="47.12183" lon="-1.91605">
        <ele>11</ele>
        <time>2021-03-07T04:54:49Z</time>
      </trkpt>
      <trkpt lat="47.12187" lon="-1.91596">
        <ele>11</ele>
        <time>2021-03-07T04:54:50Z</time>
      </trkpt>
      <trkpt lat="47.12205" lon="-1.91553">
        <ele>11</ele>
        <time>2021-03-07T04:54:56Z</time>
      </trkpt>
      <trkpt lat="47.1221" lon="-1.91538">
        <ele>11</ele>
        <time>2021-03-07T04:54:58Z</time>
      </trkpt>
      <trkpt lat="47.12214" lon="-1.91526">
        <ele>11</ele>
        <time>2021-03-07T04:55:00Z</time>
      </trkpt>
      <trkpt lat="47.12219" lon="-1.91508">
        <ele>11</ele>
        <time>2021-03-07T04:55:02Z</time>
      </trkpt>
      <trkpt lat="47.1222" lon="-1.91503">
        <ele>11</ele>
        <time>2021-03-07T04:55:03Z</time>
      </trkpt>
      <trkpt lat="47.12221" lon="-1.91497">
        <ele>11</ele>
        <time>2021-03-07T04:55:03Z</time>
      </trkpt>
      <trkpt lat="47.1222" lon="-1.91454">
        <ele>11</ele>
        <time>2021-03-07T04:55:09Z</time>
      </trkpt>
      <trkpt lat="47.12222" lon="-1.91441">
        <ele>11</ele>
        <time>2021-03-07T04:55:10Z</time>
      </trkpt>
      <trkpt lat="47.12227" lon="-1.91425">
        <ele>10</ele>
        <time>2021-03-07T04:55:12Z</time>
      </trkpt>
      <trkpt lat="47.12229" lon="-1.91422">
        <ele>10</ele>
        <time>2021-03-07T04:55:13Z</time>
      </trkpt>
      <trkpt lat="47.12227" lon="-1.91421">
        <ele>10</ele>
        <time>2021-03-07T04:55:13Z</time>
      </trkpt>
      <trkpt lat="47.12226" lon="-1.91413">
        <ele>10</ele>
        <time>2021-03-07T04:55:14Z</time>
      </trkpt>
      <trkpt lat="47.12227" lon="-1.91411">
        <ele>10</ele>
        <time>2021-03-07T04:55:14Z</time>
      </trkpt>
      <trkpt lat="47.12222" lon="-1.91406">
        <ele>10</ele>
        <time>2021-03-07T04:55:15Z</time>
      </trkpt>
      <trkpt lat="47.12201" lon="-1.91383">
        <ele>10</ele>
        <time>2021-03-07T04:55:20Z</time>
      </trkpt>
      <trkpt lat="47.12192" lon="-1.91373">
        <ele>10</ele>
        <time>2021-03-07T04:55:22Z</time>
      </trkpt>
      <trkpt lat="47.12182" lon="-1.9136">
        <ele>9</ele>
        <time>2021-03-07T04:55:25Z</time>
      </trkpt>
      <trkpt lat="47.12171" lon="-1.91346">
        <ele>9</ele>
        <time>2021-03-07T04:55:27Z</time>
      </trkpt>
      <trkpt lat="47.12139" lon="-1.91306">
        <ele>10</ele>
        <time>2021-03-07T04:55:35Z</time>
      </trkpt>
      <trkpt lat="47.1213" lon="-1.91293">
        <ele>10</ele>
        <time>2021-03-07T04:55:37Z</time>
      </trkpt>
      <trkpt lat="47.12119" lon="-1.91279">
        <ele>10</ele>
        <time>2021-03-07T04:55:39Z</time>
      </trkpt>
      <trkpt lat="47.12112" lon="-1.91271">
        <ele>10</ele>
        <time>2021-03-07T04:55:41Z</time>
      </trkpt>
      <trkpt lat="47.12087" lon="-1.91243">
        <ele>11</ele>
        <time>2021-03-07T04:55:47Z</time>
      </trkpt>
      <trkpt lat="47.12047" lon="-1.91207">
        <ele>10</ele>
        <time>2021-03-07T04:55:55Z</time>
      </trkpt>
      <trkpt lat="47.12042" lon="-1.91201">
        <ele>9</ele>
        <time>2021-03-07T04:55:56Z</time>
      </trkpt>
      <trkpt lat="47.12033" lon="-1.91193">
        <ele>9</ele>
        <time>2021-03-07T04:55:58Z</time>
      </trkpt>
      <trkpt lat="47.12014" lon="-1.91166">
        <ele>8</ele>
        <time>2021-03-07T04:56:03Z</time>
      </trkpt>
      <trkpt lat="47.11946" lon="-1.91039">
        <ele>7</ele>
        <time>2021-03-07T04:56:22Z</time>
      </trkpt>
      <trkpt lat="47.1193" lon="-1.91007">
        <ele>7</ele>
        <time>2021-03-07T04:56:27Z</time>
      </trkpt>
      <trkpt lat="47.11919" lon="-1.90985">
        <ele>7</ele>
        <time>2021-03-07T04:56:30Z</time>
      </trkpt>
      <trkpt lat="47.11911" lon="-1.9097">
        <ele>7</ele>
        <time>2021-03-07T04:56:33Z</time>
      </trkpt>
      <trkpt lat="47.11832" lon="-1.9082">
        <ele>9</ele>
        <time>2021-03-07T04:56:56Z</time>
      </trkpt>
      <trkpt lat="47.11753" lon="-1.90668">
        <ele>8</ele>
        <time>2021-03-07T04:57:19Z</time>
      </trkpt>
      <trkpt lat="47.1174" lon="-1.90642">
        <ele>8</ele>
        <time>2021-03-07T04:57:23Z</time>
      </trkpt>
      <trkpt lat="47.11723" lon="-1.90608">
        <ele>8</ele>
        <time>2021-03-07T04:57:28Z</time>
      </trkpt>
      <trkpt lat="47.11701" lon="-1.90561">
        <ele>7</ele>
        <time>2021-03-07T04:57:35Z</time>
      </trkpt>
      <trkpt lat="47.11691" lon="-1.90531">
        <ele>8</ele>
        <time>2021-03-07T04:57:39Z</time>
      </trkpt>
      <trkpt lat="47.11518" lon="-1.89981">
        <ele>7</ele>
        <time>2021-03-07T04:58:52Z</time>
      </trkpt>
      <trkpt lat="47.11508" lon="-1.89952">
        <ele>8</ele>
        <time>2021-03-07T04:58:56Z</time>
      </trkpt>
      <trkpt lat="47.11491" lon="-1.89922">
        <ele>9</ele>
        <time>2021-03-07T04:59:01Z</time>
      </trkpt>
      <trkpt lat="47.11473" lon="-1.89897">
        <ele>9</ele>
        <time>2021-03-07T04:59:05Z</time>
      </trkpt>
      <trkpt lat="47.11419" lon="-1.89827">
        <ele>9</ele>
        <time>2021-03-07T04:59:18Z</time>
      </trkpt>
      <trkpt lat="47.11134" lon="-1.89459">
        <ele>12</ele>
        <time>2021-03-07T05:00:26Z</time>
      </trkpt>
      <trkpt lat="47.11113" lon="-1.89431">
        <ele>13</ele>
        <time>2021-03-07T05:00:31Z</time>
      </trkpt>
      <trkpt lat="47.11107" lon="-1.89423">
        <ele>13</ele>
        <time>2021-03-07T05:00:32Z</time>
      </trkpt>
      <trkpt lat="47.11098" lon="-1.89408">
        <ele>13</ele>
        <time>2021-03-07T05:00:34Z</time>
      </trkpt>
      <trkpt lat="47.11079" lon="-1.89377">
        <ele>13</ele>
        <time>2021-03-07T05:00:39Z</time>
      </trkpt>
      <trkpt lat="47.11063" lon="-1.89338">
        <ele>14</ele>
        <time>2021-03-07T05:00:45Z</time>
      </trkpt>
      <trkpt lat="47.10911" lon="-1.88833">
        <ele>12</ele>
        <time>2021-03-07T05:01:52Z</time>
      </trkpt>
      <trkpt lat="47.10852" lon="-1.88694">
        <ele>9</ele>
        <time>2021-03-07T05:02:12Z</time>
      </trkpt>
      <trkpt lat="47.10831" lon="-1.88643">
        <ele>8</ele>
        <time>2021-03-07T05:02:19Z</time>
      </trkpt>
      <trkpt lat="47.10816" lon="-1.88608">
        <ele>8</ele>
        <time>2021-03-07T05:02:24Z</time>
      </trkpt>
      <trkpt lat="47.10809" lon="-1.8859">
        <ele>8</ele>
        <time>2021-03-07T05:02:26Z</time>
      </trkpt>
      <trkpt lat="47.10792" lon="-1.88553">
        <ele>8</ele>
        <time>2021-03-07T05:02:32Z</time>
      </trkpt>
      <trkpt lat="47.10759" lon="-1.88465">
        <ele>9</ele>
        <time>2021-03-07T05:02:44Z</time>
      </trkpt>
      <trkpt lat="47.10732" lon="-1.8835">
        <ele>9</ele>
        <time>2021-03-07T05:02:59Z</time>
      </trkpt>
      <trkpt lat="47.1071" lon="-1.88152">
        <ele>10</ele>
        <time>2021-03-07T05:03:23Z</time>
      </trkpt>
      <trkpt lat="47.10697" lon="-1.88003">
        <ele>11</ele>
        <time>2021-03-07T05:03:41Z</time>
      </trkpt>
      <trkpt lat="47.10693" lon="-1.87976">
        <ele>10</ele>
        <time>2021-03-07T05:03:45Z</time>
      </trkpt>
      <trkpt lat="47.10684" lon="-1.8793">
        <ele>9</ele>
        <time>2021-03-07T05:03:50Z</time>
      </trkpt>
      <trkpt lat="47.10623" lon="-1.87761">
        <ele>10</ele>
        <time>2021-03-07T05:04:14Z</time>
      </trkpt>
      <trkpt lat="47.10585" lon="-1.87654">
        <ele>11</ele>
        <time>2021-03-07T05:04:28Z</time>
      </trkpt>
      <trkpt lat="47.10579" lon="-1.87633">
        <ele>11</ele>
        <time>2021-03-07T05:04:31Z</time>
      </trkpt>
      <trkpt lat="47.10575" lon="-1.87618">
        <ele>12</ele>
        <time>2021-03-07T05:04:33Z</time>
      </trkpt>
      <trkpt lat="47.10571" lon="-1.876">
        <ele>12</ele>
        <time>2021-03-07T05:04:35Z</time>
      </trkpt>
      <trkpt lat="47.10565" lon="-1.87568">
        <ele>12</ele>
        <time>2021-03-07T05:04:39Z</time>
      </trkpt>
      <trkpt lat="47.10562" lon="-1.87551">
        <ele>12</ele>
        <time>2021-03-07T05:04:41Z</time>
      </trkpt>
      <trkpt lat="47.10529" lon="-1.87385">
        <ele>13</ele>
        <time>2021-03-07T05:05:02Z</time>
      </trkpt>
      <trkpt lat="47.10525" lon="-1.8736">
        <ele>13</ele>
        <time>2021-03-07T05:05:05Z</time>
      </trkpt>
      <trkpt lat="47.10522" lon="-1.87346">
        <ele>13</ele>
        <time>2021-03-07T05:05:07Z</time>
      </trkpt>
      <trkpt lat="47.10519" lon="-1.87331">
        <ele>13</ele>
        <time>2021-03-07T05:05:09Z</time>
      </trkpt>
      <trkpt lat="47.10512" lon="-1.87306">
        <ele>14</ele>
        <time>2021-03-07T05:05:12Z</time>
      </trkpt>
      <trkpt lat="47.10491" lon="-1.87234">
        <ele>15</ele>
        <time>2021-03-07T05:05:22Z</time>
      </trkpt>
      <trkpt lat="47.10488" lon="-1.87235">
        <ele>15</ele>
        <time>2021-03-07T05:05:22Z</time>
      </trkpt>
      <trkpt lat="47.10482" lon="-1.87233">
        <ele>15</ele>
        <time>2021-03-07T05:05:23Z</time>
      </trkpt>
      <trkpt lat="47.10478" lon="-1.87226">
        <ele>15</ele>
        <time>2021-03-07T05:05:25Z</time>
      </trkpt>
      <trkpt lat="47.10478" lon="-1.87221">
        <ele>15</ele>
        <time>2021-03-07T05:05:25Z</time>
      </trkpt>
      <trkpt lat="47.10481" lon="-1.87213">
        <ele>15</ele>
        <time>2021-03-07T05:05:26Z</time>
      </trkpt>
      <trkpt lat="47.10484" lon="-1.87211">
        <ele>15</ele>
        <time>2021-03-07T05:05:27Z</time>
      </trkpt>
      <trkpt lat="47.10467" lon="-1.87146">
        <ele>15</ele>
        <time>2021-03-07T05:05:35Z</time>
      </trkpt>
      <trkpt lat="47.10453" lon="-1.87075">
        <ele>15</ele>
        <time>2021-03-07T05:05:44Z</time>
      </trkpt>
      <trkpt lat="47.10444" lon="-1.87032">
        <ele>16</ele>
        <time>2021-03-07T05:05:50Z</time>
      </trkpt>
      <trkpt lat="47.10435" lon="-1.86987">
        <ele>16</ele>
        <time>2021-03-07T05:05:55Z</time>
      </trkpt>
      <trkpt lat="47.10432" lon="-1.8697">
        <ele>16</ele>
        <time>2021-03-07T05:05:57Z</time>
      </trkpt>
      <trkpt lat="47.10417" lon="-1.86898">
        <ele>15</ele>
        <time>2021-03-07T05:06:07Z</time>
      </trkpt>
      <trkpt lat="47.10412" lon="-1.86872">
        <ele>15</ele>
        <time>2021-03-07T05:06:10Z</time>
      </trkpt>
      <trkpt lat="47.10391" lon="-1.86764">
        <ele>16</ele>
        <time>2021-03-07T05:06:23Z</time>
      </trkpt>
      <trkpt lat="47.10387" lon="-1.86742">
        <ele>16</ele>
        <time>2021-03-07T05:06:26Z</time>
      </trkpt>
      <trkpt lat="47.10377" lon="-1.86688">
        <ele>16</ele>
        <time>2021-03-07T05:06:33Z</time>
      </trkpt>
      <trkpt lat="47.10376" lon="-1.86678">
        <ele>16</ele>
        <time>2021-03-07T05:06:34Z</time>
      </trkpt>
      <trkpt lat="47.10377" lon="-1.86667">
        <ele>17</ele>
        <time>2021-03-07T05:06:36Z</time>
      </trkpt>
      <trkpt lat="47.10374" lon="-1.86664">
        <ele>16</ele>
        <time>2021-03-07T05:06:36Z</time>
      </trkpt>
      <trkpt lat="47.1037" lon="-1.86652">
        <ele>16</ele>
        <time>2021-03-07T05:06:38Z</time>
      </trkpt>
      <trkpt lat="47.10368" lon="-1.86627">
        <ele>16</ele>
        <time>2021-03-07T05:06:41Z</time>
      </trkpt>
      <trkpt lat="47.1037" lon="-1.8662">
        <ele>16</ele>
        <time>2021-03-07T05:06:42Z</time>
      </trkpt>
      <trkpt lat="47.10374" lon="-1.86617">
        <ele>16</ele>
        <time>2021-03-07T05:06:43Z</time>
      </trkpt>
      <trkpt lat="47.10363" lon="-1.86555">
        <ele>15</ele>
        <time>2021-03-07T05:06:50Z</time>
      </trkpt>
      <trkpt lat="47.10345" lon="-1.86506">
        <ele>15</ele>
        <time>2021-03-07T05:06:57Z</time>
      </trkpt>
      <trkpt lat="47.10315" lon="-1.86441">
        <ele>14</ele>
        <time>2021-03-07T05:07:07Z</time>
      </trkpt>
      <trkpt lat="47.1031" lon="-1.86427">
        <ele>14</ele>
        <time>2021-03-07T05:07:09Z</time>
      </trkpt>
      <trkpt lat="47.10307" lon="-1.86411">
        <ele>14</ele>
        <time>2021-03-07T05:07:11Z</time>
      </trkpt>
      <trkpt lat="47.10303" lon="-1.8637">
        <ele>13</ele>
        <time>2021-03-07T05:07:16Z</time>
      </trkpt>
      <trkpt lat="47.10297" lon="-1.86332">
        <ele>13</ele>
        <time>2021-03-07T05:07:20Z</time>
      </trkpt>
      <trkpt lat="47.10283" lon="-1.86283">
        <ele>14</ele>
        <time>2021-03-07T05:07:27Z</time>
      </trkpt>
      <trkpt lat="47.10229" lon="-1.86145">
        <ele>15</ele>
        <time>2021-03-07T05:07:46Z</time>
      </trkpt>
      <trkpt lat="47.10225" lon="-1.86135">
        <ele>15</ele>
        <time>2021-03-07T05:07:47Z</time>
      </trkpt>
      <trkpt lat="47.10161" lon="-1.85961">
        <ele>16</ele>
        <time>2021-03-07T05:08:11Z</time>
      </trkpt>
      <trkpt lat="47.10142" lon="-1.85917">
        <ele>17</ele>
        <time>2021-03-07T05:08:18Z</time>
      </trkpt>
      <trkpt lat="47.10138" lon="-1.85908">
        <ele>17</ele>
        <time>2021-03-07T05:08:19Z</time>
      </trkpt>
      <trkpt lat="47.1011" lon="-1.85846">
        <ele>17</ele>
        <time>2021-03-07T05:08:28Z</time>
      </trkpt>
      <trkpt lat="47.10106" lon="-1.85839">
        <ele>17</ele>
        <time>2021-03-07T05:08:29Z</time>
      </trkpt>
      <trkpt lat="47.10105" lon="-1.85843">
        <ele>17</ele>
        <time>2021-03-07T05:08:30Z</time>
      </trkpt>
      <trkpt lat="47.10103" lon="-1.85846">
        <ele>17</ele>
        <time>2021-03-07T05:08:30Z</time>
      </trkpt>
      <trkpt lat="47.10097" lon="-1.85848">
        <ele>17</ele>
        <time>2021-03-07T05:08:31Z</time>
      </trkpt>
      <trkpt lat="47.10092" lon="-1.85842">
        <ele>17</ele>
        <time>2021-03-07T05:08:32Z</time>
      </trkpt>
      <trkpt lat="47.10092" lon="-1.85836">
        <ele>17</ele>
        <time>2021-03-07T05:08:33Z</time>
      </trkpt>
      <trkpt lat="47.10094" lon="-1.8583">
        <ele>17</ele>
        <time>2021-03-07T05:08:34Z</time>
      </trkpt>
      <trkpt lat="47.10101" lon="-1.85828">
        <ele>17</ele>
        <time>2021-03-07T05:08:35Z</time>
      </trkpt>
      <trkpt lat="47.10104" lon="-1.8583">
        <ele>17</ele>
        <time>2021-03-07T05:08:36Z</time>
      </trkpt>
      <trkpt lat="47.10096" lon="-1.85792">
        <ele>17</ele>
        <time>2021-03-07T05:08:41Z</time>
      </trkpt>
      <trkpt lat="47.1009" lon="-1.85752">
        <ele>16</ele>
        <time>2021-03-07T05:08:46Z</time>
      </trkpt>
      <trkpt lat="47.10087" lon="-1.85696">
        <ele>16</ele>
        <time>2021-03-07T05:08:52Z</time>
      </trkpt>
      <trkpt lat="47.10077" lon="-1.85593">
        <ele>15</ele>
        <time>2021-03-07T05:09:05Z</time>
      </trkpt>
      <trkpt lat="47.10066" lon="-1.85551">
        <ele>14</ele>
        <time>2021-03-07T05:09:10Z</time>
      </trkpt>
      <trkpt lat="47.1004" lon="-1.85509">
        <ele>13</ele>
        <time>2021-03-07T05:09:17Z</time>
      </trkpt>
      <trkpt lat="47.09976" lon="-1.85423">
        <ele>11</ele>
        <time>2021-03-07T05:09:33Z</time>
      </trkpt>
      <trkpt lat="47.0995" lon="-1.85382">
        <ele>10</ele>
        <time>2021-03-07T05:09:39Z</time>
      </trkpt>
      <trkpt lat="47.09935" lon="-1.85345">
        <ele>10</ele>
        <time>2021-03-07T05:09:45Z</time>
      </trkpt>
      <trkpt lat="47.09931" lon="-1.85326">
        <ele>10</ele>
        <time>2021-03-07T05:09:47Z</time>
      </trkpt>
      <trkpt lat="47.09927" lon="-1.85242">
        <ele>13</ele>
        <time>2021-03-07T05:09:57Z</time>
      </trkpt>
      <trkpt lat="47.09917" lon="-1.85156">
        <ele>15</ele>
        <time>2021-03-07T05:10:08Z</time>
      </trkpt>
      <trkpt lat="47.09916" lon="-1.85129">
        <ele>15</ele>
        <time>2021-03-07T05:10:11Z</time>
      </trkpt>
      <trkpt lat="47.09921" lon="-1.84989">
        <ele>14</ele>
        <time>2021-03-07T05:10:28Z</time>
      </trkpt>
      <trkpt lat="47.09921" lon="-1.84947">
        <ele>15</ele>
        <time>2021-03-07T05:10:33Z</time>
      </trkpt>
      <trkpt lat="47.09919" lon="-1.84879">
        <ele>16</ele>
        <time>2021-03-07T05:10:41Z</time>
      </trkpt>
      <trkpt lat="47.09912" lon="-1.84718">
        <ele>18</ele>
        <time>2021-03-07T05:11:01Z</time>
      </trkpt>
      <trkpt lat="47.09903" lon="-1.8459">
        <ele>20</ele>
        <time>2021-03-07T05:11:17Z</time>
      </trkpt>
      <trkpt lat="47.09887" lon="-1.84441">
        <ele>19</ele>
        <time>2021-03-07T05:11:35Z</time>
      </trkpt>
      <trkpt lat="47.09889" lon="-1.84291">
        <ele>19</ele>
        <time>2021-03-07T05:11:53Z</time>
      </trkpt>
      <trkpt lat="47.09886" lon="-1.84218">
        <ele>18</ele>
        <time>2021-03-07T05:12:02Z</time>
      </trkpt>
      <trkpt lat="47.09869" lon="-1.84116">
        <ele>17</ele>
        <time>2021-03-07T05:12:15Z</time>
      </trkpt>
      <trkpt lat="47.0986" lon="-1.84074">
        <ele>17</ele>
        <time>2021-03-07T05:12:20Z</time>
      </trkpt>
      <trkpt lat="47.09854" lon="-1.84024">
        <ele>16</ele>
        <time>2021-03-07T05:12:26Z</time>
      </trkpt>
      <trkpt lat="47.0985" lon="-1.83984">
        <ele>15</ele>
        <time>2021-03-07T05:12:31Z</time>
      </trkpt>
      <trkpt lat="47.0985" lon="-1.83949">
        <ele>14</ele>
        <time>2021-03-07T05:12:35Z</time>
      </trkpt>
      <trkpt lat="47.09857" lon="-1.83839">
        <ele>16</ele>
        <time>2021-03-07T05:12:49Z</time>
      </trkpt>
      <trkpt lat="47.09858" lon="-1.83792">
        <ele>15</ele>
        <time>2021-03-07T05:12:54Z</time>
      </trkpt>
      <trkpt lat="47.09862" lon="-1.83647">
        <ele>13</ele>
        <time>2021-03-07T05:13:12Z</time>
      </trkpt>
      <trkpt lat="47.0985" lon="-1.8349">
        <ele>13</ele>
        <time>2021-03-07T05:13:31Z</time>
      </trkpt>
      <trkpt lat="47.09854" lon="-1.83444">
        <ele>14</ele>
        <time>2021-03-07T05:13:37Z</time>
      </trkpt>
      <trkpt lat="47.09873" lon="-1.83335">
        <ele>15</ele>
        <time>2021-03-07T05:13:50Z</time>
      </trkpt>
      <trkpt lat="47.09875" lon="-1.83323">
        <ele>15</ele>
        <time>2021-03-07T05:13:52Z</time>
      </trkpt>
      <trkpt lat="47.09881" lon="-1.83279">
        <ele>15</ele>
        <time>2021-03-07T05:13:57Z</time>
      </trkpt>
      <trkpt lat="47.09882" lon="-1.83239">
        <ele>15</ele>
        <time>2021-03-07T05:14:02Z</time>
      </trkpt>
      <trkpt lat="47.09878" lon="-1.8318">
        <ele>15</ele>
        <time>2021-03-07T05:14:09Z</time>
      </trkpt>
      <trkpt lat="47.0987" lon="-1.83104">
        <ele>16</ele>
        <time>2021-03-07T05:14:19Z</time>
      </trkpt>
      <trkpt lat="47.09861" lon="-1.83016">
        <ele>18</ele>
        <time>2021-03-07T05:14:29Z</time>
      </trkpt>
      <trkpt lat="47.09857" lon="-1.82968">
        <ele>18</ele>
        <time>2021-03-07T05:14:35Z</time>
      </trkpt>
      <trkpt lat="47.09848" lon="-1.82873">
        <ele>19</ele>
        <time>2021-03-07T05:14:47Z</time>
      </trkpt>
      <trkpt lat="47.09848" lon="-1.8283">
        <ele>19</ele>
        <time>2021-03-07T05:14:52Z</time>
      </trkpt>
      <trkpt lat="47.09849" lon="-1.82788">
        <ele>19</ele>
        <time>2021-03-07T05:14:57Z</time>
      </trkpt>
      <trkpt lat="47.09847" lon="-1.8276">
        <ele>18</ele>
        <time>2021-03-07T05:15:00Z</time>
      </trkpt>
      <trkpt lat="47.09816" lon="-1.82612">
        <ele>18</ele>
        <time>2021-03-07T05:15:19Z</time>
      </trkpt>
      <trkpt lat="47.09808" lon="-1.82567">
        <ele>18</ele>
        <time>2021-03-07T05:15:25Z</time>
      </trkpt>
      <trkpt lat="47.09802" lon="-1.82514">
        <ele>19</ele>
        <time>2021-03-07T05:15:31Z</time>
      </trkpt>
      <trkpt lat="47.09791" lon="-1.82426">
        <ele>18</ele>
        <time>2021-03-07T05:15:42Z</time>
      </trkpt>
      <trkpt lat="47.09785" lon="-1.82389">
        <ele>18</ele>
        <time>2021-03-07T05:15:47Z</time>
      </trkpt>
      <trkpt lat="47.09775" lon="-1.82355">
        <ele>18</ele>
        <time>2021-03-07T05:15:51Z</time>
      </trkpt>
      <trkpt lat="47.09734" lon="-1.8225">
        <ele>19</ele>
        <time>2021-03-07T05:16:06Z</time>
      </trkpt>
      <trkpt lat="47.09694" lon="-1.82163">
        <ele>19</ele>
        <time>2021-03-07T05:16:19Z</time>
      </trkpt>
      <trkpt lat="47.0969" lon="-1.82153">
        <ele>19</ele>
        <time>2021-03-07T05:16:20Z</time>
      </trkpt>
      <trkpt lat="47.09746" lon="-1.81973">
        <ele>18</ele>
        <time>2021-03-07T05:16:44Z</time>
      </trkpt>
      <trkpt lat="47.09741" lon="-1.81972">
        <ele>18</ele>
        <time>2021-03-07T05:16:45Z</time>
      </trkpt>
      <trkpt lat="47.09661" lon="-1.8204">
        <ele>19</ele>
        <time>2021-03-07T05:17:01Z</time>
      </trkpt>
      <trkpt lat="47.09651" lon="-1.8204">
        <ele>19</ele>
        <time>2021-03-07T05:17:03Z</time>
      </trkpt>
      <trkpt lat="47.09642" lon="-1.82034">
        <ele>18</ele>
        <time>2021-03-07T05:17:05Z</time>
      </trkpt>
      <trkpt lat="47.09624" lon="-1.81992">
        <ele>18</ele>
        <time>2021-03-07T05:17:11Z</time>
      </trkpt>
      <trkpt lat="47.09606" lon="-1.81959">
        <ele>17</ele>
        <time>2021-03-07T05:17:16Z</time>
      </trkpt>
      <trkpt lat="47.09545" lon="-1.81856">
        <ele>17</ele>
        <time>2021-03-07T05:17:33Z</time>
      </trkpt>
      <trkpt lat="47.09521" lon="-1.8181">
        <ele>17</ele>
        <time>2021-03-07T05:17:40Z</time>
      </trkpt>
      <trkpt lat="47.09499" lon="-1.81749">
        <ele>17</ele>
        <time>2021-03-07T05:17:48Z</time>
      </trkpt>
      <trkpt lat="47.09483" lon="-1.81692">
        <ele>17</ele>
        <time>2021-03-07T05:17:55Z</time>
      </trkpt>
      <trkpt lat="47.09472" lon="-1.81644">
        <ele>17</ele>
        <time>2021-03-07T05:18:02Z</time>
      </trkpt>
      <trkpt lat="47.09463" lon="-1.81597">
        <ele>17</ele>
        <time>2021-03-07T05:18:08Z</time>
      </trkpt>
      <trkpt lat="47.09461" lon="-1.81584">
        <ele>17</ele>
        <time>2021-03-07T05:18:09Z</time>
      </trkpt>
      <trkpt lat="47.09445" lon="-1.81529">
        <ele>16</ele>
        <time>2021-03-07T05:18:16Z</time>
      </trkpt>
      <trkpt lat="47.09404" lon="-1.81406">
        <ele>14</ele>
        <time>2021-03-07T05:18:33Z</time>
      </trkpt>
      <trkpt lat="47.09388" lon="-1.81359">
        <ele>12</ele>
        <time>2021-03-07T05:18:39Z</time>
      </trkpt>
      <trkpt lat="47.09373" lon="-1.81328">
        <ele>11</ele>
        <time>2021-03-07T05:18:44Z</time>
      </trkpt>
      <trkpt lat="47.09358" lon="-1.81304">
        <ele>11</ele>
        <time>2021-03-07T05:18:48Z</time>
      </trkpt>
      <trkpt lat="47.09339" lon="-1.81275">
        <ele>11</ele>
        <time>2021-03-07T05:18:53Z</time>
      </trkpt>
      <trkpt lat="47.09327" lon="-1.81256">
        <ele>11</ele>
        <time>2021-03-07T05:18:56Z</time>
      </trkpt>
      <trkpt lat="47.09303" lon="-1.8122">
        <ele>11</ele>
        <time>2021-03-07T05:19:02Z</time>
      </trkpt>
      <trkpt lat="47.09224" lon="-1.81097">
        <ele>8</ele>
        <time>2021-03-07T05:19:22Z</time>
      </trkpt>
      <trkpt lat="47.09219" lon="-1.81091">
        <ele>8</ele>
        <time>2021-03-07T05:19:24Z</time>
      </trkpt>
      <trkpt lat="47.09183" lon="-1.81059">
        <ele>8</ele>
        <time>2021-03-07T05:19:31Z</time>
      </trkpt>
      <trkpt lat="47.09172" lon="-1.8105">
        <ele>9</ele>
        <time>2021-03-07T05:19:33Z</time>
      </trkpt>
      <trkpt lat="47.08949" lon="-1.80885">
        <ele>12</ele>
        <time>2021-03-07T05:20:18Z</time>
      </trkpt>
      <trkpt lat="47.08923" lon="-1.80859">
        <ele>13</ele>
        <time>2021-03-07T05:20:23Z</time>
      </trkpt>
      <trkpt lat="47.08905" lon="-1.80831">
        <ele>13</ele>
        <time>2021-03-07T05:20:28Z</time>
      </trkpt>
      <trkpt lat="47.08782" lon="-1.80618">
        <ele>15</ele>
        <time>2021-03-07T05:21:02Z</time>
      </trkpt>
      <trkpt lat="47.08767" lon="-1.806">
        <ele>15</ele>
        <time>2021-03-07T05:21:05Z</time>
      </trkpt>
      <trkpt lat="47.0874" lon="-1.80575">
        <ele>15</ele>
        <time>2021-03-07T05:21:11Z</time>
      </trkpt>
      <trkpt lat="47.08678" lon="-1.80528">
        <ele>17</ele>
        <time>2021-03-07T05:21:23Z</time>
      </trkpt>
      <trkpt lat="47.08661" lon="-1.80517">
        <ele>17</ele>
        <time>2021-03-07T05:21:27Z</time>
      </trkpt>
      <trkpt lat="47.08509" lon="-1.80476">
        <ele>20</ele>
        <time>2021-03-07T05:21:54Z</time>
      </trkpt>
      <trkpt lat="47.08475" lon="-1.80468">
        <ele>20</ele>
        <time>2021-03-07T05:22:00Z</time>
      </trkpt>
      <trkpt lat="47.08447" lon="-1.80466">
        <ele>21</ele>
        <time>2021-03-07T05:22:05Z</time>
      </trkpt>
      <trkpt lat="47.08324" lon="-1.80471">
        <ele>23</ele>
        <time>2021-03-07T05:22:27Z</time>
      </trkpt>
      <trkpt lat="47.08249" lon="-1.80495">
        <ele>22</ele>
        <time>2021-03-07T05:22:41Z</time>
      </trkpt>
      <trkpt lat="47.08148" lon="-1.8054">
        <ele>19</ele>
        <time>2021-03-07T05:23:00Z</time>
      </trkpt>
      <trkpt lat="47.08121" lon="-1.8055">
        <ele>18</ele>
        <time>2021-03-07T05:23:05Z</time>
      </trkpt>
      <trkpt lat="47.08024" lon="-1.80575">
        <ele>15</ele>
        <time>2021-03-07T05:23:22Z</time>
      </trkpt>
      <trkpt lat="47.08001" lon="-1.80579">
        <ele>14</ele>
        <time>2021-03-07T05:23:26Z</time>
      </trkpt>
      <trkpt lat="47.07965" lon="-1.80578">
        <ele>14</ele>
        <time>2021-03-07T05:23:33Z</time>
      </trkpt>
      <trkpt lat="47.0795" lon="-1.80573">
        <ele>14</ele>
        <time>2021-03-07T05:23:35Z</time>
      </trkpt>
      <trkpt lat="47.07939" lon="-1.80563">
        <ele>14</ele>
        <time>2021-03-07T05:23:38Z</time>
      </trkpt>
      <trkpt lat="47.07919" lon="-1.80525">
        <ele>15</ele>
        <time>2021-03-07T05:23:44Z</time>
      </trkpt>
      <trkpt lat="47.07907" lon="-1.80492">
        <ele>15</ele>
        <time>2021-03-07T05:23:48Z</time>
      </trkpt>
      <trkpt lat="47.07903" lon="-1.80471">
        <ele>15</ele>
        <time>2021-03-07T05:23:51Z</time>
      </trkpt>
      <trkpt lat="47.079" lon="-1.80431">
        <ele>16</ele>
        <time>2021-03-07T05:23:56Z</time>
      </trkpt>
      <trkpt lat="47.07901" lon="-1.80256">
        <ele>15</ele>
        <time>2021-03-07T05:24:17Z</time>
      </trkpt>
      <trkpt lat="47.07898" lon="-1.80012">
        <ele>15</ele>
        <time>2021-03-07T05:24:46Z</time>
      </trkpt>
      <trkpt lat="47.07896" lon="-1.80012">
        <ele>15</ele>
        <time>2021-03-07T05:24:47Z</time>
      </trkpt>
      <trkpt lat="47.07891" lon="-1.80006">
        <ele>15</ele>
        <time>2021-03-07T05:24:48Z</time>
      </trkpt>
      <trkpt lat="47.07891" lon="-1.80003">
        <ele>15</ele>
        <time>2021-03-07T05:24:48Z</time>
      </trkpt>
      <trkpt lat="47.07894" lon="-1.79995">
        <ele>15</ele>
        <time>2021-03-07T05:24:49Z</time>
      </trkpt>
      <trkpt lat="47.079" lon="-1.79994">
        <ele>15</ele>
        <time>2021-03-07T05:24:50Z</time>
      </trkpt>
      <trkpt lat="47.07905" lon="-1.79954">
        <ele>14</ele>
        <time>2021-03-07T05:24:55Z</time>
      </trkpt>
      <trkpt lat="47.07915" lon="-1.79909">
        <ele>14</ele>
        <time>2021-03-07T05:25:01Z</time>
      </trkpt>
      <trkpt lat="47.0794" lon="-1.7984">
        <ele>14</ele>
        <time>2021-03-07T05:25:11Z</time>
      </trkpt>
      <trkpt lat="47.07956" lon="-1.79789">
        <ele>15</ele>
        <time>2021-03-07T05:25:17Z</time>
      </trkpt>
      <trkpt lat="47.07966" lon="-1.79681">
        <ele>17</ele>
        <time>2021-03-07T05:25:31Z</time>
      </trkpt>
      <trkpt lat="47.07966" lon="-1.79615">
        <ele>17</ele>
        <time>2021-03-07T05:25:39Z</time>
      </trkpt>
      <trkpt lat="47.07964" lon="-1.79578">
        <ele>17</ele>
        <time>2021-03-07T05:25:43Z</time>
      </trkpt>
      <trkpt lat="47.07959" lon="-1.79542">
        <ele>16</ele>
        <time>2021-03-07T05:25:48Z</time>
      </trkpt>
      <trkpt lat="47.07951" lon="-1.79505">
        <ele>15</ele>
        <time>2021-03-07T05:25:52Z</time>
      </trkpt>
      <trkpt lat="47.07838" lon="-1.7907">
        <ele>4</ele>
        <time>2021-03-07T05:26:49Z</time>
      </trkpt>
      <trkpt lat="47.07828" lon="-1.79031">
        <ele>5</ele>
        <time>2021-03-07T05:26:54Z</time>
      </trkpt>
      <trkpt lat="47.07811" lon="-1.78965">
        <ele>6</ele>
        <time>2021-03-07T05:27:02Z</time>
      </trkpt>
      <trkpt lat="47.07772" lon="-1.78814">
        <ele>12</ele>
        <time>2021-03-07T05:27:22Z</time>
      </trkpt>
      <trkpt lat="47.07764" lon="-1.78784">
        <ele>14</ele>
        <time>2021-03-07T05:27:26Z</time>
      </trkpt>
      <trkpt lat="47.07751" lon="-1.78748">
        <ele>15</ele>
        <time>2021-03-07T05:27:31Z</time>
      </trkpt>
      <trkpt lat="47.07675" lon="-1.78588">
        <ele>20</ele>
        <time>2021-03-07T05:27:54Z</time>
      </trkpt>
      <trkpt lat="47.07668" lon="-1.78572">
        <ele>20</ele>
        <time>2021-03-07T05:27:57Z</time>
      </trkpt>
      <trkpt lat="47.07662" lon="-1.78553">
        <ele>19</ele>
        <time>2021-03-07T05:27:59Z</time>
      </trkpt>
      <trkpt lat="47.07657" lon="-1.78537">
        <ele>19</ele>
        <time>2021-03-07T05:28:01Z</time>
      </trkpt>
      <trkpt lat="47.07644" lon="-1.7849">
        <ele>18</ele>
        <time>2021-03-07T05:28:07Z</time>
      </trkpt>
      <trkpt lat="47.07636" lon="-1.78466">
        <ele>18</ele>
        <time>2021-03-07T05:28:11Z</time>
      </trkpt>
      <trkpt lat="47.07612" lon="-1.78408">
        <ele>18</ele>
        <time>2021-03-07T05:28:19Z</time>
      </trkpt>
      <trkpt lat="47.07595" lon="-1.78374">
        <ele>18</ele>
        <time>2021-03-07T05:28:24Z</time>
      </trkpt>
      <trkpt lat="47.07573" lon="-1.78333">
        <ele>18</ele>
        <time>2021-03-07T05:28:30Z</time>
      </trkpt>
      <trkpt lat="47.07521" lon="-1.78237">
        <ele>18</ele>
        <time>2021-03-07T05:28:45Z</time>
      </trkpt>
      <trkpt lat="47.07488" lon="-1.78184">
        <ele>18</ele>
        <time>2021-03-07T05:28:54Z</time>
      </trkpt>
      <trkpt lat="47.07453" lon="-1.78145">
        <ele>18</ele>
        <time>2021-03-07T05:29:02Z</time>
      </trkpt>
      <trkpt lat="47.07432" lon="-1.78128">
        <ele>17</ele>
        <time>2021-03-07T05:29:06Z</time>
      </trkpt>
      <trkpt lat="47.07413" lon="-1.7811">
        <ele>17</ele>
        <time>2021-03-07T05:29:10Z</time>
      </trkpt>
      <trkpt lat="47.07377" lon="-1.7807">
        <ele>19</ele>
        <time>2021-03-07T05:29:18Z</time>
      </trkpt>
      <trkpt lat="47.07213" lon="-1.77872">
        <ele>25</ele>
        <time>2021-03-07T05:29:56Z</time>
      </trkpt>
      <trkpt lat="47.0716" lon="-1.77807">
        <ele>23</ele>
        <time>2021-03-07T05:30:08Z</time>
      </trkpt>
      <trkpt lat="47.0714" lon="-1.77778">
        <ele>23</ele>
        <time>2021-03-07T05:30:13Z</time>
      </trkpt>
      <trkpt lat="47.07123" lon="-1.77744">
        <ele>23</ele>
        <time>2021-03-07T05:30:18Z</time>
      </trkpt>
      <trkpt lat="47.07011" lon="-1.77462">
        <ele>24</ele>
        <time>2021-03-07T05:30:58Z</time>
      </trkpt>
      <trkpt lat="47.06991" lon="-1.77426">
        <ele>25</ele>
        <time>2021-03-07T05:31:03Z</time>
      </trkpt>
      <trkpt lat="47.06966" lon="-1.77391">
        <ele>25</ele>
        <time>2021-03-07T05:31:10Z</time>
      </trkpt>
      <trkpt lat="47.06843" lon="-1.77219">
        <ele>27</ele>
        <time>2021-03-07T05:31:40Z</time>
      </trkpt>
      <trkpt lat="47.06834" lon="-1.77208">
        <ele>27</ele>
        <time>2021-03-07T05:31:42Z</time>
      </trkpt>
      <trkpt lat="47.06814" lon="-1.77179">
        <ele>28</ele>
        <time>2021-03-07T05:31:47Z</time>
      </trkpt>
      <trkpt lat="47.06756" lon="-1.77082">
        <ele>27</ele>
        <time>2021-03-07T05:32:02Z</time>
      </trkpt>
      <trkpt lat="47.06714" lon="-1.7701">
        <ele>27</ele>
        <time>2021-03-07T05:32:14Z</time>
      </trkpt>
      <trkpt lat="47.06678" lon="-1.76948">
        <ele>27</ele>
        <time>2021-03-07T05:32:24Z</time>
      </trkpt>
      <trkpt lat="47.06651" lon="-1.76904">
        <ele>28</ele>
        <time>2021-03-07T05:32:31Z</time>
      </trkpt>
      <trkpt lat="47.06648" lon="-1.76897">
        <ele>28</ele>
        <time>2021-03-07T05:32:32Z</time>
      </trkpt>
      <trkpt lat="47.06506" lon="-1.76658">
        <ele>32</ele>
        <time>2021-03-07T05:33:10Z</time>
      </trkpt>
      <trkpt lat="47.06493" lon="-1.76634">
        <ele>31</ele>
        <time>2021-03-07T05:33:14Z</time>
      </trkpt>
      <trkpt lat="47.06479" lon="-1.76611">
        <ele>31</ele>
        <time>2021-03-07T05:33:18Z</time>
      </trkpt>
      <trkpt lat="47.06472" lon="-1.76597">
        <ele>30</ele>
        <time>2021-03-07T05:33:20Z</time>
      </trkpt>
      <trkpt lat="47.06462" lon="-1.76574">
        <ele>30</ele>
        <time>2021-03-07T05:33:23Z</time>
      </trkpt>
      <trkpt lat="47.06416" lon="-1.7646">
        <ele>29</ele>
        <time>2021-03-07T05:33:39Z</time>
      </trkpt>
      <trkpt lat="47.06407" lon="-1.76443">
        <ele>29</ele>
        <time>2021-03-07T05:33:42Z</time>
      </trkpt>
      <trkpt lat="47.06396" lon="-1.76426">
        <ele>29</ele>
        <time>2021-03-07T05:33:45Z</time>
      </trkpt>
      <trkpt lat="47.0639" lon="-1.7642">
        <ele>29</ele>
        <time>2021-03-07T05:33:46Z</time>
      </trkpt>
      <trkpt lat="47.06379" lon="-1.76409">
        <ele>29</ele>
        <time>2021-03-07T05:33:48Z</time>
      </trkpt>
      <trkpt lat="47.06368" lon="-1.76401">
        <ele>29</ele>
        <time>2021-03-07T05:33:51Z</time>
      </trkpt>
      <trkpt lat="47.06319" lon="-1.76376">
        <ele>28</ele>
        <time>2021-03-07T05:34:00Z</time>
      </trkpt>
      <trkpt lat="47.06316" lon="-1.76374">
        <ele>28</ele>
        <time>2021-03-07T05:34:00Z</time>
      </trkpt>
      <trkpt lat="47.06313" lon="-1.76374">
        <ele>28</ele>
        <time>2021-03-07T05:34:01Z</time>
      </trkpt>
      <trkpt lat="47.06304" lon="-1.76364">
        <ele>28</ele>
        <time>2021-03-07T05:34:03Z</time>
      </trkpt>
      <trkpt lat="47.06296" lon="-1.76344">
        <ele>28</ele>
        <time>2021-03-07T05:34:06Z</time>
      </trkpt>
      <trkpt lat="47.06294" lon="-1.76339">
        <ele>28</ele>
        <time>2021-03-07T05:34:07Z</time>
      </trkpt>
      <trkpt lat="47.06308" lon="-1.76332">
        <ele>28</ele>
        <time>2021-03-07T05:34:09Z</time>
      </trkpt>
      <trkpt lat="47.06319" lon="-1.76326">
        <ele>29</ele>
        <time>2021-03-07T05:34:11Z</time>
      </trkpt>
      <trkpt lat="47.06362" lon="-1.76306">
        <ele>30</ele>
        <time>2021-03-07T05:34:19Z</time>
      </trkpt>
      <trkpt lat="47.06366" lon="-1.76304">
        <ele>30</ele>
        <time>2021-03-07T05:34:20Z</time>
      </trkpt>
      <trkpt lat="47.06572" lon="-1.76205">
        <ele>35</ele>
        <time>2021-03-07T05:34:59Z</time>
      </trkpt>
      <trkpt lat="47.06577" lon="-1.76203">
        <ele>35</ele>
        <time>2021-03-07T05:35:00Z</time>
      </trkpt>
      <trkpt lat="47.06746" lon="-1.76127">
        <ele>30</ele>
        <time>2021-03-07T05:35:31Z</time>
      </trkpt>
      <trkpt lat="47.06885" lon="-1.76064">
        <ele>25</ele>
        <time>2021-03-07T05:35:57Z</time>
      </trkpt>
      <trkpt lat="47.06923" lon="-1.7604">
        <ele>24</ele>
        <time>2021-03-07T05:36:04Z</time>
      </trkpt>
      <trkpt lat="47.06938" lon="-1.76027">
        <ele>24</ele>
        <time>2021-03-07T05:36:07Z</time>
      </trkpt>
      <trkpt lat="47.06982" lon="-1.75977">
        <ele>23</ele>
        <time>2021-03-07T05:36:17Z</time>
      </trkpt>
      <trkpt lat="47.0716" lon="-1.7577">
        <ele>21</ele>
        <time>2021-03-07T05:36:58Z</time>
      </trkpt>
      <trkpt lat="47.07163" lon="-1.75766">
        <ele>21</ele>
        <time>2021-03-07T05:36:58Z</time>
      </trkpt>
      <trkpt lat="47.07172" lon="-1.75756">
        <ele>21</ele>
        <time>2021-03-07T05:37:00Z</time>
      </trkpt>
      <trkpt lat="47.07253" lon="-1.7566">
        <ele>18</ele>
        <time>2021-03-07T05:37:19Z</time>
      </trkpt>
      <trkpt lat="47.0728" lon="-1.75635">
        <ele>18</ele>
        <time>2021-03-07T05:37:25Z</time>
      </trkpt>
      <trkpt lat="47.07303" lon="-1.75621">
        <ele>18</ele>
        <time>2021-03-07T05:37:29Z</time>
      </trkpt>
      <trkpt lat="47.07331" lon="-1.75608">
        <ele>17</ele>
        <time>2021-03-07T05:37:34Z</time>
      </trkpt>
      <trkpt lat="47.07495" lon="-1.75545">
        <ele>14</ele>
        <time>2021-03-07T05:38:04Z</time>
      </trkpt>
      <trkpt lat="47.07599" lon="-1.75505">
        <ele>10</ele>
        <time>2021-03-07T05:38:23Z</time>
      </trkpt>
      <trkpt lat="47.07816" lon="-1.7542">
        <ele>5</ele>
        <time>2021-03-07T05:39:03Z</time>
      </trkpt>
      <trkpt lat="47.07846" lon="-1.75412">
        <ele>5</ele>
        <time>2021-03-07T05:39:09Z</time>
      </trkpt>
      <trkpt lat="47.07867" lon="-1.75411">
        <ele>5</ele>
        <time>2021-03-07T05:39:13Z</time>
      </trkpt>
      <trkpt lat="47.07891" lon="-1.75414">
        <ele>6</ele>
        <time>2021-03-07T05:39:17Z</time>
      </trkpt>
      <trkpt lat="47.07921" lon="-1.75424">
        <ele>6</ele>
        <time>2021-03-07T05:39:22Z</time>
      </trkpt>
      <trkpt lat="47.07941" lon="-1.75436">
        <ele>6</ele>
        <time>2021-03-07T05:39:26Z</time>
      </trkpt>
      <trkpt lat="47.08003" lon="-1.75487">
        <ele>7</ele>
        <time>2021-03-07T05:39:39Z</time>
      </trkpt>
      <trkpt lat="47.08024" lon="-1.75501">
        <ele>7</ele>
        <time>2021-03-07T05:39:43Z</time>
      </trkpt>
      <trkpt lat="47.08047" lon="-1.75509">
        <ele>8</ele>
        <time>2021-03-07T05:39:47Z</time>
      </trkpt>
      <trkpt lat="47.08074" lon="-1.75511">
        <ele>8</ele>
        <time>2021-03-07T05:39:52Z</time>
      </trkpt>
      <trkpt lat="47.08366" lon="-1.75475">
        <ele>10</ele>
        <time>2021-03-07T05:40:44Z</time>
      </trkpt>
      <trkpt lat="47.084" lon="-1.75473">
        <ele>10</ele>
        <time>2021-03-07T05:40:50Z</time>
      </trkpt>
      <trkpt lat="47.08455" lon="-1.75478">
        <ele>9</ele>
        <time>2021-03-07T05:41:00Z</time>
      </trkpt>
      <trkpt lat="47.08475" lon="-1.75475">
        <ele>8</ele>
        <time>2021-03-07T05:41:04Z</time>
      </trkpt>
      <trkpt lat="47.08556" lon="-1.75451">
        <ele>7</ele>
        <time>2021-03-07T05:41:18Z</time>
      </trkpt>
      <trkpt lat="47.08588" lon="-1.7544">
        <ele>7</ele>
        <time>2021-03-07T05:41:24Z</time>
      </trkpt>
      <trkpt lat="47.08616" lon="-1.75428">
        <ele>7</ele>
        <time>2021-03-07T05:41:29Z</time>
      </trkpt>
      <trkpt lat="47.08663" lon="-1.75401">
        <ele>8</ele>
        <time>2021-03-07T05:41:38Z</time>
      </trkpt>
      <trkpt lat="47.08711" lon="-1.75361">
        <ele>9</ele>
        <time>2021-03-07T05:41:48Z</time>
      </trkpt>
      <trkpt lat="47.08736" lon="-1.75337">
        <ele>9</ele>
        <time>2021-03-07T05:41:53Z</time>
      </trkpt>
      <trkpt lat="47.08776" lon="-1.75287">
        <ele>11</ele>
        <time>2021-03-07T05:42:03Z</time>
      </trkpt>
      <trkpt lat="47.08795" lon="-1.75257">
        <ele>11</ele>
        <time>2021-03-07T05:42:08Z</time>
      </trkpt>
      <trkpt lat="47.08899" lon="-1.75073">
        <ele>7</ele>
        <time>2021-03-07T05:42:37Z</time>
      </trkpt>
      <trkpt lat="47.08917" lon="-1.75049">
        <ele>8</ele>
        <time>2021-03-07T05:42:41Z</time>
      </trkpt>
      <trkpt lat="47.08949" lon="-1.75017">
        <ele>9</ele>
        <time>2021-03-07T05:42:48Z</time>
      </trkpt>
      <trkpt lat="47.09065" lon="-1.74917">
        <ele>13</ele>
        <time>2021-03-07T05:43:12Z</time>
      </trkpt>
      <trkpt lat="47.09156" lon="-1.74837">
        <ele>14</ele>
        <time>2021-03-07T05:43:31Z</time>
      </trkpt>
      <trkpt lat="47.09178" lon="-1.74811">
        <ele>14</ele>
        <time>2021-03-07T05:43:36Z</time>
      </trkpt>
      <trkpt lat="47.09266" lon="-1.74693">
        <ele>13</ele>
        <time>2021-03-07T05:43:57Z</time>
      </trkpt>
      <trkpt lat="47.09291" lon="-1.74656">
        <ele>14</ele>
        <time>2021-03-07T05:44:03Z</time>
      </trkpt>
      <trkpt lat="47.09344" lon="-1.74572">
        <ele>15</ele>
        <time>2021-03-07T05:44:17Z</time>
      </trkpt>
      <trkpt lat="47.09353" lon="-1.74558">
        <ele>15</ele>
        <time>2021-03-07T05:44:19Z</time>
      </trkpt>
      <trkpt lat="47.09392" lon="-1.74498">
        <ele>14</ele>
        <time>2021-03-07T05:44:30Z</time>
      </trkpt>
      <trkpt lat="47.09423" lon="-1.7445">
        <ele>13</ele>
        <time>2021-03-07T05:44:38Z</time>
      </trkpt>
      <trkpt lat="47.09439" lon="-1.74429">
        <ele>14</ele>
        <time>2021-03-07T05:44:41Z</time>
      </trkpt>
      <trkpt lat="47.09456" lon="-1.74411">
        <ele>14</ele>
        <time>2021-03-07T05:44:45Z</time>
      </trkpt>
      <trkpt lat="47.09477" lon="-1.74396">
        <ele>15</ele>
        <time>2021-03-07T05:44:49Z</time>
      </trkpt>
      <trkpt lat="47.09545" lon="-1.7435">
        <ele>15</ele>
        <time>2021-03-07T05:45:03Z</time>
      </trkpt>
      <trkpt lat="47.09565" lon="-1.74343">
        <ele>15</ele>
        <time>2021-03-07T05:45:06Z</time>
      </trkpt>
      <trkpt lat="47.09588" lon="-1.74335">
        <ele>15</ele>
        <time>2021-03-07T05:45:10Z</time>
      </trkpt>
      <trkpt lat="47.09631" lon="-1.74322">
        <ele>14</ele>
        <time>2021-03-07T05:45:18Z</time>
      </trkpt>
      <trkpt lat="47.09644" lon="-1.74315">
        <ele>13</ele>
        <time>2021-03-07T05:45:21Z</time>
      </trkpt>
      <trkpt lat="47.09669" lon="-1.74295">
        <ele>13</ele>
        <time>2021-03-07T05:45:26Z</time>
      </trkpt>
      <trkpt lat="47.09805" lon="-1.74161">
        <ele>12</ele>
        <time>2021-03-07T05:45:55Z</time>
      </trkpt>
      <trkpt lat="47.09833" lon="-1.74129">
        <ele>12</ele>
        <time>2021-03-07T05:46:01Z</time>
      </trkpt>
      <trkpt lat="47.0985" lon="-1.74103">
        <ele>12</ele>
        <time>2021-03-07T05:46:06Z</time>
      </trkpt>
      <trkpt lat="47.09868" lon="-1.74072">
        <ele>12</ele>
        <time>2021-03-07T05:46:10Z</time>
      </trkpt>
      <trkpt lat="47.09873" lon="-1.74063">
        <ele>12</ele>
        <time>2021-03-07T05:46:12Z</time>
      </trkpt>
      <trkpt lat="47.09893" lon="-1.7404">
        <ele>11</ele>
        <time>2021-03-07T05:46:16Z</time>
      </trkpt>
      <trkpt lat="47.09939" lon="-1.74002">
        <ele>10</ele>
        <time>2021-03-07T05:46:26Z</time>
      </trkpt>
      <trkpt lat="47.0997" lon="-1.73969">
        <ele>11</ele>
        <time>2021-03-07T05:46:33Z</time>
      </trkpt>
      <trkpt lat="47.09996" lon="-1.73937">
        <ele>11</ele>
        <time>2021-03-07T05:46:39Z</time>
      </trkpt>
      <trkpt lat="47.10065" lon="-1.73859">
        <ele>12</ele>
        <time>2021-03-07T05:46:54Z</time>
      </trkpt>
      <trkpt lat="47.10092" lon="-1.73829">
        <ele>12</ele>
        <time>2021-03-07T05:47:00Z</time>
      </trkpt>
      <trkpt lat="47.10116" lon="-1.73807">
        <ele>12</ele>
        <time>2021-03-07T05:47:05Z</time>
      </trkpt>
      <trkpt lat="47.1015" lon="-1.73782">
        <ele>11</ele>
        <time>2021-03-07T05:47:12Z</time>
      </trkpt>
      <trkpt lat="47.10157" lon="-1.73778">
        <ele>11</ele>
        <time>2021-03-07T05:47:13Z</time>
      </trkpt>
      <trkpt lat="47.10164" lon="-1.73776">
        <ele>11</ele>
        <time>2021-03-07T05:47:15Z</time>
      </trkpt>
      <trkpt lat="47.10175" lon="-1.73773">
        <ele>11</ele>
        <time>2021-03-07T05:47:17Z</time>
      </trkpt>
      <trkpt lat="47.10238" lon="-1.73767">
        <ele>12</ele>
        <time>2021-03-07T05:47:28Z</time>
      </trkpt>
      <trkpt lat="47.10266" lon="-1.7376">
        <ele>12</ele>
        <time>2021-03-07T05:47:33Z</time>
      </trkpt>
      <trkpt lat="47.10383" lon="-1.73707">
        <ele>14</ele>
        <time>2021-03-07T05:47:55Z</time>
      </trkpt>
      <trkpt lat="47.1041" lon="-1.73697">
        <ele>15</ele>
        <time>2021-03-07T05:48:00Z</time>
      </trkpt>
      <trkpt lat="47.10453" lon="-1.73685">
        <ele>15</ele>
        <time>2021-03-07T05:48:07Z</time>
      </trkpt>
      <trkpt lat="47.10506" lon="-1.73681">
        <ele>15</ele>
        <time>2021-03-07T05:48:17Z</time>
      </trkpt>
      <trkpt lat="47.10605" lon="-1.73682">
        <ele>13</ele>
        <time>2021-03-07T05:48:34Z</time>
      </trkpt>
      <trkpt lat="47.10611" lon="-1.73681">
        <ele>13</ele>
        <time>2021-03-07T05:48:36Z</time>
      </trkpt>
      <trkpt lat="47.10611" lon="-1.73676">
        <ele>13</ele>
        <time>2021-03-07T05:48:36Z</time>
      </trkpt>
      <trkpt lat="47.10615" lon="-1.73667">
        <ele>13</ele>
        <time>2021-03-07T05:48:37Z</time>
      </trkpt>
      <trkpt lat="47.1062" lon="-1.73664">
        <ele>13</ele>
        <time>2021-03-07T05:48:38Z</time>
      </trkpt>
      <trkpt lat="47.10622" lon="-1.73664">
        <ele>13</ele>
        <time>2021-03-07T05:48:39Z</time>
      </trkpt>
      <trkpt lat="47.10625" lon="-1.73665">
        <ele>13</ele>
        <time>2021-03-07T05:48:39Z</time>
      </trkpt>
      <trkpt lat="47.10631" lon="-1.73671">
        <ele>13</ele>
        <time>2021-03-07T05:48:41Z</time>
      </trkpt>
      <trkpt lat="47.10632" lon="-1.73676">
        <ele>13</ele>
        <time>2021-03-07T05:48:41Z</time>
      </trkpt>
      <trkpt lat="47.10648" lon="-1.73671">
        <ele>12</ele>
        <time>2021-03-07T05:48:44Z</time>
      </trkpt>
      <trkpt lat="47.10674" lon="-1.73657">
        <ele>12</ele>
        <time>2021-03-07T05:48:49Z</time>
      </trkpt>
      <trkpt lat="47.10696" lon="-1.73643">
        <ele>11</ele>
        <time>2021-03-07T05:48:53Z</time>
      </trkpt>
      <trkpt lat="47.10714" lon="-1.73627">
        <ele>11</ele>
        <time>2021-03-07T05:48:57Z</time>
      </trkpt>
      <trkpt lat="47.10755" lon="-1.7359">
        <ele>11</ele>
        <time>2021-03-07T05:49:06Z</time>
      </trkpt>
      <trkpt lat="47.10808" lon="-1.73545">
        <ele>9</ele>
        <time>2021-03-07T05:49:17Z</time>
      </trkpt>
      <trkpt lat="47.10836" lon="-1.73529">
        <ele>9</ele>
        <time>2021-03-07T05:49:22Z</time>
      </trkpt>
      <trkpt lat="47.10851" lon="-1.73523">
        <ele>8</ele>
        <time>2021-03-07T05:49:25Z</time>
      </trkpt>
      <trkpt lat="47.1086" lon="-1.73518">
        <ele>8</ele>
        <time>2021-03-07T05:49:26Z</time>
      </trkpt>
      <trkpt lat="47.1086" lon="-1.73516">
        <ele>8</ele>
        <time>2021-03-07T05:49:27Z</time>
      </trkpt>
      <trkpt lat="47.10864" lon="-1.73509">
        <ele>8</ele>
        <time>2021-03-07T05:49:28Z</time>
      </trkpt>
      <trkpt lat="47.10866" lon="-1.73508">
        <ele>8</ele>
        <time>2021-03-07T05:49:28Z</time>
      </trkpt>
      <trkpt lat="47.10868" lon="-1.73508">
        <ele>8</ele>
        <time>2021-03-07T05:49:28Z</time>
      </trkpt>
      <trkpt lat="47.10869" lon="-1.73509">
        <ele>8</ele>
        <time>2021-03-07T05:49:29Z</time>
      </trkpt>
      <trkpt lat="47.10871" lon="-1.73511">
        <ele>8</ele>
        <time>2021-03-07T05:49:29Z</time>
      </trkpt>
      <trkpt lat="47.10872" lon="-1.73514">
        <ele>8</ele>
        <time>2021-03-07T05:49:29Z</time>
      </trkpt>
      <trkpt lat="47.10938" lon="-1.73496">
        <ele>6</ele>
        <time>2021-03-07T05:49:41Z</time>
      </trkpt>
      <trkpt lat="47.10955" lon="-1.73492">
        <ele>6</ele>
        <time>2021-03-07T05:49:44Z</time>
      </trkpt>
      <trkpt lat="47.10983" lon="-1.73494">
        <ele>6</ele>
        <time>2021-03-07T05:49:49Z</time>
      </trkpt>
      <trkpt lat="47.11044" lon="-1.73521">
        <ele>5</ele>
        <time>2021-03-07T05:50:01Z</time>
      </trkpt>
      <trkpt lat="47.11061" lon="-1.73528">
        <ele>5</ele>
        <time>2021-03-07T05:50:04Z</time>
      </trkpt>
      <trkpt lat="47.11068" lon="-1.73531">
        <ele>5</ele>
        <time>2021-03-07T05:50:05Z</time>
      </trkpt>
      <trkpt lat="47.11085" lon="-1.73539">
        <ele>5</ele>
        <time>2021-03-07T05:50:08Z</time>
      </trkpt>
      <trkpt lat="47.1111" lon="-1.73549">
        <ele>5</ele>
        <time>2021-03-07T05:50:13Z</time>
      </trkpt>
      <trkpt lat="47.11129" lon="-1.73554">
        <ele>5</ele>
        <time>2021-03-07T05:50:16Z</time>
      </trkpt>
      <trkpt lat="47.11145" lon="-1.73555">
        <ele>6</ele>
        <time>2021-03-07T05:50:19Z</time>
      </trkpt>
      <trkpt lat="47.11181" lon="-1.73555">
        <ele>6</ele>
        <time>2021-03-07T05:50:26Z</time>
      </trkpt>
      <trkpt lat="47.11189" lon="-1.73555">
        <ele>6</ele>
        <time>2021-03-07T05:50:27Z</time>
      </trkpt>
      <trkpt lat="47.11206" lon="-1.73556">
        <ele>6</ele>
        <time>2021-03-07T05:50:30Z</time>
      </trkpt>
      <trkpt lat="47.11255" lon="-1.73558">
        <ele>6</ele>
        <time>2021-03-07T05:50:39Z</time>
      </trkpt>
      <trkpt lat="47.11261" lon="-1.73558">
        <ele>6</ele>
        <time>2021-03-07T05:50:40Z</time>
      </trkpt>
      <trkpt lat="47.11267" lon="-1.73555">
        <ele>6</ele>
        <time>2021-03-07T05:50:41Z</time>
      </trkpt>
      <trkpt lat="47.1127" lon="-1.73548">
        <ele>6</ele>
        <time>2021-03-07T05:50:42Z</time>
      </trkpt>
      <trkpt lat="47.11271" lon="-1.73539">
        <ele>6</ele>
        <time>2021-03-07T05:50:43Z</time>
      </trkpt>
      <trkpt lat="47.11264" lon="-1.73476">
        <ele>7</ele>
        <time>2021-03-07T05:50:51Z</time>
      </trkpt>
      <trkpt lat="47.11263" lon="-1.73457">
        <ele>8</ele>
        <time>2021-03-07T05:50:53Z</time>
      </trkpt>
      <trkpt lat="47.11262" lon="-1.73442">
        <ele>8</ele>
        <time>2021-03-07T05:50:55Z</time>
      </trkpt>
      <trkpt lat="47.11259" lon="-1.73407">
        <ele>9</ele>
        <time>2021-03-07T05:50:59Z</time>
      </trkpt>
      <trkpt lat="47.11256" lon="-1.73368">
        <ele>9</ele>
        <time>2021-03-07T05:51:04Z</time>
      </trkpt>
      <trkpt lat="47.11256" lon="-1.73355">
        <ele>9</ele>
        <time>2021-03-07T05:51:06Z</time>
      </trkpt>
      <trkpt lat="47.11253" lon="-1.73324">
        <ele>9</ele>
        <time>2021-03-07T05:51:09Z</time>
      </trkpt>
      <trkpt lat="47.1125" lon="-1.73288">
        <ele>10</ele>
        <time>2021-03-07T05:51:14Z</time>
      </trkpt>
      <trkpt lat="47.11242" lon="-1.73243">
        <ele>10</ele>
        <time>2021-03-07T05:51:19Z</time>
      </trkpt>
      <trkpt lat="47.11211" lon="-1.73111">
        <ele>12</ele>
        <time>2021-03-07T05:51:36Z</time>
      </trkpt>
      <trkpt lat="47.11131" lon="-1.72774">
        <ele>13</ele>
        <time>2021-03-07T05:52:20Z</time>
      </trkpt>
      <trkpt lat="47.11088" lon="-1.72596">
        <ele>11</ele>
        <time>2021-03-07T05:52:42Z</time>
      </trkpt>
      <trkpt lat="47.11081" lon="-1.7255">
        <ele>11</ele>
        <time>2021-03-07T05:52:48Z</time>
      </trkpt>
      <trkpt lat="47.11081" lon="-1.72524">
        <ele>12</ele>
        <time>2021-03-07T05:52:51Z</time>
      </trkpt>
      <trkpt lat="47.11092" lon="-1.72466">
        <ele>11</ele>
        <time>2021-03-07T05:52:59Z</time>
      </trkpt>
      <trkpt lat="47.11107" lon="-1.72402">
        <ele>10</ele>
        <time>2021-03-07T05:53:07Z</time>
      </trkpt>
      <trkpt lat="47.1118" lon="-1.72087">
        <ele>11</ele>
        <time>2021-03-07T05:53:47Z</time>
      </trkpt>
      <trkpt lat="47.11188" lon="-1.72055">
        <ele>11</ele>
        <time>2021-03-07T05:53:51Z</time>
      </trkpt>
      <trkpt lat="47.11224" lon="-1.71898">
        <ele>7</ele>
        <time>2021-03-07T05:54:11Z</time>
      </trkpt>
      <trkpt lat="47.11249" lon="-1.71822">
        <ele>6</ele>
        <time>2021-03-07T05:54:22Z</time>
      </trkpt>
      <trkpt lat="47.11294" lon="-1.71729">
        <ele>5</ele>
        <time>2021-03-07T05:54:35Z</time>
      </trkpt>
      <trkpt lat="47.11342" lon="-1.71639">
        <ele>3</ele>
        <time>2021-03-07T05:54:49Z</time>
      </trkpt>
      <trkpt lat="47.11388" lon="-1.71547">
        <ele>2</ele>
        <time>2021-03-07T05:55:03Z</time>
      </trkpt>
      <trkpt lat="47.11425" lon="-1.71475">
        <ele>2</ele>
        <time>2021-03-07T05:55:14Z</time>
      </trkpt>
      <trkpt lat="47.1148" lon="-1.71369">
        <ele>3</ele>
        <time>2021-03-07T05:55:30Z</time>
      </trkpt>
      <trkpt lat="47.11511" lon="-1.71308">
        <ele>3</ele>
        <time>2021-03-07T05:55:39Z</time>
      </trkpt>
      <trkpt lat="47.11529" lon="-1.71272">
        <ele>4</ele>
        <time>2021-03-07T05:55:45Z</time>
      </trkpt>
      <trkpt lat="47.11542" lon="-1.71248">
        <ele>4</ele>
        <time>2021-03-07T05:55:48Z</time>
      </trkpt>
      <trkpt lat="47.11582" lon="-1.71189">
        <ele>5</ele>
        <time>2021-03-07T05:55:58Z</time>
      </trkpt>
      <trkpt lat="47.11617" lon="-1.7115">
        <ele>6</ele>
        <time>2021-03-07T05:56:06Z</time>
      </trkpt>
      <trkpt lat="47.11649" lon="-1.71121">
        <ele>6</ele>
        <time>2021-03-07T05:56:13Z</time>
      </trkpt>
      <trkpt lat="47.11735" lon="-1.71063">
        <ele>5</ele>
        <time>2021-03-07T05:56:30Z</time>
      </trkpt>
      <trkpt lat="47.11741" lon="-1.7106">
        <ele>5</ele>
        <time>2021-03-07T05:56:31Z</time>
      </trkpt>
      <trkpt lat="47.11815" lon="-1.71011">
        <ele>5</ele>
        <time>2021-03-07T05:56:45Z</time>
      </trkpt>
      <trkpt lat="47.11916" lon="-1.70947">
        <ele>5</ele>
        <time>2021-03-07T05:57:05Z</time>
      </trkpt>
      <trkpt lat="47.12005" lon="-1.70887">
        <ele>5</ele>
        <time>2021-03-07T05:57:22Z</time>
      </trkpt>
      <trkpt lat="47.12167" lon="-1.70781">
        <ele>3</ele>
        <time>2021-03-07T05:57:54Z</time>
      </trkpt>
      <trkpt lat="47.12204" lon="-1.70753">
        <ele>3</ele>
        <time>2021-03-07T05:58:01Z</time>
      </trkpt>
      <trkpt lat="47.12239" lon="-1.7072">
        <ele>3</ele>
        <time>2021-03-07T05:58:09Z</time>
      </trkpt>
      <trkpt lat="47.12258" lon="-1.70697">
        <ele>3</ele>
        <time>2021-03-07T05:58:13Z</time>
      </trkpt>
      <trkpt lat="47.12277" lon="-1.70671">
        <ele>3</ele>
        <time>2021-03-07T05:58:18Z</time>
      </trkpt>
      <trkpt lat="47.12322" lon="-1.70603">
        <ele>2</ele>
        <time>2021-03-07T05:58:29Z</time>
      </trkpt>
      <trkpt lat="47.12359" lon="-1.70543">
        <ele>3</ele>
        <time>2021-03-07T05:58:39Z</time>
      </trkpt>
      <trkpt lat="47.12369" lon="-1.70523">
        <ele>3</ele>
        <time>2021-03-07T05:58:42Z</time>
      </trkpt>
      <trkpt lat="47.1238" lon="-1.7049">
        <ele>4</ele>
        <time>2021-03-07T05:58:46Z</time>
      </trkpt>
      <trkpt lat="47.12415" lon="-1.70347">
        <ele>3</ele>
        <time>2021-03-07T05:59:05Z</time>
      </trkpt>
      <trkpt lat="47.12419" lon="-1.70332">
        <ele>3</ele>
        <time>2021-03-07T05:59:07Z</time>
      </trkpt>
      <trkpt lat="47.12426" lon="-1.70315">
        <ele>3</ele>
        <time>2021-03-07T05:59:09Z</time>
      </trkpt>
      <trkpt lat="47.12436" lon="-1.70296">
        <ele>3</ele>
        <time>2021-03-07T05:59:12Z</time>
      </trkpt>
      <trkpt lat="47.12452" lon="-1.70277">
        <ele>3</ele>
        <time>2021-03-07T05:59:16Z</time>
      </trkpt>
      <trkpt lat="47.12484" lon="-1.70255">
        <ele>4</ele>
        <time>2021-03-07T05:59:22Z</time>
      </trkpt>
      <trkpt lat="47.12995" lon="-1.69987">
        <ele>2</ele>
        <time>2021-03-07T06:00:59Z</time>
      </trkpt>
      <trkpt lat="47.13219" lon="-1.69871">
        <ele>2</ele>
        <time>2021-03-07T06:01:41Z</time>
      </trkpt>
      <trkpt lat="47.13237" lon="-1.69861">
        <ele>2</ele>
        <time>2021-03-07T06:01:44Z</time>
      </trkpt>
      <trkpt lat="47.13268" lon="-1.69844">
        <ele>2</ele>
        <time>2021-03-07T06:01:50Z</time>
      </trkpt>
      <trkpt lat="47.13412" lon="-1.6977">
        <ele>6</ele>
        <time>2021-03-07T06:02:17Z</time>
      </trkpt>
      <trkpt lat="47.13457" lon="-1.69749">
        <ele>6</ele>
        <time>2021-03-07T06:02:26Z</time>
      </trkpt>
      <trkpt lat="47.13501" lon="-1.6974">
        <ele>5</ele>
        <time>2021-03-07T06:02:34Z</time>
      </trkpt>
      <trkpt lat="47.1351" lon="-1.69739">
        <ele>5</ele>
        <time>2021-03-07T06:02:35Z</time>
      </trkpt>
      <trkpt lat="47.13568" lon="-1.69738">
        <ele>7</ele>
        <time>2021-03-07T06:02:46Z</time>
      </trkpt>
      <trkpt lat="47.13664" lon="-1.69738">
        <ele>9</ele>
        <time>2021-03-07T06:03:03Z</time>
      </trkpt>
      <trkpt lat="47.13725" lon="-1.69732">
        <ele>9</ele>
        <time>2021-03-07T06:03:14Z</time>
      </trkpt>
      <trkpt lat="47.1377" lon="-1.69726">
        <ele>9</ele>
        <time>2021-03-07T06:03:22Z</time>
      </trkpt>
      <trkpt lat="47.13838" lon="-1.69727">
        <ele>9</ele>
        <time>2021-03-07T06:03:34Z</time>
      </trkpt>
      <trkpt lat="47.13844" lon="-1.69727">
        <ele>9</ele>
        <time>2021-03-07T06:03:35Z</time>
      </trkpt>
      <trkpt lat="47.13851" lon="-1.69726">
        <ele>10</ele>
        <time>2021-03-07T06:03:36Z</time>
      </trkpt>
      <trkpt lat="47.13885" lon="-1.6972">
        <ele>10</ele>
        <time>2021-03-07T06:03:42Z</time>
      </trkpt>
      <trkpt lat="47.13888" lon="-1.6972">
        <ele>10</ele>
        <time>2021-03-07T06:03:43Z</time>
      </trkpt>
      <trkpt lat="47.13895" lon="-1.6972">
        <ele>10</ele>
        <time>2021-03-07T06:03:44Z</time>
      </trkpt>
      <trkpt lat="47.13904" lon="-1.69719">
        <ele>10</ele>
        <time>2021-03-07T06:03:45Z</time>
      </trkpt>
      <trkpt lat="47.13916" lon="-1.69718">
        <ele>10</ele>
        <time>2021-03-07T06:03:48Z</time>
      </trkpt>
      <trkpt lat="47.13935" lon="-1.69719">
        <ele>11</ele>
        <time>2021-03-07T06:03:51Z</time>
      </trkpt>
      <trkpt lat="47.14007" lon="-1.69726">
        <ele>12</ele>
        <time>2021-03-07T06:04:04Z</time>
      </trkpt>
      <trkpt lat="47.14036" lon="-1.69728">
        <ele>12</ele>
        <time>2021-03-07T06:04:09Z</time>
      </trkpt>
      <trkpt lat="47.14071" lon="-1.6973">
        <ele>12</ele>
        <time>2021-03-07T06:04:15Z</time>
      </trkpt>
      <trkpt lat="47.14102" lon="-1.69728">
        <ele>12</ele>
        <time>2021-03-07T06:04:21Z</time>
      </trkpt>
      <trkpt lat="47.14133" lon="-1.69724">
        <ele>12</ele>
        <time>2021-03-07T06:04:26Z</time>
      </trkpt>
      <trkpt lat="47.14181" lon="-1.69717">
        <ele>11</ele>
        <time>2021-03-07T06:04:35Z</time>
      </trkpt>
      <trkpt lat="47.14218" lon="-1.69711">
        <ele>12</ele>
        <time>2021-03-07T06:04:41Z</time>
      </trkpt>
      <trkpt lat="47.14251" lon="-1.69706">
        <ele>12</ele>
        <time>2021-03-07T06:04:47Z</time>
      </trkpt>
      <trkpt lat="47.14268" lon="-1.69705">
        <ele>12</ele>
        <time>2021-03-07T06:04:50Z</time>
      </trkpt>
      <trkpt lat="47.14322" lon="-1.69712">
        <ele>13</ele>
        <time>2021-03-07T06:05:00Z</time>
      </trkpt>
      <trkpt lat="47.14326" lon="-1.69713">
        <ele>13</ele>
        <time>2021-03-07T06:05:01Z</time>
      </trkpt>
      <trkpt lat="47.14345" lon="-1.69632">
        <ele>15</ele>
        <time>2021-03-07T06:05:11Z</time>
      </trkpt>
      <trkpt lat="47.14356" lon="-1.696">
        <ele>16</ele>
        <time>2021-03-07T06:05:15Z</time>
      </trkpt>
      <trkpt lat="47.14357" lon="-1.69595">
        <ele>16</ele>
        <time>2021-03-07T06:05:16Z</time>
      </trkpt>
      <trkpt lat="47.14367" lon="-1.69563">
        <ele>17</ele>
        <time>2021-03-07T06:05:20Z</time>
      </trkpt>
      <trkpt lat="47.14375" lon="-1.6953">
        <ele>18</ele>
        <time>2021-03-07T06:05:25Z</time>
      </trkpt>
      <trkpt lat="47.14377" lon="-1.69516">
        <ele>18</ele>
        <time>2021-03-07T06:05:26Z</time>
      </trkpt>
      <trkpt lat="47.14379" lon="-1.69505">
        <ele>18</ele>
        <time>2021-03-07T06:05:28Z</time>
      </trkpt>
      <trkpt lat="47.1438" lon="-1.69438">
        <ele>20</ele>
        <time>2021-03-07T06:05:36Z</time>
      </trkpt>
      <trkpt lat="47.14382" lon="-1.69402">
        <ele>21</ele>
        <time>2021-03-07T06:05:40Z</time>
      </trkpt>
      <trkpt lat="47.14387" lon="-1.69374">
        <ele>21</ele>
        <time>2021-03-07T06:05:44Z</time>
      </trkpt>
      <trkpt lat="47.1439" lon="-1.69353">
        <ele>21</ele>
        <time>2021-03-07T06:05:46Z</time>
      </trkpt>
      <trkpt lat="47.14392" lon="-1.69322">
        <ele>21</ele>
        <time>2021-03-07T06:05:50Z</time>
      </trkpt>
      <trkpt lat="47.14392" lon="-1.69314">
        <ele>21</ele>
        <time>2021-03-07T06:05:51Z</time>
      </trkpt>
      <trkpt lat="47.14393" lon="-1.69309">
        <ele>21</ele>
        <time>2021-03-07T06:05:52Z</time>
      </trkpt>
      <trkpt lat="47.14398" lon="-1.68911">
        <ele>19</ele>
        <time>2021-03-07T06:06:40Z</time>
      </trkpt>
      <trkpt lat="47.144" lon="-1.68872">
        <ele>19</ele>
        <time>2021-03-07T06:06:45Z</time>
      </trkpt>
      <trkpt lat="47.14405" lon="-1.68853">
        <ele>19</ele>
        <time>2021-03-07T06:06:47Z</time>
      </trkpt>
      <trkpt lat="47.1441" lon="-1.68782">
        <ele>18</ele>
        <time>2021-03-07T06:06:56Z</time>
      </trkpt>
      <trkpt lat="47.14407" lon="-1.6876">
        <ele>17</ele>
        <time>2021-03-07T06:06:58Z</time>
      </trkpt>
      <trkpt lat="47.14409" lon="-1.68708">
        <ele>17</ele>
        <time>2021-03-07T06:07:05Z</time>
      </trkpt>
      <trkpt lat="47.14408" lon="-1.68704">
        <ele>17</ele>
        <time>2021-03-07T06:07:05Z</time>
      </trkpt>
      <trkpt lat="47.14403" lon="-1.68697">
        <ele>17</ele>
        <time>2021-03-07T06:07:06Z</time>
      </trkpt>
      <trkpt lat="47.14406" lon="-1.6867">
        <ele>17</ele>
        <time>2021-03-07T06:07:10Z</time>
      </trkpt>
      <trkpt lat="47.14405" lon="-1.68659">
        <ele>17</ele>
        <time>2021-03-07T06:07:11Z</time>
      </trkpt>
      <trkpt lat="47.14403" lon="-1.68652">
        <ele>17</ele>
        <time>2021-03-07T06:07:12Z</time>
      </trkpt>
      <trkpt lat="47.14394" lon="-1.68633">
        <ele>16</ele>
        <time>2021-03-07T06:07:15Z</time>
      </trkpt>
      <trkpt lat="47.1439" lon="-1.68605">
        <ele>17</ele>
        <time>2021-03-07T06:07:18Z</time>
      </trkpt>
      <trkpt lat="47.14387" lon="-1.68532">
        <ele>17</ele>
        <time>2021-03-07T06:07:27Z</time>
      </trkpt>
      <trkpt lat="47.14388" lon="-1.68507">
        <ele>17</ele>
        <time>2021-03-07T06:07:30Z</time>
      </trkpt>
      <trkpt lat="47.14391" lon="-1.68499">
        <ele>17</ele>
        <time>2021-03-07T06:07:31Z</time>
      </trkpt>
      <trkpt lat="47.14397" lon="-1.68407">
        <ele>16</ele>
        <time>2021-03-07T06:07:42Z</time>
      </trkpt>
      <trkpt lat="47.14396" lon="-1.68381">
        <ele>15</ele>
        <time>2021-03-07T06:07:46Z</time>
      </trkpt>
      <trkpt lat="47.14394" lon="-1.68356">
        <ele>15</ele>
        <time>2021-03-07T06:07:49Z</time>
      </trkpt>
      <trkpt lat="47.14385" lon="-1.68307">
        <ele>15</ele>
        <time>2021-03-07T06:07:55Z</time>
      </trkpt>
      <trkpt lat="47.14379" lon="-1.68284">
        <ele>15</ele>
        <time>2021-03-07T06:07:58Z</time>
      </trkpt>
      <trkpt lat="47.14374" lon="-1.68276">
        <ele>15</ele>
        <time>2021-03-07T06:07:59Z</time>
      </trkpt>
      <trkpt lat="47.14368" lon="-1.68243">
        <ele>15</ele>
        <time>2021-03-07T06:08:03Z</time>
      </trkpt>
      <trkpt lat="47.14368" lon="-1.68231">
        <ele>15</ele>
        <time>2021-03-07T06:08:05Z</time>
      </trkpt>
      <trkpt lat="47.14373" lon="-1.68201">
        <ele>15</ele>
        <time>2021-03-07T06:08:08Z</time>
      </trkpt>
      <trkpt lat="47.14367" lon="-1.68145">
        <ele>15</ele>
        <time>2021-03-07T06:08:15Z</time>
      </trkpt>
      <trkpt lat="47.14369" lon="-1.68127">
        <ele>15</ele>
        <time>2021-03-07T06:08:17Z</time>
      </trkpt>
      <trkpt lat="47.14367" lon="-1.68099">
        <ele>14</ele>
        <time>2021-03-07T06:08:21Z</time>
      </trkpt>
      <trkpt lat="47.14364" lon="-1.68014">
        <ele>14</ele>
        <time>2021-03-07T06:08:31Z</time>
      </trkpt>
      <trkpt lat="47.14358" lon="-1.67952">
        <ele>14</ele>
        <time>2021-03-07T06:08:39Z</time>
      </trkpt>
      <trkpt lat="47.14359" lon="-1.67945">
        <ele>14</ele>
        <time>2021-03-07T06:08:40Z</time>
      </trkpt>
      <trkpt lat="47.14356" lon="-1.67921">
        <ele>14</ele>
        <time>2021-03-07T06:08:43Z</time>
      </trkpt>
      <trkpt lat="47.14352" lon="-1.67903">
        <ele>14</ele>
        <time>2021-03-07T06:08:45Z</time>
      </trkpt>
      <trkpt lat="47.14341" lon="-1.6789">
        <ele>14</ele>
        <time>2021-03-07T06:08:47Z</time>
      </trkpt>
      <trkpt lat="47.1434" lon="-1.67884">
        <ele>14</ele>
        <time>2021-03-07T06:08:48Z</time>
      </trkpt>
      <trkpt lat="47.1434" lon="-1.67868">
        <ele>14</ele>
        <time>2021-03-07T06:08:50Z</time>
      </trkpt>
      <trkpt lat="47.14346" lon="-1.67856">
        <ele>14</ele>
        <time>2021-03-07T06:08:52Z</time>
      </trkpt>
      <trkpt lat="47.14354" lon="-1.67851">
        <ele>14</ele>
        <time>2021-03-07T06:08:53Z</time>
      </trkpt>
      <trkpt lat="47.14366" lon="-1.67854">
        <ele>15</ele>
        <time>2021-03-07T06:08:56Z</time>
      </trkpt>
      <trkpt lat="47.14373" lon="-1.67864">
        <ele>15</ele>
        <time>2021-03-07T06:08:57Z</time>
      </trkpt>
      <trkpt lat="47.14376" lon="-1.67882">
        <ele>15</ele>
        <time>2021-03-07T06:09:00Z</time>
      </trkpt>
      <trkpt lat="47.1437" lon="-1.67897">
        <ele>14</ele>
        <time>2021-03-07T06:09:02Z</time>
      </trkpt>
      <trkpt lat="47.14372" lon="-1.67911">
        <ele>14</ele>
        <time>2021-03-07T06:09:03Z</time>
      </trkpt>
      <trkpt lat="47.14371" lon="-1.67923">
        <ele>14</ele>
        <time>2021-03-07T06:09:05Z</time>
      </trkpt>
      <trkpt lat="47.14373" lon="-1.68031">
        <ele>14</ele>
        <time>2021-03-07T06:09:18Z</time>
      </trkpt>
      <trkpt lat="47.14381" lon="-1.68132">
        <ele>15</ele>
        <time>2021-03-07T06:09:30Z</time>
      </trkpt>
      <trkpt lat="47.14389" lon="-1.68215">
        <ele>15</ele>
        <time>2021-03-07T06:09:40Z</time>
      </trkpt>
      <trkpt lat="47.14383" lon="-1.68216">
        <ele>15</ele>
        <time>2021-03-07T06:09:41Z</time>
      </trkpt>
      <trkpt lat="47.14376" lon="-1.68171">
        <ele>15</ele>
        <time>2021-03-07T06:09:47Z</time>
      </trkpt>
      <trkpt lat="47.14375" lon="-1.68123">
        <ele>15</ele>
        <time>2021-03-07T06:09:53Z</time>
      </trkpt>
      <trkpt lat="47.14371" lon="-1.68086">
        <ele>14</ele>
        <time>2021-03-07T06:09:57Z</time>
      </trkpt>
      <trkpt lat="47.14367" lon="-1.68086">
        <ele>14</ele>
        <time>2021-03-07T06:09:58Z</time>
      </trkpt>
      <trkpt lat="47.14363" lon="-1.67993">
        <ele>14</ele>
        <time>2021-03-07T06:10:09Z</time>
      </trkpt>
      <trkpt lat="47.14358" lon="-1.67952">
        <ele>14</ele>
        <time>2021-03-07T06:10:14Z</time>
      </trkpt>
      <trkpt lat="47.14359" lon="-1.67945">
        <ele>14</ele>
        <time>2021-03-07T06:10:15Z</time>
      </trkpt>
      <trkpt lat="47.14356" lon="-1.67921">
        <ele>14</ele>
        <time>2021-03-07T06:10:18Z</time>
      </trkpt>
      <trkpt lat="47.14352" lon="-1.67903">
        <ele>14</ele>
        <time>2021-03-07T06:10:21Z</time>
      </trkpt>
      <trkpt lat="47.1434" lon="-1.67887">
        <ele>14</ele>
        <time>2021-03-07T06:10:23Z</time>
      </trkpt>
      <trkpt lat="47.14341" lon="-1.67865">
        <ele>14</ele>
        <time>2021-03-07T06:10:26Z</time>
      </trkpt>
      <trkpt lat="47.14339" lon="-1.67861">
        <ele>14</ele>
        <time>2021-03-07T06:10:27Z</time>
      </trkpt>
      <trkpt lat="47.14343" lon="-1.67842">
        <ele>14</ele>
        <time>2021-03-07T06:10:29Z</time>
      </trkpt>
      <trkpt lat="47.14343" lon="-1.67824">
        <ele>15</ele>
        <time>2021-03-07T06:10:31Z</time>
      </trkpt>
      <trkpt lat="47.1434" lon="-1.6779">
        <ele>15</ele>
        <time>2021-03-07T06:10:35Z</time>
      </trkpt>
      <trkpt lat="47.14331" lon="-1.67752">
        <ele>16</ele>
        <time>2021-03-07T06:10:40Z</time>
      </trkpt>
      <trkpt lat="47.1433" lon="-1.67733">
        <ele>16</ele>
        <time>2021-03-07T06:10:43Z</time>
      </trkpt>
      <trkpt lat="47.14316" lon="-1.67681">
        <ele>15</ele>
        <time>2021-03-07T06:10:49Z</time>
      </trkpt>
      <trkpt lat="47.14314" lon="-1.67666">
        <ele>15</ele>
        <time>2021-03-07T06:10:51Z</time>
      </trkpt>
      <trkpt lat="47.14312" lon="-1.67647">
        <ele>14</ele>
        <time>2021-03-07T06:10:54Z</time>
      </trkpt>
      <trkpt lat="47.14306" lon="-1.6757">
        <ele>14</ele>
        <time>2021-03-07T06:11:03Z</time>
      </trkpt>
      <trkpt lat="47.14305" lon="-1.67561">
        <ele>14</ele>
        <time>2021-03-07T06:11:04Z</time>
      </trkpt>
      <trkpt lat="47.14303" lon="-1.67542">
        <ele>14</ele>
        <time>2021-03-07T06:11:06Z</time>
      </trkpt>
      <trkpt lat="47.14295" lon="-1.67497">
        <ele>15</ele>
        <time>2021-03-07T06:11:12Z</time>
      </trkpt>
      <trkpt lat="47.14281" lon="-1.67448">
        <ele>16</ele>
        <time>2021-03-07T06:11:18Z</time>
      </trkpt>
      <trkpt lat="47.14265" lon="-1.67405">
        <ele>17</ele>
        <time>2021-03-07T06:11:24Z</time>
      </trkpt>
      <trkpt lat="47.14214" lon="-1.67279">
        <ele>17</ele>
        <time>2021-03-07T06:11:42Z</time>
      </trkpt>
      <trkpt lat="47.14212" lon="-1.67273">
        <ele>16</ele>
        <time>2021-03-07T06:11:43Z</time>
      </trkpt>
      <trkpt lat="47.14206" lon="-1.67255">
        <ele>16</ele>
        <time>2021-03-07T06:11:45Z</time>
      </trkpt>
      <trkpt lat="47.14201" lon="-1.67239">
        <ele>15</ele>
        <time>2021-03-07T06:11:47Z</time>
      </trkpt>
      <trkpt lat="47.14196" lon="-1.67242">
        <ele>16</ele>
        <time>2021-03-07T06:11:48Z</time>
      </trkpt>
      <trkpt lat="47.14172" lon="-1.67245">
        <ele>16</ele>
        <time>2021-03-07T06:11:53Z</time>
      </trkpt>
      <trkpt lat="47.14165" lon="-1.67243">
        <ele>16</ele>
        <time>2021-03-07T06:11:54Z</time>
      </trkpt>
      <trkpt lat="47.14161" lon="-1.67241">
        <ele>16</ele>
        <time>2021-03-07T06:11:55Z</time>
      </trkpt>
      <trkpt lat="47.1416" lon="-1.67245">
        <ele>16</ele>
        <time>2021-03-07T06:11:55Z</time>
      </trkpt>
      <trkpt lat="47.14156" lon="-1.67248">
        <ele>16</ele>
        <time>2021-03-07T06:11:56Z</time>
      </trkpt>
      <trkpt lat="47.14152" lon="-1.67248">
        <ele>16</ele>
        <time>2021-03-07T06:11:57Z</time>
      </trkpt>
      <trkpt lat="47.1415" lon="-1.67246">
        <ele>16</ele>
        <time>2021-03-07T06:11:57Z</time>
      </trkpt>
      <trkpt lat="47.14148" lon="-1.67244">
        <ele>16</ele>
        <time>2021-03-07T06:11:58Z</time>
      </trkpt>
      <trkpt lat="47.14148" lon="-1.67237">
        <ele>15</ele>
        <time>2021-03-07T06:11:58Z</time>
      </trkpt>
      <trkpt lat="47.1415" lon="-1.67231">
        <ele>15</ele>
        <time>2021-03-07T06:11:59Z</time>
      </trkpt>
      <trkpt lat="47.14151" lon="-1.6723">
        <ele>15</ele>
        <time>2021-03-07T06:12:00Z</time>
      </trkpt>
      <trkpt lat="47.1415" lon="-1.67225">
        <ele>15</ele>
        <time>2021-03-07T06:12:00Z</time>
      </trkpt>
      <trkpt lat="47.14145" lon="-1.67209">
        <ele>15</ele>
        <time>2021-03-07T06:12:02Z</time>
      </trkpt>
      <trkpt lat="47.14136" lon="-1.67192">
        <ele>14</ele>
        <time>2021-03-07T06:12:05Z</time>
      </trkpt>
      <trkpt lat="47.14119" lon="-1.67163">
        <ele>13</ele>
        <time>2021-03-07T06:12:10Z</time>
      </trkpt>
      <trkpt lat="47.14086" lon="-1.67108">
        <ele>11</ele>
        <time>2021-03-07T06:12:18Z</time>
      </trkpt>
      <trkpt lat="47.14072" lon="-1.67086">
        <ele>11</ele>
        <time>2021-03-07T06:12:22Z</time>
      </trkpt>
      <trkpt lat="47.14045" lon="-1.67042">
        <ele>11</ele>
        <time>2021-03-07T06:12:29Z</time>
      </trkpt>
      <trkpt lat="47.14015" lon="-1.66993">
        <ele>10</ele>
        <time>2021-03-07T06:12:37Z</time>
      </trkpt>
      <trkpt lat="47.14012" lon="-1.66989">
        <ele>10</ele>
        <time>2021-03-07T06:12:38Z</time>
      </trkpt>
      <trkpt lat="47.13984" lon="-1.66942">
        <ele>11</ele>
        <time>2021-03-07T06:12:45Z</time>
      </trkpt>
      <trkpt lat="47.13973" lon="-1.6692">
        <ele>11</ele>
        <time>2021-03-07T06:12:49Z</time>
      </trkpt>
      <trkpt lat="47.13946" lon="-1.66847">
        <ele>10</ele>
        <time>2021-03-07T06:12:59Z</time>
      </trkpt>
      <trkpt lat="47.13942" lon="-1.66837">
        <ele>10</ele>
        <time>2021-03-07T06:13:00Z</time>
      </trkpt>
      <trkpt lat="47.13929" lon="-1.66803">
        <ele>10</ele>
        <time>2021-03-07T06:13:05Z</time>
      </trkpt>
      <trkpt lat="47.13918" lon="-1.66775">
        <ele>11</ele>
        <time>2021-03-07T06:13:09Z</time>
      </trkpt>
      <trkpt lat="47.13897" lon="-1.66727">
        <ele>10</ele>
        <time>2021-03-07T06:13:16Z</time>
      </trkpt>
      <trkpt lat="47.13888" lon="-1.66715">
        <ele>10</ele>
        <time>2021-03-07T06:13:18Z</time>
      </trkpt>
      <trkpt lat="47.13882" lon="-1.66706">
        <ele>10</ele>
        <time>2021-03-07T06:13:19Z</time>
      </trkpt>
      <trkpt lat="47.13866" lon="-1.66678">
        <ele>9</ele>
        <time>2021-03-07T06:13:24Z</time>
      </trkpt>
      <trkpt lat="47.13856" lon="-1.66652">
        <ele>9</ele>
        <time>2021-03-07T06:13:27Z</time>
      </trkpt>
      <trkpt lat="47.13853" lon="-1.6664">
        <ele>9</ele>
        <time>2021-03-07T06:13:29Z</time>
      </trkpt>
      <trkpt lat="47.13833" lon="-1.6651">
        <ele>10</ele>
        <time>2021-03-07T06:13:45Z</time>
      </trkpt>
      <trkpt lat="47.13825" lon="-1.66473">
        <ele>10</ele>
        <time>2021-03-07T06:13:50Z</time>
      </trkpt>
      <trkpt lat="47.13816" lon="-1.66445">
        <ele>11</ele>
        <time>2021-03-07T06:13:54Z</time>
      </trkpt>
      <trkpt lat="47.13811" lon="-1.66432">
        <ele>11</ele>
        <time>2021-03-07T06:13:55Z</time>
      </trkpt>
      <trkpt lat="47.13807" lon="-1.66423">
        <ele>11</ele>
        <time>2021-03-07T06:13:57Z</time>
      </trkpt>
      <trkpt lat="47.13792" lon="-1.66393">
        <ele>11</ele>
        <time>2021-03-07T06:14:01Z</time>
      </trkpt>
      <trkpt lat="47.13767" lon="-1.6634">
        <ele>11</ele>
        <time>2021-03-07T06:14:09Z</time>
      </trkpt>
      <trkpt lat="47.13758" lon="-1.66313">
        <ele>12</ele>
        <time>2021-03-07T06:14:13Z</time>
      </trkpt>
      <trkpt lat="47.13752" lon="-1.66282">
        <ele>12</ele>
        <time>2021-03-07T06:14:17Z</time>
      </trkpt>
      <trkpt lat="47.1375" lon="-1.66265">
        <ele>13</ele>
        <time>2021-03-07T06:14:19Z</time>
      </trkpt>
      <trkpt lat="47.13747" lon="-1.66244">
        <ele>13</ele>
        <time>2021-03-07T06:14:21Z</time>
      </trkpt>
      <trkpt lat="47.13733" lon="-1.66085">
        <ele>13</ele>
        <time>2021-03-07T06:14:41Z</time>
      </trkpt>
      <trkpt lat="47.13733" lon="-1.66034">
        <ele>13</ele>
        <time>2021-03-07T06:14:47Z</time>
      </trkpt>
      <trkpt lat="47.13738" lon="-1.65944">
        <ele>13</ele>
        <time>2021-03-07T06:14:58Z</time>
      </trkpt>
      <trkpt lat="47.13742" lon="-1.65884">
        <ele>13</ele>
        <time>2021-03-07T06:15:05Z</time>
      </trkpt>
      <trkpt lat="47.13744" lon="-1.6585">
        <ele>13</ele>
        <time>2021-03-07T06:15:09Z</time>
      </trkpt>
      <trkpt lat="47.13746" lon="-1.65815">
        <ele>13</ele>
        <time>2021-03-07T06:15:13Z</time>
      </trkpt>
      <trkpt lat="47.13745" lon="-1.65771">
        <ele>13</ele>
        <time>2021-03-07T06:15:19Z</time>
      </trkpt>
      <trkpt lat="47.13744" lon="-1.65756">
        <ele>13</ele>
        <time>2021-03-07T06:15:21Z</time>
      </trkpt>
      <trkpt lat="47.13742" lon="-1.65731">
        <ele>13</ele>
        <time>2021-03-07T06:15:24Z</time>
      </trkpt>
      <trkpt lat="47.13735" lon="-1.65694">
        <ele>12</ele>
        <time>2021-03-07T06:15:28Z</time>
      </trkpt>
      <trkpt lat="47.13725" lon="-1.65655">
        <ele>12</ele>
        <time>2021-03-07T06:15:33Z</time>
      </trkpt>
      <trkpt lat="47.13717" lon="-1.65634">
        <ele>12</ele>
        <time>2021-03-07T06:15:36Z</time>
      </trkpt>
      <trkpt lat="47.13711" lon="-1.65619">
        <ele>13</ele>
        <time>2021-03-07T06:15:38Z</time>
      </trkpt>
      <trkpt lat="47.13679" lon="-1.6555">
        <ele>12</ele>
        <time>2021-03-07T06:15:48Z</time>
      </trkpt>
      <trkpt lat="47.13666" lon="-1.65522">
        <ele>12</ele>
        <time>2021-03-07T06:15:53Z</time>
      </trkpt>
      <trkpt lat="47.1366" lon="-1.65509">
        <ele>12</ele>
        <time>2021-03-07T06:15:54Z</time>
      </trkpt>
      <trkpt lat="47.13655" lon="-1.65499">
        <ele>12</ele>
        <time>2021-03-07T06:15:56Z</time>
      </trkpt>
      <trkpt lat="47.13637" lon="-1.65459">
        <ele>12</ele>
        <time>2021-03-07T06:16:02Z</time>
      </trkpt>
      <trkpt lat="47.13628" lon="-1.65441">
        <ele>12</ele>
        <time>2021-03-07T06:16:04Z</time>
      </trkpt>
      <trkpt lat="47.13606" lon="-1.65397">
        <ele>11</ele>
        <time>2021-03-07T06:16:11Z</time>
      </trkpt>
      <trkpt lat="47.13589" lon="-1.65372">
        <ele>11</ele>
        <time>2021-03-07T06:16:15Z</time>
      </trkpt>
      <trkpt lat="47.13584" lon="-1.65366">
        <ele>11</ele>
        <time>2021-03-07T06:16:17Z</time>
      </trkpt>
      <trkpt lat="47.13555" lon="-1.65329">
        <ele>11</ele>
        <time>2021-03-07T06:16:23Z</time>
      </trkpt>
      <trkpt lat="47.13529" lon="-1.65294">
        <ele>11</ele>
        <time>2021-03-07T06:16:30Z</time>
      </trkpt>
      <trkpt lat="47.13517" lon="-1.65277">
        <ele>11</ele>
        <time>2021-03-07T06:16:33Z</time>
      </trkpt>
      <trkpt lat="47.13507" lon="-1.65261">
        <ele>11</ele>
        <time>2021-03-07T06:16:35Z</time>
      </trkpt>
      <trkpt lat="47.13486" lon="-1.6522">
        <ele>12</ele>
        <time>2021-03-07T06:16:41Z</time>
      </trkpt>
      <trkpt lat="47.13472" lon="-1.65182">
        <ele>13</ele>
        <time>2021-03-07T06:16:47Z</time>
      </trkpt>
      <trkpt lat="47.13468" lon="-1.65164">
        <ele>13</ele>
        <time>2021-03-07T06:16:49Z</time>
      </trkpt>
      <trkpt lat="47.13457" lon="-1.65118">
        <ele>15</ele>
        <time>2021-03-07T06:16:55Z</time>
      </trkpt>
      <trkpt lat="47.1342" lon="-1.64934">
        <ele>19</ele>
        <time>2021-03-07T06:17:18Z</time>
      </trkpt>
      <trkpt lat="47.13415" lon="-1.64909">
        <ele>20</ele>
        <time>2021-03-07T06:17:21Z</time>
      </trkpt>
      <trkpt lat="47.13407" lon="-1.6487">
        <ele>22</ele>
        <time>2021-03-07T06:17:26Z</time>
      </trkpt>
      <trkpt lat="47.13398" lon="-1.64819">
        <ele>24</ele>
        <time>2021-03-07T06:17:33Z</time>
      </trkpt>
      <trkpt lat="47.13393" lon="-1.64765">
        <ele>24</ele>
        <time>2021-03-07T06:17:39Z</time>
      </trkpt>
      <trkpt lat="47.13397" lon="-1.64669">
        <ele>23</ele>
        <time>2021-03-07T06:17:51Z</time>
      </trkpt>
      <trkpt lat="47.13397" lon="-1.64639">
        <ele>23</ele>
        <time>2021-03-07T06:17:54Z</time>
      </trkpt>
      <trkpt lat="47.13394" lon="-1.64615">
        <ele>23</ele>
        <time>2021-03-07T06:17:57Z</time>
      </trkpt>
      <trkpt lat="47.13388" lon="-1.64577">
        <ele>23</ele>
        <time>2021-03-07T06:18:02Z</time>
      </trkpt>
      <trkpt lat="47.13381" lon="-1.64544">
        <ele>21</ele>
        <time>2021-03-07T06:18:06Z</time>
      </trkpt>
      <trkpt lat="47.13359" lon="-1.64482">
        <ele>19</ele>
        <time>2021-03-07T06:18:15Z</time>
      </trkpt>
      <trkpt lat="47.13349" lon="-1.64459">
        <ele>19</ele>
        <time>2021-03-07T06:18:18Z</time>
      </trkpt>
      <trkpt lat="47.13332" lon="-1.64423">
        <ele>18</ele>
        <time>2021-03-07T06:18:23Z</time>
      </trkpt>
      <trkpt lat="47.13251" lon="-1.64251">
        <ele>13</ele>
        <time>2021-03-07T06:18:49Z</time>
      </trkpt>
      <trkpt lat="47.13244" lon="-1.64232">
        <ele>13</ele>
        <time>2021-03-07T06:18:51Z</time>
      </trkpt>
      <trkpt lat="47.13233" lon="-1.64208">
        <ele>13</ele>
        <time>2021-03-07T06:18:55Z</time>
      </trkpt>
      <trkpt lat="47.13226" lon="-1.64196">
        <ele>13</ele>
        <time>2021-03-07T06:18:57Z</time>
      </trkpt>
      <trkpt lat="47.13216" lon="-1.64176">
        <ele>13</ele>
        <time>2021-03-07T06:19:00Z</time>
      </trkpt>
      <trkpt lat="47.13142" lon="-1.64006">
        <ele>11</ele>
        <time>2021-03-07T06:19:24Z</time>
      </trkpt>
      <trkpt lat="47.13117" lon="-1.63938">
        <ele>11</ele>
        <time>2021-03-07T06:19:33Z</time>
      </trkpt>
      <trkpt lat="47.13095" lon="-1.6388">
        <ele>11</ele>
        <time>2021-03-07T06:19:42Z</time>
      </trkpt>
      <trkpt lat="47.13061" lon="-1.63796">
        <ele>11</ele>
        <time>2021-03-07T06:19:53Z</time>
      </trkpt>
      <trkpt lat="47.13001" lon="-1.63671">
        <ele>8</ele>
        <time>2021-03-07T06:20:12Z</time>
      </trkpt>
      <trkpt lat="47.12997" lon="-1.63661">
        <ele>8</ele>
        <time>2021-03-07T06:20:13Z</time>
      </trkpt>
      <trkpt lat="47.12981" lon="-1.63616">
        <ele>7</ele>
        <time>2021-03-07T06:20:19Z</time>
      </trkpt>
      <trkpt lat="47.12955" lon="-1.63549">
        <ele>6</ele>
        <time>2021-03-07T06:20:29Z</time>
      </trkpt>
      <trkpt lat="47.12952" lon="-1.6354">
        <ele>5</ele>
        <time>2021-03-07T06:20:30Z</time>
      </trkpt>
      <trkpt lat="47.12943" lon="-1.63516">
        <ele>5</ele>
        <time>2021-03-07T06:20:33Z</time>
      </trkpt>
      <trkpt lat="47.1293" lon="-1.63483">
        <ele>5</ele>
        <time>2021-03-07T06:20:38Z</time>
      </trkpt>
      <trkpt lat="47.12928" lon="-1.63477">
        <ele>5</ele>
        <time>2021-03-07T06:20:39Z</time>
      </trkpt>
      <trkpt lat="47.12717" lon="-1.62934">
        <ele>8</ele>
        <time>2021-03-07T06:21:54Z</time>
      </trkpt>
      <trkpt lat="47.12706" lon="-1.62907">
        <ele>8</ele>
        <time>2021-03-07T06:21:58Z</time>
      </trkpt>
      <trkpt lat="47.1269" lon="-1.62865">
        <ele>8</ele>
        <time>2021-03-07T06:22:04Z</time>
      </trkpt>
      <trkpt lat="47.12675" lon="-1.62827">
        <ele>8</ele>
        <time>2021-03-07T06:22:09Z</time>
      </trkpt>
      <trkpt lat="47.12672" lon="-1.62818">
        <ele>8</ele>
        <time>2021-03-07T06:22:11Z</time>
      </trkpt>
      <trkpt lat="47.12669" lon="-1.6282">
        <ele>8</ele>
        <time>2021-03-07T06:22:11Z</time>
      </trkpt>
      <trkpt lat="47.12666" lon="-1.62821">
        <ele>8</ele>
        <time>2021-03-07T06:22:12Z</time>
      </trkpt>
      <trkpt lat="47.1266" lon="-1.62818">
        <ele>8</ele>
        <time>2021-03-07T06:22:13Z</time>
      </trkpt>
      <trkpt lat="47.12657" lon="-1.62815">
        <ele>8</ele>
        <time>2021-03-07T06:22:13Z</time>
      </trkpt>
      <trkpt lat="47.12656" lon="-1.6281">
        <ele>8</ele>
        <time>2021-03-07T06:22:14Z</time>
      </trkpt>
      <trkpt lat="47.12656" lon="-1.62806">
        <ele>8</ele>
        <time>2021-03-07T06:22:15Z</time>
      </trkpt>
      <trkpt lat="47.12658" lon="-1.62797">
        <ele>8</ele>
        <time>2021-03-07T06:22:16Z</time>
      </trkpt>
      <trkpt lat="47.12661" lon="-1.62794">
        <ele>8</ele>
        <time>2021-03-07T06:22:16Z</time>
      </trkpt>
      <trkpt lat="47.12658" lon="-1.62788">
        <ele>8</ele>
        <time>2021-03-07T06:22:17Z</time>
      </trkpt>
      <trkpt lat="47.12588" lon="-1.62644">
        <ele>7</ele>
        <time>2021-03-07T06:22:39Z</time>
      </trkpt>
      <trkpt lat="47.1258" lon="-1.62623">
        <ele>7</ele>
        <time>2021-03-07T06:22:42Z</time>
      </trkpt>
      <trkpt lat="47.12575" lon="-1.62604">
        <ele>7</ele>
        <time>2021-03-07T06:22:44Z</time>
      </trkpt>
      <trkpt lat="47.12563" lon="-1.62546">
        <ele>7</ele>
        <time>2021-03-07T06:22:51Z</time>
      </trkpt>
      <trkpt lat="47.12558" lon="-1.62519">
        <ele>7</ele>
        <time>2021-03-07T06:22:55Z</time>
      </trkpt>
      <trkpt lat="47.12549" lon="-1.62474">
        <ele>7</ele>
        <time>2021-03-07T06:23:01Z</time>
      </trkpt>
      <trkpt lat="47.12536" lon="-1.62423">
        <ele>7</ele>
        <time>2021-03-07T06:23:07Z</time>
      </trkpt>
      <trkpt lat="47.12529" lon="-1.62403">
        <ele>7</ele>
        <time>2021-03-07T06:23:10Z</time>
      </trkpt>
      <trkpt lat="47.12523" lon="-1.62387">
        <ele>7</ele>
        <time>2021-03-07T06:23:12Z</time>
      </trkpt>
      <trkpt lat="47.12513" lon="-1.62362">
        <ele>7</ele>
        <time>2021-03-07T06:23:16Z</time>
      </trkpt>
      <trkpt lat="47.12493" lon="-1.62323">
        <ele>7</ele>
        <time>2021-03-07T06:23:21Z</time>
      </trkpt>
      <trkpt lat="47.12471" lon="-1.62287">
        <ele>6</ele>
        <time>2021-03-07T06:23:27Z</time>
      </trkpt>
      <trkpt lat="47.12447" lon="-1.62251">
        <ele>5</ele>
        <time>2021-03-07T06:23:33Z</time>
      </trkpt>
      <trkpt lat="47.12431" lon="-1.62229">
        <ele>5</ele>
        <time>2021-03-07T06:23:37Z</time>
      </trkpt>
      <trkpt lat="47.12415" lon="-1.622">
        <ele>5</ele>
        <time>2021-03-07T06:23:42Z</time>
      </trkpt>
      <trkpt lat="47.12402" lon="-1.62174">
        <ele>6</ele>
        <time>2021-03-07T06:23:46Z</time>
      </trkpt>
      <trkpt lat="47.12394" lon="-1.62153">
        <ele>6</ele>
        <time>2021-03-07T06:23:49Z</time>
      </trkpt>
      <trkpt lat="47.12389" lon="-1.62129">
        <ele>6</ele>
        <time>2021-03-07T06:23:52Z</time>
      </trkpt>
      <trkpt lat="47.12384" lon="-1.62109">
        <ele>7</ele>
        <time>2021-03-07T06:23:54Z</time>
      </trkpt>
      <trkpt lat="47.12382" lon="-1.62087">
        <ele>7</ele>
        <time>2021-03-07T06:23:57Z</time>
      </trkpt>
      <trkpt lat="47.12382" lon="-1.62063">
        <ele>8</ele>
        <time>2021-03-07T06:24:00Z</time>
      </trkpt>
      <trkpt lat="47.12384" lon="-1.62032">
        <ele>8</ele>
        <time>2021-03-07T06:24:04Z</time>
      </trkpt>
      <trkpt lat="47.12388" lon="-1.62011">
        <ele>9</ele>
        <time>2021-03-07T06:24:06Z</time>
      </trkpt>
      <trkpt lat="47.12389" lon="-1.62005">
        <ele>9</ele>
        <time>2021-03-07T06:24:07Z</time>
      </trkpt>
      <trkpt lat="47.1239" lon="-1.62003">
        <ele>9</ele>
        <time>2021-03-07T06:24:07Z</time>
      </trkpt>
      <trkpt lat="47.12417" lon="-1.61893">
        <ele>7</ele>
        <time>2021-03-07T06:24:21Z</time>
      </trkpt>
      <trkpt lat="47.12421" lon="-1.61884">
        <ele>7</ele>
        <time>2021-03-07T06:24:23Z</time>
      </trkpt>
      <trkpt lat="47.12427" lon="-1.61872">
        <ele>8</ele>
        <time>2021-03-07T06:24:25Z</time>
      </trkpt>
      <trkpt lat="47.1243" lon="-1.61865">
        <ele>8</ele>
        <time>2021-03-07T06:24:26Z</time>
      </trkpt>
      <trkpt lat="47.12429" lon="-1.61862">
        <ele>8</ele>
        <time>2021-03-07T06:24:26Z</time>
      </trkpt>
      <trkpt lat="47.12427" lon="-1.61855">
        <ele>8</ele>
        <time>2021-03-07T06:24:27Z</time>
      </trkpt>
      <trkpt lat="47.12429" lon="-1.61848">
        <ele>8</ele>
        <time>2021-03-07T06:24:28Z</time>
      </trkpt>
      <trkpt lat="47.12431" lon="-1.61846">
        <ele>8</ele>
        <time>2021-03-07T06:24:28Z</time>
      </trkpt>
      <trkpt lat="47.12433" lon="-1.61845">
        <ele>8</ele>
        <time>2021-03-07T06:24:29Z</time>
      </trkpt>
      <trkpt lat="47.12436" lon="-1.61845">
        <ele>8</ele>
        <time>2021-03-07T06:24:29Z</time>
      </trkpt>
      <trkpt lat="47.12436" lon="-1.61839">
        <ele>8</ele>
        <time>2021-03-07T06:24:30Z</time>
      </trkpt>
      <trkpt lat="47.12437" lon="-1.61821">
        <ele>8</ele>
        <time>2021-03-07T06:24:32Z</time>
      </trkpt>
      <trkpt lat="47.12469" lon="-1.61694">
        <ele>9</ele>
        <time>2021-03-07T06:24:48Z</time>
      </trkpt>
      <trkpt lat="47.12473" lon="-1.61677">
        <ele>9</ele>
        <time>2021-03-07T06:24:51Z</time>
      </trkpt>
      <trkpt lat="47.12477" lon="-1.61641">
        <ele>9</ele>
        <time>2021-03-07T06:24:55Z</time>
      </trkpt>
      <trkpt lat="47.12477" lon="-1.61604">
        <ele>9</ele>
        <time>2021-03-07T06:25:00Z</time>
      </trkpt>
      <trkpt lat="47.12464" lon="-1.61489">
        <ele>11</ele>
        <time>2021-03-07T06:25:14Z</time>
      </trkpt>
      <trkpt lat="47.12461" lon="-1.61459">
        <ele>11</ele>
        <time>2021-03-07T06:25:17Z</time>
      </trkpt>
      <trkpt lat="47.12456" lon="-1.61401">
        <ele>11</ele>
        <time>2021-03-07T06:25:24Z</time>
      </trkpt>
      <trkpt lat="47.12455" lon="-1.61393">
        <ele>11</ele>
        <time>2021-03-07T06:25:25Z</time>
      </trkpt>
      <trkpt lat="47.12454" lon="-1.61379">
        <ele>11</ele>
        <time>2021-03-07T06:25:27Z</time>
      </trkpt>
      <trkpt lat="47.12456" lon="-1.61358">
        <ele>11</ele>
        <time>2021-03-07T06:25:30Z</time>
      </trkpt>
      <trkpt lat="47.12463" lon="-1.61328">
        <ele>11</ele>
        <time>2021-03-07T06:25:34Z</time>
      </trkpt>
      <trkpt lat="47.12469" lon="-1.61307">
        <ele>11</ele>
        <time>2021-03-07T06:25:36Z</time>
      </trkpt>
      <trkpt lat="47.12482" lon="-1.61267">
        <ele>10</ele>
        <time>2021-03-07T06:25:42Z</time>
      </trkpt>
      <trkpt lat="47.12495" lon="-1.61219">
        <ele>10</ele>
        <time>2021-03-07T06:25:48Z</time>
      </trkpt>
      <trkpt lat="47.12499" lon="-1.61192">
        <ele>10</ele>
        <time>2021-03-07T06:25:51Z</time>
      </trkpt>
      <trkpt lat="47.12502" lon="-1.61168">
        <ele>10</ele>
        <time>2021-03-07T06:25:54Z</time>
      </trkpt>
      <trkpt lat="47.12507" lon="-1.61121">
        <ele>10</ele>
        <time>2021-03-07T06:26:00Z</time>
      </trkpt>
      <trkpt lat="47.12509" lon="-1.61099">
        <ele>10</ele>
        <time>2021-03-07T06:26:03Z</time>
      </trkpt>
      <trkpt lat="47.12525" lon="-1.60932">
        <ele>10</ele>
        <time>2021-03-07T06:26:23Z</time>
      </trkpt>
      <trkpt lat="47.12528" lon="-1.60894">
        <ele>10</ele>
        <time>2021-03-07T06:26:28Z</time>
      </trkpt>
      <trkpt lat="47.12532" lon="-1.60851">
        <ele>10</ele>
        <time>2021-03-07T06:26:33Z</time>
      </trkpt>
      <trkpt lat="47.12534" lon="-1.60831">
        <ele>10</ele>
        <time>2021-03-07T06:26:35Z</time>
      </trkpt>
      <trkpt lat="47.12536" lon="-1.60816">
        <ele>10</ele>
        <time>2021-03-07T06:26:37Z</time>
      </trkpt>
      <trkpt lat="47.12536" lon="-1.60809">
        <ele>10</ele>
        <time>2021-03-07T06:26:38Z</time>
      </trkpt>
      <trkpt lat="47.1254" lon="-1.60762">
        <ele>9</ele>
        <time>2021-03-07T06:26:44Z</time>
      </trkpt>
      <trkpt lat="47.12542" lon="-1.60704">
        <ele>9</ele>
        <time>2021-03-07T06:26:51Z</time>
      </trkpt>
      <trkpt lat="47.12542" lon="-1.60702">
        <ele>9</ele>
        <time>2021-03-07T06:26:51Z</time>
      </trkpt>
      <trkpt lat="47.12541" lon="-1.60607">
        <ele>10</ele>
        <time>2021-03-07T06:27:03Z</time>
      </trkpt>
      <trkpt lat="47.1254" lon="-1.60543">
        <ele>10</ele>
        <time>2021-03-07T06:27:10Z</time>
      </trkpt>
      <trkpt lat="47.12537" lon="-1.605">
        <ele>10</ele>
        <time>2021-03-07T06:27:16Z</time>
      </trkpt>
      <trkpt lat="47.12516" lon="-1.60384">
        <ele>8</ele>
        <time>2021-03-07T06:27:30Z</time>
      </trkpt>
      <trkpt lat="47.12501" lon="-1.60311">
        <ele>6</ele>
        <time>2021-03-07T06:27:39Z</time>
      </trkpt>
      <trkpt lat="47.12498" lon="-1.60296">
        <ele>6</ele>
        <time>2021-03-07T06:27:41Z</time>
      </trkpt>
      <trkpt lat="47.12488" lon="-1.60243">
        <ele>5</ele>
        <time>2021-03-07T06:27:48Z</time>
      </trkpt>
      <trkpt lat="47.12482" lon="-1.60206">
        <ele>6</ele>
        <time>2021-03-07T06:27:53Z</time>
      </trkpt>
      <trkpt lat="47.12478" lon="-1.60168">
        <ele>7</ele>
        <time>2021-03-07T06:27:57Z</time>
      </trkpt>
      <trkpt lat="47.12467" lon="-1.59935">
        <ele>11</ele>
        <time>2021-03-07T06:28:25Z</time>
      </trkpt>
      <trkpt lat="47.12463" lon="-1.5983">
        <ele>11</ele>
        <time>2021-03-07T06:28:38Z</time>
      </trkpt>
      <trkpt lat="47.1246" lon="-1.59781">
        <ele>10</ele>
        <time>2021-03-07T06:28:44Z</time>
      </trkpt>
      <trkpt lat="47.12453" lon="-1.59655">
        <ele>10</ele>
        <time>2021-03-07T06:28:59Z</time>
      </trkpt>
      <trkpt lat="47.12451" lon="-1.59618">
        <ele>10</ele>
        <time>2021-03-07T06:29:04Z</time>
      </trkpt>
      <trkpt lat="47.12443" lon="-1.59457">
        <ele>7</ele>
        <time>2021-03-07T06:29:23Z</time>
      </trkpt>
      <trkpt lat="47.12441" lon="-1.59402">
        <ele>6</ele>
        <time>2021-03-07T06:29:30Z</time>
      </trkpt>
      <trkpt lat="47.12437" lon="-1.59317">
        <ele>7</ele>
        <time>2021-03-07T06:29:40Z</time>
      </trkpt>
      <trkpt lat="47.12435" lon="-1.59279">
        <ele>7</ele>
        <time>2021-03-07T06:29:45Z</time>
      </trkpt>
      <trkpt lat="47.12432" lon="-1.59221">
        <ele>7</ele>
        <time>2021-03-07T06:29:52Z</time>
      </trkpt>
      <trkpt lat="47.12431" lon="-1.59209">
        <ele>6</ele>
        <time>2021-03-07T06:29:54Z</time>
      </trkpt>
      <trkpt lat="47.12427" lon="-1.59209">
        <ele>6</ele>
        <time>2021-03-07T06:29:54Z</time>
      </trkpt>
      <trkpt lat="47.12421" lon="-1.59201">
        <ele>6</ele>
        <time>2021-03-07T06:29:56Z</time>
      </trkpt>
      <trkpt lat="47.1242" lon="-1.59196">
        <ele>6</ele>
        <time>2021-03-07T06:29:56Z</time>
      </trkpt>
      <trkpt lat="47.1242" lon="-1.59189">
        <ele>6</ele>
        <time>2021-03-07T06:29:57Z</time>
      </trkpt>
      <trkpt lat="47.12422" lon="-1.59183">
        <ele>6</ele>
        <time>2021-03-07T06:29:58Z</time>
      </trkpt>
      <trkpt lat="47.12426" lon="-1.59179">
        <ele>6</ele>
        <time>2021-03-07T06:29:59Z</time>
      </trkpt>
      <trkpt lat="47.1243" lon="-1.59177">
        <ele>6</ele>
        <time>2021-03-07T06:30:00Z</time>
      </trkpt>
      <trkpt lat="47.12429" lon="-1.59167">
        <ele>5</ele>
        <time>2021-03-07T06:30:01Z</time>
      </trkpt>
      <trkpt lat="47.12428" lon="-1.59141">
        <ele>6</ele>
        <time>2021-03-07T06:30:04Z</time>
      </trkpt>
      <trkpt lat="47.12427" lon="-1.59126">
        <ele>6</ele>
        <time>2021-03-07T06:30:06Z</time>
      </trkpt>
      <trkpt lat="47.12425" lon="-1.5906">
        <ele>6</ele>
        <time>2021-03-07T06:30:14Z</time>
      </trkpt>
      <trkpt lat="47.12419" lon="-1.58932">
        <ele>9</ele>
        <time>2021-03-07T06:30:29Z</time>
      </trkpt>
      <trkpt lat="47.12413" lon="-1.58885">
        <ele>10</ele>
        <time>2021-03-07T06:30:35Z</time>
      </trkpt>
      <trkpt lat="47.12412" lon="-1.58874">
        <ele>10</ele>
        <time>2021-03-07T06:30:36Z</time>
      </trkpt>
      <trkpt lat="47.12411" lon="-1.58862">
        <ele>11</ele>
        <time>2021-03-07T06:30:38Z</time>
      </trkpt>
      <trkpt lat="47.1241" lon="-1.58856">
        <ele>11</ele>
        <time>2021-03-07T06:30:39Z</time>
      </trkpt>
      <trkpt lat="47.12408" lon="-1.58828">
        <ele>11</ele>
        <time>2021-03-07T06:30:42Z</time>
      </trkpt>
      <trkpt lat="47.12401" lon="-1.5878">
        <ele>11</ele>
        <time>2021-03-07T06:30:48Z</time>
      </trkpt>
      <trkpt lat="47.12385" lon="-1.58704">
        <ele>10</ele>
        <time>2021-03-07T06:30:58Z</time>
      </trkpt>
      <trkpt lat="47.12383" lon="-1.58692">
        <ele>10</ele>
        <time>2021-03-07T06:30:59Z</time>
      </trkpt>
      <trkpt lat="47.12371" lon="-1.58635">
        <ele>9</ele>
        <time>2021-03-07T06:31:06Z</time>
      </trkpt>
      <trkpt lat="47.12364" lon="-1.58606">
        <ele>8</ele>
        <time>2021-03-07T06:31:10Z</time>
      </trkpt>
      <trkpt lat="47.12357" lon="-1.5858">
        <ele>8</ele>
        <time>2021-03-07T06:31:14Z</time>
      </trkpt>
      <trkpt lat="47.12355" lon="-1.58569">
        <ele>8</ele>
        <time>2021-03-07T06:31:15Z</time>
      </trkpt>
      <trkpt lat="47.1235" lon="-1.58547">
        <ele>8</ele>
        <time>2021-03-07T06:31:18Z</time>
      </trkpt>
      <trkpt lat="47.12337" lon="-1.58489">
        <ele>7</ele>
        <time>2021-03-07T06:31:25Z</time>
      </trkpt>
      <trkpt lat="47.12335" lon="-1.58477">
        <ele>7</ele>
        <time>2021-03-07T06:31:27Z</time>
      </trkpt>
      <trkpt lat="47.1233" lon="-1.58461">
        <ele>7</ele>
        <time>2021-03-07T06:31:29Z</time>
      </trkpt>
      <trkpt lat="47.12326" lon="-1.58447">
        <ele>7</ele>
        <time>2021-03-07T06:31:31Z</time>
      </trkpt>
      <trkpt lat="47.12325" lon="-1.58447">
        <ele>7</ele>
        <time>2021-03-07T06:31:31Z</time>
      </trkpt>
      <trkpt lat="47.12322" lon="-1.58445">
        <ele>7</ele>
        <time>2021-03-07T06:31:31Z</time>
      </trkpt>
      <trkpt lat="47.1232" lon="-1.5844">
        <ele>7</ele>
        <time>2021-03-07T06:31:32Z</time>
      </trkpt>
      <trkpt lat="47.1232" lon="-1.58438">
        <ele>7</ele>
        <time>2021-03-07T06:31:32Z</time>
      </trkpt>
      <trkpt lat="47.12317" lon="-1.58431">
        <ele>7</ele>
        <time>2021-03-07T06:31:33Z</time>
      </trkpt>
      <trkpt lat="47.12302" lon="-1.584">
        <ele>7</ele>
        <time>2021-03-07T06:31:38Z</time>
      </trkpt>
      <trkpt lat="47.12299" lon="-1.58393">
        <ele>7</ele>
        <time>2021-03-07T06:31:39Z</time>
      </trkpt>
      <trkpt lat="47.12298" lon="-1.5839">
        <ele>7</ele>
        <time>2021-03-07T06:31:39Z</time>
      </trkpt>
      <trkpt lat="47.12297" lon="-1.58384">
        <ele>7</ele>
        <time>2021-03-07T06:31:40Z</time>
      </trkpt>
      <trkpt lat="47.12297" lon="-1.58377">
        <ele>7</ele>
        <time>2021-03-07T06:31:41Z</time>
      </trkpt>
      <trkpt lat="47.12297" lon="-1.58359">
        <ele>7</ele>
        <time>2021-03-07T06:31:43Z</time>
      </trkpt>
      <trkpt lat="47.12293" lon="-1.58347">
        <ele>7</ele>
        <time>2021-03-07T06:31:45Z</time>
      </trkpt>
      <trkpt lat="47.12276" lon="-1.58328">
        <ele>6</ele>
        <time>2021-03-07T06:31:48Z</time>
      </trkpt>
      <trkpt lat="47.12265" lon="-1.58318">
        <ele>6</ele>
        <time>2021-03-07T06:31:51Z</time>
      </trkpt>
      <trkpt lat="47.12238" lon="-1.5829">
        <ele>5</ele>
        <time>2021-03-07T06:31:57Z</time>
      </trkpt>
      <trkpt lat="47.12223" lon="-1.58275">
        <ele>6</ele>
        <time>2021-03-07T06:32:00Z</time>
      </trkpt>
      <trkpt lat="47.12217" lon="-1.5827">
        <ele>6</ele>
        <time>2021-03-07T06:32:01Z</time>
      </trkpt>
      <trkpt lat="47.12198" lon="-1.58251">
        <ele>7</ele>
        <time>2021-03-07T06:32:05Z</time>
      </trkpt>
      <trkpt lat="47.12197" lon="-1.58249">
        <ele>7</ele>
        <time>2021-03-07T06:32:05Z</time>
      </trkpt>
      <trkpt lat="47.12153" lon="-1.58206">
        <ele>9</ele>
        <time>2021-03-07T06:32:15Z</time>
      </trkpt>
      <trkpt lat="47.12114" lon="-1.58171">
        <ele>11</ele>
        <time>2021-03-07T06:32:23Z</time>
      </trkpt>
      <trkpt lat="47.12037" lon="-1.58121">
        <ele>13</ele>
        <time>2021-03-07T06:32:38Z</time>
      </trkpt>
      <trkpt lat="47.12023" lon="-1.5811">
        <ele>13</ele>
        <time>2021-03-07T06:32:41Z</time>
      </trkpt>
      <trkpt lat="47.1202" lon="-1.58106">
        <ele>13</ele>
        <time>2021-03-07T06:32:42Z</time>
      </trkpt>
      <trkpt lat="47.12018" lon="-1.58108">
        <ele>13</ele>
        <time>2021-03-07T06:32:42Z</time>
      </trkpt>
      <trkpt lat="47.12016" lon="-1.58109">
        <ele>13</ele>
        <time>2021-03-07T06:32:42Z</time>
      </trkpt>
      <trkpt lat="47.12015" lon="-1.58109">
        <ele>13</ele>
        <time>2021-03-07T06:32:43Z</time>
      </trkpt>
      <trkpt lat="47.1201" lon="-1.58105">
        <ele>13</ele>
        <time>2021-03-07T06:32:44Z</time>
      </trkpt>
      <trkpt lat="47.1201" lon="-1.58103">
        <ele>13</ele>
        <time>2021-03-07T06:32:44Z</time>
      </trkpt>
      <trkpt lat="47.12004" lon="-1.58103">
        <ele>13</ele>
        <time>2021-03-07T06:32:45Z</time>
      </trkpt>
      <trkpt lat="47.12001" lon="-1.58103">
        <ele>13</ele>
        <time>2021-03-07T06:32:45Z</time>
      </trkpt>
      <trkpt lat="47.11996" lon="-1.58102">
        <ele>13</ele>
        <time>2021-03-07T06:32:46Z</time>
      </trkpt>
      <trkpt lat="47.11977" lon="-1.58096">
        <ele>13</ele>
        <time>2021-03-07T06:32:50Z</time>
      </trkpt>
      <trkpt lat="47.11925" lon="-1.58083">
        <ele>12</ele>
        <time>2021-03-07T06:32:59Z</time>
      </trkpt>
      <trkpt lat="47.11903" lon="-1.58077">
        <ele>11</ele>
        <time>2021-03-07T06:33:03Z</time>
      </trkpt>
      <trkpt lat="47.11836" lon="-1.5806">
        <ele>9</ele>
        <time>2021-03-07T06:33:15Z</time>
      </trkpt>
      <trkpt lat="47.11741" lon="-1.58038">
        <ele>6</ele>
        <time>2021-03-07T06:33:32Z</time>
      </trkpt>
      <trkpt lat="47.11701" lon="-1.58033">
        <ele>7</ele>
        <time>2021-03-07T06:33:39Z</time>
      </trkpt>
      <trkpt lat="47.11661" lon="-1.58032">
        <ele>7</ele>
        <time>2021-03-07T06:33:47Z</time>
      </trkpt>
      <trkpt lat="47.11655" lon="-1.58033">
        <ele>7</ele>
        <time>2021-03-07T06:33:48Z</time>
      </trkpt>
      <trkpt lat="47.11648" lon="-1.58034">
        <ele>6</ele>
        <time>2021-03-07T06:33:49Z</time>
      </trkpt>
      <trkpt lat="47.11647" lon="-1.5804">
        <ele>6</ele>
        <time>2021-03-07T06:33:50Z</time>
      </trkpt>
      <trkpt lat="47.11643" lon="-1.58048">
        <ele>6</ele>
        <time>2021-03-07T06:33:51Z</time>
      </trkpt>
      <trkpt lat="47.11639" lon="-1.58049">
        <ele>6</ele>
        <time>2021-03-07T06:33:52Z</time>
      </trkpt>
      <trkpt lat="47.11634" lon="-1.58047">
        <ele>6</ele>
        <time>2021-03-07T06:33:52Z</time>
      </trkpt>
      <trkpt lat="47.11631" lon="-1.58042">
        <ele>6</ele>
        <time>2021-03-07T06:33:53Z</time>
      </trkpt>
      <trkpt lat="47.1163" lon="-1.58036">
        <ele>6</ele>
        <time>2021-03-07T06:33:54Z</time>
      </trkpt>
      <trkpt lat="47.11604" lon="-1.58029">
        <ele>6</ele>
        <time>2021-03-07T06:33:59Z</time>
      </trkpt>
      <trkpt lat="47.11534" lon="-1.58024">
        <ele>6</ele>
        <time>2021-03-07T06:34:11Z</time>
      </trkpt>
      <trkpt lat="47.11495" lon="-1.58025">
        <ele>6</ele>
        <time>2021-03-07T06:34:18Z</time>
      </trkpt>
      <trkpt lat="47.11463" lon="-1.58032">
        <ele>7</ele>
        <time>2021-03-07T06:34:24Z</time>
      </trkpt>
      <trkpt lat="47.11431" lon="-1.58045">
        <ele>7</ele>
        <time>2021-03-07T06:34:30Z</time>
      </trkpt>
      <trkpt lat="47.11413" lon="-1.58055">
        <ele>7</ele>
        <time>2021-03-07T06:34:33Z</time>
      </trkpt>
      <trkpt lat="47.11323" lon="-1.58112">
        <ele>5</ele>
        <time>2021-03-07T06:34:51Z</time>
      </trkpt>
      <trkpt lat="47.11274" lon="-1.58148">
        <ele>5</ele>
        <time>2021-03-07T06:35:00Z</time>
      </trkpt>
      <trkpt lat="47.11251" lon="-1.5817">
        <ele>5</ele>
        <time>2021-03-07T06:35:05Z</time>
      </trkpt>
      <trkpt lat="47.11226" lon="-1.58197">
        <ele>5</ele>
        <time>2021-03-07T06:35:11Z</time>
      </trkpt>
      <trkpt lat="47.112" lon="-1.58231">
        <ele>6</ele>
        <time>2021-03-07T06:35:17Z</time>
      </trkpt>
      <trkpt lat="47.10838" lon="-1.58777">
        <ele>15</ele>
        <time>2021-03-07T06:36:49Z</time>
      </trkpt>
      <trkpt lat="47.10792" lon="-1.58848">
        <ele>16</ele>
        <time>2021-03-07T06:37:01Z</time>
      </trkpt>
      <trkpt lat="47.10768" lon="-1.58888">
        <ele>16</ele>
        <time>2021-03-07T06:37:08Z</time>
      </trkpt>
      <trkpt lat="47.10753" lon="-1.58909">
        <ele>17</ele>
        <time>2021-03-07T06:37:11Z</time>
      </trkpt>
      <trkpt lat="47.10743" lon="-1.58928">
        <ele>17</ele>
        <time>2021-03-07T06:37:14Z</time>
      </trkpt>
      <trkpt lat="47.10699" lon="-1.59042">
        <ele>16</ele>
        <time>2021-03-07T06:37:30Z</time>
      </trkpt>
      <trkpt lat="47.10668" lon="-1.59128">
        <ele>15</ele>
        <time>2021-03-07T06:37:42Z</time>
      </trkpt>
      <trkpt lat="47.10649" lon="-1.59175">
        <ele>15</ele>
        <time>2021-03-07T06:37:49Z</time>
      </trkpt>
      <trkpt lat="47.10631" lon="-1.59212">
        <ele>14</ele>
        <time>2021-03-07T06:37:54Z</time>
      </trkpt>
      <trkpt lat="47.10608" lon="-1.59249">
        <ele>14</ele>
        <time>2021-03-07T06:38:00Z</time>
      </trkpt>
      <trkpt lat="47.10562" lon="-1.59335">
        <ele>12</ele>
        <time>2021-03-07T06:38:13Z</time>
      </trkpt>
      <trkpt lat="47.10356" lon="-1.59687">
        <ele>9</ele>
        <time>2021-03-07T06:39:10Z</time>
      </trkpt>
      <trkpt lat="47.10248" lon="-1.59863">
        <ele>7</ele>
        <time>2021-03-07T06:39:38Z</time>
      </trkpt>
      <trkpt lat="47.10138" lon="-1.60047">
        <ele>7</ele>
        <time>2021-03-07T06:40:08Z</time>
      </trkpt>
      <trkpt lat="47.10121" lon="-1.60071">
        <ele>7</ele>
        <time>2021-03-07T06:40:12Z</time>
      </trkpt>
      <trkpt lat="47.10098" lon="-1.60111">
        <ele>7</ele>
        <time>2021-03-07T06:40:18Z</time>
      </trkpt>
      <trkpt lat="47.10102" lon="-1.6012">
        <ele>7</ele>
        <time>2021-03-07T06:40:20Z</time>
      </trkpt>
      <trkpt lat="47.10103" lon="-1.60137">
        <ele>7</ele>
        <time>2021-03-07T06:40:22Z</time>
      </trkpt>
      <trkpt lat="47.10099" lon="-1.60149">
        <ele>7</ele>
        <time>2021-03-07T06:40:23Z</time>
      </trkpt>
      <trkpt lat="47.10093" lon="-1.60155">
        <ele>7</ele>
        <time>2021-03-07T06:40:25Z</time>
      </trkpt>
      <trkpt lat="47.10083" lon="-1.60157">
        <ele>7</ele>
        <time>2021-03-07T06:40:27Z</time>
      </trkpt>
      <trkpt lat="47.10073" lon="-1.6029">
        <ele>8</ele>
        <time>2021-03-07T06:40:43Z</time>
      </trkpt>
      <trkpt lat="47.10061" lon="-1.60416">
        <ele>10</ele>
        <time>2021-03-07T06:40:58Z</time>
      </trkpt>
      <trkpt lat="47.10054" lon="-1.60462">
        <ele>9</ele>
        <time>2021-03-07T06:41:04Z</time>
      </trkpt>
      <trkpt lat="47.10044" lon="-1.60509">
        <ele>8</ele>
        <time>2021-03-07T06:41:10Z</time>
      </trkpt>
      <trkpt lat="47.0999" lon="-1.60687">
        <ele>8</ele>
        <time>2021-03-07T06:41:33Z</time>
      </trkpt>
      <trkpt lat="47.09963" lon="-1.60778">
        <ele>8</ele>
        <time>2021-03-07T06:41:45Z</time>
      </trkpt>
      <trkpt lat="47.09941" lon="-1.60845">
        <ele>8</ele>
        <time>2021-03-07T06:41:54Z</time>
      </trkpt>
      <trkpt lat="47.09932" lon="-1.60871">
        <ele>8</ele>
        <time>2021-03-07T06:41:58Z</time>
      </trkpt>
      <trkpt lat="47.09878" lon="-1.61007">
        <ele>6</ele>
        <time>2021-03-07T06:42:17Z</time>
      </trkpt>
      <trkpt lat="47.09878" lon="-1.61008">
        <ele>6</ele>
        <time>2021-03-07T06:42:17Z</time>
      </trkpt>
      <trkpt lat="47.09864" lon="-1.61038">
        <ele>6</ele>
        <time>2021-03-07T06:42:22Z</time>
      </trkpt>
      <trkpt lat="47.09855" lon="-1.61056">
        <ele>6</ele>
        <time>2021-03-07T06:42:24Z</time>
      </trkpt>
      <trkpt lat="47.09852" lon="-1.61062">
        <ele>6</ele>
        <time>2021-03-07T06:42:25Z</time>
      </trkpt>
      <trkpt lat="47.09841" lon="-1.61074">
        <ele>5</ele>
        <time>2021-03-07T06:42:28Z</time>
      </trkpt>
      <trkpt lat="47.09826" lon="-1.61089">
        <ele>5</ele>
        <time>2021-03-07T06:42:31Z</time>
      </trkpt>
      <trkpt lat="47.09823" lon="-1.61091">
        <ele>5</ele>
        <time>2021-03-07T06:42:31Z</time>
      </trkpt>
      <trkpt lat="47.09804" lon="-1.61103">
        <ele>4</ele>
        <time>2021-03-07T06:42:35Z</time>
      </trkpt>
      <trkpt lat="47.09793" lon="-1.61107">
        <ele>4</ele>
        <time>2021-03-07T06:42:37Z</time>
      </trkpt>
      <trkpt lat="47.09777" lon="-1.6111">
        <ele>3</ele>
        <time>2021-03-07T06:42:40Z</time>
      </trkpt>
      <trkpt lat="47.0974" lon="-1.61114">
        <ele>2</ele>
        <time>2021-03-07T06:42:47Z</time>
      </trkpt>
      <trkpt lat="47.0972" lon="-1.61117">
        <ele>3</ele>
        <time>2021-03-07T06:42:50Z</time>
      </trkpt>
      <trkpt lat="47.09718" lon="-1.61117">
        <ele>3</ele>
        <time>2021-03-07T06:42:51Z</time>
      </trkpt>
      <trkpt lat="47.09707" lon="-1.61118">
        <ele>3</ele>
        <time>2021-03-07T06:42:53Z</time>
      </trkpt>
      <trkpt lat="47.09706" lon="-1.61118">
        <ele>3</ele>
        <time>2021-03-07T06:42:53Z</time>
      </trkpt>
      <trkpt lat="47.09698" lon="-1.61119">
        <ele>3</ele>
        <time>2021-03-07T06:42:54Z</time>
      </trkpt>
      <trkpt lat="47.09642" lon="-1.61127">
        <ele>4</ele>
        <time>2021-03-07T06:43:04Z</time>
      </trkpt>
      <trkpt lat="47.09631" lon="-1.61128">
        <ele>4</ele>
        <time>2021-03-07T06:43:06Z</time>
      </trkpt>
      <trkpt lat="47.09616" lon="-1.6113">
        <ele>4</ele>
        <time>2021-03-07T06:43:09Z</time>
      </trkpt>
      <trkpt lat="47.096" lon="-1.61132">
        <ele>5</ele>
        <time>2021-03-07T06:43:12Z</time>
      </trkpt>
      <trkpt lat="47.09539" lon="-1.6114">
        <ele>6</ele>
        <time>2021-03-07T06:43:23Z</time>
      </trkpt>
      <trkpt lat="47.09508" lon="-1.61148">
        <ele>8</ele>
        <time>2021-03-07T06:43:28Z</time>
      </trkpt>
      <trkpt lat="47.09496" lon="-1.61155">
        <ele>8</ele>
        <time>2021-03-07T06:43:30Z</time>
      </trkpt>
      <trkpt lat="47.09479" lon="-1.61168">
        <ele>8</ele>
        <time>2021-03-07T06:43:34Z</time>
      </trkpt>
      <trkpt lat="47.09461" lon="-1.61187">
        <ele>8</ele>
        <time>2021-03-07T06:43:38Z</time>
      </trkpt>
      <trkpt lat="47.09453" lon="-1.61197">
        <ele>8</ele>
        <time>2021-03-07T06:43:40Z</time>
      </trkpt>
      <trkpt lat="47.09443" lon="-1.6121">
        <ele>8</ele>
        <time>2021-03-07T06:43:42Z</time>
      </trkpt>
      <trkpt lat="47.09429" lon="-1.61223">
        <ele>8</ele>
        <time>2021-03-07T06:43:45Z</time>
      </trkpt>
      <trkpt lat="47.0942" lon="-1.61232">
        <ele>8</ele>
        <time>2021-03-07T06:43:47Z</time>
      </trkpt>
      <trkpt lat="47.09414" lon="-1.61236">
        <ele>8</ele>
        <time>2021-03-07T06:43:48Z</time>
      </trkpt>
      <trkpt lat="47.0941" lon="-1.61236">
        <ele>8</ele>
        <time>2021-03-07T06:43:49Z</time>
      </trkpt>
      <trkpt lat="47.09406" lon="-1.61235">
        <ele>8</ele>
        <time>2021-03-07T06:43:50Z</time>
      </trkpt>
      <trkpt lat="47.09383" lon="-1.61224">
        <ele>9</ele>
        <time>2021-03-07T06:43:54Z</time>
      </trkpt>
      <trkpt lat="47.09381" lon="-1.61224">
        <ele>9</ele>
        <time>2021-03-07T06:43:54Z</time>
      </trkpt>
      <trkpt lat="47.09361" lon="-1.61216">
        <ele>9</ele>
        <time>2021-03-07T06:43:58Z</time>
      </trkpt>
      <trkpt lat="47.09354" lon="-1.61213">
        <ele>10</ele>
        <time>2021-03-07T06:43:59Z</time>
      </trkpt>
      <trkpt lat="47.09341" lon="-1.61208">
        <ele>10</ele>
        <time>2021-03-07T06:44:02Z</time>
      </trkpt>
      <trkpt lat="47.09313" lon="-1.61201">
        <ele>10</ele>
        <time>2021-03-07T06:44:07Z</time>
      </trkpt>
      <trkpt lat="47.09309" lon="-1.612">
        <ele>10</ele>
        <time>2021-03-07T06:44:07Z</time>
      </trkpt>
      <trkpt lat="47.09237" lon="-1.61177">
        <ele>10</ele>
        <time>2021-03-07T06:44:20Z</time>
      </trkpt>
      <trkpt lat="47.09232" lon="-1.61174">
        <ele>10</ele>
        <time>2021-03-07T06:44:21Z</time>
      </trkpt>
      <trkpt lat="47.09226" lon="-1.61169">
        <ele>10</ele>
        <time>2021-03-07T06:44:23Z</time>
      </trkpt>
      <trkpt lat="47.0922" lon="-1.61161">
        <ele>10</ele>
        <time>2021-03-07T06:44:24Z</time>
      </trkpt>
      <trkpt lat="47.09214" lon="-1.61157">
        <ele>10</ele>
        <time>2021-03-07T06:44:25Z</time>
      </trkpt>
      <trkpt lat="47.09208" lon="-1.61153">
        <ele>10</ele>
        <time>2021-03-07T06:44:26Z</time>
      </trkpt>
      <trkpt lat="47.09198" lon="-1.6115">
        <ele>10</ele>
        <time>2021-03-07T06:44:28Z</time>
      </trkpt>
      <trkpt lat="47.09182" lon="-1.61146">
        <ele>10</ele>
        <time>2021-03-07T06:44:31Z</time>
      </trkpt>
      <trkpt lat="47.09143" lon="-1.61133">
        <ele>11</ele>
        <time>2021-03-07T06:44:38Z</time>
      </trkpt>
      <trkpt lat="47.09138" lon="-1.61132">
        <ele>11</ele>
        <time>2021-03-07T06:44:39Z</time>
      </trkpt>
      <trkpt lat="47.09134" lon="-1.61131">
        <ele>11</ele>
        <time>2021-03-07T06:44:40Z</time>
      </trkpt>
      <trkpt lat="47.09132" lon="-1.6113">
        <ele>11</ele>
        <time>2021-03-07T06:44:40Z</time>
      </trkpt>
      <trkpt lat="47.09107" lon="-1.61123">
        <ele>11</ele>
        <time>2021-03-07T06:44:45Z</time>
      </trkpt>
      <trkpt lat="47.09087" lon="-1.61117">
        <ele>11</ele>
        <time>2021-03-07T06:44:48Z</time>
      </trkpt>
      <trkpt lat="47.09069" lon="-1.61111">
        <ele>11</ele>
        <time>2021-03-07T06:44:52Z</time>
      </trkpt>
      <trkpt lat="47.0906" lon="-1.61108">
        <ele>11</ele>
        <time>2021-03-07T06:44:53Z</time>
      </trkpt>
      <trkpt lat="47.08994" lon="-1.61089">
        <ele>11</ele>
        <time>2021-03-07T06:45:05Z</time>
      </trkpt>
      <trkpt lat="47.08988" lon="-1.61088">
        <ele>11</ele>
        <time>2021-03-07T06:45:06Z</time>
      </trkpt>
      <trkpt lat="47.08978" lon="-1.61088">
        <ele>11</ele>
        <time>2021-03-07T06:45:08Z</time>
      </trkpt>
      <trkpt lat="47.08968" lon="-1.61089">
        <ele>10</ele>
        <time>2021-03-07T06:45:10Z</time>
      </trkpt>
      <trkpt lat="47.08963" lon="-1.61091">
        <ele>10</ele>
        <time>2021-03-07T06:45:11Z</time>
      </trkpt>
      <trkpt lat="47.08935" lon="-1.61103">
        <ele>9</ele>
        <time>2021-03-07T06:45:16Z</time>
      </trkpt>
      <trkpt lat="47.0893" lon="-1.61105">
        <ele>9</ele>
        <time>2021-03-07T06:45:17Z</time>
      </trkpt>
      <trkpt lat="47.08857" lon="-1.61137">
        <ele>9</ele>
        <time>2021-03-07T06:45:31Z</time>
      </trkpt>
      <trkpt lat="47.0884" lon="-1.61144">
        <ele>9</ele>
        <time>2021-03-07T06:45:34Z</time>
      </trkpt>
      <trkpt lat="47.08833" lon="-1.61147">
        <ele>9</ele>
        <time>2021-03-07T06:45:35Z</time>
      </trkpt>
      <trkpt lat="47.08819" lon="-1.61153">
        <ele>9</ele>
        <time>2021-03-07T06:45:38Z</time>
      </trkpt>
      <trkpt lat="47.087" lon="-1.61204">
        <ele>8</ele>
        <time>2021-03-07T06:46:00Z</time>
      </trkpt>
      <trkpt lat="47.08655" lon="-1.61223">
        <ele>8</ele>
        <time>2021-03-07T06:46:08Z</time>
      </trkpt>
      <trkpt lat="47.0861" lon="-1.61243">
        <ele>7</ele>
        <time>2021-03-07T06:46:16Z</time>
      </trkpt>
      <trkpt lat="47.08581" lon="-1.61255">
        <ele>7</ele>
        <time>2021-03-07T06:46:22Z</time>
      </trkpt>
      <trkpt lat="47.08566" lon="-1.61261">
        <ele>6</ele>
        <time>2021-03-07T06:46:24Z</time>
      </trkpt>
      <trkpt lat="47.08504" lon="-1.61287">
        <ele>4</ele>
        <time>2021-03-07T06:46:36Z</time>
      </trkpt>
      <trkpt lat="47.08501" lon="-1.61289">
        <ele>4</ele>
        <time>2021-03-07T06:46:36Z</time>
      </trkpt>
      <trkpt lat="47.085" lon="-1.61292">
        <ele>4</ele>
        <time>2021-03-07T06:46:37Z</time>
      </trkpt>
      <trkpt lat="47.08498" lon="-1.61296">
        <ele>4</ele>
        <time>2021-03-07T06:46:38Z</time>
      </trkpt>
      <trkpt lat="47.08496" lon="-1.61297">
        <ele>4</ele>
        <time>2021-03-07T06:46:38Z</time>
      </trkpt>
      <trkpt lat="47.08494" lon="-1.61297">
        <ele>4</ele>
        <time>2021-03-07T06:46:38Z</time>
      </trkpt>
      <trkpt lat="47.08492" lon="-1.61295">
        <ele>4</ele>
        <time>2021-03-07T06:46:39Z</time>
      </trkpt>
      <trkpt lat="47.08491" lon="-1.61293">
        <ele>4</ele>
        <time>2021-03-07T06:46:39Z</time>
      </trkpt>
      <trkpt lat="47.08488" lon="-1.61294">
        <ele>4</ele>
        <time>2021-03-07T06:46:40Z</time>
      </trkpt>
      <trkpt lat="47.08126" lon="-1.6145">
        <ele>4</ele>
        <time>2021-03-07T06:47:47Z</time>
      </trkpt>
      <trkpt lat="47.07983" lon="-1.61511">
        <ele>4</ele>
        <time>2021-03-07T06:48:13Z</time>
      </trkpt>
      <trkpt lat="47.07884" lon="-1.61554">
        <ele>5</ele>
        <time>2021-03-07T06:48:32Z</time>
      </trkpt>
      <trkpt lat="47.07857" lon="-1.61566">
        <ele>5</ele>
        <time>2021-03-07T06:48:37Z</time>
      </trkpt>
      <trkpt lat="47.07831" lon="-1.6158">
        <ele>5</ele>
        <time>2021-03-07T06:48:41Z</time>
      </trkpt>
      <trkpt lat="47.07805" lon="-1.61597">
        <ele>5</ele>
        <time>2021-03-07T06:48:47Z</time>
      </trkpt>
      <trkpt lat="47.07772" lon="-1.6163">
        <ele>6</ele>
        <time>2021-03-07T06:48:54Z</time>
      </trkpt>
      <trkpt lat="47.07734" lon="-1.61672">
        <ele>6</ele>
        <time>2021-03-07T06:49:02Z</time>
      </trkpt>
      <trkpt lat="47.07727" lon="-1.61681">
        <ele>7</ele>
        <time>2021-03-07T06:49:04Z</time>
      </trkpt>
      <trkpt lat="47.07711" lon="-1.61699">
        <ele>7</ele>
        <time>2021-03-07T06:49:07Z</time>
      </trkpt>
      <trkpt lat="47.07675" lon="-1.61741">
        <ele>7</ele>
        <time>2021-03-07T06:49:16Z</time>
      </trkpt>
      <trkpt lat="47.07642" lon="-1.61778">
        <ele>7</ele>
        <time>2021-03-07T06:49:23Z</time>
      </trkpt>
      <trkpt lat="47.07572" lon="-1.61859">
        <ele>7</ele>
        <time>2021-03-07T06:49:39Z</time>
      </trkpt>
      <trkpt lat="47.07495" lon="-1.61949">
        <ele>7</ele>
        <time>2021-03-07T06:49:56Z</time>
      </trkpt>
      <trkpt lat="47.07468" lon="-1.6198">
        <ele>7</ele>
        <time>2021-03-07T06:50:02Z</time>
      </trkpt>
      <trkpt lat="47.07466" lon="-1.61982">
        <ele>7</ele>
        <time>2021-03-07T06:50:03Z</time>
      </trkpt>
      <trkpt lat="47.07452" lon="-1.61999">
        <ele>7</ele>
        <time>2021-03-07T06:50:06Z</time>
      </trkpt>
      <trkpt lat="47.07428" lon="-1.62034">
        <ele>7</ele>
        <time>2021-03-07T06:50:12Z</time>
      </trkpt>
      <trkpt lat="47.07349" lon="-1.62164">
        <ele>6</ele>
        <time>2021-03-07T06:50:33Z</time>
      </trkpt>
      <trkpt lat="47.07341" lon="-1.62177">
        <ele>6</ele>
        <time>2021-03-07T06:50:35Z</time>
      </trkpt>
      <trkpt lat="47.07313" lon="-1.62218">
        <ele>7</ele>
        <time>2021-03-07T06:50:42Z</time>
      </trkpt>
      <trkpt lat="47.07277" lon="-1.62262">
        <ele>7</ele>
        <time>2021-03-07T06:50:51Z</time>
      </trkpt>
      <trkpt lat="47.07249" lon="-1.62288">
        <ele>6</ele>
        <time>2021-03-07T06:50:57Z</time>
      </trkpt>
      <trkpt lat="47.07205" lon="-1.62318">
        <ele>7</ele>
        <time>2021-03-07T06:51:05Z</time>
      </trkpt>
      <trkpt lat="47.07114" lon="-1.62379">
        <ele>10</ele>
        <time>2021-03-07T06:51:23Z</time>
      </trkpt>
      <trkpt lat="47.07089" lon="-1.62397">
        <ele>10</ele>
        <time>2021-03-07T06:51:28Z</time>
      </trkpt>
      <trkpt lat="47.07044" lon="-1.62425">
        <ele>8</ele>
        <time>2021-03-07T06:51:37Z</time>
      </trkpt>
      <trkpt lat="47.07019" lon="-1.62438">
        <ele>7</ele>
        <time>2021-03-07T06:51:41Z</time>
      </trkpt>
      <trkpt lat="47.06903" lon="-1.6249">
        <ele>10</ele>
        <time>2021-03-07T06:52:03Z</time>
      </trkpt>
      <trkpt lat="47.06871" lon="-1.62507">
        <ele>10</ele>
        <time>2021-03-07T06:52:09Z</time>
      </trkpt>
      <trkpt lat="47.06856" lon="-1.62516">
        <ele>10</ele>
        <time>2021-03-07T06:52:12Z</time>
      </trkpt>
      <trkpt lat="47.0682" lon="-1.62545">
        <ele>9</ele>
        <time>2021-03-07T06:52:19Z</time>
      </trkpt>
      <trkpt lat="47.06771" lon="-1.62588">
        <ele>7</ele>
        <time>2021-03-07T06:52:29Z</time>
      </trkpt>
      <trkpt lat="47.06716" lon="-1.62643">
        <ele>6</ele>
        <time>2021-03-07T06:52:41Z</time>
      </trkpt>
      <trkpt lat="47.06696" lon="-1.62669">
        <ele>6</ele>
        <time>2021-03-07T06:52:46Z</time>
      </trkpt>
      <trkpt lat="47.06535" lon="-1.62915">
        <ele>7</ele>
        <time>2021-03-07T06:53:27Z</time>
      </trkpt>
      <trkpt lat="47.06524" lon="-1.6293">
        <ele>7</ele>
        <time>2021-03-07T06:53:30Z</time>
      </trkpt>
      <trkpt lat="47.06506" lon="-1.62949">
        <ele>7</ele>
        <time>2021-03-07T06:53:34Z</time>
      </trkpt>
      <trkpt lat="47.06479" lon="-1.6297">
        <ele>7</ele>
        <time>2021-03-07T06:53:39Z</time>
      </trkpt>
      <trkpt lat="47.06471" lon="-1.62974">
        <ele>7</ele>
        <time>2021-03-07T06:53:41Z</time>
      </trkpt>
      <trkpt lat="47.06466" lon="-1.62977">
        <ele>7</ele>
        <time>2021-03-07T06:53:42Z</time>
      </trkpt>
      <trkpt lat="47.06446" lon="-1.62987">
        <ele>7</ele>
        <time>2021-03-07T06:53:46Z</time>
      </trkpt>
      <trkpt lat="47.06403" lon="-1.63007">
        <ele>6</ele>
        <time>2021-03-07T06:53:54Z</time>
      </trkpt>
      <trkpt lat="47.06341" lon="-1.63036">
        <ele>6</ele>
        <time>2021-03-07T06:54:05Z</time>
      </trkpt>
      <trkpt lat="47.06333" lon="-1.6304">
        <ele>6</ele>
        <time>2021-03-07T06:54:07Z</time>
      </trkpt>
      <trkpt lat="47.06301" lon="-1.63055">
        <ele>6</ele>
        <time>2021-03-07T06:54:13Z</time>
      </trkpt>
      <trkpt lat="47.06196" lon="-1.63105">
        <ele>5</ele>
        <time>2021-03-07T06:54:32Z</time>
      </trkpt>
      <trkpt lat="47.06053" lon="-1.63173">
        <ele>3</ele>
        <time>2021-03-07T06:54:59Z</time>
      </trkpt>
      <trkpt lat="47.05994" lon="-1.632">
        <ele>4</ele>
        <time>2021-03-07T06:55:10Z</time>
      </trkpt>
      <trkpt lat="47.0568" lon="-1.63348">
        <ele>3</ele>
        <time>2021-03-07T06:56:09Z</time>
      </trkpt>
      <trkpt lat="47.05645" lon="-1.63364">
        <ele>3</ele>
        <time>2021-03-07T06:56:15Z</time>
      </trkpt>
      <trkpt lat="47.0563" lon="-1.63371">
        <ele>4</ele>
        <time>2021-03-07T06:56:18Z</time>
      </trkpt>
      <trkpt lat="47.05595" lon="-1.63388">
        <ele>4</ele>
        <time>2021-03-07T06:56:25Z</time>
      </trkpt>
      <trkpt lat="47.05563" lon="-1.63401">
        <ele>4</ele>
        <time>2021-03-07T06:56:30Z</time>
      </trkpt>
      <trkpt lat="47.05524" lon="-1.63415">
        <ele>4</ele>
        <time>2021-03-07T06:56:38Z</time>
      </trkpt>
      <trkpt lat="47.05495" lon="-1.63422">
        <ele>4</ele>
        <time>2021-03-07T06:56:43Z</time>
      </trkpt>
      <trkpt lat="47.0547" lon="-1.63426">
        <ele>4</ele>
        <time>2021-03-07T06:56:47Z</time>
      </trkpt>
      <trkpt lat="47.0543" lon="-1.63433">
        <ele>4</ele>
        <time>2021-03-07T06:56:54Z</time>
      </trkpt>
      <trkpt lat="47.05411" lon="-1.63436">
        <ele>4</ele>
        <time>2021-03-07T06:56:58Z</time>
      </trkpt>
      <trkpt lat="47.05399" lon="-1.63441">
        <ele>4</ele>
        <time>2021-03-07T06:57:00Z</time>
      </trkpt>
      <trkpt lat="47.05389" lon="-1.63446">
        <ele>4</ele>
        <time>2021-03-07T06:57:02Z</time>
      </trkpt>
      <trkpt lat="47.05389" lon="-1.63453">
        <ele>4</ele>
        <time>2021-03-07T06:57:03Z</time>
      </trkpt>
      <trkpt lat="47.05388" lon="-1.6346">
        <ele>4</ele>
        <time>2021-03-07T06:57:04Z</time>
      </trkpt>
      <trkpt lat="47.05385" lon="-1.63465">
        <ele>4</ele>
        <time>2021-03-07T06:57:05Z</time>
      </trkpt>
      <trkpt lat="47.05381" lon="-1.63469">
        <ele>4</ele>
        <time>2021-03-07T06:57:05Z</time>
      </trkpt>
      <trkpt lat="47.05372" lon="-1.6347">
        <ele>4</ele>
        <time>2021-03-07T06:57:07Z</time>
      </trkpt>
      <trkpt lat="47.05368" lon="-1.63467">
        <ele>4</ele>
        <time>2021-03-07T06:57:08Z</time>
      </trkpt>
      <trkpt lat="47.05362" lon="-1.63457">
        <ele>4</ele>
        <time>2021-03-07T06:57:09Z</time>
      </trkpt>
      <trkpt lat="47.05361" lon="-1.63451">
        <ele>4</ele>
        <time>2021-03-07T06:57:10Z</time>
      </trkpt>
      <trkpt lat="47.05351" lon="-1.63449">
        <ele>4</ele>
        <time>2021-03-07T06:57:12Z</time>
      </trkpt>
      <trkpt lat="47.05312" lon="-1.63451">
        <ele>4</ele>
        <time>2021-03-07T06:57:19Z</time>
      </trkpt>
      <trkpt lat="47.05301" lon="-1.63452">
        <ele>4</ele>
        <time>2021-03-07T06:57:21Z</time>
      </trkpt>
      <trkpt lat="47.0529" lon="-1.63454">
        <ele>4</ele>
        <time>2021-03-07T06:57:23Z</time>
      </trkpt>
      <trkpt lat="47.05238" lon="-1.63466">
        <ele>4</ele>
        <time>2021-03-07T06:57:32Z</time>
      </trkpt>
      <trkpt lat="47.05194" lon="-1.63481">
        <ele>4</ele>
        <time>2021-03-07T06:57:40Z</time>
      </trkpt>
      <trkpt lat="47.05147" lon="-1.63499">
        <ele>4</ele>
        <time>2021-03-07T06:57:49Z</time>
      </trkpt>
      <trkpt lat="47.05094" lon="-1.6352">
        <ele>5</ele>
        <time>2021-03-07T06:57:59Z</time>
      </trkpt>
      <trkpt lat="47.05065" lon="-1.63531">
        <ele>5</ele>
        <time>2021-03-07T06:58:04Z</time>
      </trkpt>
      <trkpt lat="47.05053" lon="-1.63536">
        <ele>5</ele>
        <time>2021-03-07T06:58:06Z</time>
      </trkpt>
      <trkpt lat="47.05024" lon="-1.63547">
        <ele>5</ele>
        <time>2021-03-07T06:58:12Z</time>
      </trkpt>
      <trkpt lat="47.04994" lon="-1.63562">
        <ele>5</ele>
        <time>2021-03-07T06:58:17Z</time>
      </trkpt>
      <trkpt lat="47.04979" lon="-1.63575">
        <ele>5</ele>
        <time>2021-03-07T06:58:20Z</time>
      </trkpt>
      <trkpt lat="47.04967" lon="-1.63588">
        <ele>5</ele>
        <time>2021-03-07T06:58:23Z</time>
      </trkpt>
      <trkpt lat="47.04957" lon="-1.63606">
        <ele>5</ele>
        <time>2021-03-07T06:58:26Z</time>
      </trkpt>
      <trkpt lat="47.0495" lon="-1.63627">
        <ele>5</ele>
        <time>2021-03-07T06:58:29Z</time>
      </trkpt>
      <trkpt lat="47.04947" lon="-1.63652">
        <ele>5</ele>
        <time>2021-03-07T06:58:32Z</time>
      </trkpt>
      <trkpt lat="47.04947" lon="-1.63667">
        <ele>5</ele>
        <time>2021-03-07T06:58:33Z</time>
      </trkpt>
      <trkpt lat="47.04948" lon="-1.63679">
        <ele>5</ele>
        <time>2021-03-07T06:58:35Z</time>
      </trkpt>
      <trkpt lat="47.0495" lon="-1.63685">
        <ele>5</ele>
        <time>2021-03-07T06:58:36Z</time>
      </trkpt>
      <trkpt lat="47.04953" lon="-1.63705">
        <ele>5</ele>
        <time>2021-03-07T06:58:38Z</time>
      </trkpt>
      <trkpt lat="47.04959" lon="-1.63726">
        <ele>5</ele>
        <time>2021-03-07T06:58:41Z</time>
      </trkpt>
      <trkpt lat="47.04962" lon="-1.63733">
        <ele>5</ele>
        <time>2021-03-07T06:58:42Z</time>
      </trkpt>
      <trkpt lat="47.04966" lon="-1.63738">
        <ele>5</ele>
        <time>2021-03-07T06:58:43Z</time>
      </trkpt>
      <trkpt lat="47.04968" lon="-1.63745">
        <ele>5</ele>
        <time>2021-03-07T06:58:44Z</time>
      </trkpt>
      <trkpt lat="47.04969" lon="-1.63753">
        <ele>5</ele>
        <time>2021-03-07T06:58:45Z</time>
      </trkpt>
      <trkpt lat="47.04968" lon="-1.63762">
        <ele>5</ele>
        <time>2021-03-07T06:58:46Z</time>
      </trkpt>
      <trkpt lat="47.04965" lon="-1.6377">
        <ele>5</ele>
        <time>2021-03-07T06:58:47Z</time>
      </trkpt>
      <trkpt lat="47.04963" lon="-1.63774">
        <ele>5</ele>
        <time>2021-03-07T06:58:48Z</time>
      </trkpt>
      <trkpt lat="47.04958" lon="-1.63777">
        <ele>5</ele>
        <time>2021-03-07T06:58:49Z</time>
      </trkpt>
      <trkpt lat="47.04948" lon="-1.63778">
        <ele>5</ele>
        <time>2021-03-07T06:58:50Z</time>
      </trkpt>
      <trkpt lat="47.04943" lon="-1.63775">
        <ele>5</ele>
        <time>2021-03-07T06:58:51Z</time>
      </trkpt>
      <trkpt lat="47.04942" lon="-1.63774">
        <ele>5</ele>
        <time>2021-03-07T06:58:52Z</time>
      </trkpt>
      <trkpt lat="47.04937" lon="-1.63771">
        <ele>5</ele>
        <time>2021-03-07T06:58:53Z</time>
      </trkpt>
      <trkpt lat="47.04924" lon="-1.63767">
        <ele>5</ele>
        <time>2021-03-07T06:58:55Z</time>
      </trkpt>
      <trkpt lat="47.04903" lon="-1.63766">
        <ele>5</ele>
        <time>2021-03-07T06:58:59Z</time>
      </trkpt>
      <trkpt lat="47.0489" lon="-1.63765">
        <ele>5</ele>
        <time>2021-03-07T06:59:01Z</time>
      </trkpt>
      <trkpt lat="47.04867" lon="-1.63769">
        <ele>6</ele>
        <time>2021-03-07T06:59:05Z</time>
      </trkpt>
      <trkpt lat="47.04804" lon="-1.6378">
        <ele>6</ele>
        <time>2021-03-07T06:59:16Z</time>
      </trkpt>
      <trkpt lat="47.04786" lon="-1.63785">
        <ele>6</ele>
        <time>2021-03-07T06:59:20Z</time>
      </trkpt>
      <trkpt lat="47.0476" lon="-1.63803">
        <ele>6</ele>
        <time>2021-03-07T06:59:25Z</time>
      </trkpt>
      <trkpt lat="47.04741" lon="-1.63822">
        <ele>6</ele>
        <time>2021-03-07T06:59:29Z</time>
      </trkpt>
      <trkpt lat="47.04733" lon="-1.63841">
        <ele>6</ele>
        <time>2021-03-07T06:59:32Z</time>
      </trkpt>
      <trkpt lat="47.04725" lon="-1.63847">
        <ele>6</ele>
        <time>2021-03-07T06:59:33Z</time>
      </trkpt>
      <trkpt lat="47.04716" lon="-1.63848">
        <ele>5</ele>
        <time>2021-03-07T06:59:35Z</time>
      </trkpt>
      <trkpt lat="47.04712" lon="-1.63845">
        <ele>5</ele>
        <time>2021-03-07T06:59:36Z</time>
      </trkpt>
      <trkpt lat="47.04707" lon="-1.6384">
        <ele>5</ele>
        <time>2021-03-07T06:59:37Z</time>
      </trkpt>
      <trkpt lat="47.04705" lon="-1.63833">
        <ele>5</ele>
        <time>2021-03-07T06:59:38Z</time>
      </trkpt>
      <trkpt lat="47.04691" lon="-1.63822">
        <ele>5</ele>
        <time>2021-03-07T06:59:40Z</time>
      </trkpt>
      <trkpt lat="47.0468" lon="-1.63822">
        <ele>5</ele>
        <time>2021-03-07T06:59:42Z</time>
      </trkpt>
      <trkpt lat="47.04676" lon="-1.63822">
        <ele>5</ele>
        <time>2021-03-07T06:59:43Z</time>
      </trkpt>
      <trkpt lat="47.04651" lon="-1.63839">
        <ele>5</ele>
        <time>2021-03-07T06:59:48Z</time>
      </trkpt>
      <trkpt lat="47.04585" lon="-1.63853">
        <ele>4</ele>
        <time>2021-03-07T07:00:00Z</time>
      </trkpt>
      <trkpt lat="47.04476" lon="-1.63917">
        <ele>5</ele>
        <time>2021-03-07T07:00:21Z</time>
      </trkpt>
      <trkpt lat="47.04477" lon="-1.6392">
        <ele>5</ele>
        <time>2021-03-07T07:00:21Z</time>
      </trkpt>
      <trkpt lat="47.04475" lon="-1.6393">
        <ele>4</ele>
        <time>2021-03-07T07:00:22Z</time>
      </trkpt>
      <trkpt lat="47.04473" lon="-1.63932">
        <ele>4</ele>
        <time>2021-03-07T07:00:23Z</time>
      </trkpt>
      <trkpt lat="47.04467" lon="-1.63932">
        <ele>5</ele>
        <time>2021-03-07T07:00:24Z</time>
      </trkpt>
      <trkpt lat="47.04462" lon="-1.63925">
        <ele>5</ele>
        <time>2021-03-07T07:00:25Z</time>
      </trkpt>
      <trkpt lat="47.04356" lon="-1.63975">
        <ele>5</ele>
        <time>2021-03-07T07:00:45Z</time>
      </trkpt>
      <trkpt lat="47.04319" lon="-1.63991">
        <ele>5</ele>
        <time>2021-03-07T07:00:52Z</time>
      </trkpt>
      <trkpt lat="47.0404" lon="-1.64115">
        <ele>4</ele>
        <time>2021-03-07T07:01:44Z</time>
      </trkpt>
      <trkpt lat="47.03986" lon="-1.6414">
        <ele>4</ele>
        <time>2021-03-07T07:01:54Z</time>
      </trkpt>
      <trkpt lat="47.03979" lon="-1.64144">
        <ele>4</ele>
        <time>2021-03-07T07:01:55Z</time>
      </trkpt>
      <trkpt lat="47.03973" lon="-1.64147">
        <ele>4</ele>
        <time>2021-03-07T07:01:56Z</time>
      </trkpt>
      <trkpt lat="47.03967" lon="-1.64145">
        <ele>4</ele>
        <time>2021-03-07T07:01:57Z</time>
      </trkpt>
      <trkpt lat="47.03951" lon="-1.64142">
        <ele>4</ele>
        <time>2021-03-07T07:02:00Z</time>
      </trkpt>
      <trkpt lat="47.03947" lon="-1.6414">
        <ele>4</ele>
        <time>2021-03-07T07:02:01Z</time>
      </trkpt>
      <trkpt lat="47.03945" lon="-1.6414">
        <ele>4</ele>
        <time>2021-03-07T07:02:01Z</time>
      </trkpt>
      <trkpt lat="47.03912" lon="-1.6412">
        <ele>5</ele>
        <time>2021-03-07T07:02:08Z</time>
      </trkpt>
      <trkpt lat="47.03899" lon="-1.64112">
        <ele>5</ele>
        <time>2021-03-07T07:02:10Z</time>
      </trkpt>
      <trkpt lat="47.03888" lon="-1.64105">
        <ele>5</ele>
        <time>2021-03-07T07:02:12Z</time>
      </trkpt>
      <trkpt lat="47.03885" lon="-1.64103">
        <ele>5</ele>
        <time>2021-03-07T07:02:13Z</time>
      </trkpt>
      <trkpt lat="47.03871" lon="-1.64106">
        <ele>6</ele>
        <time>2021-03-07T07:02:15Z</time>
      </trkpt>
      <trkpt lat="47.03847" lon="-1.64123">
        <ele>6</ele>
        <time>2021-03-07T07:02:20Z</time>
      </trkpt>
      <trkpt lat="47.03731" lon="-1.64232">
        <ele>6</ele>
        <time>2021-03-07T07:02:45Z</time>
      </trkpt>
      <trkpt lat="47.03686" lon="-1.6427">
        <ele>6</ele>
        <time>2021-03-07T07:02:54Z</time>
      </trkpt>
      <trkpt lat="47.03658" lon="-1.64208">
        <ele>7</ele>
        <time>2021-03-07T07:03:03Z</time>
      </trkpt>
      <trkpt lat="47.03648" lon="-1.64216">
        <ele>7</ele>
        <time>2021-03-07T07:03:05Z</time>
      </trkpt>
      <trkpt lat="47.03642" lon="-1.64216">
        <ele>7</ele>
        <time>2021-03-07T07:03:06Z</time>
      </trkpt>
      <trkpt lat="47.03637" lon="-1.6421">
        <ele>7</ele>
        <time>2021-03-07T07:03:07Z</time>
      </trkpt>
      <trkpt lat="47.03572" lon="-1.64051">
        <ele>6</ele>
        <time>2021-03-07T07:03:30Z</time>
      </trkpt>
      <trkpt lat="47.03572" lon="-1.64033">
        <ele>6</ele>
        <time>2021-03-07T07:03:32Z</time>
      </trkpt>
      <trkpt lat="47.03574" lon="-1.64026">
        <ele>5</ele>
        <time>2021-03-07T07:03:33Z</time>
      </trkpt>
      <trkpt lat="47.03579" lon="-1.64019">
        <ele>5</ele>
        <time>2021-03-07T07:03:34Z</time>
      </trkpt>
      <trkpt lat="47.03533" lon="-1.6391">
        <ele>3</ele>
        <time>2021-03-07T07:03:49Z</time>
      </trkpt>
      <trkpt lat="47.0353" lon="-1.63912">
        <ele>3</ele>
        <time>2021-03-07T07:03:50Z</time>
      </trkpt>
      <trkpt lat="47.03523" lon="-1.6391">
        <ele>3</ele>
        <time>2021-03-07T07:03:51Z</time>
      </trkpt>
      <trkpt lat="47.03519" lon="-1.63903">
        <ele>3</ele>
        <time>2021-03-07T07:03:52Z</time>
      </trkpt>
      <trkpt lat="47.03514" lon="-1.63891">
        <ele>4</ele>
        <time>2021-03-07T07:03:54Z</time>
      </trkpt>
      <trkpt lat="47.03515" lon="-1.63882">
        <ele>4</ele>
        <time>2021-03-07T07:03:55Z</time>
      </trkpt>
      <trkpt lat="47.03284" lon="-1.63672">
        <ele>7</ele>
        <time>2021-03-07T07:04:44Z</time>
      </trkpt>
      <trkpt lat="47.03266" lon="-1.63652">
        <ele>7</ele>
        <time>2021-03-07T07:04:48Z</time>
      </trkpt>
      <trkpt lat="47.0325" lon="-1.63637">
        <ele>7</ele>
        <time>2021-03-07T07:04:51Z</time>
      </trkpt>
      <trkpt lat="47.03237" lon="-1.63631">
        <ele>8</ele>
        <time>2021-03-07T07:04:53Z</time>
      </trkpt>
      <trkpt lat="47.03227" lon="-1.63621">
        <ele>8</ele>
        <time>2021-03-07T07:04:56Z</time>
      </trkpt>
      <trkpt lat="47.03235" lon="-1.63602">
        <ele>8</ele>
        <time>2021-03-07T07:04:58Z</time>
      </trkpt>
      <trkpt lat="47.03236" lon="-1.63587">
        <ele>8</ele>
        <time>2021-03-07T07:05:00Z</time>
      </trkpt>
      <trkpt lat="47.03234" lon="-1.63575">
        <ele>8</ele>
        <time>2021-03-07T07:05:02Z</time>
      </trkpt>
      <trkpt lat="47.03109" lon="-1.62969">
        <ele>5</ele>
        <time>2021-03-07T07:06:18Z</time>
      </trkpt>
      <trkpt lat="47.03097" lon="-1.62934">
        <ele>5</ele>
        <time>2021-03-07T07:06:23Z</time>
      </trkpt>
      <trkpt lat="47.03093" lon="-1.62927">
        <ele>5</ele>
        <time>2021-03-07T07:06:24Z</time>
      </trkpt>
      <trkpt lat="47.03087" lon="-1.6292">
        <ele>5</ele>
        <time>2021-03-07T07:06:26Z</time>
      </trkpt>
      <trkpt lat="47.03085" lon="-1.62916">
        <ele>5</ele>
        <time>2021-03-07T07:06:26Z</time>
      </trkpt>
      <trkpt lat="47.03085" lon="-1.6291">
        <ele>5</ele>
        <time>2021-03-07T07:06:27Z</time>
      </trkpt>
      <trkpt lat="47.03088" lon="-1.62897">
        <ele>5</ele>
        <time>2021-03-07T07:06:29Z</time>
      </trkpt>
      <trkpt lat="47.03086" lon="-1.62859">
        <ele>6</ele>
        <time>2021-03-07T07:06:33Z</time>
      </trkpt>
      <trkpt lat="47.03017" lon="-1.62523">
        <ele>7</ele>
        <time>2021-03-07T07:07:16Z</time>
      </trkpt>
      <trkpt lat="47.03004" lon="-1.62496">
        <ele>7</ele>
        <time>2021-03-07T07:07:20Z</time>
      </trkpt>
      <trkpt lat="47.02997" lon="-1.62491">
        <ele>7</ele>
        <time>2021-03-07T07:07:21Z</time>
      </trkpt>
      <trkpt lat="47.02992" lon="-1.62483">
        <ele>7</ele>
        <time>2021-03-07T07:07:22Z</time>
      </trkpt>
      <trkpt lat="47.0299" lon="-1.62473">
        <ele>7</ele>
        <time>2021-03-07T07:07:24Z</time>
      </trkpt>
      <trkpt lat="47.0299" lon="-1.62471">
        <ele>7</ele>
        <time>2021-03-07T07:07:24Z</time>
      </trkpt>
      <trkpt lat="47.02992" lon="-1.62462">
        <ele>6</ele>
        <time>2021-03-07T07:07:25Z</time>
      </trkpt>
      <trkpt lat="47.0299" lon="-1.62453">
        <ele>6</ele>
        <time>2021-03-07T07:07:26Z</time>
      </trkpt>
      <trkpt lat="47.02989" lon="-1.62445">
        <ele>6</ele>
        <time>2021-03-07T07:07:27Z</time>
      </trkpt>
      <trkpt lat="47.02984" lon="-1.6243">
        <ele>6</ele>
        <time>2021-03-07T07:07:29Z</time>
      </trkpt>
      <trkpt lat="47.02975" lon="-1.62414">
        <ele>6</ele>
        <time>2021-03-07T07:07:32Z</time>
      </trkpt>
      <trkpt lat="47.02896" lon="-1.62291">
        <ele>7</ele>
        <time>2021-03-07T07:07:52Z</time>
      </trkpt>
      <trkpt lat="47.02838" lon="-1.62203">
        <ele>8</ele>
        <time>2021-03-07T07:08:07Z</time>
      </trkpt>
      <trkpt lat="47.02812" lon="-1.62164">
        <ele>9</ele>
        <time>2021-03-07T07:08:14Z</time>
      </trkpt>
      <trkpt lat="47.02784" lon="-1.62116">
        <ele>9</ele>
        <time>2021-03-07T07:08:21Z</time>
      </trkpt>
      <trkpt lat="47.02761" lon="-1.62069">
        <ele>10</ele>
        <time>2021-03-07T07:08:28Z</time>
      </trkpt>
      <trkpt lat="47.02685" lon="-1.61886">
        <ele>12</ele>
        <time>2021-03-07T07:08:54Z</time>
      </trkpt>
      <trkpt lat="47.0255" lon="-1.6156">
        <ele>13</ele>
        <time>2021-03-07T07:09:41Z</time>
      </trkpt>
      <trkpt lat="47.02522" lon="-1.61491">
        <ele>13</ele>
        <time>2021-03-07T07:09:50Z</time>
      </trkpt>
      <trkpt lat="47.02458" lon="-1.61335">
        <ele>12</ele>
        <time>2021-03-07T07:10:12Z</time>
      </trkpt>
      <trkpt lat="47.02423" lon="-1.6125">
        <ele>13</ele>
        <time>2021-03-07T07:10:25Z</time>
      </trkpt>
      <trkpt lat="47.02357" lon="-1.61089">
        <ele>14</ele>
        <time>2021-03-07T07:10:47Z</time>
      </trkpt>
      <trkpt lat="47.02333" lon="-1.6103">
        <ele>15</ele>
        <time>2021-03-07T07:10:56Z</time>
      </trkpt>
      <trkpt lat="47.02314" lon="-1.60984">
        <ele>16</ele>
        <time>2021-03-07T07:11:02Z</time>
      </trkpt>
      <trkpt lat="47.02255" lon="-1.60839">
        <ele>17</ele>
        <time>2021-03-07T07:11:23Z</time>
      </trkpt>
      <trkpt lat="47.02181" lon="-1.6066">
        <ele>17</ele>
        <time>2021-03-07T07:11:48Z</time>
      </trkpt>
      <trkpt lat="47.02078" lon="-1.6041">
        <ele>16</ele>
        <time>2021-03-07T07:12:23Z</time>
      </trkpt>
      <trkpt lat="47.02002" lon="-1.60225">
        <ele>18</ele>
        <time>2021-03-07T07:12:50Z</time>
      </trkpt>
      <trkpt lat="47.01912" lon="-1.60004">
        <ele>17</ele>
        <time>2021-03-07T07:13:21Z</time>
      </trkpt>
      <trkpt lat="47.01906" lon="-1.5999">
        <ele>17</ele>
        <time>2021-03-07T07:13:23Z</time>
      </trkpt>
      <trkpt lat="47.01887" lon="-1.59943">
        <ele>16</ele>
        <time>2021-03-07T07:13:30Z</time>
      </trkpt>
      <trkpt lat="47.01819" lon="-1.59778">
        <ele>15</ele>
        <time>2021-03-07T07:13:53Z</time>
      </trkpt>
      <trkpt lat="47.01727" lon="-1.59553">
        <ele>14</ele>
        <time>2021-03-07T07:14:25Z</time>
      </trkpt>
      <trkpt lat="47.01643" lon="-1.59347">
        <ele>12</ele>
        <time>2021-03-07T07:14:54Z</time>
      </trkpt>
      <trkpt lat="47.01641" lon="-1.59343">
        <ele>12</ele>
        <time>2021-03-07T07:14:54Z</time>
      </trkpt>
      <trkpt lat="47.01638" lon="-1.59334">
        <ele>12</ele>
        <time>2021-03-07T07:14:56Z</time>
      </trkpt>
      <trkpt lat="47.01619" lon="-1.59263">
        <ele>11</ele>
        <time>2021-03-07T07:15:05Z</time>
      </trkpt>
      <trkpt lat="47.01609" lon="-1.59192">
        <ele>10</ele>
        <time>2021-03-07T07:15:14Z</time>
      </trkpt>
      <trkpt lat="47.01607" lon="-1.59161">
        <ele>9</ele>
        <time>2021-03-07T07:15:18Z</time>
      </trkpt>
      <trkpt lat="47.01598" lon="-1.59022">
        <ele>8</ele>
        <time>2021-03-07T07:15:34Z</time>
      </trkpt>
      <trkpt lat="47.01595" lon="-1.58978">
        <ele>8</ele>
        <time>2021-03-07T07:15:40Z</time>
      </trkpt>
      <trkpt lat="47.01591" lon="-1.58907">
        <ele>8</ele>
        <time>2021-03-07T07:15:48Z</time>
      </trkpt>
      <trkpt lat="47.01584" lon="-1.58851">
        <ele>9</ele>
        <time>2021-03-07T07:15:55Z</time>
      </trkpt>
      <trkpt lat="47.01576" lon="-1.58824">
        <ele>10</ele>
        <time>2021-03-07T07:15:59Z</time>
      </trkpt>
      <trkpt lat="47.01566" lon="-1.58802">
        <ele>11</ele>
        <time>2021-03-07T07:16:02Z</time>
      </trkpt>
      <trkpt lat="47.01559" lon="-1.58791">
        <ele>11</ele>
        <time>2021-03-07T07:16:04Z</time>
      </trkpt>
      <trkpt lat="47.0154" lon="-1.58768">
        <ele>11</ele>
        <time>2021-03-07T07:16:08Z</time>
      </trkpt>
      <trkpt lat="47.01475" lon="-1.58703">
        <ele>12</ele>
        <time>2021-03-07T07:16:22Z</time>
      </trkpt>
      <trkpt lat="47.01387" lon="-1.58609">
        <ele>11</ele>
        <time>2021-03-07T07:16:42Z</time>
      </trkpt>
      <trkpt lat="47.01348" lon="-1.5858">
        <ele>13</ele>
        <time>2021-03-07T07:16:50Z</time>
      </trkpt>
      <trkpt lat="47.0131" lon="-1.58564">
        <ele>14</ele>
        <time>2021-03-07T07:16:57Z</time>
      </trkpt>
      <trkpt lat="47.01282" lon="-1.58556">
        <ele>14</ele>
        <time>2021-03-07T07:17:02Z</time>
      </trkpt>
      <trkpt lat="47.01163" lon="-1.58535">
        <ele>14</ele>
        <time>2021-03-07T07:17:23Z</time>
      </trkpt>
      <trkpt lat="47.01135" lon="-1.58527">
        <ele>14</ele>
        <time>2021-03-07T07:17:28Z</time>
      </trkpt>
      <trkpt lat="47.0112" lon="-1.58519">
        <ele>14</ele>
        <time>2021-03-07T07:17:31Z</time>
      </trkpt>
      <trkpt lat="47.01101" lon="-1.58501">
        <ele>14</ele>
        <time>2021-03-07T07:17:35Z</time>
      </trkpt>
      <trkpt lat="47.01087" lon="-1.58481">
        <ele>14</ele>
        <time>2021-03-07T07:17:38Z</time>
      </trkpt>
      <trkpt lat="47.01064" lon="-1.58444">
        <ele>16</ele>
        <time>2021-03-07T07:17:44Z</time>
      </trkpt>
      <trkpt lat="47.01039" lon="-1.58393">
        <ele>17</ele>
        <time>2021-03-07T07:17:52Z</time>
      </trkpt>
      <trkpt lat="47.01012" lon="-1.58331">
        <ele>18</ele>
        <time>2021-03-07T07:18:01Z</time>
      </trkpt>
      <trkpt lat="47.00988" lon="-1.58347">
        <ele>18</ele>
        <time>2021-03-07T07:18:06Z</time>
      </trkpt>
      <trkpt lat="47.00977" lon="-1.58348">
        <ele>18</ele>
        <time>2021-03-07T07:18:08Z</time>
      </trkpt>
      <trkpt lat="47.00967" lon="-1.58338">
        <ele>18</ele>
        <time>2021-03-07T07:18:10Z</time>
      </trkpt>
      <trkpt lat="47.00949" lon="-1.58304">
        <ele>18</ele>
        <time>2021-03-07T07:18:15Z</time>
      </trkpt>
      <trkpt lat="47.00936" lon="-1.58295">
        <ele>19</ele>
        <time>2021-03-07T07:18:18Z</time>
      </trkpt>
      <trkpt lat="47.0092" lon="-1.58297">
        <ele>18</ele>
        <time>2021-03-07T07:18:20Z</time>
      </trkpt>
      <trkpt lat="47.00892" lon="-1.58309">
        <ele>19</ele>
        <time>2021-03-07T07:18:26Z</time>
      </trkpt>
      <trkpt lat="47.00883" lon="-1.58308">
        <ele>19</ele>
        <time>2021-03-07T07:18:27Z</time>
      </trkpt>
      <trkpt lat="47.00878" lon="-1.58305">
        <ele>19</ele>
        <time>2021-03-07T07:18:28Z</time>
      </trkpt>
      <trkpt lat="47.00856" lon="-1.58271">
        <ele>19</ele>
        <time>2021-03-07T07:18:34Z</time>
      </trkpt>
      <trkpt lat="47.00847" lon="-1.58253">
        <ele>19</ele>
        <time>2021-03-07T07:18:37Z</time>
      </trkpt>
      <trkpt lat="47.00763" lon="-1.58114">
        <ele>21</ele>
        <time>2021-03-07T07:18:59Z</time>
      </trkpt>
      <trkpt lat="47.00742" lon="-1.58075">
        <ele>21</ele>
        <time>2021-03-07T07:19:05Z</time>
      </trkpt>
      <trkpt lat="47.00718" lon="-1.58029">
        <ele>22</ele>
        <time>2021-03-07T07:19:12Z</time>
      </trkpt>
      <trkpt lat="47.0069" lon="-1.57964">
        <ele>23</ele>
        <time>2021-03-07T07:19:22Z</time>
      </trkpt>
      <trkpt lat="47.00655" lon="-1.57872">
        <ele>24</ele>
        <time>2021-03-07T07:19:34Z</time>
      </trkpt>
      <trkpt lat="47.00638" lon="-1.57833">
        <ele>23</ele>
        <time>2021-03-07T07:19:40Z</time>
      </trkpt>
      <trkpt lat="47.00616" lon="-1.57792">
        <ele>23</ele>
        <time>2021-03-07T07:19:46Z</time>
      </trkpt>
      <trkpt lat="47.00541" lon="-1.57667">
        <ele>24</ele>
        <time>2021-03-07T07:20:06Z</time>
      </trkpt>
      <trkpt lat="47.00513" lon="-1.57615">
        <ele>24</ele>
        <time>2021-03-07T07:20:14Z</time>
      </trkpt>
      <trkpt lat="47.005" lon="-1.57585">
        <ele>25</ele>
        <time>2021-03-07T07:20:19Z</time>
      </trkpt>
      <trkpt lat="47.0049" lon="-1.57555">
        <ele>25</ele>
        <time>2021-03-07T07:20:23Z</time>
      </trkpt>
      <trkpt lat="47.0045" lon="-1.57431">
        <ele>24</ele>
        <time>2021-03-07T07:20:39Z</time>
      </trkpt>
      <trkpt lat="47.00432" lon="-1.57389">
        <ele>24</ele>
        <time>2021-03-07T07:20:46Z</time>
      </trkpt>
      <trkpt lat="47.00376" lon="-1.57275">
        <ele>24</ele>
        <time>2021-03-07T07:21:03Z</time>
      </trkpt>
      <trkpt lat="47.00335" lon="-1.57174">
        <ele>25</ele>
        <time>2021-03-07T07:21:17Z</time>
      </trkpt>
      <trkpt lat="47.00307" lon="-1.5709">
        <ele>25</ele>
        <time>2021-03-07T07:21:28Z</time>
      </trkpt>
      <trkpt lat="47.00303" lon="-1.57072">
        <ele>25</ele>
        <time>2021-03-07T07:21:30Z</time>
      </trkpt>
      <trkpt lat="47.00301" lon="-1.57042">
        <ele>25</ele>
        <time>2021-03-07T07:21:34Z</time>
      </trkpt>
      <trkpt lat="47.00303" lon="-1.5698">
        <ele>25</ele>
        <time>2021-03-07T07:21:42Z</time>
      </trkpt>
      <trkpt lat="47.00307" lon="-1.56943">
        <ele>25</ele>
        <time>2021-03-07T07:21:46Z</time>
      </trkpt>
      <trkpt lat="47.00306" lon="-1.56929">
        <ele>25</ele>
        <time>2021-03-07T07:21:48Z</time>
      </trkpt>
      <trkpt lat="47.00299" lon="-1.56906">
        <ele>24</ele>
        <time>2021-03-07T07:21:51Z</time>
      </trkpt>
      <trkpt lat="47.00285" lon="-1.56868">
        <ele>24</ele>
        <time>2021-03-07T07:21:56Z</time>
      </trkpt>
      <trkpt lat="47.00281" lon="-1.56848">
        <ele>24</ele>
        <time>2021-03-07T07:21:59Z</time>
      </trkpt>
      <trkpt lat="47.00221" lon="-1.5622">
        <ele>25</ele>
        <time>2021-03-07T07:23:16Z</time>
      </trkpt>
      <trkpt lat="47.00215" lon="-1.56182">
        <ele>24</ele>
        <time>2021-03-07T07:23:20Z</time>
      </trkpt>
      <trkpt lat="47.00206" lon="-1.56154">
        <ele>24</ele>
        <time>2021-03-07T07:23:24Z</time>
      </trkpt>
      <trkpt lat="47.0018" lon="-1.56082">
        <ele>24</ele>
        <time>2021-03-07T07:23:34Z</time>
      </trkpt>
      <trkpt lat="47.00163" lon="-1.5605">
        <ele>23</ele>
        <time>2021-03-07T07:23:39Z</time>
      </trkpt>
      <trkpt lat="47.00103" lon="-1.55947">
        <ele>22</ele>
        <time>2021-03-07T07:23:55Z</time>
      </trkpt>
      <trkpt lat="47.00061" lon="-1.55856">
        <ele>22</ele>
        <time>2021-03-07T07:24:09Z</time>
      </trkpt>
      <trkpt lat="47.0005" lon="-1.5584">
        <ele>21</ele>
        <time>2021-03-07T07:24:11Z</time>
      </trkpt>
      <trkpt lat="47.00038" lon="-1.55826">
        <ele>22</ele>
        <time>2021-03-07T07:24:14Z</time>
      </trkpt>
      <trkpt lat="47.00014" lon="-1.55807">
        <ele>22</ele>
        <time>2021-03-07T07:24:19Z</time>
      </trkpt>
      <trkpt lat="46.99853" lon="-1.55689">
        <ele>24</ele>
        <time>2021-03-07T07:24:51Z</time>
      </trkpt>
      <trkpt lat="46.99819" lon="-1.55659">
        <ele>24</ele>
        <time>2021-03-07T07:24:58Z</time>
      </trkpt>
      <trkpt lat="46.998" lon="-1.55635">
        <ele>24</ele>
        <time>2021-03-07T07:25:03Z</time>
      </trkpt>
      <trkpt lat="46.9978" lon="-1.55602">
        <ele>25</ele>
        <time>2021-03-07T07:25:08Z</time>
      </trkpt>
      <trkpt lat="46.99609" lon="-1.55318">
        <ele>23</ele>
        <time>2021-03-07T07:25:54Z</time>
      </trkpt>
      <trkpt lat="46.99588" lon="-1.55276">
        <ele>23</ele>
        <time>2021-03-07T07:26:00Z</time>
      </trkpt>
      <trkpt lat="46.99574" lon="-1.55241">
        <ele>23</ele>
        <time>2021-03-07T07:26:05Z</time>
      </trkpt>
      <trkpt lat="46.99453" lon="-1.54822">
        <ele>12</ele>
        <time>2021-03-07T07:27:00Z</time>
      </trkpt>
      <trkpt lat="46.99443" lon="-1.54787">
        <ele>14</ele>
        <time>2021-03-07T07:27:05Z</time>
      </trkpt>
      <trkpt lat="46.99436" lon="-1.54765">
        <ele>14</ele>
        <time>2021-03-07T07:27:08Z</time>
      </trkpt>
      <trkpt lat="46.99424" lon="-1.54735">
        <ele>16</ele>
        <time>2021-03-07T07:27:12Z</time>
      </trkpt>
      <trkpt lat="46.99417" lon="-1.54723">
        <ele>16</ele>
        <time>2021-03-07T07:27:14Z</time>
      </trkpt>
      <trkpt lat="46.99341" lon="-1.54618">
        <ele>19</ele>
        <time>2021-03-07T07:27:33Z</time>
      </trkpt>
      <trkpt lat="46.99331" lon="-1.54607">
        <ele>19</ele>
        <time>2021-03-07T07:27:35Z</time>
      </trkpt>
      <trkpt lat="46.99311" lon="-1.54591">
        <ele>19</ele>
        <time>2021-03-07T07:27:39Z</time>
      </trkpt>
      <trkpt lat="46.993" lon="-1.54586">
        <ele>19</ele>
        <time>2021-03-07T07:27:41Z</time>
      </trkpt>
      <trkpt lat="46.99277" lon="-1.54581">
        <ele>19</ele>
        <time>2021-03-07T07:27:45Z</time>
      </trkpt>
      <trkpt lat="46.99254" lon="-1.5458">
        <ele>19</ele>
        <time>2021-03-07T07:27:49Z</time>
      </trkpt>
      <trkpt lat="46.99207" lon="-1.54585">
        <ele>20</ele>
        <time>2021-03-07T07:27:58Z</time>
      </trkpt>
      <trkpt lat="46.99184" lon="-1.54578">
        <ele>20</ele>
        <time>2021-03-07T07:28:02Z</time>
      </trkpt>
      <trkpt lat="46.99132" lon="-1.54544">
        <ele>20</ele>
        <time>2021-03-07T07:28:12Z</time>
      </trkpt>
      <trkpt lat="46.99115" lon="-1.5453">
        <ele>20</ele>
        <time>2021-03-07T07:28:15Z</time>
      </trkpt>
      <trkpt lat="46.99112" lon="-1.54524">
        <ele>20</ele>
        <time>2021-03-07T07:28:16Z</time>
      </trkpt>
      <trkpt lat="46.99105" lon="-1.54501">
        <ele>20</ele>
        <time>2021-03-07T07:28:19Z</time>
      </trkpt>
      <trkpt lat="46.99105" lon="-1.54442">
        <ele>21</ele>
        <time>2021-03-07T07:28:27Z</time>
      </trkpt>
      <trkpt lat="46.99099" lon="-1.54388">
        <ele>20</ele>
        <time>2021-03-07T07:28:33Z</time>
      </trkpt>
      <trkpt lat="46.99079" lon="-1.54308">
        <ele>19</ele>
        <time>2021-03-07T07:28:44Z</time>
      </trkpt>
      <trkpt lat="46.99075" lon="-1.54275">
        <ele>19</ele>
        <time>2021-03-07T07:28:48Z</time>
      </trkpt>
      <trkpt lat="46.99074" lon="-1.54222">
        <ele>17</ele>
        <time>2021-03-07T07:28:54Z</time>
      </trkpt>
      <trkpt lat="46.99076" lon="-1.54189">
        <ele>16</ele>
        <time>2021-03-07T07:28:58Z</time>
      </trkpt>
      <trkpt lat="46.99079" lon="-1.54155">
        <ele>15</ele>
        <time>2021-03-07T07:29:02Z</time>
      </trkpt>
      <trkpt lat="46.9909" lon="-1.54102">
        <ele>14</ele>
        <time>2021-03-07T07:29:09Z</time>
      </trkpt>
      <trkpt lat="46.99094" lon="-1.54085">
        <ele>13</ele>
        <time>2021-03-07T07:29:11Z</time>
      </trkpt>
      <trkpt lat="46.99095" lon="-1.54074">
        <ele>14</ele>
        <time>2021-03-07T07:29:12Z</time>
      </trkpt>
      <trkpt lat="46.99096" lon="-1.54056">
        <ele>14</ele>
        <time>2021-03-07T07:29:15Z</time>
      </trkpt>
      <trkpt lat="46.99095" lon="-1.54048">
        <ele>15</ele>
        <time>2021-03-07T07:29:16Z</time>
      </trkpt>
      <trkpt lat="46.99093" lon="-1.54041">
        <ele>15</ele>
        <time>2021-03-07T07:29:17Z</time>
      </trkpt>
      <trkpt lat="46.99086" lon="-1.54018">
        <ele>15</ele>
        <time>2021-03-07T07:29:20Z</time>
      </trkpt>
      <trkpt lat="46.99051" lon="-1.53974">
        <ele>15</ele>
        <time>2021-03-07T07:29:28Z</time>
      </trkpt>
      <trkpt lat="46.99043" lon="-1.53961">
        <ele>15</ele>
        <time>2021-03-07T07:29:30Z</time>
      </trkpt>
      <trkpt lat="46.99038" lon="-1.53946">
        <ele>15</ele>
        <time>2021-03-07T07:29:32Z</time>
      </trkpt>
      <trkpt lat="46.99035" lon="-1.53919">
        <ele>15</ele>
        <time>2021-03-07T07:29:35Z</time>
      </trkpt>
      <trkpt lat="46.99037" lon="-1.53851">
        <ele>18</ele>
        <time>2021-03-07T07:29:44Z</time>
      </trkpt>
      <trkpt lat="46.99037" lon="-1.53833">
        <ele>18</ele>
        <time>2021-03-07T07:29:46Z</time>
      </trkpt>
      <trkpt lat="46.99034" lon="-1.53818">
        <ele>19</ele>
        <time>2021-03-07T07:29:48Z</time>
      </trkpt>
      <trkpt lat="46.98989" lon="-1.53678">
        <ele>21</ele>
        <time>2021-03-07T07:30:06Z</time>
      </trkpt>
      <trkpt lat="46.98982" lon="-1.53646">
        <ele>22</ele>
        <time>2021-03-07T07:30:10Z</time>
      </trkpt>
      <trkpt lat="46.98979" lon="-1.5362">
        <ele>22</ele>
        <time>2021-03-07T07:30:14Z</time>
      </trkpt>
      <trkpt lat="46.98985" lon="-1.53458">
        <ele>21</ele>
        <time>2021-03-07T07:30:33Z</time>
      </trkpt>
      <trkpt lat="46.98984" lon="-1.53425">
        <ele>21</ele>
        <time>2021-03-07T07:30:37Z</time>
      </trkpt>
      <trkpt lat="46.98982" lon="-1.53405">
        <ele>21</ele>
        <time>2021-03-07T07:30:40Z</time>
      </trkpt>
      <trkpt lat="46.98975" lon="-1.53366">
        <ele>20</ele>
        <time>2021-03-07T07:30:45Z</time>
      </trkpt>
      <trkpt lat="46.98961" lon="-1.53289">
        <ele>21</ele>
        <time>2021-03-07T07:30:54Z</time>
      </trkpt>
      <trkpt lat="46.98937" lon="-1.53143">
        <ele>23</ele>
        <time>2021-03-07T07:31:13Z</time>
      </trkpt>
      <trkpt lat="46.98932" lon="-1.53091">
        <ele>25</ele>
        <time>2021-03-07T07:31:19Z</time>
      </trkpt>
      <trkpt lat="46.98932" lon="-1.52919">
        <ele>28</ele>
        <time>2021-03-07T07:31:40Z</time>
      </trkpt>
      <trkpt lat="46.98928" lon="-1.52887">
        <ele>29</ele>
        <time>2021-03-07T07:31:44Z</time>
      </trkpt>
      <trkpt lat="46.98924" lon="-1.5287">
        <ele>29</ele>
        <time>2021-03-07T07:31:46Z</time>
      </trkpt>
      <trkpt lat="46.98919" lon="-1.52857">
        <ele>29</ele>
        <time>2021-03-07T07:31:48Z</time>
      </trkpt>
      <trkpt lat="46.98902" lon="-1.52811">
        <ele>30</ele>
        <time>2021-03-07T07:31:54Z</time>
      </trkpt>
      <trkpt lat="46.9889" lon="-1.52781">
        <ele>30</ele>
        <time>2021-03-07T07:31:58Z</time>
      </trkpt>
      <trkpt lat="46.98879" lon="-1.52752">
        <ele>31</ele>
        <time>2021-03-07T07:32:02Z</time>
      </trkpt>
      <trkpt lat="46.9887" lon="-1.52733">
        <ele>31</ele>
        <time>2021-03-07T07:32:05Z</time>
      </trkpt>
      <trkpt lat="46.9885" lon="-1.52694">
        <ele>31</ele>
        <time>2021-03-07T07:32:11Z</time>
      </trkpt>
      <trkpt lat="46.98846" lon="-1.52698">
        <ele>31</ele>
        <time>2021-03-07T07:32:12Z</time>
      </trkpt>
      <trkpt lat="46.98833" lon="-1.52719">
        <ele>30</ele>
        <time>2021-03-07T07:32:15Z</time>
      </trkpt>
      <trkpt lat="46.98846" lon="-1.52698">
        <ele>31</ele>
        <time>2021-03-07T07:32:19Z</time>
      </trkpt>
      <trkpt lat="46.9885" lon="-1.52694">
        <ele>31</ele>
        <time>2021-03-07T07:32:20Z</time>
      </trkpt>
      <trkpt lat="46.98804" lon="-1.52606">
        <ele>30</ele>
        <time>2021-03-07T07:32:33Z</time>
      </trkpt>
      <trkpt lat="46.98787" lon="-1.52581">
        <ele>29</ele>
        <time>2021-03-07T07:32:37Z</time>
      </trkpt>
      <trkpt lat="46.98645" lon="-1.52426">
        <ele>22</ele>
        <time>2021-03-07T07:33:09Z</time>
      </trkpt>
      <trkpt lat="46.98611" lon="-1.52392">
        <ele>22</ele>
        <time>2021-03-07T07:33:16Z</time>
      </trkpt>
      <trkpt lat="46.98558" lon="-1.5232">
        <ele>22</ele>
        <time>2021-03-07T07:33:29Z</time>
      </trkpt>
      <trkpt lat="46.98527" lon="-1.52287">
        <ele>21</ele>
        <time>2021-03-07T07:33:36Z</time>
      </trkpt>
      <trkpt lat="46.98523" lon="-1.5228">
        <ele>21</ele>
        <time>2021-03-07T07:33:37Z</time>
      </trkpt>
      <trkpt lat="46.98513" lon="-1.52254">
        <ele>20</ele>
        <time>2021-03-07T07:33:41Z</time>
      </trkpt>
      <trkpt lat="46.98511" lon="-1.52243">
        <ele>20</ele>
        <time>2021-03-07T07:33:42Z</time>
      </trkpt>
      <trkpt lat="46.98509" lon="-1.52192">
        <ele>19</ele>
        <time>2021-03-07T07:33:48Z</time>
      </trkpt>
      <trkpt lat="46.98509" lon="-1.52177">
        <ele>19</ele>
        <time>2021-03-07T07:33:50Z</time>
      </trkpt>
      <trkpt lat="46.98507" lon="-1.52155">
        <ele>18</ele>
        <time>2021-03-07T07:33:53Z</time>
      </trkpt>
      <trkpt lat="46.985" lon="-1.52131">
        <ele>18</ele>
        <time>2021-03-07T07:33:56Z</time>
      </trkpt>
      <trkpt lat="46.98505" lon="-1.52128">
        <ele>18</ele>
        <time>2021-03-07T07:33:57Z</time>
      </trkpt>
      <trkpt lat="46.98504" lon="-1.52116">
        <ele>17</ele>
        <time>2021-03-07T07:33:58Z</time>
      </trkpt>
      <trkpt lat="46.98511" lon="-1.52093">
        <ele>17</ele>
        <time>2021-03-07T07:34:01Z</time>
      </trkpt>
      <trkpt lat="46.98517" lon="-1.52082">
        <ele>17</ele>
        <time>2021-03-07T07:34:03Z</time>
      </trkpt>
      <trkpt lat="46.9853" lon="-1.52063">
        <ele>17</ele>
        <time>2021-03-07T07:34:06Z</time>
      </trkpt>
      <trkpt lat="46.98542" lon="-1.52045">
        <ele>18</ele>
        <time>2021-03-07T07:34:10Z</time>
      </trkpt>
      <trkpt lat="46.98563" lon="-1.5202">
        <ele>18</ele>
        <time>2021-03-07T07:34:14Z</time>
      </trkpt>
      <trkpt lat="46.98571" lon="-1.52006">
        <ele>18</ele>
        <time>2021-03-07T07:34:17Z</time>
      </trkpt>
      <trkpt lat="46.98576" lon="-1.51992">
        <ele>18</ele>
        <time>2021-03-07T07:34:18Z</time>
      </trkpt>
      <trkpt lat="46.98579" lon="-1.5197">
        <ele>18</ele>
        <time>2021-03-07T07:34:21Z</time>
      </trkpt>
      <trkpt lat="46.9858" lon="-1.51959">
        <ele>18</ele>
        <time>2021-03-07T07:34:23Z</time>
      </trkpt>
      <trkpt lat="46.98581" lon="-1.51952">
        <ele>18</ele>
        <time>2021-03-07T07:34:23Z</time>
      </trkpt>
      <trkpt lat="46.98578" lon="-1.51899">
        <ele>18</ele>
        <time>2021-03-07T07:34:30Z</time>
      </trkpt>
      <trkpt lat="46.98578" lon="-1.51881">
        <ele>18</ele>
        <time>2021-03-07T07:34:32Z</time>
      </trkpt>
      <trkpt lat="46.98591" lon="-1.51807">
        <ele>20</ele>
        <time>2021-03-07T07:34:41Z</time>
      </trkpt>
      <trkpt lat="46.98594" lon="-1.51807">
        <ele>20</ele>
        <time>2021-03-07T07:34:42Z</time>
      </trkpt>
      <trkpt lat="46.98598" lon="-1.51785">
        <ele>21</ele>
        <time>2021-03-07T07:34:45Z</time>
      </trkpt>
      <trkpt lat="46.98605" lon="-1.51781">
        <ele>21</ele>
        <time>2021-03-07T07:34:46Z</time>
      </trkpt>
      <trkpt lat="46.98606" lon="-1.51771">
        <ele>21</ele>
        <time>2021-03-07T07:34:47Z</time>
      </trkpt>
      <trkpt lat="46.98627" lon="-1.51736">
        <ele>23</ele>
        <time>2021-03-07T07:34:53Z</time>
      </trkpt>
      <trkpt lat="46.9863" lon="-1.51707">
        <ele>23</ele>
        <time>2021-03-07T07:34:56Z</time>
      </trkpt>
      <trkpt lat="46.98664" lon="-1.51709">
        <ele>24</ele>
        <time>2021-03-07T07:35:02Z</time>
      </trkpt>
      <trkpt lat="46.98671" lon="-1.51704">
        <ele>25</ele>
        <time>2021-03-07T07:35:04Z</time>
      </trkpt>
      <trkpt lat="46.98668" lon="-1.51698">
        <ele>25</ele>
        <time>2021-03-07T07:35:05Z</time>
      </trkpt>
      <trkpt lat="46.98672" lon="-1.51694">
        <ele>25</ele>
        <time>2021-03-07T07:35:06Z</time>
      </trkpt>
      <trkpt lat="46.98667" lon="-1.51683">
        <ele>25</ele>
        <time>2021-03-07T07:35:07Z</time>
      </trkpt>
      <trkpt lat="46.98663" lon="-1.51673">
        <ele>25</ele>
        <time>2021-03-07T07:35:09Z</time>
      </trkpt>
      <trkpt lat="46.98658" lon="-1.51651">
        <ele>25</ele>
        <time>2021-03-07T07:35:11Z</time>
      </trkpt>
      <trkpt lat="46.9864" lon="-1.51575">
        <ele>25</ele>
        <time>2021-03-07T07:35:21Z</time>
      </trkpt>
      <trkpt lat="46.98618" lon="-1.51482">
        <ele>26</ele>
        <time>2021-03-07T07:35:33Z</time>
      </trkpt>
      <trkpt lat="46.9861" lon="-1.51462">
        <ele>27</ele>
        <time>2021-03-07T07:35:36Z</time>
      </trkpt>
      <trkpt lat="46.98607" lon="-1.51457">
        <ele>27</ele>
        <time>2021-03-07T07:35:37Z</time>
      </trkpt>
      <trkpt lat="46.98603" lon="-1.51461">
        <ele>26</ele>
        <time>2021-03-07T07:35:38Z</time>
      </trkpt>
      <trkpt lat="46.98593" lon="-1.51463">
        <ele>26</ele>
        <time>2021-03-07T07:35:39Z</time>
      </trkpt>
      <trkpt lat="46.98588" lon="-1.5146">
        <ele>26</ele>
        <time>2021-03-07T07:35:40Z</time>
      </trkpt>
      <trkpt lat="46.98585" lon="-1.51456">
        <ele>26</ele>
        <time>2021-03-07T07:35:41Z</time>
      </trkpt>
      <trkpt lat="46.98582" lon="-1.5145">
        <ele>26</ele>
        <time>2021-03-07T07:35:42Z</time>
      </trkpt>
      <trkpt lat="46.98581" lon="-1.51437">
        <ele>26</ele>
        <time>2021-03-07T07:35:44Z</time>
      </trkpt>
      <trkpt lat="46.98583" lon="-1.51431">
        <ele>27</ele>
        <time>2021-03-07T07:35:44Z</time>
      </trkpt>
      <trkpt lat="46.98585" lon="-1.51426">
        <ele>27</ele>
        <time>2021-03-07T07:35:45Z</time>
      </trkpt>
      <trkpt lat="46.98588" lon="-1.51422">
        <ele>27</ele>
        <time>2021-03-07T07:35:46Z</time>
      </trkpt>
      <trkpt lat="46.98592" lon="-1.51419">
        <ele>27</ele>
        <time>2021-03-07T07:35:47Z</time>
      </trkpt>
      <trkpt lat="46.98596" lon="-1.51418">
        <ele>27</ele>
        <time>2021-03-07T07:35:47Z</time>
      </trkpt>
      <trkpt lat="46.98596" lon="-1.51406">
        <ele>27</ele>
        <time>2021-03-07T07:35:49Z</time>
      </trkpt>
      <trkpt lat="46.98595" lon="-1.5139">
        <ele>27</ele>
        <time>2021-03-07T07:35:51Z</time>
      </trkpt>
      <trkpt lat="46.98591" lon="-1.51371">
        <ele>27</ele>
        <time>2021-03-07T07:35:53Z</time>
      </trkpt>
      <trkpt lat="46.98589" lon="-1.51351">
        <ele>27</ele>
        <time>2021-03-07T07:35:56Z</time>
      </trkpt>
      <trkpt lat="46.98588" lon="-1.51324">
        <ele>27</ele>
        <time>2021-03-07T07:35:59Z</time>
      </trkpt>
      <trkpt lat="46.9859" lon="-1.51282">
        <ele>27</ele>
        <time>2021-03-07T07:36:04Z</time>
      </trkpt>
      <trkpt lat="46.98594" lon="-1.5122">
        <ele>28</ele>
        <time>2021-03-07T07:36:12Z</time>
      </trkpt>
      <trkpt lat="46.98594" lon="-1.51185">
        <ele>28</ele>
        <time>2021-03-07T07:36:16Z</time>
      </trkpt>
      <trkpt lat="46.98594" lon="-1.51163">
        <ele>28</ele>
        <time>2021-03-07T07:36:18Z</time>
      </trkpt>
      <trkpt lat="46.9859" lon="-1.51122">
        <ele>27</ele>
        <time>2021-03-07T07:36:24Z</time>
      </trkpt>
      <trkpt lat="46.98588" lon="-1.51105">
        <ele>27</ele>
        <time>2021-03-07T07:36:26Z</time>
      </trkpt>
      <trkpt lat="46.98583" lon="-1.51077">
        <ele>26</ele>
        <time>2021-03-07T07:36:29Z</time>
      </trkpt>
      <trkpt lat="46.98581" lon="-1.51073">
        <ele>26</ele>
        <time>2021-03-07T07:36:30Z</time>
      </trkpt>
      <trkpt lat="46.98578" lon="-1.51073">
        <ele>26</ele>
        <time>2021-03-07T07:36:30Z</time>
      </trkpt>
      <trkpt lat="46.98572" lon="-1.5107">
        <ele>25</ele>
        <time>2021-03-07T07:36:31Z</time>
      </trkpt>
      <trkpt lat="46.9857" lon="-1.51066">
        <ele>25</ele>
        <time>2021-03-07T07:36:32Z</time>
      </trkpt>
      <trkpt lat="46.98569" lon="-1.51062">
        <ele>25</ele>
        <time>2021-03-07T07:36:33Z</time>
      </trkpt>
      <trkpt lat="46.9857" lon="-1.51053">
        <ele>25</ele>
        <time>2021-03-07T07:36:34Z</time>
      </trkpt>
      <trkpt lat="46.98572" lon="-1.51049">
        <ele>25</ele>
        <time>2021-03-07T07:36:34Z</time>
      </trkpt>
      <trkpt lat="46.98575" lon="-1.51046">
        <ele>25</ele>
        <time>2021-03-07T07:36:35Z</time>
      </trkpt>
      <trkpt lat="46.98566" lon="-1.51018">
        <ele>24</ele>
        <time>2021-03-07T07:36:39Z</time>
      </trkpt>
      <trkpt lat="46.98555" lon="-1.50988">
        <ele>23</ele>
        <time>2021-03-07T07:36:43Z</time>
      </trkpt>
      <trkpt lat="46.98543" lon="-1.5096">
        <ele>21</ele>
        <time>2021-03-07T07:36:47Z</time>
      </trkpt>
      <trkpt lat="46.98541" lon="-1.50956">
        <ele>21</ele>
        <time>2021-03-07T07:36:47Z</time>
      </trkpt>
      <trkpt lat="46.98531" lon="-1.50937">
        <ele>20</ele>
        <time>2021-03-07T07:36:50Z</time>
      </trkpt>
      <trkpt lat="46.9851" lon="-1.50906">
        <ele>19</ele>
        <time>2021-03-07T07:36:56Z</time>
      </trkpt>
      <trkpt lat="46.98489" lon="-1.50875">
        <ele>19</ele>
        <time>2021-03-07T07:37:01Z</time>
      </trkpt>
      <trkpt lat="46.9848" lon="-1.50861">
        <ele>20</ele>
        <time>2021-03-07T07:37:03Z</time>
      </trkpt>
      <trkpt lat="46.98451" lon="-1.50817">
        <ele>20</ele>
        <time>2021-03-07T07:37:11Z</time>
      </trkpt>
      <trkpt lat="46.98438" lon="-1.50793">
        <ele>21</ele>
        <time>2021-03-07T07:37:14Z</time>
      </trkpt>
      <trkpt lat="46.98424" lon="-1.50757">
        <ele>22</ele>
        <time>2021-03-07T07:37:19Z</time>
      </trkpt>
      <trkpt lat="46.98418" lon="-1.50724">
        <ele>23</ele>
        <time>2021-03-07T07:37:24Z</time>
      </trkpt>
      <trkpt lat="46.98392" lon="-1.50554">
        <ele>24</ele>
        <time>2021-03-07T07:37:45Z</time>
      </trkpt>
      <trkpt lat="46.9838" lon="-1.50501">
        <ele>24</ele>
        <time>2021-03-07T07:37:51Z</time>
      </trkpt>
      <trkpt lat="46.98313" lon="-1.50327">
        <ele>27</ele>
        <time>2021-03-07T07:38:16Z</time>
      </trkpt>
      <trkpt lat="46.98275" lon="-1.50244">
        <ele>28</ele>
        <time>2021-03-07T07:38:28Z</time>
      </trkpt>
      <trkpt lat="46.98254" lon="-1.50204">
        <ele>29</ele>
        <time>2021-03-07T07:38:34Z</time>
      </trkpt>
      <trkpt lat="46.98203" lon="-1.50119">
        <ele>30</ele>
        <time>2021-03-07T07:38:48Z</time>
      </trkpt>
      <trkpt lat="46.98173" lon="-1.50078">
        <ele>29</ele>
        <time>2021-03-07T07:38:55Z</time>
      </trkpt>
      <trkpt lat="46.98147" lon="-1.50046">
        <ele>29</ele>
        <time>2021-03-07T07:39:01Z</time>
      </trkpt>
      <trkpt lat="46.9804" lon="-1.49925">
        <ele>30</ele>
        <time>2021-03-07T07:39:25Z</time>
      </trkpt>
      <trkpt lat="46.98024" lon="-1.49896">
        <ele>30</ele>
        <time>2021-03-07T07:39:30Z</time>
      </trkpt>
      <trkpt lat="46.9802" lon="-1.49882">
        <ele>31</ele>
        <time>2021-03-07T07:39:31Z</time>
      </trkpt>
      <trkpt lat="46.98015" lon="-1.49853">
        <ele>31</ele>
        <time>2021-03-07T07:39:35Z</time>
      </trkpt>
      <trkpt lat="46.98016" lon="-1.49809">
        <ele>31</ele>
        <time>2021-03-07T07:39:40Z</time>
      </trkpt>
      <trkpt lat="46.98019" lon="-1.4979">
        <ele>31</ele>
        <time>2021-03-07T07:39:43Z</time>
      </trkpt>
      <trkpt lat="46.9803" lon="-1.49756">
        <ele>31</ele>
        <time>2021-03-07T07:39:47Z</time>
      </trkpt>
      <trkpt lat="46.98037" lon="-1.49742">
        <ele>31</ele>
        <time>2021-03-07T07:39:49Z</time>
      </trkpt>
      <trkpt lat="46.98167" lon="-1.49507">
        <ele>31</ele>
        <time>2021-03-07T07:40:26Z</time>
      </trkpt>
      <trkpt lat="46.98174" lon="-1.49493">
        <ele>31</ele>
        <time>2021-03-07T07:40:28Z</time>
      </trkpt>
      <trkpt lat="46.98186" lon="-1.49457">
        <ele>31</ele>
        <time>2021-03-07T07:40:33Z</time>
      </trkpt>
      <trkpt lat="46.98312" lon="-1.48991">
        <ele>31</ele>
        <time>2021-03-07T07:41:34Z</time>
      </trkpt>
      <trkpt lat="46.9832" lon="-1.48942">
        <ele>31</ele>
        <time>2021-03-07T07:41:40Z</time>
      </trkpt>
      <trkpt lat="46.98324" lon="-1.4889">
        <ele>32</ele>
        <time>2021-03-07T07:41:47Z</time>
      </trkpt>
      <trkpt lat="46.98324" lon="-1.48844">
        <ele>33</ele>
        <time>2021-03-07T07:41:52Z</time>
      </trkpt>
      <trkpt lat="46.98319" lon="-1.48739">
        <ele>31</ele>
        <time>2021-03-07T07:42:05Z</time>
      </trkpt>
      <trkpt lat="46.98315" lon="-1.48699">
        <ele>30</ele>
        <time>2021-03-07T07:42:10Z</time>
      </trkpt>
      <trkpt lat="46.98308" lon="-1.48661">
        <ele>29</ele>
        <time>2021-03-07T07:42:15Z</time>
      </trkpt>
      <trkpt lat="46.98297" lon="-1.48628">
        <ele>29</ele>
        <time>2021-03-07T07:42:19Z</time>
      </trkpt>
      <trkpt lat="46.9828" lon="-1.48592">
        <ele>28</ele>
        <time>2021-03-07T07:42:24Z</time>
      </trkpt>
      <trkpt lat="46.9819" lon="-1.48437">
        <ele>28</ele>
        <time>2021-03-07T07:42:49Z</time>
      </trkpt>
      <trkpt lat="46.98176" lon="-1.48404">
        <ele>28</ele>
        <time>2021-03-07T07:42:54Z</time>
      </trkpt>
      <trkpt lat="46.98163" lon="-1.48361">
        <ele>29</ele>
        <time>2021-03-07T07:42:59Z</time>
      </trkpt>
      <trkpt lat="46.98114" lon="-1.48133">
        <ele>28</ele>
        <time>2021-03-07T07:43:28Z</time>
      </trkpt>
      <trkpt lat="46.98102" lon="-1.48067">
        <ele>27</ele>
        <time>2021-03-07T07:43:37Z</time>
      </trkpt>
      <trkpt lat="46.98099" lon="-1.48044">
        <ele>27</ele>
        <time>2021-03-07T07:43:40Z</time>
      </trkpt>
      <trkpt lat="46.98097" lon="-1.48007">
        <ele>27</ele>
        <time>2021-03-07T07:43:44Z</time>
      </trkpt>
      <trkpt lat="46.98101" lon="-1.4767">
        <ele>23</ele>
        <time>2021-03-07T07:44:25Z</time>
      </trkpt>
      <trkpt lat="46.98101" lon="-1.47654">
        <ele>23</ele>
        <time>2021-03-07T07:44:27Z</time>
      </trkpt>
      <trkpt lat="46.98101" lon="-1.47556">
        <ele>23</ele>
        <time>2021-03-07T07:44:39Z</time>
      </trkpt>
      <trkpt lat="46.98102" lon="-1.47513">
        <ele>23</ele>
        <time>2021-03-07T07:44:44Z</time>
      </trkpt>
      <trkpt lat="46.98101" lon="-1.47477">
        <ele>24</ele>
        <time>2021-03-07T07:44:48Z</time>
      </trkpt>
      <trkpt lat="46.98096" lon="-1.47427">
        <ele>25</ele>
        <time>2021-03-07T07:44:55Z</time>
      </trkpt>
      <trkpt lat="46.98092" lon="-1.47399">
        <ele>25</ele>
        <time>2021-03-07T07:44:58Z</time>
      </trkpt>
      <trkpt lat="46.98086" lon="-1.47374">
        <ele>25</ele>
        <time>2021-03-07T07:45:01Z</time>
      </trkpt>
      <trkpt lat="46.98083" lon="-1.47366">
        <ele>24</ele>
        <time>2021-03-07T07:45:02Z</time>
      </trkpt>
      <trkpt lat="46.98079" lon="-1.47356">
        <ele>24</ele>
        <time>2021-03-07T07:45:04Z</time>
      </trkpt>
      <trkpt lat="46.98074" lon="-1.47349">
        <ele>24</ele>
        <time>2021-03-07T07:45:05Z</time>
      </trkpt>
      <trkpt lat="46.98063" lon="-1.47335">
        <ele>24</ele>
        <time>2021-03-07T07:45:08Z</time>
      </trkpt>
      <trkpt lat="46.98055" lon="-1.47325">
        <ele>25</ele>
        <time>2021-03-07T07:45:09Z</time>
      </trkpt>
      <trkpt lat="46.98033" lon="-1.47297">
        <ele>26</ele>
        <time>2021-03-07T07:45:15Z</time>
      </trkpt>
      <trkpt lat="46.98018" lon="-1.47274">
        <ele>26</ele>
        <time>2021-03-07T07:45:19Z</time>
      </trkpt>
      <trkpt lat="46.9801" lon="-1.47262">
        <ele>27</ele>
        <time>2021-03-07T07:45:21Z</time>
      </trkpt>
      <trkpt lat="46.98002" lon="-1.47249">
        <ele>27</ele>
        <time>2021-03-07T07:45:23Z</time>
      </trkpt>
      <trkpt lat="46.98001" lon="-1.47246">
        <ele>27</ele>
        <time>2021-03-07T07:45:23Z</time>
      </trkpt>
      <trkpt lat="46.97974" lon="-1.47181">
        <ele>26</ele>
        <time>2021-03-07T07:45:32Z</time>
      </trkpt>
      <trkpt lat="46.97945" lon="-1.47095">
        <ele>26</ele>
        <time>2021-03-07T07:45:44Z</time>
      </trkpt>
      <trkpt lat="46.97937" lon="-1.47072">
        <ele>26</ele>
        <time>2021-03-07T07:45:47Z</time>
      </trkpt>
      <trkpt lat="46.97932" lon="-1.4706">
        <ele>26</ele>
        <time>2021-03-07T07:45:49Z</time>
      </trkpt>
      <trkpt lat="46.97914" lon="-1.47026">
        <ele>25</ele>
        <time>2021-03-07T07:45:54Z</time>
      </trkpt>
      <trkpt lat="46.97901" lon="-1.47008">
        <ele>25</ele>
        <time>2021-03-07T07:45:57Z</time>
      </trkpt>
      <trkpt lat="46.97729" lon="-1.46822">
        <ele>26</ele>
        <time>2021-03-07T07:46:35Z</time>
      </trkpt>
      <trkpt lat="46.97719" lon="-1.46805">
        <ele>26</ele>
        <time>2021-03-07T07:46:38Z</time>
      </trkpt>
      <trkpt lat="46.97717" lon="-1.46801">
        <ele>26</ele>
        <time>2021-03-07T07:46:39Z</time>
      </trkpt>
      <trkpt lat="46.97715" lon="-1.46794">
        <ele>26</ele>
        <time>2021-03-07T07:46:40Z</time>
      </trkpt>
      <trkpt lat="46.97713" lon="-1.46775">
        <ele>26</ele>
        <time>2021-03-07T07:46:42Z</time>
      </trkpt>
      <trkpt lat="46.97717" lon="-1.46749">
        <ele>25</ele>
        <time>2021-03-07T07:46:45Z</time>
      </trkpt>
      <trkpt lat="46.97762" lon="-1.4652">
        <ele>23</ele>
        <time>2021-03-07T07:47:14Z</time>
      </trkpt>
      <trkpt lat="46.97766" lon="-1.46493">
        <ele>23</ele>
        <time>2021-03-07T07:47:17Z</time>
      </trkpt>
      <trkpt lat="46.97769" lon="-1.4646">
        <ele>24</ele>
        <time>2021-03-07T07:47:21Z</time>
      </trkpt>
      <trkpt lat="46.97769" lon="-1.46439">
        <ele>25</ele>
        <time>2021-03-07T07:47:24Z</time>
      </trkpt>
      <trkpt lat="46.97766" lon="-1.46402">
        <ele>26</ele>
        <time>2021-03-07T07:47:28Z</time>
      </trkpt>
      <trkpt lat="46.97708" lon="-1.4598">
        <ele>28</ele>
        <time>2021-03-07T07:48:21Z</time>
      </trkpt>
      <trkpt lat="46.977" lon="-1.45926">
        <ele>29</ele>
        <time>2021-03-07T07:48:27Z</time>
      </trkpt>
      <trkpt lat="46.97692" lon="-1.45885">
        <ele>30</ele>
        <time>2021-03-07T07:48:33Z</time>
      </trkpt>
      <trkpt lat="46.9769" lon="-1.45876">
        <ele>30</ele>
        <time>2021-03-07T07:48:34Z</time>
      </trkpt>
      <trkpt lat="46.97525" lon="-1.45114">
        <ele>31</ele>
        <time>2021-03-07T07:50:11Z</time>
      </trkpt>
      <trkpt lat="46.97514" lon="-1.45057">
        <ele>33</ele>
        <time>2021-03-07T07:50:18Z</time>
      </trkpt>
      <trkpt lat="46.97514" lon="-1.45038">
        <ele>33</ele>
        <time>2021-03-07T07:50:20Z</time>
      </trkpt>
      <trkpt lat="46.97514" lon="-1.45021">
        <ele>34</ele>
        <time>2021-03-07T07:50:22Z</time>
      </trkpt>
      <trkpt lat="46.97534" lon="-1.44807">
        <ele>35</ele>
        <time>2021-03-07T07:50:49Z</time>
      </trkpt>
      <trkpt lat="46.97538" lon="-1.44726">
        <ele>36</ele>
        <time>2021-03-07T07:50:58Z</time>
      </trkpt>
      <trkpt lat="46.97535" lon="-1.44622">
        <ele>38</ele>
        <time>2021-03-07T07:51:11Z</time>
      </trkpt>
      <trkpt lat="46.97515" lon="-1.44332">
        <ele>38</ele>
        <time>2021-03-07T07:51:47Z</time>
      </trkpt>
      <trkpt lat="46.97509" lon="-1.44298">
        <ele>38</ele>
        <time>2021-03-07T07:51:51Z</time>
      </trkpt>
      <trkpt lat="46.97503" lon="-1.44279">
        <ele>39</ele>
        <time>2021-03-07T07:51:53Z</time>
      </trkpt>
      <trkpt lat="46.9744" lon="-1.44138">
        <ele>37</ele>
        <time>2021-03-07T07:52:14Z</time>
      </trkpt>
      <trkpt lat="46.97428" lon="-1.44103">
        <ele>37</ele>
        <time>2021-03-07T07:52:19Z</time>
      </trkpt>
      <trkpt lat="46.97421" lon="-1.44075">
        <ele>36</ele>
        <time>2021-03-07T07:52:22Z</time>
      </trkpt>
      <trkpt lat="46.97408" lon="-1.44015">
        <ele>36</ele>
        <time>2021-03-07T07:52:30Z</time>
      </trkpt>
      <trkpt lat="46.97393" lon="-1.43958">
        <ele>38</ele>
        <time>2021-03-07T07:52:37Z</time>
      </trkpt>
      <trkpt lat="46.97381" lon="-1.43927">
        <ele>38</ele>
        <time>2021-03-07T07:52:42Z</time>
      </trkpt>
      <trkpt lat="46.97364" lon="-1.43899">
        <ele>39</ele>
        <time>2021-03-07T07:52:46Z</time>
      </trkpt>
      <trkpt lat="46.9735" lon="-1.43875">
        <ele>39</ele>
        <time>2021-03-07T07:52:50Z</time>
      </trkpt>
      <trkpt lat="46.97342" lon="-1.43868">
        <ele>39</ele>
        <time>2021-03-07T07:52:52Z</time>
      </trkpt>
      <trkpt lat="46.97338" lon="-1.43864">
        <ele>39</ele>
        <time>2021-03-07T07:52:52Z</time>
      </trkpt>
      <trkpt lat="46.97335" lon="-1.43862">
        <ele>39</ele>
        <time>2021-03-07T07:52:53Z</time>
      </trkpt>
      <trkpt lat="46.97332" lon="-1.43863">
        <ele>39</ele>
        <time>2021-03-07T07:52:54Z</time>
      </trkpt>
      <trkpt lat="46.97332" lon="-1.43862">
        <ele>39</ele>
        <time>2021-03-07T07:52:54Z</time>
      </trkpt>
      <trkpt lat="46.97329" lon="-1.43862">
        <ele>39</ele>
        <time>2021-03-07T07:52:54Z</time>
      </trkpt>
      <trkpt lat="46.97325" lon="-1.43856">
        <ele>39</ele>
        <time>2021-03-07T07:52:55Z</time>
      </trkpt>
      <trkpt lat="46.97325" lon="-1.43856">
        <ele>39</ele>
        <time>2021-03-07T07:52:55Z</time>
      </trkpt>
      <trkpt lat="46.97324" lon="-1.43852">
        <ele>39</ele>
        <time>2021-03-07T07:52:56Z</time>
      </trkpt>
      <trkpt lat="46.97324" lon="-1.43848">
        <ele>39</ele>
        <time>2021-03-07T07:52:56Z</time>
      </trkpt>
      <trkpt lat="46.97324" lon="-1.43846">
        <ele>39</ele>
        <time>2021-03-07T07:52:56Z</time>
      </trkpt>
      <trkpt lat="46.97322" lon="-1.4384">
        <ele>39</ele>
        <time>2021-03-07T07:52:57Z</time>
      </trkpt>
      <trkpt lat="46.9732" lon="-1.43834">
        <ele>39</ele>
        <time>2021-03-07T07:52:58Z</time>
      </trkpt>
      <trkpt lat="46.97314" lon="-1.4382">
        <ele>39</ele>
        <time>2021-03-07T07:53:00Z</time>
      </trkpt>
      <trkpt lat="46.9729" lon="-1.43783">
        <ele>40</ele>
        <time>2021-03-07T07:53:06Z</time>
      </trkpt>
      <trkpt lat="46.97266" lon="-1.43742">
        <ele>41</ele>
        <time>2021-03-07T07:53:13Z</time>
      </trkpt>
      <trkpt lat="46.97251" lon="-1.43718">
        <ele>41</ele>
        <time>2021-03-07T07:53:17Z</time>
      </trkpt>
      <trkpt lat="46.97172" lon="-1.43571">
        <ele>40</ele>
        <time>2021-03-07T07:53:40Z</time>
      </trkpt>
      <trkpt lat="46.97155" lon="-1.43537">
        <ele>40</ele>
        <time>2021-03-07T07:53:45Z</time>
      </trkpt>
      <trkpt lat="46.9715" lon="-1.43528">
        <ele>39</ele>
        <time>2021-03-07T07:53:46Z</time>
      </trkpt>
      <trkpt lat="46.97144" lon="-1.43517">
        <ele>39</ele>
        <time>2021-03-07T07:53:48Z</time>
      </trkpt>
      <trkpt lat="46.97139" lon="-1.43507">
        <ele>39</ele>
        <time>2021-03-07T07:53:49Z</time>
      </trkpt>
      <trkpt lat="46.9714" lon="-1.43492">
        <ele>39</ele>
        <time>2021-03-07T07:53:51Z</time>
      </trkpt>
      <trkpt lat="46.97141" lon="-1.43478">
        <ele>39</ele>
        <time>2021-03-07T07:53:53Z</time>
      </trkpt>
      <trkpt lat="46.97142" lon="-1.43471">
        <ele>39</ele>
        <time>2021-03-07T07:53:54Z</time>
      </trkpt>
      <trkpt lat="46.97145" lon="-1.4346">
        <ele>39</ele>
        <time>2021-03-07T07:53:55Z</time>
      </trkpt>
      <trkpt lat="46.97147" lon="-1.43448">
        <ele>39</ele>
        <time>2021-03-07T07:53:57Z</time>
      </trkpt>
      <trkpt lat="46.97153" lon="-1.43416">
        <ele>40</ele>
        <time>2021-03-07T07:54:01Z</time>
      </trkpt>
      <trkpt lat="46.9715" lon="-1.43414">
        <ele>40</ele>
        <time>2021-03-07T07:54:01Z</time>
      </trkpt>
      <trkpt lat="46.97146" lon="-1.43405">
        <ele>40</ele>
        <time>2021-03-07T07:54:03Z</time>
      </trkpt>
      <trkpt lat="46.97147" lon="-1.43395">
        <ele>40</ele>
        <time>2021-03-07T07:54:04Z</time>
      </trkpt>
      <trkpt lat="46.97151" lon="-1.43388">
        <ele>40</ele>
        <time>2021-03-07T07:54:05Z</time>
      </trkpt>
      <trkpt lat="46.9716" lon="-1.43386">
        <ele>40</ele>
        <time>2021-03-07T07:54:07Z</time>
      </trkpt>
      <trkpt lat="46.97171" lon="-1.43361">
        <ele>39</ele>
        <time>2021-03-07T07:54:10Z</time>
      </trkpt>
      <trkpt lat="46.97177" lon="-1.43342">
        <ele>39</ele>
        <time>2021-03-07T07:54:13Z</time>
      </trkpt>
      <trkpt lat="46.97182" lon="-1.43309">
        <ele>39</ele>
        <time>2021-03-07T07:54:17Z</time>
      </trkpt>
      <trkpt lat="46.97147" lon="-1.43301">
        <ele>39</ele>
        <time>2021-03-07T07:54:23Z</time>
      </trkpt>
      <trkpt lat="46.97132" lon="-1.43292">
        <ele>40</ele>
        <time>2021-03-07T07:54:26Z</time>
      </trkpt>
      <trkpt lat="46.97115" lon="-1.43287">
        <ele>40</ele>
        <time>2021-03-07T07:54:29Z</time>
      </trkpt>
      <trkpt lat="46.97101" lon="-1.43286">
        <ele>40</ele>
        <time>2021-03-07T07:54:32Z</time>
      </trkpt>
      <trkpt lat="46.97092" lon="-1.43256">
        <ele>41</ele>
        <time>2021-03-07T07:54:36Z</time>
      </trkpt>
      <trkpt lat="46.97092" lon="-1.43237">
        <ele>40</ele>
        <time>2021-03-07T07:54:38Z</time>
      </trkpt>
      <trkpt lat="46.96988" lon="-1.43263">
        <ele>41</ele>
        <time>2021-03-07T07:54:57Z</time>
      </trkpt>
      <trkpt lat="46.96988" lon="-1.43251">
        <ele>41</ele>
        <time>2021-03-07T07:54:58Z</time>
      </trkpt>
      <trkpt lat="46.96988" lon="-1.43238">
        <ele>41</ele>
        <time>2021-03-07T07:55:00Z</time>
      </trkpt>
      <trkpt lat="46.9698" lon="-1.43173">
        <ele>39</ele>
        <time>2021-03-07T07:55:08Z</time>
      </trkpt>
      <trkpt lat="46.96979" lon="-1.43166">
        <ele>39</ele>
        <time>2021-03-07T07:55:09Z</time>
      </trkpt>
      <trkpt lat="46.96979" lon="-1.43163">
        <ele>39</ele>
        <time>2021-03-07T07:55:09Z</time>
      </trkpt>
      <trkpt lat="46.96978" lon="-1.43154">
        <ele>39</ele>
        <time>2021-03-07T07:55:10Z</time>
      </trkpt>
      <trkpt lat="46.96974" lon="-1.43116">
        <ele>39</ele>
        <time>2021-03-07T07:55:15Z</time>
      </trkpt>
      <trkpt lat="46.96969" lon="-1.43075">
        <ele>37</ele>
        <time>2021-03-07T07:55:20Z</time>
      </trkpt>
      <trkpt lat="46.96965" lon="-1.43064">
        <ele>37</ele>
        <time>2021-03-07T07:55:21Z</time>
      </trkpt>
      <trkpt lat="46.96963" lon="-1.43059">
        <ele>37</ele>
        <time>2021-03-07T07:55:22Z</time>
      </trkpt>
      <trkpt lat="46.96958" lon="-1.4305">
        <ele>36</ele>
        <time>2021-03-07T07:55:23Z</time>
      </trkpt>
      <trkpt lat="46.96949" lon="-1.43037">
        <ele>35</ele>
        <time>2021-03-07T07:55:26Z</time>
      </trkpt>
      <trkpt lat="46.9692" lon="-1.43005">
        <ele>33</ele>
        <time>2021-03-07T07:55:32Z</time>
      </trkpt>
      <trkpt lat="46.96912" lon="-1.42997">
        <ele>33</ele>
        <time>2021-03-07T07:55:34Z</time>
      </trkpt>
      <trkpt lat="46.96904" lon="-1.42988">
        <ele>33</ele>
        <time>2021-03-07T07:55:36Z</time>
      </trkpt>
      <trkpt lat="46.96874" lon="-1.42959">
        <ele>32</ele>
        <time>2021-03-07T07:55:42Z</time>
      </trkpt>
      <trkpt lat="46.96846" lon="-1.4293">
        <ele>30</ele>
        <time>2021-03-07T07:55:48Z</time>
      </trkpt>
      <trkpt lat="46.96831" lon="-1.42913">
        <ele>30</ele>
        <time>2021-03-07T07:55:51Z</time>
      </trkpt>
      <trkpt lat="46.96821" lon="-1.42902">
        <ele>31</ele>
        <time>2021-03-07T07:55:54Z</time>
      </trkpt>
      <trkpt lat="46.9682" lon="-1.42901">
        <ele>31</ele>
        <time>2021-03-07T07:55:54Z</time>
      </trkpt>
      <trkpt lat="46.96809" lon="-1.42888">
        <ele>32</ele>
        <time>2021-03-07T07:55:56Z</time>
      </trkpt>
      <trkpt lat="46.96802" lon="-1.4288">
        <ele>32</ele>
        <time>2021-03-07T07:55:58Z</time>
      </trkpt>
      <trkpt lat="46.96757" lon="-1.42831">
        <ele>33</ele>
        <time>2021-03-07T07:56:08Z</time>
      </trkpt>
      <trkpt lat="46.96744" lon="-1.42818">
        <ele>33</ele>
        <time>2021-03-07T07:56:11Z</time>
      </trkpt>
      <trkpt lat="46.96639" lon="-1.42706">
        <ele>35</ele>
        <time>2021-03-07T07:56:34Z</time>
      </trkpt>
      <trkpt lat="46.96606" lon="-1.42671">
        <ele>35</ele>
        <time>2021-03-07T07:56:41Z</time>
      </trkpt>
      <trkpt lat="46.96589" lon="-1.42652">
        <ele>35</ele>
        <time>2021-03-07T07:56:45Z</time>
      </trkpt>
      <trkpt lat="46.9655" lon="-1.42611">
        <ele>35</ele>
        <time>2021-03-07T07:56:53Z</time>
      </trkpt>
      <trkpt lat="46.96534" lon="-1.42596">
        <ele>35</ele>
        <time>2021-03-07T07:56:57Z</time>
      </trkpt>
      <trkpt lat="46.96524" lon="-1.42588">
        <ele>35</ele>
        <time>2021-03-07T07:56:59Z</time>
      </trkpt>
      <trkpt lat="46.96514" lon="-1.42581">
        <ele>35</ele>
        <time>2021-03-07T07:57:01Z</time>
      </trkpt>
      <trkpt lat="46.96426" lon="-1.42524">
        <ele>35</ele>
        <time>2021-03-07T07:57:18Z</time>
      </trkpt>
      <trkpt lat="46.96337" lon="-1.42469">
        <ele>35</ele>
        <time>2021-03-07T07:57:35Z</time>
      </trkpt>
      <trkpt lat="46.96332" lon="-1.42466">
        <ele>35</ele>
        <time>2021-03-07T07:57:36Z</time>
      </trkpt>
      <trkpt lat="46.96328" lon="-1.42463">
        <ele>35</ele>
        <time>2021-03-07T07:57:37Z</time>
      </trkpt>
      <trkpt lat="46.96307" lon="-1.4245">
        <ele>36</ele>
        <time>2021-03-07T07:57:41Z</time>
      </trkpt>
      <trkpt lat="46.9626" lon="-1.42421">
        <ele>39</ele>
        <time>2021-03-07T07:57:50Z</time>
      </trkpt>
      <trkpt lat="46.96168" lon="-1.42363">
        <ele>39</ele>
        <time>2021-03-07T07:58:08Z</time>
      </trkpt>
      <trkpt lat="46.96133" lon="-1.42342">
        <ele>39</ele>
        <time>2021-03-07T07:58:15Z</time>
      </trkpt>
      <trkpt lat="46.96099" lon="-1.4232">
        <ele>39</ele>
        <time>2021-03-07T07:58:21Z</time>
      </trkpt>
      <trkpt lat="46.95683" lon="-1.42059">
        <ele>40</ele>
        <time>2021-03-07T07:59:42Z</time>
      </trkpt>
      <trkpt lat="46.95634" lon="-1.42029">
        <ele>40</ele>
        <time>2021-03-07T07:59:51Z</time>
      </trkpt>
      <trkpt lat="46.95498" lon="-1.41944">
        <ele>44</ele>
        <time>2021-03-07T08:00:17Z</time>
      </trkpt>
      <trkpt lat="46.95386" lon="-1.41874">
        <ele>43</ele>
        <time>2021-03-07T08:00:39Z</time>
      </trkpt>
      <trkpt lat="46.95222" lon="-1.41771">
        <ele>43</ele>
        <time>2021-03-07T08:01:11Z</time>
      </trkpt>
      <trkpt lat="46.95068" lon="-1.41675">
        <ele>46</ele>
        <time>2021-03-07T08:01:41Z</time>
      </trkpt>
      <trkpt lat="46.94953" lon="-1.41603">
        <ele>49</ele>
        <time>2021-03-07T08:02:03Z</time>
      </trkpt>
      <trkpt lat="46.94848" lon="-1.41537">
        <ele>49</ele>
        <time>2021-03-07T08:02:23Z</time>
      </trkpt>
      <trkpt lat="46.94796" lon="-1.41505">
        <ele>50</ele>
        <time>2021-03-07T08:02:33Z</time>
      </trkpt>
      <trkpt lat="46.94773" lon="-1.41491">
        <ele>50</ele>
        <time>2021-03-07T08:02:38Z</time>
      </trkpt>
      <trkpt lat="46.94733" lon="-1.41466">
        <ele>50</ele>
        <time>2021-03-07T08:02:45Z</time>
      </trkpt>
      <trkpt lat="46.94592" lon="-1.41378">
        <ele>48</ele>
        <time>2021-03-07T08:03:13Z</time>
      </trkpt>
      <trkpt lat="46.94534" lon="-1.41343">
        <ele>49</ele>
        <time>2021-03-07T08:03:24Z</time>
      </trkpt>
      <trkpt lat="46.9449" lon="-1.41319">
        <ele>50</ele>
        <time>2021-03-07T08:03:32Z</time>
      </trkpt>
      <trkpt lat="46.94219" lon="-1.41178">
        <ele>51</ele>
        <time>2021-03-07T08:04:23Z</time>
      </trkpt>
      <trkpt lat="46.94201" lon="-1.41167">
        <ele>51</ele>
        <time>2021-03-07T08:04:27Z</time>
      </trkpt>
      <trkpt lat="46.94183" lon="-1.41155">
        <ele>51</ele>
        <time>2021-03-07T08:04:30Z</time>
      </trkpt>
      <trkpt lat="46.94171" lon="-1.41144">
        <ele>51</ele>
        <time>2021-03-07T08:04:33Z</time>
      </trkpt>
      <trkpt lat="46.9414" lon="-1.41115">
        <ele>50</ele>
        <time>2021-03-07T08:04:39Z</time>
      </trkpt>
      <trkpt lat="46.94079" lon="-1.41053">
        <ele>49</ele>
        <time>2021-03-07T08:04:53Z</time>
      </trkpt>
      <trkpt lat="46.94017" lon="-1.4099">
        <ele>48</ele>
        <time>2021-03-07T08:05:06Z</time>
      </trkpt>
      <trkpt lat="46.93943" lon="-1.40914">
        <ele>47</ele>
        <time>2021-03-07T08:05:22Z</time>
      </trkpt>
      <trkpt lat="46.93909" lon="-1.4088">
        <ele>46</ele>
        <time>2021-03-07T08:05:29Z</time>
      </trkpt>
      <trkpt lat="46.93871" lon="-1.40841">
        <ele>46</ele>
        <time>2021-03-07T08:05:38Z</time>
      </trkpt>
      <trkpt lat="46.93832" lon="-1.40805">
        <ele>47</ele>
        <time>2021-03-07T08:05:46Z</time>
      </trkpt>
      <trkpt lat="46.93822" lon="-1.40796">
        <ele>47</ele>
        <time>2021-03-07T08:05:48Z</time>
      </trkpt>
      <trkpt lat="46.9381" lon="-1.40787">
        <ele>47</ele>
        <time>2021-03-07T08:05:50Z</time>
      </trkpt>
      <trkpt lat="46.93777" lon="-1.40761">
        <ele>47</ele>
        <time>2021-03-07T08:05:57Z</time>
      </trkpt>
      <trkpt lat="46.9374" lon="-1.40733">
        <ele>47</ele>
        <time>2021-03-07T08:06:05Z</time>
      </trkpt>
      <trkpt lat="46.93667" lon="-1.40678">
        <ele>48</ele>
        <time>2021-03-07T08:06:19Z</time>
      </trkpt>
      <trkpt lat="46.93656" lon="-1.4067">
        <ele>48</ele>
        <time>2021-03-07T08:06:21Z</time>
      </trkpt>
      <trkpt lat="46.93653" lon="-1.40668">
        <ele>48</ele>
        <time>2021-03-07T08:06:22Z</time>
      </trkpt>
      <trkpt lat="46.93643" lon="-1.4066">
        <ele>48</ele>
        <time>2021-03-07T08:06:24Z</time>
      </trkpt>
      <trkpt lat="46.9361" lon="-1.40636">
        <ele>47</ele>
        <time>2021-03-07T08:06:30Z</time>
      </trkpt>
      <trkpt lat="46.93501" lon="-1.40554">
        <ele>48</ele>
        <time>2021-03-07T08:06:52Z</time>
      </trkpt>
      <trkpt lat="46.93431" lon="-1.40501">
        <ele>47</ele>
        <time>2021-03-07T08:07:06Z</time>
      </trkpt>
      <trkpt lat="46.93416" lon="-1.4049">
        <ele>47</ele>
        <time>2021-03-07T08:07:09Z</time>
      </trkpt>
      <trkpt lat="46.93309" lon="-1.40409">
        <ele>44</ele>
        <time>2021-03-07T08:07:31Z</time>
      </trkpt>
      <trkpt lat="46.93237" lon="-1.40355">
        <ele>42</ele>
        <time>2021-03-07T08:07:45Z</time>
      </trkpt>
      <trkpt lat="46.93181" lon="-1.40313">
        <ele>43</ele>
        <time>2021-03-07T08:07:56Z</time>
      </trkpt>
      <trkpt lat="46.93151" lon="-1.40291">
        <ele>44</ele>
        <time>2021-03-07T08:08:02Z</time>
      </trkpt>
      <trkpt lat="46.9313" lon="-1.40275">
        <ele>44</ele>
        <time>2021-03-07T08:08:06Z</time>
      </trkpt>
      <trkpt lat="46.93024" lon="-1.40195">
        <ele>46</ele>
        <time>2021-03-07T08:08:28Z</time>
      </trkpt>
      <trkpt lat="46.93007" lon="-1.40182">
        <ele>46</ele>
        <time>2021-03-07T08:08:31Z</time>
      </trkpt>
      <trkpt lat="46.9291" lon="-1.40109">
        <ele>47</ele>
        <time>2021-03-07T08:08:51Z</time>
      </trkpt>
      <trkpt lat="46.92621" lon="-1.39891">
        <ele>53</ele>
        <time>2021-03-07T08:09:48Z</time>
      </trkpt>
      <trkpt lat="46.9256" lon="-1.3984">
        <ele>54</ele>
        <time>2021-03-07T08:10:01Z</time>
      </trkpt>
      <trkpt lat="46.92542" lon="-1.39824">
        <ele>54</ele>
        <time>2021-03-07T08:10:05Z</time>
      </trkpt>
      <trkpt lat="46.92522" lon="-1.39804">
        <ele>55</ele>
        <time>2021-03-07T08:10:09Z</time>
      </trkpt>
      <trkpt lat="46.92475" lon="-1.39748">
        <ele>55</ele>
        <time>2021-03-07T08:10:20Z</time>
      </trkpt>
      <trkpt lat="46.92278" lon="-1.39481">
        <ele>51</ele>
        <time>2021-03-07T08:11:07Z</time>
      </trkpt>
      <trkpt lat="46.92206" lon="-1.39382">
        <ele>52</ele>
        <time>2021-03-07T08:11:25Z</time>
      </trkpt>
      <trkpt lat="46.92156" lon="-1.39314">
        <ele>56</ele>
        <time>2021-03-07T08:11:37Z</time>
      </trkpt>
      <trkpt lat="46.92123" lon="-1.39269">
        <ele>58</ele>
        <time>2021-03-07T08:11:45Z</time>
      </trkpt>
      <trkpt lat="46.92098" lon="-1.39235">
        <ele>58</ele>
        <time>2021-03-07T08:11:51Z</time>
      </trkpt>
      <trkpt lat="46.92047" lon="-1.39165">
        <ele>57</ele>
        <time>2021-03-07T08:12:04Z</time>
      </trkpt>
      <trkpt lat="46.91839" lon="-1.3888">
        <ele>59</ele>
        <time>2021-03-07T08:12:54Z</time>
      </trkpt>
      <trkpt lat="46.91832" lon="-1.38871">
        <ele>59</ele>
        <time>2021-03-07T08:12:56Z</time>
      </trkpt>
      <trkpt lat="46.9183" lon="-1.38869">
        <ele>59</ele>
        <time>2021-03-07T08:12:56Z</time>
      </trkpt>
      <trkpt lat="46.91783" lon="-1.38804">
        <ele>60</ele>
        <time>2021-03-07T08:13:08Z</time>
      </trkpt>
      <trkpt lat="46.91671" lon="-1.38652">
        <ele>62</ele>
        <time>2021-03-07T08:13:35Z</time>
      </trkpt>
      <trkpt lat="46.91639" lon="-1.38608">
        <ele>61</ele>
        <time>2021-03-07T08:13:43Z</time>
      </trkpt>
      <trkpt lat="46.9161" lon="-1.38568">
        <ele>61</ele>
        <time>2021-03-07T08:13:50Z</time>
      </trkpt>
      <trkpt lat="46.91524" lon="-1.3845">
        <ele>61</ele>
        <time>2021-03-07T08:14:11Z</time>
      </trkpt>
      <trkpt lat="46.91506" lon="-1.38427">
        <ele>61</ele>
        <time>2021-03-07T08:14:15Z</time>
      </trkpt>
      <trkpt lat="46.915" lon="-1.38417">
        <ele>61</ele>
        <time>2021-03-07T08:14:17Z</time>
      </trkpt>
      <trkpt lat="46.91494" lon="-1.3841">
        <ele>61</ele>
        <time>2021-03-07T08:14:18Z</time>
      </trkpt>
      <trkpt lat="46.91482" lon="-1.38394">
        <ele>61</ele>
        <time>2021-03-07T08:14:21Z</time>
      </trkpt>
      <trkpt lat="46.91457" lon="-1.38359">
        <ele>60</ele>
        <time>2021-03-07T08:14:27Z</time>
      </trkpt>
      <trkpt lat="46.91439" lon="-1.38335">
        <ele>60</ele>
        <time>2021-03-07T08:14:32Z</time>
      </trkpt>
      <trkpt lat="46.91417" lon="-1.38307">
        <ele>60</ele>
        <time>2021-03-07T08:14:37Z</time>
      </trkpt>
      <trkpt lat="46.91391" lon="-1.38278">
        <ele>60</ele>
        <time>2021-03-07T08:14:43Z</time>
      </trkpt>
      <trkpt lat="46.91379" lon="-1.38265">
        <ele>60</ele>
        <time>2021-03-07T08:14:45Z</time>
      </trkpt>
      <trkpt lat="46.91348" lon="-1.3823">
        <ele>60</ele>
        <time>2021-03-07T08:14:52Z</time>
      </trkpt>
      <trkpt lat="46.91341" lon="-1.38219">
        <ele>60</ele>
        <time>2021-03-07T08:14:54Z</time>
      </trkpt>
      <trkpt lat="46.91302" lon="-1.38158">
        <ele>61</ele>
        <time>2021-03-07T08:15:04Z</time>
      </trkpt>
      <trkpt lat="46.91296" lon="-1.38151">
        <ele>61</ele>
        <time>2021-03-07T08:15:06Z</time>
      </trkpt>
      <trkpt lat="46.91293" lon="-1.38147">
        <ele>61</ele>
        <time>2021-03-07T08:15:06Z</time>
      </trkpt>
      <trkpt lat="46.91277" lon="-1.38133">
        <ele>62</ele>
        <time>2021-03-07T08:15:10Z</time>
      </trkpt>
      <trkpt lat="46.91245" lon="-1.38114">
        <ele>62</ele>
        <time>2021-03-07T08:15:16Z</time>
      </trkpt>
      <trkpt lat="46.91221" lon="-1.38103">
        <ele>63</ele>
        <time>2021-03-07T08:15:20Z</time>
      </trkpt>
      <trkpt lat="46.91214" lon="-1.38104">
        <ele>63</ele>
        <time>2021-03-07T08:15:22Z</time>
      </trkpt>
      <trkpt lat="46.91202" lon="-1.38103">
        <ele>63</ele>
        <time>2021-03-07T08:15:24Z</time>
      </trkpt>
      <trkpt lat="46.912" lon="-1.38105">
        <ele>63</ele>
        <time>2021-03-07T08:15:24Z</time>
      </trkpt>
      <trkpt lat="46.91192" lon="-1.38106">
        <ele>64</ele>
        <time>2021-03-07T08:15:26Z</time>
      </trkpt>
      <trkpt lat="46.91192" lon="-1.38106">
        <ele>64</ele>
        <time>2021-03-07T08:15:26Z</time>
      </trkpt>
      <trkpt lat="46.91186" lon="-1.38102">
        <ele>64</ele>
        <time>2021-03-07T08:15:27Z</time>
      </trkpt>
      <trkpt lat="46.91185" lon="-1.38099">
        <ele>64</ele>
        <time>2021-03-07T08:15:27Z</time>
      </trkpt>
      <trkpt lat="46.91184" lon="-1.38096">
        <ele>64</ele>
        <time>2021-03-07T08:15:28Z</time>
      </trkpt>
      <trkpt lat="46.91183" lon="-1.38089">
        <ele>64</ele>
        <time>2021-03-07T08:15:28Z</time>
      </trkpt>
      <trkpt lat="46.9117" lon="-1.38071">
        <ele>64</ele>
        <time>2021-03-07T08:15:32Z</time>
      </trkpt>
      <trkpt lat="46.91135" lon="-1.38042">
        <ele>64</ele>
        <time>2021-03-07T08:15:39Z</time>
      </trkpt>
      <trkpt lat="46.91094" lon="-1.37995">
        <ele>65</ele>
        <time>2021-03-07T08:15:48Z</time>
      </trkpt>
      <trkpt lat="46.91069" lon="-1.37963">
        <ele>65</ele>
        <time>2021-03-07T08:15:54Z</time>
      </trkpt>
      <trkpt lat="46.91058" lon="-1.37948">
        <ele>65</ele>
        <time>2021-03-07T08:15:57Z</time>
      </trkpt>
      <trkpt lat="46.91041" lon="-1.37926">
        <ele>65</ele>
        <time>2021-03-07T08:16:01Z</time>
      </trkpt>
      <trkpt lat="46.91037" lon="-1.37921">
        <ele>65</ele>
        <time>2021-03-07T08:16:02Z</time>
      </trkpt>
      <trkpt lat="46.91007" lon="-1.37881">
        <ele>66</ele>
        <time>2021-03-07T08:16:09Z</time>
      </trkpt>
      <trkpt lat="46.90986" lon="-1.37849">
        <ele>67</ele>
        <time>2021-03-07T08:16:14Z</time>
      </trkpt>
      <trkpt lat="46.90974" lon="-1.37826">
        <ele>67</ele>
        <time>2021-03-07T08:16:18Z</time>
      </trkpt>
      <trkpt lat="46.90967" lon="-1.37811">
        <ele>67</ele>
        <time>2021-03-07T08:16:20Z</time>
      </trkpt>
      <trkpt lat="46.90955" lon="-1.37787">
        <ele>67</ele>
        <time>2021-03-07T08:16:23Z</time>
      </trkpt>
      <trkpt lat="46.90951" lon="-1.37778">
        <ele>67</ele>
        <time>2021-03-07T08:16:25Z</time>
      </trkpt>
      <trkpt lat="46.90934" lon="-1.37742">
        <ele>66</ele>
        <time>2021-03-07T08:16:30Z</time>
      </trkpt>
      <trkpt lat="46.90932" lon="-1.37737">
        <ele>66</ele>
        <time>2021-03-07T08:16:31Z</time>
      </trkpt>
      <trkpt lat="46.9092" lon="-1.37714">
        <ele>66</ele>
        <time>2021-03-07T08:16:34Z</time>
      </trkpt>
      <trkpt lat="46.9091" lon="-1.37692">
        <ele>66</ele>
        <time>2021-03-07T08:16:38Z</time>
      </trkpt>
      <trkpt lat="46.90902" lon="-1.37677">
        <ele>66</ele>
        <time>2021-03-07T08:16:40Z</time>
      </trkpt>
      <trkpt lat="46.9089" lon="-1.37654">
        <ele>66</ele>
        <time>2021-03-07T08:16:43Z</time>
      </trkpt>
      <trkpt lat="46.90888" lon="-1.3765">
        <ele>66</ele>
        <time>2021-03-07T08:16:44Z</time>
      </trkpt>
      <trkpt lat="46.90885" lon="-1.37643">
        <ele>66</ele>
        <time>2021-03-07T08:16:45Z</time>
      </trkpt>
      <trkpt lat="46.90873" lon="-1.37622">
        <ele>66</ele>
        <time>2021-03-07T08:16:48Z</time>
      </trkpt>
      <trkpt lat="46.9087" lon="-1.37618">
        <ele>66</ele>
        <time>2021-03-07T08:16:49Z</time>
      </trkpt>
      <trkpt lat="46.90858" lon="-1.37597">
        <ele>66</ele>
        <time>2021-03-07T08:16:52Z</time>
      </trkpt>
      <trkpt lat="46.90839" lon="-1.3756">
        <ele>66</ele>
        <time>2021-03-07T08:16:58Z</time>
      </trkpt>
      <trkpt lat="46.90837" lon="-1.37554">
        <ele>67</ele>
        <time>2021-03-07T08:16:59Z</time>
      </trkpt>
      <trkpt lat="46.9084" lon="-1.37546">
        <ele>67</ele>
        <time>2021-03-07T08:17:00Z</time>
      </trkpt>
      <trkpt lat="46.90849" lon="-1.37507">
        <ele>67</ele>
        <time>2021-03-07T08:17:05Z</time>
      </trkpt>
      <trkpt lat="46.90865" lon="-1.37432">
        <ele>67</ele>
        <time>2021-03-07T08:17:14Z</time>
      </trkpt>
      <trkpt lat="46.90877" lon="-1.37373">
        <ele>66</ele>
        <time>2021-03-07T08:17:22Z</time>
      </trkpt>
      <trkpt lat="46.9088" lon="-1.37357">
        <ele>66</ele>
        <time>2021-03-07T08:17:24Z</time>
      </trkpt>
      <trkpt lat="46.90884" lon="-1.37332">
        <ele>65</ele>
        <time>2021-03-07T08:17:27Z</time>
      </trkpt>
      <trkpt lat="46.90885" lon="-1.37319">
        <ele>65</ele>
        <time>2021-03-07T08:17:29Z</time>
      </trkpt>
      <trkpt lat="46.90885" lon="-1.37317">
        <ele>65</ele>
        <time>2021-03-07T08:17:29Z</time>
      </trkpt>
      <trkpt lat="46.90876" lon="-1.37269">
        <ele>65</ele>
        <time>2021-03-07T08:17:35Z</time>
      </trkpt>
      <trkpt lat="46.90873" lon="-1.37258">
        <ele>65</ele>
        <time>2021-03-07T08:17:36Z</time>
      </trkpt>
      <trkpt lat="46.90871" lon="-1.37253">
        <ele>65</ele>
        <time>2021-03-07T08:17:37Z</time>
      </trkpt>
      <trkpt lat="46.90868" lon="-1.37247">
        <ele>65</ele>
        <time>2021-03-07T08:17:38Z</time>
      </trkpt>
      <trkpt lat="46.90864" lon="-1.3724">
        <ele>65</ele>
        <time>2021-03-07T08:17:39Z</time>
      </trkpt>
      <trkpt lat="46.90858" lon="-1.3723">
        <ele>65</ele>
        <time>2021-03-07T08:17:41Z</time>
      </trkpt>
      <trkpt lat="46.90852" lon="-1.37223">
        <ele>65</ele>
        <time>2021-03-07T08:17:42Z</time>
      </trkpt>
      <trkpt lat="46.90842" lon="-1.37214">
        <ele>65</ele>
        <time>2021-03-07T08:17:44Z</time>
      </trkpt>
      <trkpt lat="46.90812" lon="-1.37188">
        <ele>66</ele>
        <time>2021-03-07T08:17:50Z</time>
      </trkpt>
      <trkpt lat="46.90808" lon="-1.37183">
        <ele>66</ele>
        <time>2021-03-07T08:17:51Z</time>
      </trkpt>
      <trkpt lat="46.90804" lon="-1.37178">
        <ele>66</ele>
        <time>2021-03-07T08:17:52Z</time>
      </trkpt>
      <trkpt lat="46.90794" lon="-1.37161">
        <ele>66</ele>
        <time>2021-03-07T08:17:55Z</time>
      </trkpt>
      <trkpt lat="46.90789" lon="-1.37152">
        <ele>67</ele>
        <time>2021-03-07T08:17:56Z</time>
      </trkpt>
      <trkpt lat="46.90784" lon="-1.37143">
        <ele>67</ele>
        <time>2021-03-07T08:17:58Z</time>
      </trkpt>
      <trkpt lat="46.90766" lon="-1.37106">
        <ele>66</ele>
        <time>2021-03-07T08:18:03Z</time>
      </trkpt>
      <trkpt lat="46.90755" lon="-1.37083">
        <ele>66</ele>
        <time>2021-03-07T08:18:07Z</time>
      </trkpt>
      <trkpt lat="46.9075" lon="-1.37071">
        <ele>66</ele>
        <time>2021-03-07T08:18:08Z</time>
      </trkpt>
      <trkpt lat="46.90748" lon="-1.37067">
        <ele>66</ele>
        <time>2021-03-07T08:18:09Z</time>
      </trkpt>
      <trkpt lat="46.90738" lon="-1.37046">
        <ele>66</ele>
        <time>2021-03-07T08:18:12Z</time>
      </trkpt>
      <trkpt lat="46.90726" lon="-1.37021">
        <ele>66</ele>
        <time>2021-03-07T08:18:16Z</time>
      </trkpt>
      <trkpt lat="46.90677" lon="-1.36917">
        <ele>66</ele>
        <time>2021-03-07T08:18:31Z</time>
      </trkpt>
      <trkpt lat="46.90636" lon="-1.36828">
        <ele>64</ele>
        <time>2021-03-07T08:18:44Z</time>
      </trkpt>
      <trkpt lat="46.90605" lon="-1.36762">
        <ele>62</ele>
        <time>2021-03-07T08:18:54Z</time>
      </trkpt>
      <trkpt lat="46.90591" lon="-1.36732">
        <ele>61</ele>
        <time>2021-03-07T08:18:58Z</time>
      </trkpt>
      <trkpt lat="46.90505" lon="-1.36538">
        <ele>61</ele>
        <time>2021-03-07T08:19:27Z</time>
      </trkpt>
      <trkpt lat="46.90429" lon="-1.36405">
        <ele>61</ele>
        <time>2021-03-07T08:19:48Z</time>
      </trkpt>
      <trkpt lat="46.90329" lon="-1.3613">
        <ele>64</ele>
        <time>2021-03-07T08:20:26Z</time>
      </trkpt>
      <trkpt lat="46.90202" lon="-1.35833">
        <ele>66</ele>
        <time>2021-03-07T08:21:08Z</time>
      </trkpt>
      <trkpt lat="46.90189" lon="-1.35797">
        <ele>66</ele>
        <time>2021-03-07T08:21:13Z</time>
      </trkpt>
      <trkpt lat="46.90159" lon="-1.35702">
        <ele>65</ele>
        <time>2021-03-07T08:21:26Z</time>
      </trkpt>
      <trkpt lat="46.90132" lon="-1.35552">
        <ele>63</ele>
        <time>2021-03-07T08:21:45Z</time>
      </trkpt>
      <trkpt lat="46.9012" lon="-1.35499">
        <ele>63</ele>
        <time>2021-03-07T08:21:51Z</time>
      </trkpt>
      <trkpt lat="46.90113" lon="-1.35471">
        <ele>63</ele>
        <time>2021-03-07T08:21:55Z</time>
      </trkpt>
      <trkpt lat="46.90104" lon="-1.35449">
        <ele>63</ele>
        <time>2021-03-07T08:21:58Z</time>
      </trkpt>
      <trkpt lat="46.90096" lon="-1.35432">
        <ele>63</ele>
        <time>2021-03-07T08:22:01Z</time>
      </trkpt>
      <trkpt lat="46.90088" lon="-1.35419">
        <ele>63</ele>
        <time>2021-03-07T08:22:03Z</time>
      </trkpt>
      <trkpt lat="46.90066" lon="-1.35393">
        <ele>63</ele>
        <time>2021-03-07T08:22:08Z</time>
      </trkpt>
      <trkpt lat="46.89979" lon="-1.35319">
        <ele>62</ele>
        <time>2021-03-07T08:22:26Z</time>
      </trkpt>
      <trkpt lat="46.89963" lon="-1.35286">
        <ele>62</ele>
        <time>2021-03-07T08:22:31Z</time>
      </trkpt>
      <trkpt lat="46.89954" lon="-1.35261">
        <ele>61</ele>
        <time>2021-03-07T08:22:34Z</time>
      </trkpt>
      <trkpt lat="46.89951" lon="-1.35235">
        <ele>61</ele>
        <time>2021-03-07T08:22:37Z</time>
      </trkpt>
      <trkpt lat="46.89948" lon="-1.35197">
        <ele>62</ele>
        <time>2021-03-07T08:22:42Z</time>
      </trkpt>
      <trkpt lat="46.89947" lon="-1.3493">
        <ele>62</ele>
        <time>2021-03-07T08:23:14Z</time>
      </trkpt>
      <trkpt lat="46.89945" lon="-1.34887">
        <ele>61</ele>
        <time>2021-03-07T08:23:20Z</time>
      </trkpt>
      <trkpt lat="46.89942" lon="-1.34856">
        <ele>61</ele>
        <time>2021-03-07T08:23:23Z</time>
      </trkpt>
      <trkpt lat="46.89935" lon="-1.34829">
        <ele>61</ele>
        <time>2021-03-07T08:23:27Z</time>
      </trkpt>
      <trkpt lat="46.89681" lon="-1.33977">
        <ele>48</ele>
        <time>2021-03-07T08:25:20Z</time>
      </trkpt>
      <trkpt lat="46.89603" lon="-1.33781">
        <ele>49</ele>
        <time>2021-03-07T08:25:48Z</time>
      </trkpt>
      <trkpt lat="46.89372" lon="-1.33215">
        <ele>61</ele>
        <time>2021-03-07T08:27:08Z</time>
      </trkpt>
      <trkpt lat="46.8935" lon="-1.33181">
        <ele>60</ele>
        <time>2021-03-07T08:27:13Z</time>
      </trkpt>
      <trkpt lat="46.89298" lon="-1.33124">
        <ele>61</ele>
        <time>2021-03-07T08:27:25Z</time>
      </trkpt>
      <trkpt lat="46.89131" lon="-1.3295">
        <ele>57</ele>
        <time>2021-03-07T08:28:01Z</time>
      </trkpt>
      <trkpt lat="46.8912" lon="-1.32943">
        <ele>57</ele>
        <time>2021-03-07T08:28:04Z</time>
      </trkpt>
      <trkpt lat="46.89114" lon="-1.32941">
        <ele>56</ele>
        <time>2021-03-07T08:28:05Z</time>
      </trkpt>
      <trkpt lat="46.8911" lon="-1.32939">
        <ele>56</ele>
        <time>2021-03-07T08:28:05Z</time>
      </trkpt>
      <trkpt lat="46.89102" lon="-1.32919">
        <ele>56</ele>
        <time>2021-03-07T08:28:08Z</time>
      </trkpt>
      <trkpt lat="46.89101" lon="-1.32919">
        <ele>56</ele>
        <time>2021-03-07T08:28:08Z</time>
      </trkpt>
      <trkpt lat="46.89041" lon="-1.32858">
        <ele>56</ele>
        <time>2021-03-07T08:28:21Z</time>
      </trkpt>
      <trkpt lat="46.89035" lon="-1.32852">
        <ele>56</ele>
        <time>2021-03-07T08:28:23Z</time>
      </trkpt>
      <trkpt lat="46.89028" lon="-1.32845">
        <ele>55</ele>
        <time>2021-03-07T08:28:24Z</time>
      </trkpt>
      <trkpt lat="46.89002" lon="-1.32819">
        <ele>55</ele>
        <time>2021-03-07T08:28:30Z</time>
      </trkpt>
      <trkpt lat="46.8894" lon="-1.32749">
        <ele>52</ele>
        <time>2021-03-07T08:28:44Z</time>
      </trkpt>
      <trkpt lat="46.88935" lon="-1.32743">
        <ele>52</ele>
        <time>2021-03-07T08:28:45Z</time>
      </trkpt>
      <trkpt lat="46.88932" lon="-1.32737">
        <ele>52</ele>
        <time>2021-03-07T08:28:46Z</time>
      </trkpt>
      <trkpt lat="46.88922" lon="-1.32717">
        <ele>52</ele>
        <time>2021-03-07T08:28:49Z</time>
      </trkpt>
      <trkpt lat="46.88912" lon="-1.32697">
        <ele>52</ele>
        <time>2021-03-07T08:28:52Z</time>
      </trkpt>
      <trkpt lat="46.88866" lon="-1.32576">
        <ele>56</ele>
        <time>2021-03-07T08:29:09Z</time>
      </trkpt>
      <trkpt lat="46.88745" lon="-1.32263">
        <ele>65</ele>
        <time>2021-03-07T08:29:52Z</time>
      </trkpt>
      <trkpt lat="46.88685" lon="-1.32164">
        <ele>66</ele>
        <time>2021-03-07T08:30:09Z</time>
      </trkpt>
      <trkpt lat="46.88682" lon="-1.3216">
        <ele>66</ele>
        <time>2021-03-07T08:30:09Z</time>
      </trkpt>
      <trkpt lat="46.88678" lon="-1.32154">
        <ele>66</ele>
        <time>2021-03-07T08:30:10Z</time>
      </trkpt>
      <trkpt lat="46.88667" lon="-1.32137">
        <ele>66</ele>
        <time>2021-03-07T08:30:13Z</time>
      </trkpt>
      <trkpt lat="46.88662" lon="-1.3213">
        <ele>66</ele>
        <time>2021-03-07T08:30:14Z</time>
      </trkpt>
      <trkpt lat="46.88657" lon="-1.32122">
        <ele>65</ele>
        <time>2021-03-07T08:30:16Z</time>
      </trkpt>
      <trkpt lat="46.88659" lon="-1.32102">
        <ele>65</ele>
        <time>2021-03-07T08:30:18Z</time>
      </trkpt>
      <trkpt lat="46.88634" lon="-1.32051">
        <ele>65</ele>
        <time>2021-03-07T08:30:26Z</time>
      </trkpt>
      <trkpt lat="46.88606" lon="-1.31959">
        <ele>65</ele>
        <time>2021-03-07T08:30:38Z</time>
      </trkpt>
      <trkpt lat="46.88599" lon="-1.31942">
        <ele>65</ele>
        <time>2021-03-07T08:30:40Z</time>
      </trkpt>
      <trkpt lat="46.88519" lon="-1.31798">
        <ele>65</ele>
        <time>2021-03-07T08:31:03Z</time>
      </trkpt>
      <trkpt lat="46.88504" lon="-1.31771">
        <ele>65</ele>
        <time>2021-03-07T08:31:07Z</time>
      </trkpt>
      <trkpt lat="46.88491" lon="-1.31747">
        <ele>64</ele>
        <time>2021-03-07T08:31:11Z</time>
      </trkpt>
      <trkpt lat="46.88483" lon="-1.31733">
        <ele>65</ele>
        <time>2021-03-07T08:31:13Z</time>
      </trkpt>
      <trkpt lat="46.88467" lon="-1.31702">
        <ele>65</ele>
        <time>2021-03-07T08:31:18Z</time>
      </trkpt>
      <trkpt lat="46.88459" lon="-1.31681">
        <ele>66</ele>
        <time>2021-03-07T08:31:21Z</time>
      </trkpt>
      <trkpt lat="46.88452" lon="-1.31657">
        <ele>66</ele>
        <time>2021-03-07T08:31:24Z</time>
      </trkpt>
      <trkpt lat="46.88431" lon="-1.31584">
        <ele>67</ele>
        <time>2021-03-07T08:31:34Z</time>
      </trkpt>
      <trkpt lat="46.8842" lon="-1.31551">
        <ele>67</ele>
        <time>2021-03-07T08:31:38Z</time>
      </trkpt>
      <trkpt lat="46.88406" lon="-1.31522">
        <ele>68</ele>
        <time>2021-03-07T08:31:42Z</time>
      </trkpt>
      <trkpt lat="46.88386" lon="-1.31488">
        <ele>68</ele>
        <time>2021-03-07T08:31:48Z</time>
      </trkpt>
      <trkpt lat="46.8838" lon="-1.3148">
        <ele>68</ele>
        <time>2021-03-07T08:31:49Z</time>
      </trkpt>
      <trkpt lat="46.88374" lon="-1.3147">
        <ele>68</ele>
        <time>2021-03-07T08:31:51Z</time>
      </trkpt>
      <trkpt lat="46.88342" lon="-1.31423">
        <ele>68</ele>
        <time>2021-03-07T08:31:59Z</time>
      </trkpt>
      <trkpt lat="46.88317" lon="-1.31387">
        <ele>68</ele>
        <time>2021-03-07T08:32:05Z</time>
      </trkpt>
      <trkpt lat="46.88284" lon="-1.31339">
        <ele>68</ele>
        <time>2021-03-07T08:32:13Z</time>
      </trkpt>
      <trkpt lat="46.8827" lon="-1.31327">
        <ele>68</ele>
        <time>2021-03-07T08:32:16Z</time>
      </trkpt>
      <trkpt lat="46.88265" lon="-1.31326">
        <ele>67</ele>
        <time>2021-03-07T08:32:17Z</time>
      </trkpt>
      <trkpt lat="46.88251" lon="-1.31304">
        <ele>67</ele>
        <time>2021-03-07T08:32:21Z</time>
      </trkpt>
      <trkpt lat="46.88207" lon="-1.31272">
        <ele>67</ele>
        <time>2021-03-07T08:32:30Z</time>
      </trkpt>
      <trkpt lat="46.8818" lon="-1.31258">
        <ele>67</ele>
        <time>2021-03-07T08:32:35Z</time>
      </trkpt>
      <trkpt lat="46.88079" lon="-1.31217">
        <ele>68</ele>
        <time>2021-03-07T08:32:53Z</time>
      </trkpt>
      <trkpt lat="46.88055" lon="-1.31202">
        <ele>68</ele>
        <time>2021-03-07T08:32:58Z</time>
      </trkpt>
      <trkpt lat="46.88046" lon="-1.31192">
        <ele>68</ele>
        <time>2021-03-07T08:33:00Z</time>
      </trkpt>
      <trkpt lat="46.88036" lon="-1.31172">
        <ele>69</ele>
        <time>2021-03-07T08:33:03Z</time>
      </trkpt>
      <trkpt lat="46.87987" lon="-1.31061">
        <ele>69</ele>
        <time>2021-03-07T08:33:19Z</time>
      </trkpt>
      <trkpt lat="46.87923" lon="-1.30926">
        <ele>70</ele>
        <time>2021-03-07T08:33:39Z</time>
      </trkpt>
      <trkpt lat="46.87902" lon="-1.30865">
        <ele>71</ele>
        <time>2021-03-07T08:33:47Z</time>
      </trkpt>
      <trkpt lat="46.87893" lon="-1.30829">
        <ele>71</ele>
        <time>2021-03-07T08:33:52Z</time>
      </trkpt>
      <trkpt lat="46.87832" lon="-1.30559">
        <ele>71</ele>
        <time>2021-03-07T08:34:27Z</time>
      </trkpt>
      <trkpt lat="46.87791" lon="-1.30378">
        <ele>72</ele>
        <time>2021-03-07T08:34:50Z</time>
      </trkpt>
      <trkpt lat="46.8778" lon="-1.30325">
        <ele>71</ele>
        <time>2021-03-07T08:34:57Z</time>
      </trkpt>
      <trkpt lat="46.87774" lon="-1.30275">
        <ele>72</ele>
        <time>2021-03-07T08:35:03Z</time>
      </trkpt>
      <trkpt lat="46.87776" lon="-1.30126">
        <ele>72</ele>
        <time>2021-03-07T08:35:21Z</time>
      </trkpt>
      <trkpt lat="46.87779" lon="-1.29944">
        <ele>72</ele>
        <time>2021-03-07T08:35:43Z</time>
      </trkpt>
      <trkpt lat="46.8778" lon="-1.29836">
        <ele>72</ele>
        <time>2021-03-07T08:35:56Z</time>
      </trkpt>
      <trkpt lat="46.87771" lon="-1.29753">
        <ele>72</ele>
        <time>2021-03-07T08:36:06Z</time>
      </trkpt>
      <trkpt lat="46.87762" lon="-1.29691">
        <ele>72</ele>
        <time>2021-03-07T08:36:14Z</time>
      </trkpt>
      <trkpt lat="46.87751" lon="-1.29636">
        <ele>72</ele>
        <time>2021-03-07T08:36:21Z</time>
      </trkpt>
      <trkpt lat="46.87657" lon="-1.29389">
        <ele>70</ele>
        <time>2021-03-07T08:36:55Z</time>
      </trkpt>
      <trkpt lat="46.87656" lon="-1.29387">
        <ele>70</ele>
        <time>2021-03-07T08:36:56Z</time>
      </trkpt>
      <trkpt lat="46.87628" lon="-1.29316">
        <ele>71</ele>
        <time>2021-03-07T08:37:06Z</time>
      </trkpt>
      <trkpt lat="46.87614" lon="-1.29254">
        <ele>70</ele>
        <time>2021-03-07T08:37:14Z</time>
      </trkpt>
      <trkpt lat="46.87626" lon="-1.29145">
        <ele>73</ele>
        <time>2021-03-07T08:37:27Z</time>
      </trkpt>
      <trkpt lat="46.8764" lon="-1.29063">
        <ele>73</ele>
        <time>2021-03-07T08:37:37Z</time>
      </trkpt>
      <trkpt lat="46.87677" lon="-1.28932">
        <ele>73</ele>
        <time>2021-03-07T08:37:55Z</time>
      </trkpt>
      <trkpt lat="46.87682" lon="-1.28907">
        <ele>72</ele>
        <time>2021-03-07T08:37:58Z</time>
      </trkpt>
      <trkpt lat="46.87692" lon="-1.28845">
        <ele>71</ele>
        <time>2021-03-07T08:38:06Z</time>
      </trkpt>
      <trkpt lat="46.87696" lon="-1.28773">
        <ele>71</ele>
        <time>2021-03-07T08:38:14Z</time>
      </trkpt>
      <trkpt lat="46.87696" lon="-1.28725">
        <ele>70</ele>
        <time>2021-03-07T08:38:20Z</time>
      </trkpt>
      <trkpt lat="46.87697" lon="-1.28649">
        <ele>69</ele>
        <time>2021-03-07T08:38:29Z</time>
      </trkpt>
      <trkpt lat="46.87698" lon="-1.28578">
        <ele>69</ele>
        <time>2021-03-07T08:38:38Z</time>
      </trkpt>
      <trkpt lat="46.87701" lon="-1.28525">
        <ele>70</ele>
        <time>2021-03-07T08:38:45Z</time>
      </trkpt>
      <trkpt lat="46.87712" lon="-1.28461">
        <ele>70</ele>
        <time>2021-03-07T08:38:53Z</time>
      </trkpt>
      <trkpt lat="46.87728" lon="-1.28392">
        <ele>70</ele>
        <time>2021-03-07T08:39:01Z</time>
      </trkpt>
      <trkpt lat="46.87817" lon="-1.28127">
        <ele>72</ele>
        <time>2021-03-07T08:39:37Z</time>
      </trkpt>
      <trkpt lat="46.87851" lon="-1.28059">
        <ele>71</ele>
        <time>2021-03-07T08:39:48Z</time>
      </trkpt>
      <trkpt lat="46.87854" lon="-1.28053">
        <ele>71</ele>
        <time>2021-03-07T08:39:48Z</time>
      </trkpt>
      <trkpt lat="46.8786" lon="-1.28043">
        <ele>71</ele>
        <time>2021-03-07T08:39:50Z</time>
      </trkpt>
      <trkpt lat="46.87862" lon="-1.28038">
        <ele>71</ele>
        <time>2021-03-07T08:39:51Z</time>
      </trkpt>
      <trkpt lat="46.8802" lon="-1.27828">
        <ele>68</ele>
        <time>2021-03-07T08:40:29Z</time>
      </trkpt>
      <trkpt lat="46.88057" lon="-1.2772">
        <ele>66</ele>
        <time>2021-03-07T08:40:43Z</time>
      </trkpt>
      <trkpt lat="46.88085" lon="-1.27601">
        <ele>66</ele>
        <time>2021-03-07T08:40:59Z</time>
      </trkpt>
      <trkpt lat="46.88094" lon="-1.27552">
        <ele>66</ele>
        <time>2021-03-07T08:41:05Z</time>
      </trkpt>
      <trkpt lat="46.88101" lon="-1.27213">
        <ele>70</ele>
        <time>2021-03-07T08:41:46Z</time>
      </trkpt>
      <trkpt lat="46.88102" lon="-1.27152">
        <ele>71</ele>
        <time>2021-03-07T08:41:54Z</time>
      </trkpt>
      <trkpt lat="46.88101" lon="-1.27113">
        <ele>72</ele>
        <time>2021-03-07T08:41:58Z</time>
      </trkpt>
      <trkpt lat="46.88098" lon="-1.27096">
        <ele>72</ele>
        <time>2021-03-07T08:42:00Z</time>
      </trkpt>
      <trkpt lat="46.8809" lon="-1.27062">
        <ele>73</ele>
        <time>2021-03-07T08:42:05Z</time>
      </trkpt>
      <trkpt lat="46.88081" lon="-1.27039">
        <ele>73</ele>
        <time>2021-03-07T08:42:08Z</time>
      </trkpt>
      <trkpt lat="46.88067" lon="-1.27014">
        <ele>73</ele>
        <time>2021-03-07T08:42:12Z</time>
      </trkpt>
      <trkpt lat="46.88062" lon="-1.27008">
        <ele>73</ele>
        <time>2021-03-07T08:42:13Z</time>
      </trkpt>
      <trkpt lat="46.8806" lon="-1.27009">
        <ele>73</ele>
        <time>2021-03-07T08:42:14Z</time>
      </trkpt>
      <trkpt lat="46.88057" lon="-1.27009">
        <ele>73</ele>
        <time>2021-03-07T08:42:14Z</time>
      </trkpt>
      <trkpt lat="46.88042" lon="-1.27008">
        <ele>73</ele>
        <time>2021-03-07T08:42:17Z</time>
      </trkpt>
      <trkpt lat="46.87988" lon="-1.2699">
        <ele>72</ele>
        <time>2021-03-07T08:42:27Z</time>
      </trkpt>
      <trkpt lat="46.87973" lon="-1.26986">
        <ele>71</ele>
        <time>2021-03-07T08:42:29Z</time>
      </trkpt>
      <trkpt lat="46.87967" lon="-1.26981">
        <ele>71</ele>
        <time>2021-03-07T08:42:31Z</time>
      </trkpt>
      <trkpt lat="46.87958" lon="-1.26973">
        <ele>71</ele>
        <time>2021-03-07T08:42:32Z</time>
      </trkpt>
      <trkpt lat="46.87945" lon="-1.2696">
        <ele>71</ele>
        <time>2021-03-07T08:42:35Z</time>
      </trkpt>
      <trkpt lat="46.87937" lon="-1.2695">
        <ele>70</ele>
        <time>2021-03-07T08:42:37Z</time>
      </trkpt>
      <trkpt lat="46.87759" lon="-1.26722">
        <ele>68</ele>
        <time>2021-03-07T08:43:19Z</time>
      </trkpt>
      <trkpt lat="46.87746" lon="-1.26706">
        <ele>68</ele>
        <time>2021-03-07T08:43:22Z</time>
      </trkpt>
      <trkpt lat="46.87733" lon="-1.26693">
        <ele>68</ele>
        <time>2021-03-07T08:43:25Z</time>
      </trkpt>
      <trkpt lat="46.87694" lon="-1.26664">
        <ele>68</ele>
        <time>2021-03-07T08:43:33Z</time>
      </trkpt>
      <trkpt lat="46.87639" lon="-1.26626">
        <ele>69</ele>
        <time>2021-03-07T08:43:44Z</time>
      </trkpt>
      <trkpt lat="46.87627" lon="-1.26646">
        <ele>69</ele>
        <time>2021-03-07T08:43:47Z</time>
      </trkpt>
      <trkpt lat="46.87639" lon="-1.26626">
        <ele>69</ele>
        <time>2021-03-07T08:43:50Z</time>
      </trkpt>
      <trkpt lat="46.87566" lon="-1.26579">
        <ele>70</ele>
        <time>2021-03-07T08:44:04Z</time>
      </trkpt>
      <trkpt lat="46.87523" lon="-1.26559">
        <ele>69</ele>
        <time>2021-03-07T08:44:12Z</time>
      </trkpt>
      <trkpt lat="46.87124" lon="-1.26472">
        <ele>65</ele>
        <time>2021-03-07T08:45:24Z</time>
      </trkpt>
      <trkpt lat="46.87087" lon="-1.26462">
        <ele>65</ele>
        <time>2021-03-07T08:45:31Z</time>
      </trkpt>
      <trkpt lat="46.87042" lon="-1.2644">
        <ele>64</ele>
        <time>2021-03-07T08:45:39Z</time>
      </trkpt>
      <trkpt lat="46.8686" lon="-1.26329">
        <ele>63</ele>
        <time>2021-03-07T08:46:14Z</time>
      </trkpt>
      <trkpt lat="46.86853" lon="-1.26322">
        <ele>63</ele>
        <time>2021-03-07T08:46:16Z</time>
      </trkpt>
      <trkpt lat="46.86828" lon="-1.26341">
        <ele>63</ele>
        <time>2021-03-07T08:46:21Z</time>
      </trkpt>
      <trkpt lat="46.86826" lon="-1.26339">
        <ele>63</ele>
        <time>2021-03-07T08:46:21Z</time>
      </trkpt>
      <trkpt lat="46.86822" lon="-1.26333">
        <ele>63</ele>
        <time>2021-03-07T08:46:22Z</time>
      </trkpt>
      <trkpt lat="46.86812" lon="-1.26324">
        <ele>63</ele>
        <time>2021-03-07T08:46:24Z</time>
      </trkpt>
      <trkpt lat="46.86654" lon="-1.26245">
        <ele>61</ele>
        <time>2021-03-07T08:46:54Z</time>
      </trkpt>
      <trkpt lat="46.86642" lon="-1.26241">
        <ele>61</ele>
        <time>2021-03-07T08:46:56Z</time>
      </trkpt>
      <trkpt lat="46.86631" lon="-1.26241">
        <ele>61</ele>
        <time>2021-03-07T08:46:58Z</time>
      </trkpt>
      <trkpt lat="46.86612" lon="-1.26251">
        <ele>62</ele>
        <time>2021-03-07T08:47:02Z</time>
      </trkpt>
      <trkpt lat="46.86559" lon="-1.26315">
        <ele>62</ele>
        <time>2021-03-07T08:47:14Z</time>
      </trkpt>
      <trkpt lat="46.86542" lon="-1.26329">
        <ele>62</ele>
        <time>2021-03-07T08:47:18Z</time>
      </trkpt>
      <trkpt lat="46.86531" lon="-1.26335">
        <ele>62</ele>
        <time>2021-03-07T08:47:20Z</time>
      </trkpt>
      <trkpt lat="46.86521" lon="-1.26339">
        <ele>62</ele>
        <time>2021-03-07T08:47:21Z</time>
      </trkpt>
      <trkpt lat="46.865" lon="-1.26342">
        <ele>62</ele>
        <time>2021-03-07T08:47:25Z</time>
      </trkpt>
      <trkpt lat="46.86483" lon="-1.2634">
        <ele>61</ele>
        <time>2021-03-07T08:47:28Z</time>
      </trkpt>
      <trkpt lat="46.86467" lon="-1.26335">
        <ele>61</ele>
        <time>2021-03-07T08:47:31Z</time>
      </trkpt>
      <trkpt lat="46.86449" lon="-1.26326">
        <ele>60</ele>
        <time>2021-03-07T08:47:35Z</time>
      </trkpt>
      <trkpt lat="46.86435" lon="-1.26318">
        <ele>60</ele>
        <time>2021-03-07T08:47:37Z</time>
      </trkpt>
      <trkpt lat="46.86386" lon="-1.26275">
        <ele>58</ele>
        <time>2021-03-07T08:47:47Z</time>
      </trkpt>
      <trkpt lat="46.86359" lon="-1.26251">
        <ele>57</ele>
        <time>2021-03-07T08:47:53Z</time>
      </trkpt>
      <trkpt lat="46.86332" lon="-1.26233">
        <ele>56</ele>
        <time>2021-03-07T08:47:58Z</time>
      </trkpt>
      <trkpt lat="46.86307" lon="-1.2622">
        <ele>57</ele>
        <time>2021-03-07T08:48:03Z</time>
      </trkpt>
      <trkpt lat="46.86276" lon="-1.26204">
        <ele>58</ele>
        <time>2021-03-07T08:48:09Z</time>
      </trkpt>
      <trkpt lat="46.86261" lon="-1.26195">
        <ele>58</ele>
        <time>2021-03-07T08:48:12Z</time>
      </trkpt>
      <trkpt lat="46.86251" lon="-1.26189">
        <ele>58</ele>
        <time>2021-03-07T08:48:14Z</time>
      </trkpt>
      <trkpt lat="46.86247" lon="-1.26184">
        <ele>58</ele>
        <time>2021-03-07T08:48:15Z</time>
      </trkpt>
      <trkpt lat="46.86248" lon="-1.2617">
        <ele>58</ele>
        <time>2021-03-07T08:48:16Z</time>
      </trkpt>
      <trkpt lat="46.86247" lon="-1.26149">
        <ele>58</ele>
        <time>2021-03-07T08:48:19Z</time>
      </trkpt>
      <trkpt lat="46.86244" lon="-1.26127">
        <ele>59</ele>
        <time>2021-03-07T08:48:22Z</time>
      </trkpt>
      <trkpt lat="46.8624" lon="-1.26093">
        <ele>59</ele>
        <time>2021-03-07T08:48:26Z</time>
      </trkpt>
      <trkpt lat="46.86235" lon="-1.26068">
        <ele>60</ele>
        <time>2021-03-07T08:48:29Z</time>
      </trkpt>
      <trkpt lat="46.8623" lon="-1.26032">
        <ele>61</ele>
        <time>2021-03-07T08:48:33Z</time>
      </trkpt>
      <trkpt lat="46.8622" lon="-1.25996">
        <ele>62</ele>
        <time>2021-03-07T08:48:38Z</time>
      </trkpt>
      <trkpt lat="46.86214" lon="-1.25973">
        <ele>63</ele>
        <time>2021-03-07T08:48:41Z</time>
      </trkpt>
      <trkpt lat="46.86192" lon="-1.25906">
        <ele>64</ele>
        <time>2021-03-07T08:48:50Z</time>
      </trkpt>
      <trkpt lat="46.86187" lon="-1.25891">
        <ele>64</ele>
        <time>2021-03-07T08:48:52Z</time>
      </trkpt>
      <trkpt lat="46.8618" lon="-1.2587">
        <ele>64</ele>
        <time>2021-03-07T08:48:55Z</time>
      </trkpt>
      <trkpt lat="46.86175" lon="-1.25851">
        <ele>65</ele>
        <time>2021-03-07T08:48:58Z</time>
      </trkpt>
      <trkpt lat="46.86155" lon="-1.25787">
        <ele>65</ele>
        <time>2021-03-07T08:49:06Z</time>
      </trkpt>
      <trkpt lat="46.86154" lon="-1.25784">
        <ele>65</ele>
        <time>2021-03-07T08:49:07Z</time>
      </trkpt>
      <trkpt lat="46.86143" lon="-1.25746">
        <ele>65</ele>
        <time>2021-03-07T08:49:12Z</time>
      </trkpt>
      <trkpt lat="46.8614" lon="-1.25735">
        <ele>65</ele>
        <time>2021-03-07T08:49:13Z</time>
      </trkpt>
      <trkpt lat="46.86132" lon="-1.25708">
        <ele>66</ele>
        <time>2021-03-07T08:49:17Z</time>
      </trkpt>
      <trkpt lat="46.86124" lon="-1.2567">
        <ele>66</ele>
        <time>2021-03-07T08:49:21Z</time>
      </trkpt>
      <trkpt lat="46.86124" lon="-1.25656">
        <ele>66</ele>
        <time>2021-03-07T08:49:23Z</time>
      </trkpt>
      <trkpt lat="46.8613" lon="-1.25637">
        <ele>66</ele>
        <time>2021-03-07T08:49:26Z</time>
      </trkpt>
      <trkpt lat="46.86133" lon="-1.25628">
        <ele>66</ele>
        <time>2021-03-07T08:49:27Z</time>
      </trkpt>
      <trkpt lat="46.86136" lon="-1.2562">
        <ele>66</ele>
        <time>2021-03-07T08:49:28Z</time>
      </trkpt>
      <trkpt lat="46.86143" lon="-1.25604">
        <ele>66</ele>
        <time>2021-03-07T08:49:30Z</time>
      </trkpt>
      <trkpt lat="46.86151" lon="-1.25584">
        <ele>66</ele>
        <time>2021-03-07T08:49:33Z</time>
      </trkpt>
      <trkpt lat="46.86154" lon="-1.25577">
        <ele>66</ele>
        <time>2021-03-07T08:49:34Z</time>
      </trkpt>
      <trkpt lat="46.86156" lon="-1.25571">
        <ele>66</ele>
        <time>2021-03-07T08:49:35Z</time>
      </trkpt>
      <trkpt lat="46.86193" lon="-1.25481">
        <ele>63</ele>
        <time>2021-03-07T08:49:48Z</time>
      </trkpt>
      <trkpt lat="46.863" lon="-1.25189">
        <ele>58</ele>
        <time>2021-03-07T08:50:28Z</time>
      </trkpt>
      <trkpt lat="46.86316" lon="-1.25157">
        <ele>57</ele>
        <time>2021-03-07T08:50:33Z</time>
      </trkpt>
      <trkpt lat="46.86366" lon="-1.25073">
        <ele>56</ele>
        <time>2021-03-07T08:50:46Z</time>
      </trkpt>
      <trkpt lat="46.86374" lon="-1.25045">
        <ele>55</ele>
        <time>2021-03-07T08:50:50Z</time>
      </trkpt>
      <trkpt lat="46.86376" lon="-1.24969">
        <ele>53</ele>
        <time>2021-03-07T08:50:59Z</time>
      </trkpt>
      <trkpt lat="46.86384" lon="-1.24935">
        <ele>51</ele>
        <time>2021-03-07T08:51:04Z</time>
      </trkpt>
      <trkpt lat="46.86396" lon="-1.24907">
        <ele>50</ele>
        <time>2021-03-07T08:51:08Z</time>
      </trkpt>
      <trkpt lat="46.86433" lon="-1.24819">
        <ele>50</ele>
        <time>2021-03-07T08:51:20Z</time>
      </trkpt>
      <trkpt lat="46.86445" lon="-1.24795">
        <ele>49</ele>
        <time>2021-03-07T08:51:24Z</time>
      </trkpt>
      <trkpt lat="46.86452" lon="-1.24785">
        <ele>49</ele>
        <time>2021-03-07T08:51:26Z</time>
      </trkpt>
      <trkpt lat="46.86459" lon="-1.24778">
        <ele>49</ele>
        <time>2021-03-07T08:51:27Z</time>
      </trkpt>
      <trkpt lat="46.86465" lon="-1.24774">
        <ele>49</ele>
        <time>2021-03-07T08:51:28Z</time>
      </trkpt>
      <trkpt lat="46.86473" lon="-1.2477">
        <ele>49</ele>
        <time>2021-03-07T08:51:30Z</time>
      </trkpt>
      <trkpt lat="46.8655" lon="-1.24756">
        <ele>49</ele>
        <time>2021-03-07T08:51:44Z</time>
      </trkpt>
      <trkpt lat="46.86582" lon="-1.24745">
        <ele>49</ele>
        <time>2021-03-07T08:51:49Z</time>
      </trkpt>
      <trkpt lat="46.86594" lon="-1.24737">
        <ele>50</ele>
        <time>2021-03-07T08:51:52Z</time>
      </trkpt>
      <trkpt lat="46.86602" lon="-1.24726">
        <ele>51</ele>
        <time>2021-03-07T08:51:54Z</time>
      </trkpt>
      <trkpt lat="46.8661" lon="-1.24714">
        <ele>52</ele>
        <time>2021-03-07T08:51:56Z</time>
      </trkpt>
      <trkpt lat="46.8665" lon="-1.24602">
        <ele>54</ele>
        <time>2021-03-07T08:52:11Z</time>
      </trkpt>
      <trkpt lat="46.86674" lon="-1.24544">
        <ele>54</ele>
        <time>2021-03-07T08:52:19Z</time>
      </trkpt>
      <trkpt lat="46.86698" lon="-1.24496">
        <ele>53</ele>
        <time>2021-03-07T08:52:27Z</time>
      </trkpt>
      <trkpt lat="46.86704" lon="-1.24474">
        <ele>53</ele>
        <time>2021-03-07T08:52:30Z</time>
      </trkpt>
      <trkpt lat="46.86707" lon="-1.24437">
        <ele>55</ele>
        <time>2021-03-07T08:52:34Z</time>
      </trkpt>
      <trkpt lat="46.86712" lon="-1.24327">
        <ele>57</ele>
        <time>2021-03-07T08:52:48Z</time>
      </trkpt>
      <trkpt lat="46.86712" lon="-1.24272">
        <ele>58</ele>
        <time>2021-03-07T08:52:54Z</time>
      </trkpt>
      <trkpt lat="46.8668" lon="-1.24054">
        <ele>67</ele>
        <time>2021-03-07T08:53:21Z</time>
      </trkpt>
      <trkpt lat="46.86675" lon="-1.24012">
        <ele>68</ele>
        <time>2021-03-07T08:53:27Z</time>
      </trkpt>
      <trkpt lat="46.86676" lon="-1.24">
        <ele>69</ele>
        <time>2021-03-07T08:53:28Z</time>
      </trkpt>
      <trkpt lat="46.86676" lon="-1.23987">
        <ele>69</ele>
        <time>2021-03-07T08:53:30Z</time>
      </trkpt>
      <trkpt lat="46.86679" lon="-1.23955">
        <ele>68</ele>
        <time>2021-03-07T08:53:33Z</time>
      </trkpt>
      <trkpt lat="46.86681" lon="-1.23931">
        <ele>68</ele>
        <time>2021-03-07T08:53:36Z</time>
      </trkpt>
      <trkpt lat="46.8668" lon="-1.23871">
        <ele>68</ele>
        <time>2021-03-07T08:53:44Z</time>
      </trkpt>
      <trkpt lat="46.86677" lon="-1.2382">
        <ele>68</ele>
        <time>2021-03-07T08:53:50Z</time>
      </trkpt>
      <trkpt lat="46.86674" lon="-1.23798">
        <ele>68</ele>
        <time>2021-03-07T08:53:53Z</time>
      </trkpt>
      <trkpt lat="46.86672" lon="-1.23787">
        <ele>68</ele>
        <time>2021-03-07T08:53:54Z</time>
      </trkpt>
      <trkpt lat="46.86669" lon="-1.23771">
        <ele>68</ele>
        <time>2021-03-07T08:53:56Z</time>
      </trkpt>
      <trkpt lat="46.86664" lon="-1.23752">
        <ele>68</ele>
        <time>2021-03-07T08:53:59Z</time>
      </trkpt>
      <trkpt lat="46.86658" lon="-1.23712">
        <ele>68</ele>
        <time>2021-03-07T08:54:04Z</time>
      </trkpt>
      <trkpt lat="46.86654" lon="-1.23674">
        <ele>68</ele>
        <time>2021-03-07T08:54:08Z</time>
      </trkpt>
      <trkpt lat="46.86622" lon="-1.23271">
        <ele>71</ele>
        <time>2021-03-07T08:54:58Z</time>
      </trkpt>
      <trkpt lat="46.86618" lon="-1.23241">
        <ele>72</ele>
        <time>2021-03-07T08:55:01Z</time>
      </trkpt>
      <trkpt lat="46.86605" lon="-1.23171">
        <ele>72</ele>
        <time>2021-03-07T08:55:10Z</time>
      </trkpt>
      <trkpt lat="46.86567" lon="-1.22977">
        <ele>72</ele>
        <time>2021-03-07T08:55:35Z</time>
      </trkpt>
      <trkpt lat="46.86554" lon="-1.22914">
        <ele>72</ele>
        <time>2021-03-07T08:55:43Z</time>
      </trkpt>
      <trkpt lat="46.86552" lon="-1.22907">
        <ele>72</ele>
        <time>2021-03-07T08:55:44Z</time>
      </trkpt>
      <trkpt lat="46.8655" lon="-1.229">
        <ele>72</ele>
        <time>2021-03-07T08:55:45Z</time>
      </trkpt>
      <trkpt lat="46.8654" lon="-1.22869">
        <ele>72</ele>
        <time>2021-03-07T08:55:49Z</time>
      </trkpt>
      <trkpt lat="46.86521" lon="-1.22819">
        <ele>72</ele>
        <time>2021-03-07T08:55:56Z</time>
      </trkpt>
      <trkpt lat="46.86503" lon="-1.22786">
        <ele>72</ele>
        <time>2021-03-07T08:56:01Z</time>
      </trkpt>
      <trkpt lat="46.86491" lon="-1.22769">
        <ele>72</ele>
        <time>2021-03-07T08:56:04Z</time>
      </trkpt>
      <trkpt lat="46.86433" lon="-1.22698">
        <ele>73</ele>
        <time>2021-03-07T08:56:17Z</time>
      </trkpt>
      <trkpt lat="46.86408" lon="-1.22662">
        <ele>73</ele>
        <time>2021-03-07T08:56:23Z</time>
      </trkpt>
      <trkpt lat="46.86384" lon="-1.22625">
        <ele>71</ele>
        <time>2021-03-07T08:56:30Z</time>
      </trkpt>
      <trkpt lat="46.86372" lon="-1.22606">
        <ele>71</ele>
        <time>2021-03-07T08:56:33Z</time>
      </trkpt>
      <trkpt lat="46.86367" lon="-1.22597">
        <ele>71</ele>
        <time>2021-03-07T08:56:34Z</time>
      </trkpt>
      <trkpt lat="46.86353" lon="-1.2257">
        <ele>71</ele>
        <time>2021-03-07T08:56:38Z</time>
      </trkpt>
      <trkpt lat="46.86344" lon="-1.22546">
        <ele>71</ele>
        <time>2021-03-07T08:56:42Z</time>
      </trkpt>
      <trkpt lat="46.86227" lon="-1.2203">
        <ele>75</ele>
        <time>2021-03-07T08:57:48Z</time>
      </trkpt>
      <trkpt lat="46.86203" lon="-1.2194">
        <ele>76</ele>
        <time>2021-03-07T08:58:00Z</time>
      </trkpt>
      <trkpt lat="46.86163" lon="-1.21813">
        <ele>76</ele>
        <time>2021-03-07T08:58:17Z</time>
      </trkpt>
      <trkpt lat="46.86132" lon="-1.2172">
        <ele>76</ele>
        <time>2021-03-07T08:58:29Z</time>
      </trkpt>
      <trkpt lat="46.86111" lon="-1.21656">
        <ele>76</ele>
        <time>2021-03-07T08:58:38Z</time>
      </trkpt>
      <trkpt lat="46.86098" lon="-1.21616">
        <ele>77</ele>
        <time>2021-03-07T08:58:43Z</time>
      </trkpt>
      <trkpt lat="46.86087" lon="-1.21582">
        <ele>77</ele>
        <time>2021-03-07T08:58:48Z</time>
      </trkpt>
      <trkpt lat="46.86068" lon="-1.21518">
        <ele>77</ele>
        <time>2021-03-07T08:58:56Z</time>
      </trkpt>
      <trkpt lat="46.85976" lon="-1.21183">
        <ele>76</ele>
        <time>2021-03-07T08:59:40Z</time>
      </trkpt>
      <trkpt lat="46.85897" lon="-1.20941">
        <ele>70</ele>
        <time>2021-03-07T09:00:13Z</time>
      </trkpt>
      <trkpt lat="46.85894" lon="-1.20924">
        <ele>70</ele>
        <time>2021-03-07T09:00:15Z</time>
      </trkpt>
      <trkpt lat="46.85893" lon="-1.20907">
        <ele>70</ele>
        <time>2021-03-07T09:00:17Z</time>
      </trkpt>
      <trkpt lat="46.85893" lon="-1.20903">
        <ele>70</ele>
        <time>2021-03-07T09:00:17Z</time>
      </trkpt>
      <trkpt lat="46.85893" lon="-1.20887">
        <ele>69</ele>
        <time>2021-03-07T09:00:19Z</time>
      </trkpt>
      <trkpt lat="46.859" lon="-1.20836">
        <ele>69</ele>
        <time>2021-03-07T09:00:26Z</time>
      </trkpt>
      <trkpt lat="46.85909" lon="-1.20778">
        <ele>67</ele>
        <time>2021-03-07T09:00:33Z</time>
      </trkpt>
      <trkpt lat="46.8591" lon="-1.20772">
        <ele>67</ele>
        <time>2021-03-07T09:00:34Z</time>
      </trkpt>
      <trkpt lat="46.85935" lon="-1.20594">
        <ele>62</ele>
        <time>2021-03-07T09:00:56Z</time>
      </trkpt>
      <trkpt lat="46.85939" lon="-1.20571">
        <ele>61</ele>
        <time>2021-03-07T09:00:59Z</time>
      </trkpt>
      <trkpt lat="46.85951" lon="-1.20548">
        <ele>61</ele>
        <time>2021-03-07T09:01:02Z</time>
      </trkpt>
      <trkpt lat="46.85957" lon="-1.20539">
        <ele>61</ele>
        <time>2021-03-07T09:01:04Z</time>
      </trkpt>
      <trkpt lat="46.85973" lon="-1.20528">
        <ele>60</ele>
        <time>2021-03-07T09:01:07Z</time>
      </trkpt>
      <trkpt lat="46.85986" lon="-1.20518">
        <ele>60</ele>
        <time>2021-03-07T09:01:10Z</time>
      </trkpt>
      <trkpt lat="46.85994" lon="-1.20511">
        <ele>60</ele>
        <time>2021-03-07T09:01:11Z</time>
      </trkpt>
      <trkpt lat="46.86036" lon="-1.2048">
        <ele>58</ele>
        <time>2021-03-07T09:01:20Z</time>
      </trkpt>
      <trkpt lat="46.86043" lon="-1.20473">
        <ele>57</ele>
        <time>2021-03-07T09:01:21Z</time>
      </trkpt>
      <trkpt lat="46.86051" lon="-1.20461">
        <ele>56</ele>
        <time>2021-03-07T09:01:23Z</time>
      </trkpt>
      <trkpt lat="46.86054" lon="-1.20454">
        <ele>56</ele>
        <time>2021-03-07T09:01:24Z</time>
      </trkpt>
      <trkpt lat="46.86054" lon="-1.20452">
        <ele>56</ele>
        <time>2021-03-07T09:01:24Z</time>
      </trkpt>
      <trkpt lat="46.86058" lon="-1.20437">
        <ele>55</ele>
        <time>2021-03-07T09:01:26Z</time>
      </trkpt>
      <trkpt lat="46.86063" lon="-1.20417">
        <ele>53</ele>
        <time>2021-03-07T09:01:29Z</time>
      </trkpt>
      <trkpt lat="46.86067" lon="-1.20382">
        <ele>55</ele>
        <time>2021-03-07T09:01:33Z</time>
      </trkpt>
      <trkpt lat="46.86068" lon="-1.20369">
        <ele>56</ele>
        <time>2021-03-07T09:01:35Z</time>
      </trkpt>
      <trkpt lat="46.8607" lon="-1.20353">
        <ele>56</ele>
        <time>2021-03-07T09:01:37Z</time>
      </trkpt>
      <trkpt lat="46.86073" lon="-1.20299">
        <ele>59</ele>
        <time>2021-03-07T09:01:43Z</time>
      </trkpt>
      <trkpt lat="46.86072" lon="-1.20263">
        <ele>61</ele>
        <time>2021-03-07T09:01:48Z</time>
      </trkpt>
      <trkpt lat="46.8607" lon="-1.20242">
        <ele>62</ele>
        <time>2021-03-07T09:01:50Z</time>
      </trkpt>
      <trkpt lat="46.86064" lon="-1.20213">
        <ele>62</ele>
        <time>2021-03-07T09:01:54Z</time>
      </trkpt>
      <trkpt lat="46.86057" lon="-1.20193">
        <ele>63</ele>
        <time>2021-03-07T09:01:57Z</time>
      </trkpt>
      <trkpt lat="46.86051" lon="-1.20176">
        <ele>63</ele>
        <time>2021-03-07T09:01:59Z</time>
      </trkpt>
      <trkpt lat="46.86043" lon="-1.20159">
        <ele>63</ele>
        <time>2021-03-07T09:02:02Z</time>
      </trkpt>
      <trkpt lat="46.86016" lon="-1.20117">
        <ele>63</ele>
        <time>2021-03-07T09:02:09Z</time>
      </trkpt>
      <trkpt lat="46.85998" lon="-1.2009">
        <ele>63</ele>
        <time>2021-03-07T09:02:13Z</time>
      </trkpt>
      <trkpt lat="46.85982" lon="-1.20068">
        <ele>64</ele>
        <time>2021-03-07T09:02:17Z</time>
      </trkpt>
      <trkpt lat="46.8595" lon="-1.20039">
        <ele>65</ele>
        <time>2021-03-07T09:02:24Z</time>
      </trkpt>
      <trkpt lat="46.85934" lon="-1.20035">
        <ele>65</ele>
        <time>2021-03-07T09:02:27Z</time>
      </trkpt>
      <trkpt lat="46.85888" lon="-1.2003">
        <ele>67</ele>
        <time>2021-03-07T09:02:35Z</time>
      </trkpt>
      <trkpt lat="46.85869" lon="-1.20024">
        <ele>68</ele>
        <time>2021-03-07T09:02:38Z</time>
      </trkpt>
      <trkpt lat="46.85858" lon="-1.20017">
        <ele>69</ele>
        <time>2021-03-07T09:02:41Z</time>
      </trkpt>
      <trkpt lat="46.85849" lon="-1.20007">
        <ele>69</ele>
        <time>2021-03-07T09:02:43Z</time>
      </trkpt>
      <trkpt lat="46.85834" lon="-1.19973">
        <ele>70</ele>
        <time>2021-03-07T09:02:47Z</time>
      </trkpt>
      <trkpt lat="46.85748" lon="-1.19744">
        <ele>72</ele>
        <time>2021-03-07T09:03:19Z</time>
      </trkpt>
      <trkpt lat="46.85726" lon="-1.19693">
        <ele>73</ele>
        <time>2021-03-07T09:03:27Z</time>
      </trkpt>
      <trkpt lat="46.85715" lon="-1.19664">
        <ele>73</ele>
        <time>2021-03-07T09:03:31Z</time>
      </trkpt>
      <trkpt lat="46.85593" lon="-1.19377">
        <ele>77</ele>
        <time>2021-03-07T09:04:12Z</time>
      </trkpt>
      <trkpt lat="46.85553" lon="-1.19278">
        <ele>78</ele>
        <time>2021-03-07T09:04:26Z</time>
      </trkpt>
      <trkpt lat="46.85543" lon="-1.19251">
        <ele>78</ele>
        <time>2021-03-07T09:04:29Z</time>
      </trkpt>
      <trkpt lat="46.85538" lon="-1.19232">
        <ele>78</ele>
        <time>2021-03-07T09:04:32Z</time>
      </trkpt>
      <trkpt lat="46.85536" lon="-1.19222">
        <ele>78</ele>
        <time>2021-03-07T09:04:33Z</time>
      </trkpt>
      <trkpt lat="46.85534" lon="-1.19213">
        <ele>78</ele>
        <time>2021-03-07T09:04:34Z</time>
      </trkpt>
      <trkpt lat="46.85533" lon="-1.19194">
        <ele>78</ele>
        <time>2021-03-07T09:04:37Z</time>
      </trkpt>
      <trkpt lat="46.85536" lon="-1.19045">
        <ele>79</ele>
        <time>2021-03-07T09:04:55Z</time>
      </trkpt>
      <trkpt lat="46.85532" lon="-1.18974">
        <ele>80</ele>
        <time>2021-03-07T09:05:03Z</time>
      </trkpt>
      <trkpt lat="46.85526" lon="-1.1894">
        <ele>81</ele>
        <time>2021-03-07T09:05:08Z</time>
      </trkpt>
      <trkpt lat="46.85517" lon="-1.18903">
        <ele>81</ele>
        <time>2021-03-07T09:05:13Z</time>
      </trkpt>
      <trkpt lat="46.85513" lon="-1.18888">
        <ele>82</ele>
        <time>2021-03-07T09:05:15Z</time>
      </trkpt>
      <trkpt lat="46.85501" lon="-1.1884">
        <ele>83</ele>
        <time>2021-03-07T09:05:21Z</time>
      </trkpt>
      <trkpt lat="46.85496" lon="-1.18817">
        <ele>83</ele>
        <time>2021-03-07T09:05:24Z</time>
      </trkpt>
      <trkpt lat="46.85468" lon="-1.18702">
        <ele>84</ele>
        <time>2021-03-07T09:05:39Z</time>
      </trkpt>
      <trkpt lat="46.85446" lon="-1.18614">
        <ele>83</ele>
        <time>2021-03-07T09:05:50Z</time>
      </trkpt>
      <trkpt lat="46.85422" lon="-1.18512">
        <ele>82</ele>
        <time>2021-03-07T09:06:03Z</time>
      </trkpt>
      <trkpt lat="46.85411" lon="-1.18459">
        <ele>83</ele>
        <time>2021-03-07T09:06:10Z</time>
      </trkpt>
      <trkpt lat="46.85392" lon="-1.18368">
        <ele>83</ele>
        <time>2021-03-07T09:06:21Z</time>
      </trkpt>
      <trkpt lat="46.85387" lon="-1.18307">
        <ele>83</ele>
        <time>2021-03-07T09:06:29Z</time>
      </trkpt>
      <trkpt lat="46.85388" lon="-1.18286">
        <ele>83</ele>
        <time>2021-03-07T09:06:31Z</time>
      </trkpt>
      <trkpt lat="46.85399" lon="-1.18199">
        <ele>83</ele>
        <time>2021-03-07T09:06:42Z</time>
      </trkpt>
      <trkpt lat="46.85406" lon="-1.18141">
        <ele>83</ele>
        <time>2021-03-07T09:06:49Z</time>
      </trkpt>
      <trkpt lat="46.85414" lon="-1.18079">
        <ele>84</ele>
        <time>2021-03-07T09:06:57Z</time>
      </trkpt>
      <trkpt lat="46.85419" lon="-1.18056">
        <ele>84</ele>
        <time>2021-03-07T09:07:00Z</time>
      </trkpt>
      <trkpt lat="46.85426" lon="-1.18037">
        <ele>85</ele>
        <time>2021-03-07T09:07:03Z</time>
      </trkpt>
      <trkpt lat="46.85434" lon="-1.18019">
        <ele>85</ele>
        <time>2021-03-07T09:07:05Z</time>
      </trkpt>
      <trkpt lat="46.85459" lon="-1.17971">
        <ele>86</ele>
        <time>2021-03-07T09:07:13Z</time>
      </trkpt>
      <trkpt lat="46.85468" lon="-1.17955">
        <ele>86</ele>
        <time>2021-03-07T09:07:15Z</time>
      </trkpt>
      <trkpt lat="46.85472" lon="-1.17949">
        <ele>86</ele>
        <time>2021-03-07T09:07:16Z</time>
      </trkpt>
      <trkpt lat="46.85283" lon="-1.17735">
        <ele>83</ele>
        <time>2021-03-07T09:07:59Z</time>
      </trkpt>
      <trkpt lat="46.85235" lon="-1.17683">
        <ele>83</ele>
        <time>2021-03-07T09:08:09Z</time>
      </trkpt>
      <trkpt lat="46.85233" lon="-1.17685">
        <ele>83</ele>
        <time>2021-03-07T09:08:10Z</time>
      </trkpt>
      <trkpt lat="46.85227" lon="-1.17684">
        <ele>82</ele>
        <time>2021-03-07T09:08:11Z</time>
      </trkpt>
      <trkpt lat="46.85224" lon="-1.17679">
        <ele>82</ele>
        <time>2021-03-07T09:08:12Z</time>
      </trkpt>
      <trkpt lat="46.85226" lon="-1.17669">
        <ele>82</ele>
        <time>2021-03-07T09:08:13Z</time>
      </trkpt>
      <trkpt lat="46.85175" lon="-1.17632">
        <ele>80</ele>
        <time>2021-03-07T09:08:23Z</time>
      </trkpt>
      <trkpt lat="46.85143" lon="-1.17613">
        <ele>79</ele>
        <time>2021-03-07T09:08:29Z</time>
      </trkpt>
      <trkpt lat="46.85113" lon="-1.17601">
        <ele>78</ele>
        <time>2021-03-07T09:08:35Z</time>
      </trkpt>
      <trkpt lat="46.85058" lon="-1.17612">
        <ele>77</ele>
        <time>2021-03-07T09:08:44Z</time>
      </trkpt>
      <trkpt lat="46.85056" lon="-1.17598">
        <ele>77</ele>
        <time>2021-03-07T09:08:46Z</time>
      </trkpt>
      <trkpt lat="46.85041" lon="-1.17546">
        <ele>76</ele>
        <time>2021-03-07T09:08:53Z</time>
      </trkpt>
      <trkpt lat="46.85036" lon="-1.17525">
        <ele>76</ele>
        <time>2021-03-07T09:08:56Z</time>
      </trkpt>
      <trkpt lat="46.85029" lon="-1.1748">
        <ele>76</ele>
        <time>2021-03-07T09:09:01Z</time>
      </trkpt>
      <trkpt lat="46.85031" lon="-1.17467">
        <ele>76</ele>
        <time>2021-03-07T09:09:03Z</time>
      </trkpt>
      <trkpt lat="46.85033" lon="-1.1745">
        <ele>76</ele>
        <time>2021-03-07T09:09:05Z</time>
      </trkpt>
      <trkpt lat="46.8503" lon="-1.17415">
        <ele>76</ele>
        <time>2021-03-07T09:09:09Z</time>
      </trkpt>
      <trkpt lat="46.85023" lon="-1.17376">
        <ele>77</ele>
        <time>2021-03-07T09:09:14Z</time>
      </trkpt>
      <trkpt lat="46.85011" lon="-1.1734">
        <ele>77</ele>
        <time>2021-03-07T09:09:19Z</time>
      </trkpt>
      <trkpt lat="46.84998" lon="-1.17304">
        <ele>78</ele>
        <time>2021-03-07T09:09:24Z</time>
      </trkpt>
      <trkpt lat="46.84996" lon="-1.17305">
        <ele>78</ele>
        <time>2021-03-07T09:09:25Z</time>
      </trkpt>
      <trkpt lat="46.84995" lon="-1.17305">
        <ele>78</ele>
        <time>2021-03-07T09:09:25Z</time>
      </trkpt>
      <trkpt lat="46.84994" lon="-1.17305">
        <ele>78</ele>
        <time>2021-03-07T09:09:25Z</time>
      </trkpt>
      <trkpt lat="46.84992" lon="-1.17303">
        <ele>78</ele>
        <time>2021-03-07T09:09:25Z</time>
      </trkpt>
      <trkpt lat="46.84991" lon="-1.17298">
        <ele>79</ele>
        <time>2021-03-07T09:09:26Z</time>
      </trkpt>
      <trkpt lat="46.84992" lon="-1.17296">
        <ele>79</ele>
        <time>2021-03-07T09:09:26Z</time>
      </trkpt>
      <trkpt lat="46.84993" lon="-1.17295">
        <ele>79</ele>
        <time>2021-03-07T09:09:26Z</time>
      </trkpt>
      <trkpt lat="46.84995" lon="-1.17294">
        <ele>79</ele>
        <time>2021-03-07T09:09:27Z</time>
      </trkpt>
      <trkpt lat="46.84996" lon="-1.17294">
        <ele>79</ele>
        <time>2021-03-07T09:09:27Z</time>
      </trkpt>
      <trkpt lat="46.85" lon="-1.17268">
        <ele>79</ele>
        <time>2021-03-07T09:09:30Z</time>
      </trkpt>
      <trkpt lat="46.85006" lon="-1.17222">
        <ele>79</ele>
        <time>2021-03-07T09:09:36Z</time>
      </trkpt>
      <trkpt lat="46.85018" lon="-1.17177">
        <ele>79</ele>
        <time>2021-03-07T09:09:42Z</time>
      </trkpt>
      <trkpt lat="46.85055" lon="-1.1703">
        <ele>81</ele>
        <time>2021-03-07T09:10:01Z</time>
      </trkpt>
      <trkpt lat="46.85066" lon="-1.16996">
        <ele>81</ele>
        <time>2021-03-07T09:10:05Z</time>
      </trkpt>
      <trkpt lat="46.85083" lon="-1.16955">
        <ele>82</ele>
        <time>2021-03-07T09:10:11Z</time>
      </trkpt>
      <trkpt lat="46.85122" lon="-1.16864">
        <ele>85</ele>
        <time>2021-03-07T09:10:24Z</time>
      </trkpt>
      <trkpt lat="46.85151" lon="-1.16794">
        <ele>86</ele>
        <time>2021-03-07T09:10:34Z</time>
      </trkpt>
      <trkpt lat="46.85172" lon="-1.16735">
        <ele>87</ele>
        <time>2021-03-07T09:10:42Z</time>
      </trkpt>
      <trkpt lat="46.85173" lon="-1.16728">
        <ele>87</ele>
        <time>2021-03-07T09:10:43Z</time>
      </trkpt>
      <trkpt lat="46.85173" lon="-1.167">
        <ele>87</ele>
        <time>2021-03-07T09:10:47Z</time>
      </trkpt>
      <trkpt lat="46.85171" lon="-1.16698">
        <ele>87</ele>
        <time>2021-03-07T09:10:47Z</time>
      </trkpt>
      <trkpt lat="46.85168" lon="-1.16689">
        <ele>87</ele>
        <time>2021-03-07T09:10:48Z</time>
      </trkpt>
      <trkpt lat="46.85168" lon="-1.1668">
        <ele>87</ele>
        <time>2021-03-07T09:10:49Z</time>
      </trkpt>
      <trkpt lat="46.8517" lon="-1.16673">
        <ele>87</ele>
        <time>2021-03-07T09:10:50Z</time>
      </trkpt>
      <trkpt lat="46.85178" lon="-1.16665">
        <ele>87</ele>
        <time>2021-03-07T09:10:52Z</time>
      </trkpt>
      <trkpt lat="46.8518" lon="-1.16664">
        <ele>87</ele>
        <time>2021-03-07T09:10:52Z</time>
      </trkpt>
      <trkpt lat="46.85189" lon="-1.16649">
        <ele>88</ele>
        <time>2021-03-07T09:10:55Z</time>
      </trkpt>
      <trkpt lat="46.85195" lon="-1.16629">
        <ele>88</ele>
        <time>2021-03-07T09:10:58Z</time>
      </trkpt>
      <trkpt lat="46.85203" lon="-1.16598">
        <ele>88</ele>
        <time>2021-03-07T09:11:02Z</time>
      </trkpt>
      <trkpt lat="46.85218" lon="-1.16529">
        <ele>90</ele>
        <time>2021-03-07T09:11:10Z</time>
      </trkpt>
      <trkpt lat="46.85222" lon="-1.16514">
        <ele>90</ele>
        <time>2021-03-07T09:11:12Z</time>
      </trkpt>
      <trkpt lat="46.85239" lon="-1.16438">
        <ele>92</ele>
        <time>2021-03-07T09:11:22Z</time>
      </trkpt>
      <trkpt lat="46.85381" lon="-1.15818">
        <ele>95</ele>
        <time>2021-03-07T09:12:42Z</time>
      </trkpt>
      <trkpt lat="46.85566" lon="-1.14978">
        <ele>97</ele>
        <time>2021-03-07T09:14:29Z</time>
      </trkpt>
      <trkpt lat="46.85622" lon="-1.14712">
        <ele>97</ele>
        <time>2021-03-07T09:15:03Z</time>
      </trkpt>
      <trkpt lat="46.85629" lon="-1.14667">
        <ele>97</ele>
        <time>2021-03-07T09:15:09Z</time>
      </trkpt>
      <trkpt lat="46.85668" lon="-1.1434">
        <ele>99</ele>
        <time>2021-03-07T09:15:49Z</time>
      </trkpt>
      <trkpt lat="46.85676" lon="-1.14276">
        <ele>99</ele>
        <time>2021-03-07T09:15:57Z</time>
      </trkpt>
      <trkpt lat="46.85684" lon="-1.14212">
        <ele>99</ele>
        <time>2021-03-07T09:16:05Z</time>
      </trkpt>
      <trkpt lat="46.85691" lon="-1.14182">
        <ele>100</ele>
        <time>2021-03-07T09:16:09Z</time>
      </trkpt>
      <trkpt lat="46.85699" lon="-1.14153">
        <ele>100</ele>
        <time>2021-03-07T09:16:12Z</time>
      </trkpt>
      <trkpt lat="46.85714" lon="-1.14113">
        <ele>101</ele>
        <time>2021-03-07T09:16:18Z</time>
      </trkpt>
      <trkpt lat="46.85736" lon="-1.14073">
        <ele>102</ele>
        <time>2021-03-07T09:16:24Z</time>
      </trkpt>
      <trkpt lat="46.85754" lon="-1.14048">
        <ele>102</ele>
        <time>2021-03-07T09:16:29Z</time>
      </trkpt>
      <trkpt lat="46.85772" lon="-1.14026">
        <ele>103</ele>
        <time>2021-03-07T09:16:33Z</time>
      </trkpt>
      <trkpt lat="46.85783" lon="-1.14016">
        <ele>103</ele>
        <time>2021-03-07T09:16:35Z</time>
      </trkpt>
      <trkpt lat="46.85815" lon="-1.13993">
        <ele>103</ele>
        <time>2021-03-07T09:16:41Z</time>
      </trkpt>
      <trkpt lat="46.85881" lon="-1.13954">
        <ele>103</ele>
        <time>2021-03-07T09:16:54Z</time>
      </trkpt>
      <trkpt lat="46.85902" lon="-1.13939">
        <ele>104</ele>
        <time>2021-03-07T09:16:58Z</time>
      </trkpt>
      <trkpt lat="46.85929" lon="-1.13914">
        <ele>104</ele>
        <time>2021-03-07T09:17:04Z</time>
      </trkpt>
      <trkpt lat="46.85949" lon="-1.13893">
        <ele>104</ele>
        <time>2021-03-07T09:17:08Z</time>
      </trkpt>
      <trkpt lat="46.85967" lon="-1.13869">
        <ele>103</ele>
        <time>2021-03-07T09:17:13Z</time>
      </trkpt>
      <trkpt lat="46.85989" lon="-1.13834">
        <ele>103</ele>
        <time>2021-03-07T09:17:18Z</time>
      </trkpt>
      <trkpt lat="46.86005" lon="-1.13805">
        <ele>103</ele>
        <time>2021-03-07T09:17:23Z</time>
      </trkpt>
      <trkpt lat="46.86321" lon="-1.13175">
        <ele>102</ele>
        <time>2021-03-07T09:18:58Z</time>
      </trkpt>
      <trkpt lat="46.86344" lon="-1.13112">
        <ele>101</ele>
        <time>2021-03-07T09:19:07Z</time>
      </trkpt>
      <trkpt lat="46.86409" lon="-1.1288">
        <ele>99</ele>
        <time>2021-03-07T09:19:37Z</time>
      </trkpt>
      <trkpt lat="46.86421" lon="-1.12829">
        <ele>100</ele>
        <time>2021-03-07T09:19:44Z</time>
      </trkpt>
      <trkpt lat="46.86506" lon="-1.12319">
        <ele>95</ele>
        <time>2021-03-07T09:20:48Z</time>
      </trkpt>
      <trkpt lat="46.86515" lon="-1.12276">
        <ele>94</ele>
        <time>2021-03-07T09:20:53Z</time>
      </trkpt>
      <trkpt lat="46.86527" lon="-1.12226">
        <ele>93</ele>
        <time>2021-03-07T09:21:00Z</time>
      </trkpt>
      <trkpt lat="46.86613" lon="-1.1194">
        <ele>89</ele>
        <time>2021-03-07T09:21:38Z</time>
      </trkpt>
      <trkpt lat="46.86626" lon="-1.11891">
        <ele>87</ele>
        <time>2021-03-07T09:21:44Z</time>
      </trkpt>
      <trkpt lat="46.86627" lon="-1.11862">
        <ele>86</ele>
        <time>2021-03-07T09:21:48Z</time>
      </trkpt>
      <trkpt lat="46.86624" lon="-1.11833">
        <ele>85</ele>
        <time>2021-03-07T09:21:51Z</time>
      </trkpt>
      <trkpt lat="46.8662" lon="-1.11814">
        <ele>85</ele>
        <time>2021-03-07T09:21:53Z</time>
      </trkpt>
      <trkpt lat="46.86461" lon="-1.11239">
        <ele>95</ele>
        <time>2021-03-07T09:23:09Z</time>
      </trkpt>
      <trkpt lat="46.86449" lon="-1.1119">
        <ele>96</ele>
        <time>2021-03-07T09:23:15Z</time>
      </trkpt>
      <trkpt lat="46.86441" lon="-1.11147">
        <ele>97</ele>
        <time>2021-03-07T09:23:21Z</time>
      </trkpt>
      <trkpt lat="46.8637" lon="-1.10715">
        <ele>94</ele>
        <time>2021-03-07T09:24:15Z</time>
      </trkpt>
      <trkpt lat="46.86365" lon="-1.1069">
        <ele>93</ele>
        <time>2021-03-07T09:24:18Z</time>
      </trkpt>
      <trkpt lat="46.86355" lon="-1.10653">
        <ele>93</ele>
        <time>2021-03-07T09:24:23Z</time>
      </trkpt>
      <trkpt lat="46.86314" lon="-1.10535">
        <ele>94</ele>
        <time>2021-03-07T09:24:39Z</time>
      </trkpt>
      <trkpt lat="46.86156" lon="-1.10101">
        <ele>87</ele>
        <time>2021-03-07T09:25:39Z</time>
      </trkpt>
      <trkpt lat="46.86142" lon="-1.10071">
        <ele>86</ele>
        <time>2021-03-07T09:25:43Z</time>
      </trkpt>
      <trkpt lat="46.86119" lon="-1.10041">
        <ele>87</ele>
        <time>2021-03-07T09:25:49Z</time>
      </trkpt>
      <trkpt lat="46.86078" lon="-1.09996">
        <ele>88</ele>
        <time>2021-03-07T09:25:58Z</time>
      </trkpt>
      <trkpt lat="46.86049" lon="-1.09936">
        <ele>89</ele>
        <time>2021-03-07T09:26:07Z</time>
      </trkpt>
      <trkpt lat="46.86077" lon="-1.09901">
        <ele>88</ele>
        <time>2021-03-07T09:26:13Z</time>
      </trkpt>
      <trkpt lat="46.86147" lon="-1.0983">
        <ele>85</ele>
        <time>2021-03-07T09:26:28Z</time>
      </trkpt>
      <trkpt lat="46.86161" lon="-1.09811">
        <ele>83</ele>
        <time>2021-03-07T09:26:32Z</time>
      </trkpt>
      <trkpt lat="46.8617" lon="-1.09787">
        <ele>82</ele>
        <time>2021-03-07T09:26:35Z</time>
      </trkpt>
      <trkpt lat="46.86175" lon="-1.09719">
        <ele>80</ele>
        <time>2021-03-07T09:26:43Z</time>
      </trkpt>
      <trkpt lat="46.86177" lon="-1.09696">
        <ele>80</ele>
        <time>2021-03-07T09:26:46Z</time>
      </trkpt>
      <trkpt lat="46.86178" lon="-1.09671">
        <ele>79</ele>
        <time>2021-03-07T09:26:49Z</time>
      </trkpt>
      <trkpt lat="46.86184" lon="-1.09641">
        <ele>79</ele>
        <time>2021-03-07T09:26:53Z</time>
      </trkpt>
      <trkpt lat="46.86193" lon="-1.09616">
        <ele>79</ele>
        <time>2021-03-07T09:26:57Z</time>
      </trkpt>
      <trkpt lat="46.86208" lon="-1.09586">
        <ele>79</ele>
        <time>2021-03-07T09:27:01Z</time>
      </trkpt>
      <trkpt lat="46.86239" lon="-1.09523">
        <ele>80</ele>
        <time>2021-03-07T09:27:10Z</time>
      </trkpt>
      <trkpt lat="46.86329" lon="-1.0934">
        <ele>82</ele>
        <time>2021-03-07T09:27:38Z</time>
      </trkpt>
      <trkpt lat="46.8636" lon="-1.09293">
        <ele>84</ele>
        <time>2021-03-07T09:27:46Z</time>
      </trkpt>
      <trkpt lat="46.86377" lon="-1.09275">
        <ele>85</ele>
        <time>2021-03-07T09:27:50Z</time>
      </trkpt>
      <trkpt lat="46.86443" lon="-1.09217">
        <ele>88</ele>
        <time>2021-03-07T09:28:03Z</time>
      </trkpt>
      <trkpt lat="46.86599" lon="-1.09084">
        <ele>95</ele>
        <time>2021-03-07T09:28:35Z</time>
      </trkpt>
      <trkpt lat="46.86694" lon="-1.09003">
        <ele>96</ele>
        <time>2021-03-07T09:28:55Z</time>
      </trkpt>
      <trkpt lat="46.86811" lon="-1.08901">
        <ele>94</ele>
        <time>2021-03-07T09:29:19Z</time>
      </trkpt>
      <trkpt lat="46.87012" lon="-1.08727">
        <ele>95</ele>
        <time>2021-03-07T09:30:01Z</time>
      </trkpt>
      <trkpt lat="46.87102" lon="-1.0865">
        <ele>94</ele>
        <time>2021-03-07T09:30:19Z</time>
      </trkpt>
      <trkpt lat="46.87164" lon="-1.08596">
        <ele>95</ele>
        <time>2021-03-07T09:30:32Z</time>
      </trkpt>
      <trkpt lat="46.87198" lon="-1.08561">
        <ele>95</ele>
        <time>2021-03-07T09:30:40Z</time>
      </trkpt>
      <trkpt lat="46.87213" lon="-1.0854">
        <ele>96</ele>
        <time>2021-03-07T09:30:43Z</time>
      </trkpt>
      <trkpt lat="46.8723" lon="-1.08508">
        <ele>96</ele>
        <time>2021-03-07T09:30:48Z</time>
      </trkpt>
      <trkpt lat="46.87239" lon="-1.08489">
        <ele>96</ele>
        <time>2021-03-07T09:30:51Z</time>
      </trkpt>
      <trkpt lat="46.87252" lon="-1.08453">
        <ele>96</ele>
        <time>2021-03-07T09:30:56Z</time>
      </trkpt>
      <trkpt lat="46.87277" lon="-1.08377">
        <ele>96</ele>
        <time>2021-03-07T09:31:06Z</time>
      </trkpt>
      <trkpt lat="46.87278" lon="-1.08372">
        <ele>96</ele>
        <time>2021-03-07T09:31:07Z</time>
      </trkpt>
      <trkpt lat="46.87331" lon="-1.08208">
        <ele>94</ele>
        <time>2021-03-07T09:31:29Z</time>
      </trkpt>
      <trkpt lat="46.87405" lon="-1.07982">
        <ele>91</ele>
        <time>2021-03-07T09:31:59Z</time>
      </trkpt>
      <trkpt lat="46.87473" lon="-1.07774">
        <ele>87</ele>
        <time>2021-03-07T09:32:27Z</time>
      </trkpt>
      <trkpt lat="46.8751" lon="-1.07666">
        <ele>85</ele>
        <time>2021-03-07T09:32:42Z</time>
      </trkpt>
      <trkpt lat="46.87523" lon="-1.07621">
        <ele>84</ele>
        <time>2021-03-07T09:32:48Z</time>
      </trkpt>
      <trkpt lat="46.87532" lon="-1.07565">
        <ele>83</ele>
        <time>2021-03-07T09:32:55Z</time>
      </trkpt>
      <trkpt lat="46.87541" lon="-1.07483">
        <ele>83</ele>
        <time>2021-03-07T09:33:05Z</time>
      </trkpt>
      <trkpt lat="46.87558" lon="-1.07329">
        <ele>82</ele>
        <time>2021-03-07T09:33:24Z</time>
      </trkpt>
      <trkpt lat="46.8756" lon="-1.0729">
        <ele>82</ele>
        <time>2021-03-07T09:33:29Z</time>
      </trkpt>
      <trkpt lat="46.87559" lon="-1.07226">
        <ele>83</ele>
        <time>2021-03-07T09:33:37Z</time>
      </trkpt>
      <trkpt lat="46.87537" lon="-1.06919">
        <ele>84</ele>
        <time>2021-03-07T09:34:14Z</time>
      </trkpt>
      <trkpt lat="46.87529" lon="-1.06849">
        <ele>85</ele>
        <time>2021-03-07T09:34:23Z</time>
      </trkpt>
      <trkpt lat="46.87492" lon="-1.06599">
        <ele>86</ele>
        <time>2021-03-07T09:34:54Z</time>
      </trkpt>
      <trkpt lat="46.87491" lon="-1.06575">
        <ele>86</ele>
        <time>2021-03-07T09:34:57Z</time>
      </trkpt>
      <trkpt lat="46.87491" lon="-1.06556">
        <ele>86</ele>
        <time>2021-03-07T09:34:59Z</time>
      </trkpt>
      <trkpt lat="46.87494" lon="-1.06506">
        <ele>85</ele>
        <time>2021-03-07T09:35:05Z</time>
      </trkpt>
      <trkpt lat="46.87509" lon="-1.06371">
        <ele>85</ele>
        <time>2021-03-07T09:35:22Z</time>
      </trkpt>
      <trkpt lat="46.87572" lon="-1.06006">
        <ele>85</ele>
        <time>2021-03-07T09:36:08Z</time>
      </trkpt>
      <trkpt lat="46.87586" lon="-1.05927">
        <ele>86</ele>
        <time>2021-03-07T09:36:18Z</time>
      </trkpt>
      <trkpt lat="46.876" lon="-1.05841">
        <ele>85</ele>
        <time>2021-03-07T09:36:28Z</time>
      </trkpt>
      <trkpt lat="46.87632" lon="-1.05667">
        <ele>87</ele>
        <time>2021-03-07T09:36:50Z</time>
      </trkpt>
      <trkpt lat="46.87664" lon="-1.055">
        <ele>85</ele>
        <time>2021-03-07T09:37:11Z</time>
      </trkpt>
      <trkpt lat="46.87672" lon="-1.05447">
        <ele>86</ele>
        <time>2021-03-07T09:37:18Z</time>
      </trkpt>
      <trkpt lat="46.87672" lon="-1.05404">
        <ele>86</ele>
        <time>2021-03-07T09:37:23Z</time>
      </trkpt>
      <trkpt lat="46.87671" lon="-1.05381">
        <ele>86</ele>
        <time>2021-03-07T09:37:26Z</time>
      </trkpt>
      <trkpt lat="46.87667" lon="-1.05353">
        <ele>87</ele>
        <time>2021-03-07T09:37:30Z</time>
      </trkpt>
      <trkpt lat="46.87647" lon="-1.05234">
        <ele>87</ele>
        <time>2021-03-07T09:37:44Z</time>
      </trkpt>
      <trkpt lat="46.87636" lon="-1.05182">
        <ele>87</ele>
        <time>2021-03-07T09:37:51Z</time>
      </trkpt>
      <trkpt lat="46.87629" lon="-1.05157">
        <ele>87</ele>
        <time>2021-03-07T09:37:54Z</time>
      </trkpt>
      <trkpt lat="46.87618" lon="-1.05124">
        <ele>87</ele>
        <time>2021-03-07T09:37:59Z</time>
      </trkpt>
      <trkpt lat="46.87599" lon="-1.05073">
        <ele>87</ele>
        <time>2021-03-07T09:38:06Z</time>
      </trkpt>
      <trkpt lat="46.8755" lon="-1.04952">
        <ele>88</ele>
        <time>2021-03-07T09:38:23Z</time>
      </trkpt>
      <trkpt lat="46.87468" lon="-1.04757">
        <ele>90</ele>
        <time>2021-03-07T09:38:51Z</time>
      </trkpt>
      <trkpt lat="46.87458" lon="-1.04734">
        <ele>90</ele>
        <time>2021-03-07T09:38:54Z</time>
      </trkpt>
      <trkpt lat="46.87377" lon="-1.04539">
        <ele>88</ele>
        <time>2021-03-07T09:39:22Z</time>
      </trkpt>
      <trkpt lat="46.87363" lon="-1.04508">
        <ele>89</ele>
        <time>2021-03-07T09:39:26Z</time>
      </trkpt>
      <trkpt lat="46.87276" lon="-1.04301">
        <ele>88</ele>
        <time>2021-03-07T09:39:56Z</time>
      </trkpt>
      <trkpt lat="46.8725" lon="-1.04236">
        <ele>88</ele>
        <time>2021-03-07T09:40:05Z</time>
      </trkpt>
      <trkpt lat="46.87239" lon="-1.04208">
        <ele>89</ele>
        <time>2021-03-07T09:40:09Z</time>
      </trkpt>
      <trkpt lat="46.87221" lon="-1.04151">
        <ele>91</ele>
        <time>2021-03-07T09:40:17Z</time>
      </trkpt>
      <trkpt lat="46.87213" lon="-1.04106">
        <ele>92</ele>
        <time>2021-03-07T09:40:22Z</time>
      </trkpt>
      <trkpt lat="46.87206" lon="-1.04041">
        <ele>92</ele>
        <time>2021-03-07T09:40:30Z</time>
      </trkpt>
      <trkpt lat="46.872" lon="-1.04009">
        <ele>92</ele>
        <time>2021-03-07T09:40:34Z</time>
      </trkpt>
      <trkpt lat="46.87195" lon="-1.03981">
        <ele>92</ele>
        <time>2021-03-07T09:40:38Z</time>
      </trkpt>
      <trkpt lat="46.87181" lon="-1.03922">
        <ele>92</ele>
        <time>2021-03-07T09:40:46Z</time>
      </trkpt>
      <trkpt lat="46.8717" lon="-1.03886">
        <ele>91</ele>
        <time>2021-03-07T09:40:50Z</time>
      </trkpt>
      <trkpt lat="46.87147" lon="-1.03837">
        <ele>90</ele>
        <time>2021-03-07T09:40:58Z</time>
      </trkpt>
      <trkpt lat="46.87136" lon="-1.03817">
        <ele>90</ele>
        <time>2021-03-07T09:41:01Z</time>
      </trkpt>
      <trkpt lat="46.8713" lon="-1.03822">
        <ele>90</ele>
        <time>2021-03-07T09:41:02Z</time>
      </trkpt>
      <trkpt lat="46.87123" lon="-1.03821">
        <ele>91</ele>
        <time>2021-03-07T09:41:03Z</time>
      </trkpt>
      <trkpt lat="46.87117" lon="-1.03817">
        <ele>91</ele>
        <time>2021-03-07T09:41:04Z</time>
      </trkpt>
      <trkpt lat="46.87113" lon="-1.0381">
        <ele>91</ele>
        <time>2021-03-07T09:41:05Z</time>
      </trkpt>
      <trkpt lat="46.87112" lon="-1.03802">
        <ele>91</ele>
        <time>2021-03-07T09:41:06Z</time>
      </trkpt>
      <trkpt lat="46.87112" lon="-1.03796">
        <ele>91</ele>
        <time>2021-03-07T09:41:07Z</time>
      </trkpt>
      <trkpt lat="46.87115" lon="-1.03787">
        <ele>91</ele>
        <time>2021-03-07T09:41:08Z</time>
      </trkpt>
      <trkpt lat="46.87121" lon="-1.03781">
        <ele>91</ele>
        <time>2021-03-07T09:41:10Z</time>
      </trkpt>
      <trkpt lat="46.87126" lon="-1.03779">
        <ele>90</ele>
        <time>2021-03-07T09:41:11Z</time>
      </trkpt>
      <trkpt lat="46.87124" lon="-1.03761">
        <ele>91</ele>
        <time>2021-03-07T09:41:13Z</time>
      </trkpt>
      <trkpt lat="46.87117" lon="-1.03691">
        <ele>91</ele>
        <time>2021-03-07T09:41:21Z</time>
      </trkpt>
      <trkpt lat="46.87116" lon="-1.03652">
        <ele>91</ele>
        <time>2021-03-07T09:41:26Z</time>
      </trkpt>
      <trkpt lat="46.87118" lon="-1.03635">
        <ele>91</ele>
        <time>2021-03-07T09:41:28Z</time>
      </trkpt>
      <trkpt lat="46.87124" lon="-1.03601">
        <ele>91</ele>
        <time>2021-03-07T09:41:33Z</time>
      </trkpt>
      <trkpt lat="46.87167" lon="-1.03443">
        <ele>91</ele>
        <time>2021-03-07T09:41:53Z</time>
      </trkpt>
      <trkpt lat="46.87176" lon="-1.03388">
        <ele>91</ele>
        <time>2021-03-07T09:42:00Z</time>
      </trkpt>
      <trkpt lat="46.8718" lon="-1.03336">
        <ele>91</ele>
        <time>2021-03-07T09:42:06Z</time>
      </trkpt>
      <trkpt lat="46.87181" lon="-1.03298">
        <ele>90</ele>
        <time>2021-03-07T09:42:11Z</time>
      </trkpt>
      <trkpt lat="46.8718" lon="-1.03261">
        <ele>90</ele>
        <time>2021-03-07T09:42:16Z</time>
      </trkpt>
      <trkpt lat="46.87164" lon="-1.03081">
        <ele>91</ele>
        <time>2021-03-07T09:42:38Z</time>
      </trkpt>
      <trkpt lat="46.87162" lon="-1.03065">
        <ele>91</ele>
        <time>2021-03-07T09:42:40Z</time>
      </trkpt>
      <trkpt lat="46.8716" lon="-1.03047">
        <ele>92</ele>
        <time>2021-03-07T09:42:42Z</time>
      </trkpt>
      <trkpt lat="46.87159" lon="-1.0303">
        <ele>92</ele>
        <time>2021-03-07T09:42:44Z</time>
      </trkpt>
      <trkpt lat="46.87156" lon="-1.02991">
        <ele>92</ele>
        <time>2021-03-07T09:42:49Z</time>
      </trkpt>
      <trkpt lat="46.87152" lon="-1.0295">
        <ele>93</ele>
        <time>2021-03-07T09:42:54Z</time>
      </trkpt>
      <trkpt lat="46.8715" lon="-1.02876">
        <ele>94</ele>
        <time>2021-03-07T09:43:03Z</time>
      </trkpt>
      <trkpt lat="46.87151" lon="-1.02839">
        <ele>94</ele>
        <time>2021-03-07T09:43:07Z</time>
      </trkpt>
      <trkpt lat="46.87149" lon="-1.0276">
        <ele>95</ele>
        <time>2021-03-07T09:43:17Z</time>
      </trkpt>
      <trkpt lat="46.87147" lon="-1.02752">
        <ele>95</ele>
        <time>2021-03-07T09:43:18Z</time>
      </trkpt>
      <trkpt lat="46.87144" lon="-1.02741">
        <ele>95</ele>
        <time>2021-03-07T09:43:19Z</time>
      </trkpt>
      <trkpt lat="46.8714" lon="-1.02736">
        <ele>96</ele>
        <time>2021-03-07T09:43:20Z</time>
      </trkpt>
      <trkpt lat="46.87135" lon="-1.02727">
        <ele>96</ele>
        <time>2021-03-07T09:43:22Z</time>
      </trkpt>
      <trkpt lat="46.87133" lon="-1.02717">
        <ele>96</ele>
        <time>2021-03-07T09:43:23Z</time>
      </trkpt>
      <trkpt lat="46.87135" lon="-1.02699">
        <ele>97</ele>
        <time>2021-03-07T09:43:25Z</time>
      </trkpt>
      <trkpt lat="46.87135" lon="-1.02683">
        <ele>98</ele>
        <time>2021-03-07T09:43:27Z</time>
      </trkpt>
      <trkpt lat="46.87133" lon="-1.02668">
        <ele>98</ele>
        <time>2021-03-07T09:43:29Z</time>
      </trkpt>
      <trkpt lat="46.87116" lon="-1.02635">
        <ele>99</ele>
        <time>2021-03-07T09:43:34Z</time>
      </trkpt>
      <trkpt lat="46.87103" lon="-1.0259">
        <ele>100</ele>
        <time>2021-03-07T09:43:40Z</time>
      </trkpt>
      <trkpt lat="46.87086" lon="-1.02543">
        <ele>101</ele>
        <time>2021-03-07T09:43:46Z</time>
      </trkpt>
      <trkpt lat="46.87055" lon="-1.02469">
        <ele>102</ele>
        <time>2021-03-07T09:43:57Z</time>
      </trkpt>
      <trkpt lat="46.87043" lon="-1.02436">
        <ele>103</ele>
        <time>2021-03-07T09:44:02Z</time>
      </trkpt>
      <trkpt lat="46.8703" lon="-1.02394">
        <ele>104</ele>
        <time>2021-03-07T09:44:07Z</time>
      </trkpt>
      <trkpt lat="46.87013" lon="-1.02291">
        <ele>105</ele>
        <time>2021-03-07T09:44:20Z</time>
      </trkpt>
      <trkpt lat="46.87008" lon="-1.02248">
        <ele>106</ele>
        <time>2021-03-07T09:44:25Z</time>
      </trkpt>
      <trkpt lat="46.87006" lon="-1.02202">
        <ele>106</ele>
        <time>2021-03-07T09:44:31Z</time>
      </trkpt>
      <trkpt lat="46.8701" lon="-1.02108">
        <ele>107</ele>
        <time>2021-03-07T09:44:42Z</time>
      </trkpt>
      <trkpt lat="46.87006" lon="-1.021">
        <ele>107</ele>
        <time>2021-03-07T09:44:44Z</time>
      </trkpt>
      <trkpt lat="46.87003" lon="-1.02097">
        <ele>107</ele>
        <time>2021-03-07T09:44:44Z</time>
      </trkpt>
      <trkpt lat="46.87011" lon="-1.02077">
        <ele>107</ele>
        <time>2021-03-07T09:44:47Z</time>
      </trkpt>
      <trkpt lat="46.87014" lon="-1.02069">
        <ele>108</ele>
        <time>2021-03-07T09:44:48Z</time>
      </trkpt>
      <trkpt lat="46.87023" lon="-1.0204">
        <ele>108</ele>
        <time>2021-03-07T09:44:52Z</time>
      </trkpt>
      <trkpt lat="46.87026" lon="-1.02023">
        <ele>108</ele>
        <time>2021-03-07T09:44:54Z</time>
      </trkpt>
      <trkpt lat="46.87032" lon="-1.01978">
        <ele>109</ele>
        <time>2021-03-07T09:45:00Z</time>
      </trkpt>
      <trkpt lat="46.87034" lon="-1.01962">
        <ele>109</ele>
        <time>2021-03-07T09:45:02Z</time>
      </trkpt>
      <trkpt lat="46.87035" lon="-1.01958">
        <ele>109</ele>
        <time>2021-03-07T09:45:02Z</time>
      </trkpt>
      <trkpt lat="46.87038" lon="-1.01927">
        <ele>108</ele>
        <time>2021-03-07T09:45:06Z</time>
      </trkpt>
      <trkpt lat="46.87048" lon="-1.01869">
        <ele>109</ele>
        <time>2021-03-07T09:45:13Z</time>
      </trkpt>
      <trkpt lat="46.87051" lon="-1.01862">
        <ele>110</ele>
        <time>2021-03-07T09:45:14Z</time>
      </trkpt>
      <trkpt lat="46.87071" lon="-1.01733">
        <ele>110</ele>
        <time>2021-03-07T09:45:30Z</time>
      </trkpt>
      <trkpt lat="46.87071" lon="-1.01729">
        <ele>110</ele>
        <time>2021-03-07T09:45:31Z</time>
      </trkpt>
      <trkpt lat="46.87074" lon="-1.01716">
        <ele>110</ele>
        <time>2021-03-07T09:45:33Z</time>
      </trkpt>
      <trkpt lat="46.87075" lon="-1.01712">
        <ele>110</ele>
        <time>2021-03-07T09:45:33Z</time>
      </trkpt>
      <trkpt lat="46.87074" lon="-1.01711">
        <ele>110</ele>
        <time>2021-03-07T09:45:33Z</time>
      </trkpt>
      <trkpt lat="46.87073" lon="-1.01709">
        <ele>110</ele>
        <time>2021-03-07T09:45:34Z</time>
      </trkpt>
      <trkpt lat="46.87072" lon="-1.01708">
        <ele>110</ele>
        <time>2021-03-07T09:45:34Z</time>
      </trkpt>
      <trkpt lat="46.87073" lon="-1.01702">
        <ele>110</ele>
        <time>2021-03-07T09:45:35Z</time>
      </trkpt>
      <trkpt lat="46.87076" lon="-1.017">
        <ele>110</ele>
        <time>2021-03-07T09:45:35Z</time>
      </trkpt>
      <trkpt lat="46.87077" lon="-1.017">
        <ele>110</ele>
        <time>2021-03-07T09:45:35Z</time>
      </trkpt>
      <trkpt lat="46.87078" lon="-1.01697">
        <ele>111</ele>
        <time>2021-03-07T09:45:36Z</time>
      </trkpt>
      <trkpt lat="46.87079" lon="-1.01691">
        <ele>111</ele>
        <time>2021-03-07T09:45:37Z</time>
      </trkpt>
      <trkpt lat="46.87084" lon="-1.01655">
        <ele>111</ele>
        <time>2021-03-07T09:45:41Z</time>
      </trkpt>
      <trkpt lat="46.87085" lon="-1.01651">
        <ele>111</ele>
        <time>2021-03-07T09:45:41Z</time>
      </trkpt>
      <trkpt lat="46.87099" lon="-1.01567">
        <ele>109</ele>
        <time>2021-03-07T09:45:52Z</time>
      </trkpt>
      <trkpt lat="46.87101" lon="-1.01562">
        <ele>109</ele>
        <time>2021-03-07T09:45:53Z</time>
      </trkpt>
      <trkpt lat="46.87106" lon="-1.01535">
        <ele>108</ele>
        <time>2021-03-07T09:45:56Z</time>
      </trkpt>
      <trkpt lat="46.8711" lon="-1.01477">
        <ele>108</ele>
        <time>2021-03-07T09:46:03Z</time>
      </trkpt>
      <trkpt lat="46.87112" lon="-1.01429">
        <ele>107</ele>
        <time>2021-03-07T09:46:09Z</time>
      </trkpt>
      <trkpt lat="46.87115" lon="-1.0134">
        <ele>108</ele>
        <time>2021-03-07T09:46:20Z</time>
      </trkpt>
      <trkpt lat="46.87116" lon="-1.01319">
        <ele>108</ele>
        <time>2021-03-07T09:46:22Z</time>
      </trkpt>
      <trkpt lat="46.87114" lon="-1.01307">
        <ele>108</ele>
        <time>2021-03-07T09:46:24Z</time>
      </trkpt>
      <trkpt lat="46.87064" lon="-1.01137">
        <ele>103</ele>
        <time>2021-03-07T09:46:46Z</time>
      </trkpt>
      <trkpt lat="46.8704" lon="-1.0106">
        <ele>102</ele>
        <time>2021-03-07T09:46:57Z</time>
      </trkpt>
      <trkpt lat="46.8701" lon="-1.00954">
        <ele>102</ele>
        <time>2021-03-07T09:47:11Z</time>
      </trkpt>
      <trkpt lat="46.87006" lon="-1.00942">
        <ele>102</ele>
        <time>2021-03-07T09:47:12Z</time>
      </trkpt>
      <trkpt lat="46.87001" lon="-1.00935">
        <ele>103</ele>
        <time>2021-03-07T09:47:14Z</time>
      </trkpt>
      <trkpt lat="46.87" lon="-1.00936">
        <ele>103</ele>
        <time>2021-03-07T09:47:14Z</time>
      </trkpt>
      <trkpt lat="46.86997" lon="-1.00935">
        <ele>103</ele>
        <time>2021-03-07T09:47:14Z</time>
      </trkpt>
      <trkpt lat="46.86996" lon="-1.00934">
        <ele>103</ele>
        <time>2021-03-07T09:47:15Z</time>
      </trkpt>
      <trkpt lat="46.86996" lon="-1.00932">
        <ele>103</ele>
        <time>2021-03-07T09:47:15Z</time>
      </trkpt>
      <trkpt lat="46.86997" lon="-1.00925">
        <ele>103</ele>
        <time>2021-03-07T09:47:16Z</time>
      </trkpt>
      <trkpt lat="46.86998" lon="-1.00924">
        <ele>103</ele>
        <time>2021-03-07T09:47:16Z</time>
      </trkpt>
      <trkpt lat="46.86999" lon="-1.00914">
        <ele>103</ele>
        <time>2021-03-07T09:47:17Z</time>
      </trkpt>
      <trkpt lat="46.86993" lon="-1.00891">
        <ele>104</ele>
        <time>2021-03-07T09:47:20Z</time>
      </trkpt>
      <trkpt lat="46.8699" lon="-1.00881">
        <ele>104</ele>
        <time>2021-03-07T09:47:21Z</time>
      </trkpt>
      <trkpt lat="46.86983" lon="-1.00859">
        <ele>105</ele>
        <time>2021-03-07T09:47:24Z</time>
      </trkpt>
      <trkpt lat="46.86962" lon="-1.00754">
        <ele>106</ele>
        <time>2021-03-07T09:47:38Z</time>
      </trkpt>
      <trkpt lat="46.86951" lon="-1.00682">
        <ele>108</ele>
        <time>2021-03-07T09:47:47Z</time>
      </trkpt>
      <trkpt lat="46.86947" lon="-1.00665">
        <ele>109</ele>
        <time>2021-03-07T09:47:49Z</time>
      </trkpt>
      <trkpt lat="46.86853" lon="-1.00633">
        <ele>112</ele>
        <time>2021-03-07T09:48:06Z</time>
      </trkpt>
      <trkpt lat="46.86836" lon="-1.00634">
        <ele>112</ele>
        <time>2021-03-07T09:48:09Z</time>
      </trkpt>
      <trkpt lat="46.86765" lon="-1.00654">
        <ele>111</ele>
        <time>2021-03-07T09:48:22Z</time>
      </trkpt>
      <trkpt lat="46.86714" lon="-1.00674">
        <ele>111</ele>
        <time>2021-03-07T09:48:31Z</time>
      </trkpt>
      <trkpt lat="46.86712" lon="-1.00666">
        <ele>111</ele>
        <time>2021-03-07T09:48:32Z</time>
      </trkpt>
      <trkpt lat="46.86708" lon="-1.0066">
        <ele>111</ele>
        <time>2021-03-07T09:48:33Z</time>
      </trkpt>
      <trkpt lat="46.86664" lon="-1.00646">
        <ele>111</ele>
        <time>2021-03-07T09:48:41Z</time>
      </trkpt>
      <trkpt lat="46.86595" lon="-1.00621">
        <ele>116</ele>
        <time>2021-03-07T09:48:54Z</time>
      </trkpt>
      <trkpt lat="46.86573" lon="-1.00609">
        <ele>117</ele>
        <time>2021-03-07T09:48:58Z</time>
      </trkpt>
      <trkpt lat="46.86556" lon="-1.00597">
        <ele>117</ele>
        <time>2021-03-07T09:49:02Z</time>
      </trkpt>
      <trkpt lat="46.86523" lon="-1.00577">
        <ele>118</ele>
        <time>2021-03-07T09:49:08Z</time>
      </trkpt>
      <trkpt lat="46.86488" lon="-1.00565">
        <ele>119</ele>
        <time>2021-03-07T09:49:14Z</time>
      </trkpt>
      <trkpt lat="46.86461" lon="-1.00561">
        <ele>120</ele>
        <time>2021-03-07T09:49:19Z</time>
      </trkpt>
      <trkpt lat="46.86426" lon="-1.00564">
        <ele>120</ele>
        <time>2021-03-07T09:49:25Z</time>
      </trkpt>
      <trkpt lat="46.86391" lon="-1.00556">
        <ele>120</ele>
        <time>2021-03-07T09:49:32Z</time>
      </trkpt>
      <trkpt lat="46.86382" lon="-1.00562">
        <ele>120</ele>
        <time>2021-03-07T09:49:33Z</time>
      </trkpt>
    </trkseg>
  </trk>
</gpx>